<?xml version="1.0" encoding="utf-8"?>
<gpx xmlns:xsi="http://www.w3.org/2001/XMLSchema-instance" xmlns:xsd="http://www.w3.org/2001/XMLSchema" version="1.1" creator="Shapelink.com" xmlns="http://www.topografix.com/GPX/1/1" xmlns:gpxtpx="http://www.garmin.com/xmlschemas/TrackPointExtension/v1">
  <metadata>
    <name>Sykling 27.00 km, 2013-03-17</name>
    <desc></desc>
    <author><name>Mikael Blom</name></author> 
    <time>2013-03-17T10:40:26Z</time>
  </metadata>
  <trk>
    <name>Sykling 27.00 km, 2013-03-17</name>
    <trkseg>
      <trkpt lat="59.9786917" lon="17.739302">
        <ele>51.0872</ele>
        <time>2013-03-17T10:40:26Z</time>
      </trkpt>
      <trkpt lat="59.9786626" lon="17.7393008">
        <ele>54.9324</ele>
        <time>2013-03-17T10:40:27Z</time>
      </trkpt>
      <trkpt lat="59.9786391" lon="17.7393076">
        <ele>61.6617</ele>
        <time>2013-03-17T10:40:28Z</time>
      </trkpt>
      <trkpt lat="59.9786118" lon="17.7393025">
        <ele>62.6229</ele>
        <time>2013-03-17T10:40:29Z</time>
      </trkpt>
      <trkpt lat="59.9785729" lon="17.7392937">
        <ele>62.6229</ele>
        <time>2013-03-17T10:40:30Z</time>
      </trkpt>
      <trkpt lat="59.9785301" lon="17.7392817">
        <ele>61.6617</ele>
        <time>2013-03-17T10:40:31Z</time>
      </trkpt>
      <trkpt lat="59.9784543" lon="17.7392365">
        <ele>56.8551</ele>
        <time>2013-03-17T10:40:32Z</time>
      </trkpt>
      <trkpt lat="59.9783973" lon="17.7392036">
        <ele>53.9712</ele>
        <time>2013-03-17T10:40:33Z</time>
      </trkpt>
      <trkpt lat="59.978347" lon="17.7391797">
        <ele>51.5679</ele>
        <time>2013-03-17T10:40:34Z</time>
      </trkpt>
      <trkpt lat="59.9783036" lon="17.7391575">
        <ele>50.126</ele>
        <time>2013-03-17T10:40:35Z</time>
      </trkpt>
      <trkpt lat="59.978263" lon="17.7391383">
        <ele>50.6066</ele>
        <time>2013-03-17T10:40:36Z</time>
      </trkpt>
      <trkpt lat="59.9782213" lon="17.7391202">
        <ele>50.126</ele>
        <time>2013-03-17T10:40:37Z</time>
      </trkpt>
      <trkpt lat="59.9781746" lon="17.739102">
        <ele>49.1646</ele>
        <time>2013-03-17T10:40:38Z</time>
      </trkpt>
      <trkpt lat="59.9781253" lon="17.739083">
        <ele>48.2034</ele>
        <time>2013-03-17T10:40:39Z</time>
      </trkpt>
      <trkpt lat="59.978084" lon="17.7390571">
        <ele>47.7225</ele>
        <time>2013-03-17T10:40:40Z</time>
      </trkpt>
      <trkpt lat="59.9780392" lon="17.7390311">
        <ele>47.7225</ele>
        <time>2013-03-17T10:40:41Z</time>
      </trkpt>
      <trkpt lat="59.9779926" lon="17.7390053">
        <ele>47.2418</ele>
        <time>2013-03-17T10:40:42Z</time>
      </trkpt>
      <trkpt lat="59.9779449" lon="17.7389804">
        <ele>47.2418</ele>
        <time>2013-03-17T10:40:43Z</time>
      </trkpt>
      <trkpt lat="59.9778975" lon="17.7389597">
        <ele>46.7612</ele>
        <time>2013-03-17T10:40:44Z</time>
      </trkpt>
      <trkpt lat="59.9778498" lon="17.7389426">
        <ele>46.2806</ele>
        <time>2013-03-17T10:40:45Z</time>
      </trkpt>
      <trkpt lat="59.977801" lon="17.7389283">
        <ele>45.7999</ele>
        <time>2013-03-17T10:40:46Z</time>
      </trkpt>
      <trkpt lat="59.9777514" lon="17.7389161">
        <ele>45.3192</ele>
        <time>2013-03-17T10:40:47Z</time>
      </trkpt>
      <trkpt lat="59.9777004" lon="17.7389077">
        <ele>44.8386</ele>
        <time>2013-03-17T10:40:48Z</time>
      </trkpt>
      <trkpt lat="59.9776474" lon="17.7389041">
        <ele>44.358</ele>
        <time>2013-03-17T10:40:49Z</time>
      </trkpt>
      <trkpt lat="59.9775922" lon="17.7389078">
        <ele>43.3966</ele>
        <time>2013-03-17T10:40:50Z</time>
      </trkpt>
      <trkpt lat="59.9775354" lon="17.7389174">
        <ele>42.916</ele>
        <time>2013-03-17T10:40:51Z</time>
      </trkpt>
      <trkpt lat="59.9774763" lon="17.7389311">
        <ele>41.9547</ele>
        <time>2013-03-17T10:40:52Z</time>
      </trkpt>
      <trkpt lat="59.9774224" lon="17.7389513">
        <ele>41.9547</ele>
        <time>2013-03-17T10:40:53Z</time>
      </trkpt>
      <trkpt lat="59.9773788" lon="17.7389776">
        <ele>40.0321</ele>
        <time>2013-03-17T10:40:54Z</time>
      </trkpt>
      <trkpt lat="59.9773302" lon="17.7390109">
        <ele>39.0707</ele>
        <time>2013-03-17T10:40:55Z</time>
      </trkpt>
      <trkpt lat="59.9772768" lon="17.7390466">
        <ele>38.1094</ele>
        <time>2013-03-17T10:40:56Z</time>
      </trkpt>
      <trkpt lat="59.9772216" lon="17.739076">
        <ele>37.6287</ele>
        <time>2013-03-17T10:40:57Z</time>
      </trkpt>
      <trkpt lat="59.9771658" lon="17.7391058">
        <ele>36.6675</ele>
        <time>2013-03-17T10:40:58Z</time>
      </trkpt>
      <trkpt lat="59.9771094" lon="17.7391388">
        <ele>36.1868</ele>
        <time>2013-03-17T10:40:59Z</time>
      </trkpt>
      <trkpt lat="59.9770475" lon="17.7391721">
        <ele>36.1868</ele>
        <time>2013-03-17T10:41:00Z</time>
      </trkpt>
      <trkpt lat="59.9769842" lon="17.7392014">
        <ele>35.2255</ele>
        <time>2013-03-17T10:41:01Z</time>
      </trkpt>
      <trkpt lat="59.9769204" lon="17.7392282">
        <ele>34.7449</ele>
        <time>2013-03-17T10:41:02Z</time>
      </trkpt>
      <trkpt lat="59.9768571" lon="17.7392562">
        <ele>34.2642</ele>
        <time>2013-03-17T10:41:03Z</time>
      </trkpt>
      <trkpt lat="59.9767946" lon="17.739288">
        <ele>33.3029</ele>
        <time>2013-03-17T10:41:04Z</time>
      </trkpt>
      <trkpt lat="59.9767333" lon="17.7393266">
        <ele>32.8223</ele>
        <time>2013-03-17T10:41:05Z</time>
      </trkpt>
      <trkpt lat="59.9766702" lon="17.739374">
        <ele>32.3416</ele>
        <time>2013-03-17T10:41:06Z</time>
      </trkpt>
      <trkpt lat="59.9766088" lon="17.739431">
        <ele>31.8607</ele>
        <time>2013-03-17T10:41:07Z</time>
      </trkpt>
      <trkpt lat="59.9765539" lon="17.7395009">
        <ele>31.3801</ele>
        <time>2013-03-17T10:41:08Z</time>
      </trkpt>
      <trkpt lat="59.9765087" lon="17.7395791">
        <ele>29.9381</ele>
        <time>2013-03-17T10:41:09Z</time>
      </trkpt>
      <trkpt lat="59.9764604" lon="17.7396531">
        <ele>29.4575</ele>
        <time>2013-03-17T10:41:10Z</time>
      </trkpt>
      <trkpt lat="59.9764102" lon="17.7397089">
        <ele>28.4962</ele>
        <time>2013-03-17T10:41:11Z</time>
      </trkpt>
      <trkpt lat="59.976359" lon="17.7397376">
        <ele>27.5349</ele>
        <time>2013-03-17T10:41:12Z</time>
      </trkpt>
      <trkpt lat="59.9763091" lon="17.7397331">
        <ele>27.0543</ele>
        <time>2013-03-17T10:41:13Z</time>
      </trkpt>
      <trkpt lat="59.9762601" lon="17.7396862">
        <ele>26.5736</ele>
        <time>2013-03-17T10:41:14Z</time>
      </trkpt>
      <trkpt lat="59.9762086" lon="17.7395974">
        <ele>26.0929</ele>
        <time>2013-03-17T10:41:15Z</time>
      </trkpt>
      <trkpt lat="59.9761564" lon="17.739495">
        <ele>25.6123</ele>
        <time>2013-03-17T10:41:16Z</time>
      </trkpt>
      <trkpt lat="59.9761011" lon="17.7393854">
        <ele>25.1317</ele>
        <time>2013-03-17T10:41:17Z</time>
      </trkpt>
      <trkpt lat="59.976042" lon="17.7392735">
        <ele>24.651</ele>
        <time>2013-03-17T10:41:18Z</time>
      </trkpt>
      <trkpt lat="59.9759793" lon="17.7391626">
        <ele>24.651</ele>
        <time>2013-03-17T10:41:19Z</time>
      </trkpt>
      <trkpt lat="59.9759151" lon="17.7390518">
        <ele>24.1703</ele>
        <time>2013-03-17T10:41:20Z</time>
      </trkpt>
      <trkpt lat="59.9758511" lon="17.7389397">
        <ele>24.1703</ele>
        <time>2013-03-17T10:41:21Z</time>
      </trkpt>
      <trkpt lat="59.9757874" lon="17.7388257">
        <ele>23.6896</ele>
        <time>2013-03-17T10:41:22Z</time>
      </trkpt>
      <trkpt lat="59.9757237" lon="17.7387114">
        <ele>23.6896</ele>
        <time>2013-03-17T10:41:23Z</time>
      </trkpt>
      <trkpt lat="59.9756601" lon="17.7385979">
        <ele>23.6896</ele>
        <time>2013-03-17T10:41:24Z</time>
      </trkpt>
      <trkpt lat="59.9755968" lon="17.7384859">
        <ele>23.209</ele>
        <time>2013-03-17T10:41:25Z</time>
      </trkpt>
      <trkpt lat="59.9755331" lon="17.7383768">
        <ele>23.209</ele>
        <time>2013-03-17T10:41:26Z</time>
      </trkpt>
      <trkpt lat="59.97547" lon="17.7382706">
        <ele>23.209</ele>
        <time>2013-03-17T10:41:27Z</time>
      </trkpt>
      <trkpt lat="59.9754078" lon="17.7381655">
        <ele>23.209</ele>
        <time>2013-03-17T10:41:28Z</time>
      </trkpt>
      <trkpt lat="59.9753478" lon="17.7380603">
        <ele>23.209</ele>
        <time>2013-03-17T10:41:29Z</time>
      </trkpt>
      <trkpt lat="59.9752902" lon="17.7379575">
        <ele>23.209</ele>
        <time>2013-03-17T10:41:30Z</time>
      </trkpt>
      <trkpt lat="59.9752345" lon="17.7378593">
        <ele>23.209</ele>
        <time>2013-03-17T10:41:31Z</time>
      </trkpt>
      <trkpt lat="59.9751787" lon="17.7377633">
        <ele>22.7283</ele>
        <time>2013-03-17T10:41:32Z</time>
      </trkpt>
      <trkpt lat="59.9751252" lon="17.7376671">
        <ele>22.2476</ele>
        <time>2013-03-17T10:41:33Z</time>
      </trkpt>
      <trkpt lat="59.9750747" lon="17.7375696">
        <ele>22.2476</ele>
        <time>2013-03-17T10:41:34Z</time>
      </trkpt>
      <trkpt lat="59.9750264" lon="17.7374703">
        <ele>21.767</ele>
        <time>2013-03-17T10:41:35Z</time>
      </trkpt>
      <trkpt lat="59.9749791" lon="17.7373714">
        <ele>21.2864</ele>
        <time>2013-03-17T10:41:36Z</time>
      </trkpt>
      <trkpt lat="59.9749324" lon="17.7372728">
        <ele>21.2864</ele>
        <time>2013-03-17T10:41:37Z</time>
      </trkpt>
      <trkpt lat="59.9748869" lon="17.7371729">
        <ele>20.8057</ele>
        <time>2013-03-17T10:41:38Z</time>
      </trkpt>
      <trkpt lat="59.9748428" lon="17.7370715">
        <ele>20.8057</ele>
        <time>2013-03-17T10:41:39Z</time>
      </trkpt>
      <trkpt lat="59.9748007" lon="17.7369685">
        <ele>20.325</ele>
        <time>2013-03-17T10:41:40Z</time>
      </trkpt>
      <trkpt lat="59.9747604" lon="17.736864">
        <ele>20.325</ele>
        <time>2013-03-17T10:41:41Z</time>
      </trkpt>
      <trkpt lat="59.9747235" lon="17.7367596">
        <ele>20.325</ele>
        <time>2013-03-17T10:41:42Z</time>
      </trkpt>
      <trkpt lat="59.9746889" lon="17.7366534">
        <ele>20.325</ele>
        <time>2013-03-17T10:41:43Z</time>
      </trkpt>
      <trkpt lat="59.9746583" lon="17.7365462">
        <ele>20.325</ele>
        <time>2013-03-17T10:41:44Z</time>
      </trkpt>
      <trkpt lat="59.9746296" lon="17.7364399">
        <ele>20.8057</ele>
        <time>2013-03-17T10:41:45Z</time>
      </trkpt>
      <trkpt lat="59.9746024" lon="17.7363343">
        <ele>20.8057</ele>
        <time>2013-03-17T10:41:46Z</time>
      </trkpt>
      <trkpt lat="59.9745769" lon="17.7362286">
        <ele>20.8057</ele>
        <time>2013-03-17T10:41:47Z</time>
      </trkpt>
      <trkpt lat="59.9745537" lon="17.7361229">
        <ele>20.8057</ele>
        <time>2013-03-17T10:41:48Z</time>
      </trkpt>
      <trkpt lat="59.974531" lon="17.7360172">
        <ele>20.8057</ele>
        <time>2013-03-17T10:41:49Z</time>
      </trkpt>
      <trkpt lat="59.9745102" lon="17.7359131">
        <ele>20.8057</ele>
        <time>2013-03-17T10:41:50Z</time>
      </trkpt>
      <trkpt lat="59.9744915" lon="17.735806">
        <ele>20.8057</ele>
        <time>2013-03-17T10:41:51Z</time>
      </trkpt>
      <trkpt lat="59.9744742" lon="17.7356971">
        <ele>20.8057</ele>
        <time>2013-03-17T10:41:52Z</time>
      </trkpt>
      <trkpt lat="59.974457" lon="17.7355877">
        <ele>21.2864</ele>
        <time>2013-03-17T10:41:53Z</time>
      </trkpt>
      <trkpt lat="59.9744407" lon="17.735478">
        <ele>21.2864</ele>
        <time>2013-03-17T10:41:54Z</time>
      </trkpt>
      <trkpt lat="59.9744261" lon="17.7353667">
        <ele>21.2864</ele>
        <time>2013-03-17T10:41:55Z</time>
      </trkpt>
      <trkpt lat="59.9744147" lon="17.735253">
        <ele>21.2864</ele>
        <time>2013-03-17T10:41:56Z</time>
      </trkpt>
      <trkpt lat="59.9744055" lon="17.7351375">
        <ele>21.2864</ele>
        <time>2013-03-17T10:41:57Z</time>
      </trkpt>
      <trkpt lat="59.9743976" lon="17.7350202">
        <ele>21.2864</ele>
        <time>2013-03-17T10:41:58Z</time>
      </trkpt>
      <trkpt lat="59.9743947" lon="17.7349076">
        <ele>20.8057</ele>
        <time>2013-03-17T10:41:59Z</time>
      </trkpt>
      <trkpt lat="59.9743903" lon="17.734787">
        <ele>20.8057</ele>
        <time>2013-03-17T10:42:00Z</time>
      </trkpt>
      <trkpt lat="59.974389" lon="17.7346663">
        <ele>20.325</ele>
        <time>2013-03-17T10:42:01Z</time>
      </trkpt>
      <trkpt lat="59.9743844" lon="17.7345436">
        <ele>19.8444</ele>
        <time>2013-03-17T10:42:02Z</time>
      </trkpt>
      <trkpt lat="59.9743817" lon="17.7344218">
        <ele>19.3638</ele>
        <time>2013-03-17T10:42:03Z</time>
      </trkpt>
      <trkpt lat="59.9743792" lon="17.7342992">
        <ele>18.8831</ele>
        <time>2013-03-17T10:42:04Z</time>
      </trkpt>
      <trkpt lat="59.9743786" lon="17.7341774">
        <ele>18.8831</ele>
        <time>2013-03-17T10:42:05Z</time>
      </trkpt>
      <trkpt lat="59.97438" lon="17.7340576">
        <ele>18.4023</ele>
        <time>2013-03-17T10:42:06Z</time>
      </trkpt>
      <trkpt lat="59.9743833" lon="17.733939">
        <ele>17.9218</ele>
        <time>2013-03-17T10:42:07Z</time>
      </trkpt>
      <trkpt lat="59.9743881" lon="17.7338233">
        <ele>17.4412</ele>
        <time>2013-03-17T10:42:08Z</time>
      </trkpt>
      <trkpt lat="59.9743941" lon="17.7337078">
        <ele>16.4797</ele>
        <time>2013-03-17T10:42:09Z</time>
      </trkpt>
      <trkpt lat="59.9744004" lon="17.7335909">
        <ele>15.999</ele>
        <time>2013-03-17T10:42:10Z</time>
      </trkpt>
      <trkpt lat="59.974407" lon="17.7334735">
        <ele>15.0377</ele>
        <time>2013-03-17T10:42:11Z</time>
      </trkpt>
      <trkpt lat="59.9744133" lon="17.7333495">
        <ele>15.0377</ele>
        <time>2013-03-17T10:42:12Z</time>
      </trkpt>
      <trkpt lat="59.974418" lon="17.7332229">
        <ele>15.5184</ele>
        <time>2013-03-17T10:42:13Z</time>
      </trkpt>
      <trkpt lat="59.9744209" lon="17.7331003">
        <ele>15.0377</ele>
        <time>2013-03-17T10:42:14Z</time>
      </trkpt>
      <trkpt lat="59.9744227" lon="17.7329782">
        <ele>15.0377</ele>
        <time>2013-03-17T10:42:15Z</time>
      </trkpt>
      <trkpt lat="59.9744238" lon="17.7328523">
        <ele>15.0377</ele>
        <time>2013-03-17T10:42:16Z</time>
      </trkpt>
      <trkpt lat="59.9744237" lon="17.7327269">
        <ele>15.0377</ele>
        <time>2013-03-17T10:42:17Z</time>
      </trkpt>
      <trkpt lat="59.9744235" lon="17.7326051">
        <ele>15.0377</ele>
        <time>2013-03-17T10:42:18Z</time>
      </trkpt>
      <trkpt lat="59.9744224" lon="17.7324855">
        <ele>14.557</ele>
        <time>2013-03-17T10:42:19Z</time>
      </trkpt>
      <trkpt lat="59.9744201" lon="17.7323654">
        <ele>14.557</ele>
        <time>2013-03-17T10:42:20Z</time>
      </trkpt>
      <trkpt lat="59.9744173" lon="17.7322457">
        <ele>14.557</ele>
        <time>2013-03-17T10:42:21Z</time>
      </trkpt>
      <trkpt lat="59.9744143" lon="17.732128">
        <ele>14.0764</ele>
        <time>2013-03-17T10:42:22Z</time>
      </trkpt>
      <trkpt lat="59.9744131" lon="17.7320121">
        <ele>14.0764</ele>
        <time>2013-03-17T10:42:23Z</time>
      </trkpt>
      <trkpt lat="59.9744133" lon="17.7318975">
        <ele>14.0764</ele>
        <time>2013-03-17T10:42:24Z</time>
      </trkpt>
      <trkpt lat="59.9744132" lon="17.731782">
        <ele>13.5958</ele>
        <time>2013-03-17T10:42:25Z</time>
      </trkpt>
      <trkpt lat="59.9744134" lon="17.731666">
        <ele>13.5958</ele>
        <time>2013-03-17T10:42:26Z</time>
      </trkpt>
      <trkpt lat="59.9744128" lon="17.7315483">
        <ele>13.5958</ele>
        <time>2013-03-17T10:42:27Z</time>
      </trkpt>
      <trkpt lat="59.9744138" lon="17.7314306">
        <ele>13.5958</ele>
        <time>2013-03-17T10:42:28Z</time>
      </trkpt>
      <trkpt lat="59.9744167" lon="17.7313139">
        <ele>13.5958</ele>
        <time>2013-03-17T10:42:29Z</time>
      </trkpt>
      <trkpt lat="59.97442" lon="17.7311972">
        <ele>13.5958</ele>
        <time>2013-03-17T10:42:30Z</time>
      </trkpt>
      <trkpt lat="59.9744242" lon="17.7310807">
        <ele>13.1151</ele>
        <time>2013-03-17T10:42:31Z</time>
      </trkpt>
      <trkpt lat="59.9744294" lon="17.7309645">
        <ele>13.1151</ele>
        <time>2013-03-17T10:42:32Z</time>
      </trkpt>
      <trkpt lat="59.9744356" lon="17.7308491">
        <ele>13.1151</ele>
        <time>2013-03-17T10:42:33Z</time>
      </trkpt>
      <trkpt lat="59.9744429" lon="17.7307332">
        <ele>13.1151</ele>
        <time>2013-03-17T10:42:34Z</time>
      </trkpt>
      <trkpt lat="59.9744511" lon="17.7306175">
        <ele>13.1151</ele>
        <time>2013-03-17T10:42:35Z</time>
      </trkpt>
      <trkpt lat="59.9744593" lon="17.7305025">
        <ele>13.1151</ele>
        <time>2013-03-17T10:42:36Z</time>
      </trkpt>
      <trkpt lat="59.9744677" lon="17.7303886">
        <ele>13.1151</ele>
        <time>2013-03-17T10:42:37Z</time>
      </trkpt>
      <trkpt lat="59.9744763" lon="17.730276">
        <ele>13.5958</ele>
        <time>2013-03-17T10:42:38Z</time>
      </trkpt>
      <trkpt lat="59.9744843" lon="17.7301643">
        <ele>13.5958</ele>
        <time>2013-03-17T10:42:39Z</time>
      </trkpt>
      <trkpt lat="59.9744924" lon="17.7300528">
        <ele>13.5958</ele>
        <time>2013-03-17T10:42:40Z</time>
      </trkpt>
      <trkpt lat="59.9745003" lon="17.7299405">
        <ele>13.5958</ele>
        <time>2013-03-17T10:42:41Z</time>
      </trkpt>
      <trkpt lat="59.9745075" lon="17.7298279">
        <ele>14.0764</ele>
        <time>2013-03-17T10:42:42Z</time>
      </trkpt>
      <trkpt lat="59.9745133" lon="17.7297141">
        <ele>14.0764</ele>
        <time>2013-03-17T10:42:43Z</time>
      </trkpt>
      <trkpt lat="59.9745181" lon="17.7295997">
        <ele>14.0764</ele>
        <time>2013-03-17T10:42:44Z</time>
      </trkpt>
      <trkpt lat="59.9745225" lon="17.7294843">
        <ele>14.0764</ele>
        <time>2013-03-17T10:42:45Z</time>
      </trkpt>
      <trkpt lat="59.9745248" lon="17.7293686">
        <ele>14.0764</ele>
        <time>2013-03-17T10:42:46Z</time>
      </trkpt>
      <trkpt lat="59.9745252" lon="17.7292525">
        <ele>14.0764</ele>
        <time>2013-03-17T10:42:47Z</time>
      </trkpt>
      <trkpt lat="59.9745246" lon="17.7291355">
        <ele>14.0764</ele>
        <time>2013-03-17T10:42:48Z</time>
      </trkpt>
      <trkpt lat="59.9745221" lon="17.729017">
        <ele>14.557</ele>
        <time>2013-03-17T10:42:49Z</time>
      </trkpt>
      <trkpt lat="59.9745193" lon="17.7288976">
        <ele>14.557</ele>
        <time>2013-03-17T10:42:50Z</time>
      </trkpt>
      <trkpt lat="59.974516" lon="17.7287766">
        <ele>14.557</ele>
        <time>2013-03-17T10:42:51Z</time>
      </trkpt>
      <trkpt lat="59.9745131" lon="17.7286551">
        <ele>14.557</ele>
        <time>2013-03-17T10:42:52Z</time>
      </trkpt>
      <trkpt lat="59.9745107" lon="17.7285329">
        <ele>14.557</ele>
        <time>2013-03-17T10:42:53Z</time>
      </trkpt>
      <trkpt lat="59.9745077" lon="17.7284083">
        <ele>14.557</ele>
        <time>2013-03-17T10:42:54Z</time>
      </trkpt>
      <trkpt lat="59.9745045" lon="17.7282812">
        <ele>14.557</ele>
        <time>2013-03-17T10:42:55Z</time>
      </trkpt>
      <trkpt lat="59.974501" lon="17.7281521">
        <ele>14.557</ele>
        <time>2013-03-17T10:42:56Z</time>
      </trkpt>
      <trkpt lat="59.9744973" lon="17.7280228">
        <ele>14.557</ele>
        <time>2013-03-17T10:42:57Z</time>
      </trkpt>
      <trkpt lat="59.9744936" lon="17.727895">
        <ele>15.0377</ele>
        <time>2013-03-17T10:42:58Z</time>
      </trkpt>
      <trkpt lat="59.9744903" lon="17.7277701">
        <ele>15.0377</ele>
        <time>2013-03-17T10:42:59Z</time>
      </trkpt>
      <trkpt lat="59.9744869" lon="17.7276498">
        <ele>15.0377</ele>
        <time>2013-03-17T10:43:00Z</time>
      </trkpt>
      <trkpt lat="59.9744833" lon="17.7275338">
        <ele>15.0377</ele>
        <time>2013-03-17T10:43:01Z</time>
      </trkpt>
      <trkpt lat="59.9744802" lon="17.727422">
        <ele>15.5184</ele>
        <time>2013-03-17T10:43:02Z</time>
      </trkpt>
      <trkpt lat="59.9744781" lon="17.7273145">
        <ele>15.5184</ele>
        <time>2013-03-17T10:43:03Z</time>
      </trkpt>
      <trkpt lat="59.9744766" lon="17.7272107">
        <ele>15.5184</ele>
        <time>2013-03-17T10:43:04Z</time>
      </trkpt>
      <trkpt lat="59.9744749" lon="17.7271106">
        <ele>15.999</ele>
        <time>2013-03-17T10:43:05Z</time>
      </trkpt>
      <trkpt lat="59.9744724" lon="17.7270139">
        <ele>15.999</ele>
        <time>2013-03-17T10:43:06Z</time>
      </trkpt>
      <trkpt lat="59.9744698" lon="17.7269191">
        <ele>15.999</ele>
        <time>2013-03-17T10:43:07Z</time>
      </trkpt>
      <trkpt lat="59.9744676" lon="17.726825">
        <ele>16.4797</ele>
        <time>2013-03-17T10:43:08Z</time>
      </trkpt>
      <trkpt lat="59.9744651" lon="17.7267316">
        <ele>16.4797</ele>
        <time>2013-03-17T10:43:09Z</time>
      </trkpt>
      <trkpt lat="59.9744628" lon="17.7266398">
        <ele>16.4797</ele>
        <time>2013-03-17T10:43:10Z</time>
      </trkpt>
      <trkpt lat="59.9744614" lon="17.7265342">
        <ele>16.4797</ele>
        <time>2013-03-17T10:43:11Z</time>
      </trkpt>
      <trkpt lat="59.9744598" lon="17.7264346">
        <ele>16.4797</ele>
        <time>2013-03-17T10:43:12Z</time>
      </trkpt>
      <trkpt lat="59.9744564" lon="17.7263361">
        <ele>16.4797</ele>
        <time>2013-03-17T10:43:13Z</time>
      </trkpt>
      <trkpt lat="59.9744522" lon="17.7262408">
        <ele>16.9604</ele>
        <time>2013-03-17T10:43:14Z</time>
      </trkpt>
      <trkpt lat="59.9744479" lon="17.726147">
        <ele>16.9604</ele>
        <time>2013-03-17T10:43:15Z</time>
      </trkpt>
      <trkpt lat="59.9744423" lon="17.7260524">
        <ele>16.9604</ele>
        <time>2013-03-17T10:43:16Z</time>
      </trkpt>
      <trkpt lat="59.9744366" lon="17.7259544">
        <ele>16.9604</ele>
        <time>2013-03-17T10:43:17Z</time>
      </trkpt>
      <trkpt lat="59.974431" lon="17.7258551">
        <ele>16.9604</ele>
        <time>2013-03-17T10:43:18Z</time>
      </trkpt>
      <trkpt lat="59.9744243" lon="17.7257545">
        <ele>16.9604</ele>
        <time>2013-03-17T10:43:19Z</time>
      </trkpt>
      <trkpt lat="59.974416" lon="17.7256534">
        <ele>16.9604</ele>
        <time>2013-03-17T10:43:20Z</time>
      </trkpt>
      <trkpt lat="59.9744076" lon="17.7255519">
        <ele>16.9604</ele>
        <time>2013-03-17T10:43:21Z</time>
      </trkpt>
      <trkpt lat="59.9743988" lon="17.7254493">
        <ele>16.9604</ele>
        <time>2013-03-17T10:43:22Z</time>
      </trkpt>
      <trkpt lat="59.9743883" lon="17.7253462">
        <ele>16.9604</ele>
        <time>2013-03-17T10:43:23Z</time>
      </trkpt>
      <trkpt lat="59.9743765" lon="17.7252435">
        <ele>16.9604</ele>
        <time>2013-03-17T10:43:24Z</time>
      </trkpt>
      <trkpt lat="59.9743645" lon="17.7251407">
        <ele>16.9604</ele>
        <time>2013-03-17T10:43:25Z</time>
      </trkpt>
      <trkpt lat="59.974351" lon="17.7250381">
        <ele>16.9604</ele>
        <time>2013-03-17T10:43:26Z</time>
      </trkpt>
      <trkpt lat="59.9743361" lon="17.724935">
        <ele>16.9604</ele>
        <time>2013-03-17T10:43:27Z</time>
      </trkpt>
      <trkpt lat="59.9743211" lon="17.7248302">
        <ele>16.9604</ele>
        <time>2013-03-17T10:43:28Z</time>
      </trkpt>
      <trkpt lat="59.9743061" lon="17.7247222">
        <ele>16.9604</ele>
        <time>2013-03-17T10:43:29Z</time>
      </trkpt>
      <trkpt lat="59.9742902" lon="17.7246126">
        <ele>17.4412</ele>
        <time>2013-03-17T10:43:30Z</time>
      </trkpt>
      <trkpt lat="59.9742736" lon="17.7245035">
        <ele>17.4412</ele>
        <time>2013-03-17T10:43:31Z</time>
      </trkpt>
      <trkpt lat="59.9742578" lon="17.7243947">
        <ele>17.4412</ele>
        <time>2013-03-17T10:43:32Z</time>
      </trkpt>
      <trkpt lat="59.9742422" lon="17.7242863">
        <ele>17.4412</ele>
        <time>2013-03-17T10:43:33Z</time>
      </trkpt>
      <trkpt lat="59.9742263" lon="17.7241782">
        <ele>17.4412</ele>
        <time>2013-03-17T10:43:34Z</time>
      </trkpt>
      <trkpt lat="59.9742098" lon="17.7240695">
        <ele>17.4412</ele>
        <time>2013-03-17T10:43:35Z</time>
      </trkpt>
      <trkpt lat="59.9741927" lon="17.7239607">
        <ele>17.4412</ele>
        <time>2013-03-17T10:43:36Z</time>
      </trkpt>
      <trkpt lat="59.974176" lon="17.7238521">
        <ele>17.4412</ele>
        <time>2013-03-17T10:43:37Z</time>
      </trkpt>
      <trkpt lat="59.9741601" lon="17.7237444">
        <ele>17.4412</ele>
        <time>2013-03-17T10:43:38Z</time>
      </trkpt>
      <trkpt lat="59.9741448" lon="17.7236384">
        <ele>17.4412</ele>
        <time>2013-03-17T10:43:39Z</time>
      </trkpt>
      <trkpt lat="59.974128" lon="17.7235339">
        <ele>17.4412</ele>
        <time>2013-03-17T10:43:40Z</time>
      </trkpt>
      <trkpt lat="59.9741102" lon="17.7234307">
        <ele>17.4412</ele>
        <time>2013-03-17T10:43:41Z</time>
      </trkpt>
      <trkpt lat="59.9740916" lon="17.7233281">
        <ele>17.4412</ele>
        <time>2013-03-17T10:43:42Z</time>
      </trkpt>
      <trkpt lat="59.9740729" lon="17.7232257">
        <ele>17.4412</ele>
        <time>2013-03-17T10:43:43Z</time>
      </trkpt>
      <trkpt lat="59.9740531" lon="17.7231238">
        <ele>17.9218</ele>
        <time>2013-03-17T10:43:44Z</time>
      </trkpt>
      <trkpt lat="59.9740326" lon="17.7230215">
        <ele>17.9218</ele>
        <time>2013-03-17T10:43:45Z</time>
      </trkpt>
      <trkpt lat="59.9740119" lon="17.7229192">
        <ele>17.9218</ele>
        <time>2013-03-17T10:43:46Z</time>
      </trkpt>
      <trkpt lat="59.9739906" lon="17.722817">
        <ele>17.9218</ele>
        <time>2013-03-17T10:43:47Z</time>
      </trkpt>
      <trkpt lat="59.9739677" lon="17.7227138">
        <ele>18.4023</ele>
        <time>2013-03-17T10:43:48Z</time>
      </trkpt>
      <trkpt lat="59.9739425" lon="17.7226136">
        <ele>18.4023</ele>
        <time>2013-03-17T10:43:49Z</time>
      </trkpt>
      <trkpt lat="59.9739155" lon="17.722516">
        <ele>18.4023</ele>
        <time>2013-03-17T10:43:50Z</time>
      </trkpt>
      <trkpt lat="59.973885" lon="17.7224178">
        <ele>18.4023</ele>
        <time>2013-03-17T10:43:51Z</time>
      </trkpt>
      <trkpt lat="59.9738559" lon="17.722323">
        <ele>18.8831</ele>
        <time>2013-03-17T10:43:52Z</time>
      </trkpt>
      <trkpt lat="59.9738252" lon="17.7222303">
        <ele>18.8831</ele>
        <time>2013-03-17T10:43:53Z</time>
      </trkpt>
      <trkpt lat="59.9737958" lon="17.7221422">
        <ele>18.8831</ele>
        <time>2013-03-17T10:43:54Z</time>
      </trkpt>
      <trkpt lat="59.9737664" lon="17.7220544">
        <ele>19.3638</ele>
        <time>2013-03-17T10:43:55Z</time>
      </trkpt>
      <trkpt lat="59.9737369" lon="17.7219681">
        <ele>19.3638</ele>
        <time>2013-03-17T10:43:56Z</time>
      </trkpt>
      <trkpt lat="59.9737068" lon="17.7218843">
        <ele>19.3638</ele>
        <time>2013-03-17T10:43:57Z</time>
      </trkpt>
      <trkpt lat="59.9736757" lon="17.7218032">
        <ele>19.3638</ele>
        <time>2013-03-17T10:43:58Z</time>
      </trkpt>
      <trkpt lat="59.9736444" lon="17.7217243">
        <ele>19.3638</ele>
        <time>2013-03-17T10:43:59Z</time>
      </trkpt>
      <trkpt lat="59.9736128" lon="17.7216456">
        <ele>19.8444</ele>
        <time>2013-03-17T10:44:00Z</time>
      </trkpt>
      <trkpt lat="59.9735796" lon="17.7215667">
        <ele>19.8444</ele>
        <time>2013-03-17T10:44:01Z</time>
      </trkpt>
      <trkpt lat="59.9735461" lon="17.7214874">
        <ele>20.325</ele>
        <time>2013-03-17T10:44:02Z</time>
      </trkpt>
      <trkpt lat="59.9735119" lon="17.7214104">
        <ele>20.325</ele>
        <time>2013-03-17T10:44:03Z</time>
      </trkpt>
      <trkpt lat="59.9734771" lon="17.7213358">
        <ele>20.8057</ele>
        <time>2013-03-17T10:44:04Z</time>
      </trkpt>
      <trkpt lat="59.9734415" lon="17.7212628">
        <ele>20.8057</ele>
        <time>2013-03-17T10:44:05Z</time>
      </trkpt>
      <trkpt lat="59.9734049" lon="17.7211918">
        <ele>21.2864</ele>
        <time>2013-03-17T10:44:06Z</time>
      </trkpt>
      <trkpt lat="59.9733675" lon="17.721123">
        <ele>21.2864</ele>
        <time>2013-03-17T10:44:07Z</time>
      </trkpt>
      <trkpt lat="59.9733297" lon="17.7210572">
        <ele>21.2864</ele>
        <time>2013-03-17T10:44:08Z</time>
      </trkpt>
      <trkpt lat="59.9732929" lon="17.7209934">
        <ele>21.767</ele>
        <time>2013-03-17T10:44:09Z</time>
      </trkpt>
      <trkpt lat="59.9732569" lon="17.7209313">
        <ele>21.767</ele>
        <time>2013-03-17T10:44:10Z</time>
      </trkpt>
      <trkpt lat="59.9732209" lon="17.7208713">
        <ele>21.767</ele>
        <time>2013-03-17T10:44:11Z</time>
      </trkpt>
      <trkpt lat="59.9731841" lon="17.7208132">
        <ele>22.2476</ele>
        <time>2013-03-17T10:44:12Z</time>
      </trkpt>
      <trkpt lat="59.9731471" lon="17.720757">
        <ele>22.2476</ele>
        <time>2013-03-17T10:44:13Z</time>
      </trkpt>
      <trkpt lat="59.9731093" lon="17.7207039">
        <ele>22.2476</ele>
        <time>2013-03-17T10:44:14Z</time>
      </trkpt>
      <trkpt lat="59.9730707" lon="17.7206536">
        <ele>22.2476</ele>
        <time>2013-03-17T10:44:15Z</time>
      </trkpt>
      <trkpt lat="59.9730328" lon="17.7206029">
        <ele>22.7283</ele>
        <time>2013-03-17T10:44:16Z</time>
      </trkpt>
      <trkpt lat="59.9729949" lon="17.7205536">
        <ele>22.7283</ele>
        <time>2013-03-17T10:44:17Z</time>
      </trkpt>
      <trkpt lat="59.9729562" lon="17.720507">
        <ele>22.7283</ele>
        <time>2013-03-17T10:44:18Z</time>
      </trkpt>
      <trkpt lat="59.9729173" lon="17.7204615">
        <ele>23.209</ele>
        <time>2013-03-17T10:44:19Z</time>
      </trkpt>
      <trkpt lat="59.9728786" lon="17.7204159">
        <ele>23.209</ele>
        <time>2013-03-17T10:44:20Z</time>
      </trkpt>
      <trkpt lat="59.9728404" lon="17.7203708">
        <ele>23.209</ele>
        <time>2013-03-17T10:44:21Z</time>
      </trkpt>
      <trkpt lat="59.9728013" lon="17.7203278">
        <ele>23.209</ele>
        <time>2013-03-17T10:44:22Z</time>
      </trkpt>
      <trkpt lat="59.9727619" lon="17.7202869">
        <ele>23.6896</ele>
        <time>2013-03-17T10:44:23Z</time>
      </trkpt>
      <trkpt lat="59.9727225" lon="17.7202473">
        <ele>23.6896</ele>
        <time>2013-03-17T10:44:24Z</time>
      </trkpt>
      <trkpt lat="59.972683" lon="17.7202088">
        <ele>23.6896</ele>
        <time>2013-03-17T10:44:25Z</time>
      </trkpt>
      <trkpt lat="59.9726429" lon="17.7201725">
        <ele>23.6896</ele>
        <time>2013-03-17T10:44:26Z</time>
      </trkpt>
      <trkpt lat="59.9726024" lon="17.720138">
        <ele>23.6896</ele>
        <time>2013-03-17T10:44:27Z</time>
      </trkpt>
      <trkpt lat="59.9725615" lon="17.720102">
        <ele>24.1703</ele>
        <time>2013-03-17T10:44:28Z</time>
      </trkpt>
      <trkpt lat="59.9725208" lon="17.7200645">
        <ele>24.1703</ele>
        <time>2013-03-17T10:44:29Z</time>
      </trkpt>
      <trkpt lat="59.9724796" lon="17.7200264">
        <ele>24.1703</ele>
        <time>2013-03-17T10:44:30Z</time>
      </trkpt>
      <trkpt lat="59.9724387" lon="17.719988">
        <ele>24.1703</ele>
        <time>2013-03-17T10:44:31Z</time>
      </trkpt>
      <trkpt lat="59.9723978" lon="17.7199508">
        <ele>24.1703</ele>
        <time>2013-03-17T10:44:32Z</time>
      </trkpt>
      <trkpt lat="59.9723563" lon="17.7199155">
        <ele>24.651</ele>
        <time>2013-03-17T10:44:33Z</time>
      </trkpt>
      <trkpt lat="59.9723149" lon="17.7198804">
        <ele>24.651</ele>
        <time>2013-03-17T10:44:34Z</time>
      </trkpt>
      <trkpt lat="59.9722734" lon="17.7198439">
        <ele>24.651</ele>
        <time>2013-03-17T10:44:35Z</time>
      </trkpt>
      <trkpt lat="59.9722318" lon="17.7198055">
        <ele>24.651</ele>
        <time>2013-03-17T10:44:36Z</time>
      </trkpt>
      <trkpt lat="59.9721893" lon="17.7197679">
        <ele>24.651</ele>
        <time>2013-03-17T10:44:37Z</time>
      </trkpt>
      <trkpt lat="59.972147" lon="17.719731">
        <ele>25.1317</ele>
        <time>2013-03-17T10:44:38Z</time>
      </trkpt>
      <trkpt lat="59.9721061" lon="17.7196931">
        <ele>25.1317</ele>
        <time>2013-03-17T10:44:39Z</time>
      </trkpt>
      <trkpt lat="59.9720657" lon="17.7196565">
        <ele>25.1317</ele>
        <time>2013-03-17T10:44:40Z</time>
      </trkpt>
      <trkpt lat="59.9720244" lon="17.7196223">
        <ele>25.1317</ele>
        <time>2013-03-17T10:44:41Z</time>
      </trkpt>
      <trkpt lat="59.9719832" lon="17.7195875">
        <ele>25.1317</ele>
        <time>2013-03-17T10:44:42Z</time>
      </trkpt>
      <trkpt lat="59.9719424" lon="17.7195492">
        <ele>25.6123</ele>
        <time>2013-03-17T10:44:43Z</time>
      </trkpt>
      <trkpt lat="59.9719018" lon="17.7195105">
        <ele>25.6123</ele>
        <time>2013-03-17T10:44:44Z</time>
      </trkpt>
      <trkpt lat="59.9718606" lon="17.7194741">
        <ele>25.6123</ele>
        <time>2013-03-17T10:44:45Z</time>
      </trkpt>
      <trkpt lat="59.9718191" lon="17.7194384">
        <ele>25.6123</ele>
        <time>2013-03-17T10:44:46Z</time>
      </trkpt>
      <trkpt lat="59.9717777" lon="17.7194021">
        <ele>25.6123</ele>
        <time>2013-03-17T10:44:47Z</time>
      </trkpt>
      <trkpt lat="59.9717366" lon="17.7193648">
        <ele>25.6123</ele>
        <time>2013-03-17T10:44:48Z</time>
      </trkpt>
      <trkpt lat="59.9716957" lon="17.7193273">
        <ele>26.0929</ele>
        <time>2013-03-17T10:44:49Z</time>
      </trkpt>
      <trkpt lat="59.9716544" lon="17.7192908">
        <ele>26.0929</ele>
        <time>2013-03-17T10:44:50Z</time>
      </trkpt>
      <trkpt lat="59.9716134" lon="17.7192548">
        <ele>26.0929</ele>
        <time>2013-03-17T10:44:51Z</time>
      </trkpt>
      <trkpt lat="59.9715726" lon="17.7192182">
        <ele>26.0929</ele>
        <time>2013-03-17T10:44:52Z</time>
      </trkpt>
      <trkpt lat="59.9715316" lon="17.7191825">
        <ele>26.0929</ele>
        <time>2013-03-17T10:44:53Z</time>
      </trkpt>
      <trkpt lat="59.9714905" lon="17.7191461">
        <ele>26.5736</ele>
        <time>2013-03-17T10:44:54Z</time>
      </trkpt>
      <trkpt lat="59.9714491" lon="17.7191084">
        <ele>26.5736</ele>
        <time>2013-03-17T10:44:55Z</time>
      </trkpt>
      <trkpt lat="59.9714076" lon="17.7190707">
        <ele>26.5736</ele>
        <time>2013-03-17T10:44:56Z</time>
      </trkpt>
      <trkpt lat="59.9713657" lon="17.7190333">
        <ele>26.5736</ele>
        <time>2013-03-17T10:44:57Z</time>
      </trkpt>
      <trkpt lat="59.9713232" lon="17.7189945">
        <ele>26.5736</ele>
        <time>2013-03-17T10:44:58Z</time>
      </trkpt>
      <trkpt lat="59.9712803" lon="17.7189559">
        <ele>27.0543</ele>
        <time>2013-03-17T10:44:59Z</time>
      </trkpt>
      <trkpt lat="59.9712374" lon="17.7189182">
        <ele>27.0543</ele>
        <time>2013-03-17T10:45:00Z</time>
      </trkpt>
      <trkpt lat="59.9711943" lon="17.7188809">
        <ele>27.0543</ele>
        <time>2013-03-17T10:45:01Z</time>
      </trkpt>
      <trkpt lat="59.9711512" lon="17.7188427">
        <ele>27.0543</ele>
        <time>2013-03-17T10:45:02Z</time>
      </trkpt>
      <trkpt lat="59.9711091" lon="17.7188033">
        <ele>27.0543</ele>
        <time>2013-03-17T10:45:03Z</time>
      </trkpt>
      <trkpt lat="59.9710675" lon="17.7187653">
        <ele>27.5349</ele>
        <time>2013-03-17T10:45:04Z</time>
      </trkpt>
      <trkpt lat="59.9710256" lon="17.7187301">
        <ele>27.5349</ele>
        <time>2013-03-17T10:45:05Z</time>
      </trkpt>
      <trkpt lat="59.970984" lon="17.718695">
        <ele>27.5349</ele>
        <time>2013-03-17T10:45:06Z</time>
      </trkpt>
      <trkpt lat="59.9709431" lon="17.7186589">
        <ele>27.5349</ele>
        <time>2013-03-17T10:45:07Z</time>
      </trkpt>
      <trkpt lat="59.970902" lon="17.7186225">
        <ele>27.5349</ele>
        <time>2013-03-17T10:45:08Z</time>
      </trkpt>
      <trkpt lat="59.9708607" lon="17.7185842">
        <ele>27.5349</ele>
        <time>2013-03-17T10:45:09Z</time>
      </trkpt>
      <trkpt lat="59.9708192" lon="17.7185453">
        <ele>28.0155</ele>
        <time>2013-03-17T10:45:10Z</time>
      </trkpt>
      <trkpt lat="59.9707774" lon="17.7185056">
        <ele>28.0155</ele>
        <time>2013-03-17T10:45:11Z</time>
      </trkpt>
      <trkpt lat="59.9707356" lon="17.7184657">
        <ele>28.0155</ele>
        <time>2013-03-17T10:45:12Z</time>
      </trkpt>
      <trkpt lat="59.9706931" lon="17.7184257">
        <ele>28.0155</ele>
        <time>2013-03-17T10:45:13Z</time>
      </trkpt>
      <trkpt lat="59.9706495" lon="17.7183858">
        <ele>28.0155</ele>
        <time>2013-03-17T10:45:14Z</time>
      </trkpt>
      <trkpt lat="59.970605" lon="17.7183467">
        <ele>28.0155</ele>
        <time>2013-03-17T10:45:15Z</time>
      </trkpt>
      <trkpt lat="59.97056" lon="17.7183066">
        <ele>28.4962</ele>
        <time>2013-03-17T10:45:16Z</time>
      </trkpt>
      <trkpt lat="59.9705148" lon="17.718266">
        <ele>28.4962</ele>
        <time>2013-03-17T10:45:17Z</time>
      </trkpt>
      <trkpt lat="59.9704693" lon="17.7182258">
        <ele>28.4962</ele>
        <time>2013-03-17T10:45:18Z</time>
      </trkpt>
      <trkpt lat="59.9704235" lon="17.7181857">
        <ele>28.4962</ele>
        <time>2013-03-17T10:45:19Z</time>
      </trkpt>
      <trkpt lat="59.970377" lon="17.7181437">
        <ele>28.4962</ele>
        <time>2013-03-17T10:45:20Z</time>
      </trkpt>
      <trkpt lat="59.9703299" lon="17.7181014">
        <ele>28.4962</ele>
        <time>2013-03-17T10:45:21Z</time>
      </trkpt>
      <trkpt lat="59.9702823" lon="17.71806">
        <ele>28.9769</ele>
        <time>2013-03-17T10:45:22Z</time>
      </trkpt>
      <trkpt lat="59.9702354" lon="17.718019">
        <ele>28.9769</ele>
        <time>2013-03-17T10:45:23Z</time>
      </trkpt>
      <trkpt lat="59.9701893" lon="17.7179766">
        <ele>28.9769</ele>
        <time>2013-03-17T10:45:24Z</time>
      </trkpt>
      <trkpt lat="59.9701434" lon="17.7179331">
        <ele>28.9769</ele>
        <time>2013-03-17T10:45:25Z</time>
      </trkpt>
      <trkpt lat="59.9700973" lon="17.7178905">
        <ele>28.9769</ele>
        <time>2013-03-17T10:45:26Z</time>
      </trkpt>
      <trkpt lat="59.9700507" lon="17.7178487">
        <ele>28.9769</ele>
        <time>2013-03-17T10:45:27Z</time>
      </trkpt>
      <trkpt lat="59.970004" lon="17.7178077">
        <ele>29.4575</ele>
        <time>2013-03-17T10:45:28Z</time>
      </trkpt>
      <trkpt lat="59.969957" lon="17.7177678">
        <ele>29.4575</ele>
        <time>2013-03-17T10:45:29Z</time>
      </trkpt>
      <trkpt lat="59.9699101" lon="17.717728">
        <ele>29.4575</ele>
        <time>2013-03-17T10:45:30Z</time>
      </trkpt>
      <trkpt lat="59.9698625" lon="17.7176887">
        <ele>29.4575</ele>
        <time>2013-03-17T10:45:31Z</time>
      </trkpt>
      <trkpt lat="59.9698142" lon="17.7176514">
        <ele>29.4575</ele>
        <time>2013-03-17T10:45:32Z</time>
      </trkpt>
      <trkpt lat="59.9697657" lon="17.7176154">
        <ele>29.9381</ele>
        <time>2013-03-17T10:45:33Z</time>
      </trkpt>
      <trkpt lat="59.9697177" lon="17.7175786">
        <ele>29.9381</ele>
        <time>2013-03-17T10:45:34Z</time>
      </trkpt>
      <trkpt lat="59.9696704" lon="17.7175439">
        <ele>29.9381</ele>
        <time>2013-03-17T10:45:35Z</time>
      </trkpt>
      <trkpt lat="59.9696229" lon="17.7175119">
        <ele>30.4188</ele>
        <time>2013-03-17T10:45:36Z</time>
      </trkpt>
      <trkpt lat="59.9695752" lon="17.7174803">
        <ele>30.4188</ele>
        <time>2013-03-17T10:45:37Z</time>
      </trkpt>
      <trkpt lat="59.9695278" lon="17.7174508">
        <ele>30.4188</ele>
        <time>2013-03-17T10:45:38Z</time>
      </trkpt>
      <trkpt lat="59.9694802" lon="17.7174243">
        <ele>30.4188</ele>
        <time>2013-03-17T10:45:39Z</time>
      </trkpt>
      <trkpt lat="59.9694327" lon="17.7173998">
        <ele>30.4188</ele>
        <time>2013-03-17T10:45:40Z</time>
      </trkpt>
      <trkpt lat="59.9693851" lon="17.7173772">
        <ele>30.8995</ele>
        <time>2013-03-17T10:45:41Z</time>
      </trkpt>
      <trkpt lat="59.9693375" lon="17.7173558">
        <ele>30.8995</ele>
        <time>2013-03-17T10:45:42Z</time>
      </trkpt>
      <trkpt lat="59.9692907" lon="17.7173341">
        <ele>30.8995</ele>
        <time>2013-03-17T10:45:43Z</time>
      </trkpt>
      <trkpt lat="59.969244" lon="17.7173123">
        <ele>31.3801</ele>
        <time>2013-03-17T10:45:44Z</time>
      </trkpt>
      <trkpt lat="59.9691968" lon="17.7172913">
        <ele>31.3801</ele>
        <time>2013-03-17T10:45:45Z</time>
      </trkpt>
      <trkpt lat="59.9691492" lon="17.717274">
        <ele>31.3801</ele>
        <time>2013-03-17T10:45:46Z</time>
      </trkpt>
      <trkpt lat="59.9691006" lon="17.7172581">
        <ele>31.3801</ele>
        <time>2013-03-17T10:45:47Z</time>
      </trkpt>
      <trkpt lat="59.9690513" lon="17.7172405">
        <ele>31.3801</ele>
        <time>2013-03-17T10:45:48Z</time>
      </trkpt>
      <trkpt lat="59.9690006" lon="17.7172209">
        <ele>31.3801</ele>
        <time>2013-03-17T10:45:49Z</time>
      </trkpt>
      <trkpt lat="59.9689488" lon="17.7171999">
        <ele>31.3801</ele>
        <time>2013-03-17T10:45:50Z</time>
      </trkpt>
      <trkpt lat="59.968897" lon="17.7171786">
        <ele>31.3801</ele>
        <time>2013-03-17T10:45:51Z</time>
      </trkpt>
      <trkpt lat="59.9688446" lon="17.7171585">
        <ele>31.8607</ele>
        <time>2013-03-17T10:45:52Z</time>
      </trkpt>
      <trkpt lat="59.9687906" lon="17.7171384">
        <ele>31.3801</ele>
        <time>2013-03-17T10:45:53Z</time>
      </trkpt>
      <trkpt lat="59.9687347" lon="17.7171145">
        <ele>31.3801</ele>
        <time>2013-03-17T10:45:54Z</time>
      </trkpt>
      <trkpt lat="59.9686774" lon="17.7170871">
        <ele>31.3801</ele>
        <time>2013-03-17T10:45:55Z</time>
      </trkpt>
      <trkpt lat="59.9686189" lon="17.7170586">
        <ele>31.3801</ele>
        <time>2013-03-17T10:45:56Z</time>
      </trkpt>
      <trkpt lat="59.9685604" lon="17.7170295">
        <ele>31.3801</ele>
        <time>2013-03-17T10:45:57Z</time>
      </trkpt>
      <trkpt lat="59.9685027" lon="17.7169978">
        <ele>31.3801</ele>
        <time>2013-03-17T10:45:58Z</time>
      </trkpt>
      <trkpt lat="59.9684453" lon="17.7169602">
        <ele>31.3801</ele>
        <time>2013-03-17T10:45:59Z</time>
      </trkpt>
      <trkpt lat="59.9683883" lon="17.7169182">
        <ele>30.8995</ele>
        <time>2013-03-17T10:46:00Z</time>
      </trkpt>
      <trkpt lat="59.9683319" lon="17.7168725">
        <ele>30.8995</ele>
        <time>2013-03-17T10:46:01Z</time>
      </trkpt>
      <trkpt lat="59.9682759" lon="17.7168212">
        <ele>30.4188</ele>
        <time>2013-03-17T10:46:02Z</time>
      </trkpt>
      <trkpt lat="59.9682198" lon="17.7167634">
        <ele>30.4188</ele>
        <time>2013-03-17T10:46:03Z</time>
      </trkpt>
      <trkpt lat="59.9681639" lon="17.7166989">
        <ele>29.9381</ele>
        <time>2013-03-17T10:46:04Z</time>
      </trkpt>
      <trkpt lat="59.9681076" lon="17.7166269">
        <ele>29.9381</ele>
        <time>2013-03-17T10:46:05Z</time>
      </trkpt>
      <trkpt lat="59.9680517" lon="17.716547">
        <ele>29.4575</ele>
        <time>2013-03-17T10:46:06Z</time>
      </trkpt>
      <trkpt lat="59.9679966" lon="17.7164603">
        <ele>28.9769</ele>
        <time>2013-03-17T10:46:07Z</time>
      </trkpt>
      <trkpt lat="59.9679413" lon="17.7163667">
        <ele>28.4962</ele>
        <time>2013-03-17T10:46:08Z</time>
      </trkpt>
      <trkpt lat="59.9678864" lon="17.7162661">
        <ele>28.4962</ele>
        <time>2013-03-17T10:46:09Z</time>
      </trkpt>
      <trkpt lat="59.9678325" lon="17.7161582">
        <ele>28.0155</ele>
        <time>2013-03-17T10:46:10Z</time>
      </trkpt>
      <trkpt lat="59.9677816" lon="17.7160408">
        <ele>27.5349</ele>
        <time>2013-03-17T10:46:11Z</time>
      </trkpt>
      <trkpt lat="59.9677341" lon="17.7159138">
        <ele>27.0543</ele>
        <time>2013-03-17T10:46:12Z</time>
      </trkpt>
      <trkpt lat="59.9676897" lon="17.71578">
        <ele>27.0543</ele>
        <time>2013-03-17T10:46:13Z</time>
      </trkpt>
      <trkpt lat="59.9676493" lon="17.7156398">
        <ele>26.5736</ele>
        <time>2013-03-17T10:46:14Z</time>
      </trkpt>
      <trkpt lat="59.9676133" lon="17.7154948">
        <ele>26.5736</ele>
        <time>2013-03-17T10:46:15Z</time>
      </trkpt>
      <trkpt lat="59.9675808" lon="17.7153496">
        <ele>26.5736</ele>
        <time>2013-03-17T10:46:16Z</time>
      </trkpt>
      <trkpt lat="59.9675512" lon="17.7152083">
        <ele>25.6123</ele>
        <time>2013-03-17T10:46:17Z</time>
      </trkpt>
      <trkpt lat="59.9675226" lon="17.7150615">
        <ele>25.6123</ele>
        <time>2013-03-17T10:46:18Z</time>
      </trkpt>
      <trkpt lat="59.9674928" lon="17.7149244">
        <ele>24.651</ele>
        <time>2013-03-17T10:46:19Z</time>
      </trkpt>
      <trkpt lat="59.9674742" lon="17.7147919">
        <ele>25.1317</ele>
        <time>2013-03-17T10:46:20Z</time>
      </trkpt>
      <trkpt lat="59.9674559" lon="17.7146642">
        <ele>25.1317</ele>
        <time>2013-03-17T10:46:21Z</time>
      </trkpt>
      <trkpt lat="59.9674397" lon="17.714544">
        <ele>25.6123</ele>
        <time>2013-03-17T10:46:22Z</time>
      </trkpt>
      <trkpt lat="59.9674264" lon="17.7144318">
        <ele>26.0929</ele>
        <time>2013-03-17T10:46:23Z</time>
      </trkpt>
      <trkpt lat="59.967414" lon="17.7143268">
        <ele>26.5736</ele>
        <time>2013-03-17T10:46:24Z</time>
      </trkpt>
      <trkpt lat="59.9674015" lon="17.7142319">
        <ele>26.5736</ele>
        <time>2013-03-17T10:46:25Z</time>
      </trkpt>
      <trkpt lat="59.9673905" lon="17.7141458">
        <ele>27.0543</ele>
        <time>2013-03-17T10:46:26Z</time>
      </trkpt>
      <trkpt lat="59.9673789" lon="17.7140669">
        <ele>27.0543</ele>
        <time>2013-03-17T10:46:27Z</time>
      </trkpt>
      <trkpt lat="59.9673687" lon="17.7139932">
        <ele>27.5349</ele>
        <time>2013-03-17T10:46:28Z</time>
      </trkpt>
      <trkpt lat="59.96736" lon="17.71392">
        <ele>28.0155</ele>
        <time>2013-03-17T10:46:29Z</time>
      </trkpt>
      <trkpt lat="59.9673502" lon="17.7138475">
        <ele>28.0155</ele>
        <time>2013-03-17T10:46:30Z</time>
      </trkpt>
      <trkpt lat="59.9673397" lon="17.7137748">
        <ele>28.4962</ele>
        <time>2013-03-17T10:46:31Z</time>
      </trkpt>
      <trkpt lat="59.9673284" lon="17.7137023">
        <ele>28.4962</ele>
        <time>2013-03-17T10:46:32Z</time>
      </trkpt>
      <trkpt lat="59.9673165" lon="17.7136315">
        <ele>28.9769</ele>
        <time>2013-03-17T10:46:33Z</time>
      </trkpt>
      <trkpt lat="59.9673062" lon="17.7135585">
        <ele>29.4575</ele>
        <time>2013-03-17T10:46:34Z</time>
      </trkpt>
      <trkpt lat="59.9672969" lon="17.713485">
        <ele>29.4575</ele>
        <time>2013-03-17T10:46:35Z</time>
      </trkpt>
      <trkpt lat="59.9672856" lon="17.7134165">
        <ele>29.9381</ele>
        <time>2013-03-17T10:46:36Z</time>
      </trkpt>
      <trkpt lat="59.9672724" lon="17.7133523">
        <ele>30.4188</ele>
        <time>2013-03-17T10:46:37Z</time>
      </trkpt>
      <trkpt lat="59.9672604" lon="17.7132896">
        <ele>30.4188</ele>
        <time>2013-03-17T10:46:38Z</time>
      </trkpt>
      <trkpt lat="59.9672497" lon="17.713228">
        <ele>30.8995</ele>
        <time>2013-03-17T10:46:39Z</time>
      </trkpt>
      <trkpt lat="59.9672384" lon="17.7131672">
        <ele>30.8995</ele>
        <time>2013-03-17T10:46:40Z</time>
      </trkpt>
      <trkpt lat="59.9672274" lon="17.7131057">
        <ele>31.3801</ele>
        <time>2013-03-17T10:46:41Z</time>
      </trkpt>
      <trkpt lat="59.9672156" lon="17.7130441">
        <ele>31.3801</ele>
        <time>2013-03-17T10:46:42Z</time>
      </trkpt>
      <trkpt lat="59.9672019" lon="17.7129827">
        <ele>31.3801</ele>
        <time>2013-03-17T10:46:43Z</time>
      </trkpt>
      <trkpt lat="59.9671871" lon="17.7129192">
        <ele>31.8607</ele>
        <time>2013-03-17T10:46:44Z</time>
      </trkpt>
      <trkpt lat="59.967172" lon="17.7128551">
        <ele>31.8607</ele>
        <time>2013-03-17T10:46:45Z</time>
      </trkpt>
      <trkpt lat="59.9671556" lon="17.7127928">
        <ele>32.3416</ele>
        <time>2013-03-17T10:46:46Z</time>
      </trkpt>
      <trkpt lat="59.9671389" lon="17.712731">
        <ele>32.3416</ele>
        <time>2013-03-17T10:46:47Z</time>
      </trkpt>
      <trkpt lat="59.9671218" lon="17.7126685">
        <ele>32.3416</ele>
        <time>2013-03-17T10:46:48Z</time>
      </trkpt>
      <trkpt lat="59.9671032" lon="17.7126059">
        <ele>32.8223</ele>
        <time>2013-03-17T10:46:49Z</time>
      </trkpt>
      <trkpt lat="59.9670836" lon="17.7125424">
        <ele>32.8223</ele>
        <time>2013-03-17T10:46:50Z</time>
      </trkpt>
      <trkpt lat="59.9670639" lon="17.7124769">
        <ele>32.8223</ele>
        <time>2013-03-17T10:46:51Z</time>
      </trkpt>
      <trkpt lat="59.9670432" lon="17.7124112">
        <ele>32.8223</ele>
        <time>2013-03-17T10:46:52Z</time>
      </trkpt>
      <trkpt lat="59.9670213" lon="17.7123466">
        <ele>33.3029</ele>
        <time>2013-03-17T10:46:53Z</time>
      </trkpt>
      <trkpt lat="59.9669992" lon="17.7122817">
        <ele>33.3029</ele>
        <time>2013-03-17T10:46:54Z</time>
      </trkpt>
      <trkpt lat="59.9669767" lon="17.7122166">
        <ele>33.3029</ele>
        <time>2013-03-17T10:46:55Z</time>
      </trkpt>
      <trkpt lat="59.9669529" lon="17.7121505">
        <ele>33.3029</ele>
        <time>2013-03-17T10:46:56Z</time>
      </trkpt>
      <trkpt lat="59.9669291" lon="17.7120836">
        <ele>33.7834</ele>
        <time>2013-03-17T10:46:57Z</time>
      </trkpt>
      <trkpt lat="59.9669041" lon="17.7120179">
        <ele>33.7834</ele>
        <time>2013-03-17T10:46:58Z</time>
      </trkpt>
      <trkpt lat="59.9668779" lon="17.7119514">
        <ele>33.7834</ele>
        <time>2013-03-17T10:46:59Z</time>
      </trkpt>
      <trkpt lat="59.9668513" lon="17.7118827">
        <ele>33.7834</ele>
        <time>2013-03-17T10:47:00Z</time>
      </trkpt>
      <trkpt lat="59.9668245" lon="17.7118133">
        <ele>33.7834</ele>
        <time>2013-03-17T10:47:01Z</time>
      </trkpt>
      <trkpt lat="59.9667986" lon="17.7117426">
        <ele>33.7834</ele>
        <time>2013-03-17T10:47:02Z</time>
      </trkpt>
      <trkpt lat="59.9667722" lon="17.7116688">
        <ele>33.7834</ele>
        <time>2013-03-17T10:47:03Z</time>
      </trkpt>
      <trkpt lat="59.9667457" lon="17.7115926">
        <ele>34.2642</ele>
        <time>2013-03-17T10:47:04Z</time>
      </trkpt>
      <trkpt lat="59.9667188" lon="17.7115149">
        <ele>34.2642</ele>
        <time>2013-03-17T10:47:05Z</time>
      </trkpt>
      <trkpt lat="59.9666914" lon="17.7114366">
        <ele>34.2642</ele>
        <time>2013-03-17T10:47:06Z</time>
      </trkpt>
      <trkpt lat="59.9666642" lon="17.7113574">
        <ele>34.2642</ele>
        <time>2013-03-17T10:47:07Z</time>
      </trkpt>
      <trkpt lat="59.966637" lon="17.7112771">
        <ele>34.2642</ele>
        <time>2013-03-17T10:47:08Z</time>
      </trkpt>
      <trkpt lat="59.9666111" lon="17.711193">
        <ele>34.2642</ele>
        <time>2013-03-17T10:47:09Z</time>
      </trkpt>
      <trkpt lat="59.9665852" lon="17.7111058">
        <ele>34.7449</ele>
        <time>2013-03-17T10:47:10Z</time>
      </trkpt>
      <trkpt lat="59.9665587" lon="17.7110171">
        <ele>34.7449</ele>
        <time>2013-03-17T10:47:11Z</time>
      </trkpt>
      <trkpt lat="59.9665327" lon="17.710927">
        <ele>35.2255</ele>
        <time>2013-03-17T10:47:12Z</time>
      </trkpt>
      <trkpt lat="59.9665062" lon="17.7108353">
        <ele>35.2255</ele>
        <time>2013-03-17T10:47:13Z</time>
      </trkpt>
      <trkpt lat="59.9664786" lon="17.7107419">
        <ele>35.2255</ele>
        <time>2013-03-17T10:47:14Z</time>
      </trkpt>
      <trkpt lat="59.9664511" lon="17.7106456">
        <ele>35.2255</ele>
        <time>2013-03-17T10:47:15Z</time>
      </trkpt>
      <trkpt lat="59.9664235" lon="17.7105471">
        <ele>35.2255</ele>
        <time>2013-03-17T10:47:16Z</time>
      </trkpt>
      <trkpt lat="59.9663956" lon="17.7104462">
        <ele>35.2255</ele>
        <time>2013-03-17T10:47:17Z</time>
      </trkpt>
      <trkpt lat="59.9663697" lon="17.7103404">
        <ele>35.2255</ele>
        <time>2013-03-17T10:47:18Z</time>
      </trkpt>
      <trkpt lat="59.9663456" lon="17.7102317">
        <ele>34.7449</ele>
        <time>2013-03-17T10:47:19Z</time>
      </trkpt>
      <trkpt lat="59.9663205" lon="17.7101238">
        <ele>34.7449</ele>
        <time>2013-03-17T10:47:20Z</time>
      </trkpt>
      <trkpt lat="59.9662944" lon="17.7100169">
        <ele>34.7449</ele>
        <time>2013-03-17T10:47:21Z</time>
      </trkpt>
      <trkpt lat="59.9662679" lon="17.7099123">
        <ele>34.7449</ele>
        <time>2013-03-17T10:47:22Z</time>
      </trkpt>
      <trkpt lat="59.966239" lon="17.7098092">
        <ele>34.7449</ele>
        <time>2013-03-17T10:47:23Z</time>
      </trkpt>
      <trkpt lat="59.9662084" lon="17.7097064">
        <ele>34.7449</ele>
        <time>2013-03-17T10:47:24Z</time>
      </trkpt>
      <trkpt lat="59.9661786" lon="17.7096003">
        <ele>34.7449</ele>
        <time>2013-03-17T10:47:25Z</time>
      </trkpt>
      <trkpt lat="59.9661486" lon="17.7094931">
        <ele>34.7449</ele>
        <time>2013-03-17T10:47:26Z</time>
      </trkpt>
      <trkpt lat="59.9661172" lon="17.7093864">
        <ele>34.2642</ele>
        <time>2013-03-17T10:47:27Z</time>
      </trkpt>
      <trkpt lat="59.9660846" lon="17.7092803">
        <ele>34.2642</ele>
        <time>2013-03-17T10:47:28Z</time>
      </trkpt>
      <trkpt lat="59.9660514" lon="17.7091739">
        <ele>34.2642</ele>
        <time>2013-03-17T10:47:29Z</time>
      </trkpt>
      <trkpt lat="59.9660185" lon="17.7090658">
        <ele>34.2642</ele>
        <time>2013-03-17T10:47:30Z</time>
      </trkpt>
      <trkpt lat="59.9659857" lon="17.7089575">
        <ele>34.2642</ele>
        <time>2013-03-17T10:47:31Z</time>
      </trkpt>
      <trkpt lat="59.9659519" lon="17.7088521">
        <ele>34.7449</ele>
        <time>2013-03-17T10:47:32Z</time>
      </trkpt>
      <trkpt lat="59.9659169" lon="17.7087496">
        <ele>34.7449</ele>
        <time>2013-03-17T10:47:33Z</time>
      </trkpt>
      <trkpt lat="59.9658813" lon="17.7086498">
        <ele>34.7449</ele>
        <time>2013-03-17T10:47:34Z</time>
      </trkpt>
      <trkpt lat="59.9658449" lon="17.708554">
        <ele>34.7449</ele>
        <time>2013-03-17T10:47:35Z</time>
      </trkpt>
      <trkpt lat="59.9658054" lon="17.7084611">
        <ele>34.7449</ele>
        <time>2013-03-17T10:47:36Z</time>
      </trkpt>
      <trkpt lat="59.9657626" lon="17.7083721">
        <ele>34.7449</ele>
        <time>2013-03-17T10:47:37Z</time>
      </trkpt>
      <trkpt lat="59.965717" lon="17.7082882">
        <ele>34.7449</ele>
        <time>2013-03-17T10:47:38Z</time>
      </trkpt>
      <trkpt lat="59.9656697" lon="17.7082103">
        <ele>35.2255</ele>
        <time>2013-03-17T10:47:39Z</time>
      </trkpt>
      <trkpt lat="59.9656215" lon="17.7081376">
        <ele>35.2255</ele>
        <time>2013-03-17T10:47:40Z</time>
      </trkpt>
      <trkpt lat="59.9655728" lon="17.70807">
        <ele>35.2255</ele>
        <time>2013-03-17T10:47:41Z</time>
      </trkpt>
      <trkpt lat="59.9655222" lon="17.7080081">
        <ele>35.2255</ele>
        <time>2013-03-17T10:47:42Z</time>
      </trkpt>
      <trkpt lat="59.96547" lon="17.7079526">
        <ele>35.2255</ele>
        <time>2013-03-17T10:47:43Z</time>
      </trkpt>
      <trkpt lat="59.9654166" lon="17.7079022">
        <ele>35.2255</ele>
        <time>2013-03-17T10:47:44Z</time>
      </trkpt>
      <trkpt lat="59.9653616" lon="17.7078553">
        <ele>35.2255</ele>
        <time>2013-03-17T10:47:45Z</time>
      </trkpt>
      <trkpt lat="59.9653057" lon="17.70781">
        <ele>35.2255</ele>
        <time>2013-03-17T10:47:46Z</time>
      </trkpt>
      <trkpt lat="59.9652492" lon="17.7077651">
        <ele>35.2255</ele>
        <time>2013-03-17T10:47:47Z</time>
      </trkpt>
      <trkpt lat="59.9651925" lon="17.7077209">
        <ele>35.2255</ele>
        <time>2013-03-17T10:47:48Z</time>
      </trkpt>
      <trkpt lat="59.9651358" lon="17.7076764">
        <ele>35.2255</ele>
        <time>2013-03-17T10:47:49Z</time>
      </trkpt>
      <trkpt lat="59.9650798" lon="17.7076335">
        <ele>35.2255</ele>
        <time>2013-03-17T10:47:50Z</time>
      </trkpt>
      <trkpt lat="59.9650244" lon="17.7075928">
        <ele>35.2255</ele>
        <time>2013-03-17T10:47:51Z</time>
      </trkpt>
      <trkpt lat="59.9649691" lon="17.7075538">
        <ele>35.2255</ele>
        <time>2013-03-17T10:47:52Z</time>
      </trkpt>
      <trkpt lat="59.9649142" lon="17.7075163">
        <ele>35.2255</ele>
        <time>2013-03-17T10:47:53Z</time>
      </trkpt>
      <trkpt lat="59.9648589" lon="17.7074795">
        <ele>35.2255</ele>
        <time>2013-03-17T10:47:54Z</time>
      </trkpt>
      <trkpt lat="59.9648038" lon="17.7074439">
        <ele>35.2255</ele>
        <time>2013-03-17T10:47:55Z</time>
      </trkpt>
      <trkpt lat="59.9647502" lon="17.7074087">
        <ele>35.2255</ele>
        <time>2013-03-17T10:47:56Z</time>
      </trkpt>
      <trkpt lat="59.9646981" lon="17.7073732">
        <ele>35.7061</ele>
        <time>2013-03-17T10:47:57Z</time>
      </trkpt>
      <trkpt lat="59.9646464" lon="17.7073365">
        <ele>35.7061</ele>
        <time>2013-03-17T10:47:58Z</time>
      </trkpt>
      <trkpt lat="59.9645943" lon="17.7073015">
        <ele>35.7061</ele>
        <time>2013-03-17T10:47:59Z</time>
      </trkpt>
      <trkpt lat="59.964542" lon="17.7072698">
        <ele>35.7061</ele>
        <time>2013-03-17T10:48:00Z</time>
      </trkpt>
      <trkpt lat="59.9644893" lon="17.7072418">
        <ele>35.7061</ele>
        <time>2013-03-17T10:48:01Z</time>
      </trkpt>
      <trkpt lat="59.9644358" lon="17.7072173">
        <ele>35.7061</ele>
        <time>2013-03-17T10:48:02Z</time>
      </trkpt>
      <trkpt lat="59.964381" lon="17.7071947">
        <ele>35.7061</ele>
        <time>2013-03-17T10:48:03Z</time>
      </trkpt>
      <trkpt lat="59.964325" lon="17.7071739">
        <ele>35.7061</ele>
        <time>2013-03-17T10:48:04Z</time>
      </trkpt>
      <trkpt lat="59.9642676" lon="17.7071554">
        <ele>35.7061</ele>
        <time>2013-03-17T10:48:05Z</time>
      </trkpt>
      <trkpt lat="59.9642094" lon="17.7071394">
        <ele>35.7061</ele>
        <time>2013-03-17T10:48:06Z</time>
      </trkpt>
      <trkpt lat="59.9641501" lon="17.7071263">
        <ele>35.7061</ele>
        <time>2013-03-17T10:48:07Z</time>
      </trkpt>
      <trkpt lat="59.9640894" lon="17.7071145">
        <ele>35.7061</ele>
        <time>2013-03-17T10:48:08Z</time>
      </trkpt>
      <trkpt lat="59.9640282" lon="17.7071034">
        <ele>35.7061</ele>
        <time>2013-03-17T10:48:09Z</time>
      </trkpt>
      <trkpt lat="59.963967" lon="17.7070959">
        <ele>35.7061</ele>
        <time>2013-03-17T10:48:10Z</time>
      </trkpt>
      <trkpt lat="59.9639055" lon="17.7070916">
        <ele>35.7061</ele>
        <time>2013-03-17T10:48:11Z</time>
      </trkpt>
      <trkpt lat="59.9638449" lon="17.7070844">
        <ele>35.7061</ele>
        <time>2013-03-17T10:48:12Z</time>
      </trkpt>
      <trkpt lat="59.9637847" lon="17.7070745">
        <ele>35.7061</ele>
        <time>2013-03-17T10:48:13Z</time>
      </trkpt>
      <trkpt lat="59.9637258" lon="17.7070653">
        <ele>35.7061</ele>
        <time>2013-03-17T10:48:14Z</time>
      </trkpt>
      <trkpt lat="59.963667" lon="17.7070585">
        <ele>35.7061</ele>
        <time>2013-03-17T10:48:15Z</time>
      </trkpt>
      <trkpt lat="59.9636079" lon="17.7070531">
        <ele>35.7061</ele>
        <time>2013-03-17T10:48:16Z</time>
      </trkpt>
      <trkpt lat="59.9635511" lon="17.7070486">
        <ele>35.7061</ele>
        <time>2013-03-17T10:48:17Z</time>
      </trkpt>
      <trkpt lat="59.9634945" lon="17.7070437">
        <ele>35.7061</ele>
        <time>2013-03-17T10:48:18Z</time>
      </trkpt>
      <trkpt lat="59.9634376" lon="17.7070398">
        <ele>35.7061</ele>
        <time>2013-03-17T10:48:19Z</time>
      </trkpt>
      <trkpt lat="59.9633844" lon="17.7070388">
        <ele>36.1868</ele>
        <time>2013-03-17T10:48:20Z</time>
      </trkpt>
      <trkpt lat="59.9633325" lon="17.7070378">
        <ele>36.1868</ele>
        <time>2013-03-17T10:48:21Z</time>
      </trkpt>
      <trkpt lat="59.9632822" lon="17.7070362">
        <ele>36.1868</ele>
        <time>2013-03-17T10:48:22Z</time>
      </trkpt>
      <trkpt lat="59.9632321" lon="17.7070362">
        <ele>36.1868</ele>
        <time>2013-03-17T10:48:23Z</time>
      </trkpt>
      <trkpt lat="59.9631832" lon="17.7070372">
        <ele>36.6675</ele>
        <time>2013-03-17T10:48:24Z</time>
      </trkpt>
      <trkpt lat="59.9631347" lon="17.7070387">
        <ele>36.6675</ele>
        <time>2013-03-17T10:48:25Z</time>
      </trkpt>
      <trkpt lat="59.9630865" lon="17.7070402">
        <ele>36.6675</ele>
        <time>2013-03-17T10:48:26Z</time>
      </trkpt>
      <trkpt lat="59.9630377" lon="17.7070414">
        <ele>37.1481</ele>
        <time>2013-03-17T10:48:27Z</time>
      </trkpt>
      <trkpt lat="59.9629891" lon="17.7070409">
        <ele>37.1481</ele>
        <time>2013-03-17T10:48:28Z</time>
      </trkpt>
      <trkpt lat="59.9629399" lon="17.7070397">
        <ele>37.1481</ele>
        <time>2013-03-17T10:48:29Z</time>
      </trkpt>
      <trkpt lat="59.9628907" lon="17.7070388">
        <ele>37.1481</ele>
        <time>2013-03-17T10:48:30Z</time>
      </trkpt>
      <trkpt lat="59.9628415" lon="17.7070365">
        <ele>37.6287</ele>
        <time>2013-03-17T10:48:31Z</time>
      </trkpt>
      <trkpt lat="59.9627926" lon="17.7070331">
        <ele>37.6287</ele>
        <time>2013-03-17T10:48:32Z</time>
      </trkpt>
      <trkpt lat="59.9627437" lon="17.7070295">
        <ele>37.6287</ele>
        <time>2013-03-17T10:48:33Z</time>
      </trkpt>
      <trkpt lat="59.9626966" lon="17.7070246">
        <ele>37.6287</ele>
        <time>2013-03-17T10:48:34Z</time>
      </trkpt>
      <trkpt lat="59.9626493" lon="17.7070169">
        <ele>38.1094</ele>
        <time>2013-03-17T10:48:35Z</time>
      </trkpt>
      <trkpt lat="59.9626022" lon="17.7070068">
        <ele>38.1094</ele>
        <time>2013-03-17T10:48:36Z</time>
      </trkpt>
      <trkpt lat="59.9625557" lon="17.7069942">
        <ele>38.1094</ele>
        <time>2013-03-17T10:48:37Z</time>
      </trkpt>
      <trkpt lat="59.9625092" lon="17.7069776">
        <ele>38.1094</ele>
        <time>2013-03-17T10:48:38Z</time>
      </trkpt>
      <trkpt lat="59.9624623" lon="17.7069595">
        <ele>38.1094</ele>
        <time>2013-03-17T10:48:39Z</time>
      </trkpt>
      <trkpt lat="59.9624147" lon="17.7069419">
        <ele>38.1094</ele>
        <time>2013-03-17T10:48:40Z</time>
      </trkpt>
      <trkpt lat="59.9623669" lon="17.7069236">
        <ele>38.1094</ele>
        <time>2013-03-17T10:48:41Z</time>
      </trkpt>
      <trkpt lat="59.9623199" lon="17.7069042">
        <ele>38.1094</ele>
        <time>2013-03-17T10:48:42Z</time>
      </trkpt>
      <trkpt lat="59.9622732" lon="17.7068827">
        <ele>38.5901</ele>
        <time>2013-03-17T10:48:43Z</time>
      </trkpt>
      <trkpt lat="59.9622261" lon="17.7068585">
        <ele>38.1094</ele>
        <time>2013-03-17T10:48:44Z</time>
      </trkpt>
      <trkpt lat="59.9621789" lon="17.706834">
        <ele>38.1094</ele>
        <time>2013-03-17T10:48:45Z</time>
      </trkpt>
      <trkpt lat="59.9621314" lon="17.7068072">
        <ele>38.5901</ele>
        <time>2013-03-17T10:48:46Z</time>
      </trkpt>
      <trkpt lat="59.9620837" lon="17.7067773">
        <ele>38.5901</ele>
        <time>2013-03-17T10:48:47Z</time>
      </trkpt>
      <trkpt lat="59.9620351" lon="17.706745">
        <ele>38.5901</ele>
        <time>2013-03-17T10:48:48Z</time>
      </trkpt>
      <trkpt lat="59.9619859" lon="17.7067122">
        <ele>38.5901</ele>
        <time>2013-03-17T10:48:49Z</time>
      </trkpt>
      <trkpt lat="59.961937" lon="17.7066791">
        <ele>38.5901</ele>
        <time>2013-03-17T10:48:50Z</time>
      </trkpt>
      <trkpt lat="59.9618884" lon="17.7066438">
        <ele>38.5901</ele>
        <time>2013-03-17T10:48:51Z</time>
      </trkpt>
      <trkpt lat="59.9618398" lon="17.7066048">
        <ele>38.5901</ele>
        <time>2013-03-17T10:48:52Z</time>
      </trkpt>
      <trkpt lat="59.9617913" lon="17.7065601">
        <ele>38.5901</ele>
        <time>2013-03-17T10:48:53Z</time>
      </trkpt>
      <trkpt lat="59.9617437" lon="17.706513">
        <ele>38.5901</ele>
        <time>2013-03-17T10:48:54Z</time>
      </trkpt>
      <trkpt lat="59.961697" lon="17.7064662">
        <ele>38.5901</ele>
        <time>2013-03-17T10:48:55Z</time>
      </trkpt>
      <trkpt lat="59.9616505" lon="17.706415">
        <ele>38.5901</ele>
        <time>2013-03-17T10:48:56Z</time>
      </trkpt>
      <trkpt lat="59.9616054" lon="17.7063605">
        <ele>38.5901</ele>
        <time>2013-03-17T10:48:57Z</time>
      </trkpt>
      <trkpt lat="59.9615615" lon="17.7063027">
        <ele>38.5901</ele>
        <time>2013-03-17T10:48:58Z</time>
      </trkpt>
      <trkpt lat="59.961518" lon="17.7062404">
        <ele>38.5901</ele>
        <time>2013-03-17T10:48:59Z</time>
      </trkpt>
      <trkpt lat="59.9614764" lon="17.7061737">
        <ele>38.5901</ele>
        <time>2013-03-17T10:49:00Z</time>
      </trkpt>
      <trkpt lat="59.9614366" lon="17.7061042">
        <ele>38.5901</ele>
        <time>2013-03-17T10:49:01Z</time>
      </trkpt>
      <trkpt lat="59.9613973" lon="17.7060337">
        <ele>38.1094</ele>
        <time>2013-03-17T10:49:02Z</time>
      </trkpt>
      <trkpt lat="59.9613584" lon="17.7059622">
        <ele>38.1094</ele>
        <time>2013-03-17T10:49:03Z</time>
      </trkpt>
      <trkpt lat="59.9613196" lon="17.7058894">
        <ele>38.1094</ele>
        <time>2013-03-17T10:49:04Z</time>
      </trkpt>
      <trkpt lat="59.9612817" lon="17.7058176">
        <ele>38.1094</ele>
        <time>2013-03-17T10:49:05Z</time>
      </trkpt>
      <trkpt lat="59.9612445" lon="17.7057446">
        <ele>38.1094</ele>
        <time>2013-03-17T10:49:06Z</time>
      </trkpt>
      <trkpt lat="59.9612054" lon="17.7056713">
        <ele>38.5901</ele>
        <time>2013-03-17T10:49:07Z</time>
      </trkpt>
      <trkpt lat="59.9611648" lon="17.7055982">
        <ele>38.5901</ele>
        <time>2013-03-17T10:49:08Z</time>
      </trkpt>
      <trkpt lat="59.9611241" lon="17.7055244">
        <ele>38.5901</ele>
        <time>2013-03-17T10:49:09Z</time>
      </trkpt>
      <trkpt lat="59.961083" lon="17.7054512">
        <ele>38.5901</ele>
        <time>2013-03-17T10:49:10Z</time>
      </trkpt>
      <trkpt lat="59.9610415" lon="17.7053811">
        <ele>38.5901</ele>
        <time>2013-03-17T10:49:11Z</time>
      </trkpt>
      <trkpt lat="59.9609985" lon="17.705312">
        <ele>38.5901</ele>
        <time>2013-03-17T10:49:12Z</time>
      </trkpt>
      <trkpt lat="59.9609549" lon="17.705245">
        <ele>39.0707</ele>
        <time>2013-03-17T10:49:13Z</time>
      </trkpt>
      <trkpt lat="59.96091" lon="17.7051795">
        <ele>39.0707</ele>
        <time>2013-03-17T10:49:14Z</time>
      </trkpt>
      <trkpt lat="59.9608639" lon="17.7051149">
        <ele>39.0707</ele>
        <time>2013-03-17T10:49:15Z</time>
      </trkpt>
      <trkpt lat="59.9608169" lon="17.7050515">
        <ele>39.0707</ele>
        <time>2013-03-17T10:49:16Z</time>
      </trkpt>
      <trkpt lat="59.9607701" lon="17.7049872">
        <ele>39.0707</ele>
        <time>2013-03-17T10:49:17Z</time>
      </trkpt>
      <trkpt lat="59.9607233" lon="17.7049239">
        <ele>39.0707</ele>
        <time>2013-03-17T10:49:18Z</time>
      </trkpt>
      <trkpt lat="59.9606767" lon="17.7048629">
        <ele>39.0707</ele>
        <time>2013-03-17T10:49:19Z</time>
      </trkpt>
      <trkpt lat="59.9606301" lon="17.7048044">
        <ele>39.0707</ele>
        <time>2013-03-17T10:49:20Z</time>
      </trkpt>
      <trkpt lat="59.960583" lon="17.7047472">
        <ele>39.0707</ele>
        <time>2013-03-17T10:49:21Z</time>
      </trkpt>
      <trkpt lat="59.9605347" lon="17.7046906">
        <ele>39.0707</ele>
        <time>2013-03-17T10:49:22Z</time>
      </trkpt>
      <trkpt lat="59.9604856" lon="17.7046345">
        <ele>39.0707</ele>
        <time>2013-03-17T10:49:23Z</time>
      </trkpt>
      <trkpt lat="59.9604363" lon="17.7045772">
        <ele>39.0707</ele>
        <time>2013-03-17T10:49:24Z</time>
      </trkpt>
      <trkpt lat="59.9603867" lon="17.704518">
        <ele>39.0707</ele>
        <time>2013-03-17T10:49:25Z</time>
      </trkpt>
      <trkpt lat="59.9603374" lon="17.7044571">
        <ele>39.0707</ele>
        <time>2013-03-17T10:49:26Z</time>
      </trkpt>
      <trkpt lat="59.9602875" lon="17.704396">
        <ele>39.5513</ele>
        <time>2013-03-17T10:49:27Z</time>
      </trkpt>
      <trkpt lat="59.9602367" lon="17.7043337">
        <ele>39.5513</ele>
        <time>2013-03-17T10:49:28Z</time>
      </trkpt>
      <trkpt lat="59.9601866" lon="17.7042657">
        <ele>39.5513</ele>
        <time>2013-03-17T10:49:29Z</time>
      </trkpt>
      <trkpt lat="59.9601376" lon="17.7041924">
        <ele>39.5513</ele>
        <time>2013-03-17T10:49:30Z</time>
      </trkpt>
      <trkpt lat="59.9600913" lon="17.7041147">
        <ele>39.5513</ele>
        <time>2013-03-17T10:49:31Z</time>
      </trkpt>
      <trkpt lat="59.9600494" lon="17.704028">
        <ele>40.0321</ele>
        <time>2013-03-17T10:49:32Z</time>
      </trkpt>
      <trkpt lat="59.9600109" lon="17.7039312">
        <ele>40.0321</ele>
        <time>2013-03-17T10:49:33Z</time>
      </trkpt>
      <trkpt lat="59.9599748" lon="17.7038298">
        <ele>40.0321</ele>
        <time>2013-03-17T10:49:34Z</time>
      </trkpt>
      <trkpt lat="59.9599422" lon="17.7037275">
        <ele>40.0321</ele>
        <time>2013-03-17T10:49:35Z</time>
      </trkpt>
      <trkpt lat="59.9599121" lon="17.7036249">
        <ele>40.0321</ele>
        <time>2013-03-17T10:49:36Z</time>
      </trkpt>
      <trkpt lat="59.959883" lon="17.7035261">
        <ele>40.0321</ele>
        <time>2013-03-17T10:49:37Z</time>
      </trkpt>
      <trkpt lat="59.9598544" lon="17.7034309">
        <ele>40.5128</ele>
        <time>2013-03-17T10:49:38Z</time>
      </trkpt>
      <trkpt lat="59.9598266" lon="17.7033393">
        <ele>40.5128</ele>
        <time>2013-03-17T10:49:39Z</time>
      </trkpt>
      <trkpt lat="59.9597987" lon="17.7032469">
        <ele>40.5128</ele>
        <time>2013-03-17T10:49:40Z</time>
      </trkpt>
      <trkpt lat="59.9597707" lon="17.7031562">
        <ele>40.5128</ele>
        <time>2013-03-17T10:49:41Z</time>
      </trkpt>
      <trkpt lat="59.9597441" lon="17.7030654">
        <ele>40.9934</ele>
        <time>2013-03-17T10:49:42Z</time>
      </trkpt>
      <trkpt lat="59.9597174" lon="17.702974">
        <ele>40.9934</ele>
        <time>2013-03-17T10:49:43Z</time>
      </trkpt>
      <trkpt lat="59.9596918" lon="17.7028831">
        <ele>40.9934</ele>
        <time>2013-03-17T10:49:44Z</time>
      </trkpt>
      <trkpt lat="59.959664" lon="17.7027938">
        <ele>40.9934</ele>
        <time>2013-03-17T10:49:45Z</time>
      </trkpt>
      <trkpt lat="59.9596374" lon="17.7027049">
        <ele>40.9934</ele>
        <time>2013-03-17T10:49:46Z</time>
      </trkpt>
      <trkpt lat="59.9596107" lon="17.702616">
        <ele>40.9934</ele>
        <time>2013-03-17T10:49:47Z</time>
      </trkpt>
      <trkpt lat="59.9595837" lon="17.7025248">
        <ele>40.9934</ele>
        <time>2013-03-17T10:49:48Z</time>
      </trkpt>
      <trkpt lat="59.9595572" lon="17.7024338">
        <ele>40.9934</ele>
        <time>2013-03-17T10:49:49Z</time>
      </trkpt>
      <trkpt lat="59.9595299" lon="17.7023402">
        <ele>40.9934</ele>
        <time>2013-03-17T10:49:50Z</time>
      </trkpt>
      <trkpt lat="59.9595018" lon="17.7022455">
        <ele>40.9934</ele>
        <time>2013-03-17T10:49:51Z</time>
      </trkpt>
      <trkpt lat="59.9594738" lon="17.7021507">
        <ele>40.9934</ele>
        <time>2013-03-17T10:49:52Z</time>
      </trkpt>
      <trkpt lat="59.9594465" lon="17.7020546">
        <ele>40.9934</ele>
        <time>2013-03-17T10:49:53Z</time>
      </trkpt>
      <trkpt lat="59.9594206" lon="17.7019576">
        <ele>40.9934</ele>
        <time>2013-03-17T10:49:54Z</time>
      </trkpt>
      <trkpt lat="59.959396" lon="17.7018627">
        <ele>40.9934</ele>
        <time>2013-03-17T10:49:55Z</time>
      </trkpt>
      <trkpt lat="59.9593755" lon="17.7017665">
        <ele>40.5128</ele>
        <time>2013-03-17T10:49:56Z</time>
      </trkpt>
      <trkpt lat="59.9593564" lon="17.7016687">
        <ele>40.5128</ele>
        <time>2013-03-17T10:49:57Z</time>
      </trkpt>
      <trkpt lat="59.9593387" lon="17.7015687">
        <ele>40.5128</ele>
        <time>2013-03-17T10:49:58Z</time>
      </trkpt>
      <trkpt lat="59.9593211" lon="17.7014682">
        <ele>40.5128</ele>
        <time>2013-03-17T10:49:59Z</time>
      </trkpt>
      <trkpt lat="59.9593039" lon="17.7013679">
        <ele>40.5128</ele>
        <time>2013-03-17T10:50:00Z</time>
      </trkpt>
      <trkpt lat="59.9592874" lon="17.7012661">
        <ele>40.5128</ele>
        <time>2013-03-17T10:50:01Z</time>
      </trkpt>
      <trkpt lat="59.9592727" lon="17.7011613">
        <ele>40.5128</ele>
        <time>2013-03-17T10:50:02Z</time>
      </trkpt>
      <trkpt lat="59.9592594" lon="17.7010537">
        <ele>40.5128</ele>
        <time>2013-03-17T10:50:03Z</time>
      </trkpt>
      <trkpt lat="59.9592474" lon="17.7009449">
        <ele>40.5128</ele>
        <time>2013-03-17T10:50:04Z</time>
      </trkpt>
      <trkpt lat="59.9592362" lon="17.7008351">
        <ele>40.0321</ele>
        <time>2013-03-17T10:50:05Z</time>
      </trkpt>
      <trkpt lat="59.9592258" lon="17.7007232">
        <ele>40.0321</ele>
        <time>2013-03-17T10:50:06Z</time>
      </trkpt>
      <trkpt lat="59.959216" lon="17.700609">
        <ele>40.0321</ele>
        <time>2013-03-17T10:50:07Z</time>
      </trkpt>
      <trkpt lat="59.959207" lon="17.7004941">
        <ele>40.0321</ele>
        <time>2013-03-17T10:50:08Z</time>
      </trkpt>
      <trkpt lat="59.9591974" lon="17.7003802">
        <ele>40.0321</ele>
        <time>2013-03-17T10:50:09Z</time>
      </trkpt>
      <trkpt lat="59.9591868" lon="17.7002671">
        <ele>40.0321</ele>
        <time>2013-03-17T10:50:10Z</time>
      </trkpt>
      <trkpt lat="59.959175" lon="17.7001555">
        <ele>39.5513</ele>
        <time>2013-03-17T10:50:11Z</time>
      </trkpt>
      <trkpt lat="59.9591635" lon="17.7000437">
        <ele>39.5513</ele>
        <time>2013-03-17T10:50:12Z</time>
      </trkpt>
      <trkpt lat="59.9591528" lon="17.6999311">
        <ele>39.5513</ele>
        <time>2013-03-17T10:50:13Z</time>
      </trkpt>
      <trkpt lat="59.9591439" lon="17.6998172">
        <ele>39.5513</ele>
        <time>2013-03-17T10:50:14Z</time>
      </trkpt>
      <trkpt lat="59.9591352" lon="17.6997026">
        <ele>39.5513</ele>
        <time>2013-03-17T10:50:15Z</time>
      </trkpt>
      <trkpt lat="59.9591269" lon="17.6995872">
        <ele>39.5513</ele>
        <time>2013-03-17T10:50:16Z</time>
      </trkpt>
      <trkpt lat="59.9591191" lon="17.699472">
        <ele>39.5513</ele>
        <time>2013-03-17T10:50:17Z</time>
      </trkpt>
      <trkpt lat="59.9591123" lon="17.6993589">
        <ele>39.5513</ele>
        <time>2013-03-17T10:50:18Z</time>
      </trkpt>
      <trkpt lat="59.959107" lon="17.6992469">
        <ele>39.5513</ele>
        <time>2013-03-17T10:50:19Z</time>
      </trkpt>
      <trkpt lat="59.959102" lon="17.6991349">
        <ele>39.5513</ele>
        <time>2013-03-17T10:50:20Z</time>
      </trkpt>
      <trkpt lat="59.9590978" lon="17.6990229">
        <ele>40.0321</ele>
        <time>2013-03-17T10:50:21Z</time>
      </trkpt>
      <trkpt lat="59.9590951" lon="17.6989112">
        <ele>40.0321</ele>
        <time>2013-03-17T10:50:22Z</time>
      </trkpt>
      <trkpt lat="59.9590927" lon="17.6988005">
        <ele>40.0321</ele>
        <time>2013-03-17T10:50:23Z</time>
      </trkpt>
      <trkpt lat="59.9590902" lon="17.69869">
        <ele>40.0321</ele>
        <time>2013-03-17T10:50:24Z</time>
      </trkpt>
      <trkpt lat="59.9590885" lon="17.6985791">
        <ele>40.0321</ele>
        <time>2013-03-17T10:50:25Z</time>
      </trkpt>
      <trkpt lat="59.9590869" lon="17.6984672">
        <ele>40.0321</ele>
        <time>2013-03-17T10:50:26Z</time>
      </trkpt>
      <trkpt lat="59.9590853" lon="17.6983533">
        <ele>39.5513</ele>
        <time>2013-03-17T10:50:27Z</time>
      </trkpt>
      <trkpt lat="59.9590827" lon="17.6982383">
        <ele>39.5513</ele>
        <time>2013-03-17T10:50:28Z</time>
      </trkpt>
      <trkpt lat="59.9590776" lon="17.6981238">
        <ele>39.5513</ele>
        <time>2013-03-17T10:50:29Z</time>
      </trkpt>
      <trkpt lat="59.9590698" lon="17.6980079">
        <ele>39.5513</ele>
        <time>2013-03-17T10:50:30Z</time>
      </trkpt>
      <trkpt lat="59.9590588" lon="17.6978884">
        <ele>39.0707</ele>
        <time>2013-03-17T10:50:31Z</time>
      </trkpt>
      <trkpt lat="59.9590454" lon="17.6977637">
        <ele>39.0707</ele>
        <time>2013-03-17T10:50:32Z</time>
      </trkpt>
      <trkpt lat="59.9590301" lon="17.6976355">
        <ele>38.5901</ele>
        <time>2013-03-17T10:50:33Z</time>
      </trkpt>
      <trkpt lat="59.9590124" lon="17.6975054">
        <ele>38.5901</ele>
        <time>2013-03-17T10:50:34Z</time>
      </trkpt>
      <trkpt lat="59.9589909" lon="17.6973743">
        <ele>38.1094</ele>
        <time>2013-03-17T10:50:35Z</time>
      </trkpt>
      <trkpt lat="59.9589677" lon="17.6972406">
        <ele>37.6287</ele>
        <time>2013-03-17T10:50:36Z</time>
      </trkpt>
      <trkpt lat="59.9589444" lon="17.6971044">
        <ele>37.6287</ele>
        <time>2013-03-17T10:50:37Z</time>
      </trkpt>
      <trkpt lat="59.9589189" lon="17.696969">
        <ele>37.6287</ele>
        <time>2013-03-17T10:50:38Z</time>
      </trkpt>
      <trkpt lat="59.9588895" lon="17.6968361">
        <ele>37.6287</ele>
        <time>2013-03-17T10:50:39Z</time>
      </trkpt>
      <trkpt lat="59.9588583" lon="17.6967092">
        <ele>37.6287</ele>
        <time>2013-03-17T10:50:40Z</time>
      </trkpt>
      <trkpt lat="59.9588248" lon="17.6965877">
        <ele>37.1481</ele>
        <time>2013-03-17T10:50:41Z</time>
      </trkpt>
      <trkpt lat="59.9587892" lon="17.6964727">
        <ele>37.1481</ele>
        <time>2013-03-17T10:50:42Z</time>
      </trkpt>
      <trkpt lat="59.9587518" lon="17.6963622">
        <ele>37.1481</ele>
        <time>2013-03-17T10:50:43Z</time>
      </trkpt>
      <trkpt lat="59.9587134" lon="17.6962559">
        <ele>37.1481</ele>
        <time>2013-03-17T10:50:44Z</time>
      </trkpt>
      <trkpt lat="59.958674" lon="17.6961521">
        <ele>37.1481</ele>
        <time>2013-03-17T10:50:45Z</time>
      </trkpt>
      <trkpt lat="59.9586337" lon="17.6960502">
        <ele>37.1481</ele>
        <time>2013-03-17T10:50:46Z</time>
      </trkpt>
      <trkpt lat="59.9585936" lon="17.6959492">
        <ele>37.1481</ele>
        <time>2013-03-17T10:50:47Z</time>
      </trkpt>
      <trkpt lat="59.9585543" lon="17.6958477">
        <ele>36.6675</ele>
        <time>2013-03-17T10:50:48Z</time>
      </trkpt>
      <trkpt lat="59.9585154" lon="17.6957452">
        <ele>36.6675</ele>
        <time>2013-03-17T10:50:49Z</time>
      </trkpt>
      <trkpt lat="59.9584757" lon="17.695643">
        <ele>36.6675</ele>
        <time>2013-03-17T10:50:50Z</time>
      </trkpt>
      <trkpt lat="59.9584349" lon="17.6955408">
        <ele>36.6675</ele>
        <time>2013-03-17T10:50:51Z</time>
      </trkpt>
      <trkpt lat="59.9583949" lon="17.6954379">
        <ele>36.6675</ele>
        <time>2013-03-17T10:50:52Z</time>
      </trkpt>
      <trkpt lat="59.9583555" lon="17.6953348">
        <ele>36.6675</ele>
        <time>2013-03-17T10:50:53Z</time>
      </trkpt>
      <trkpt lat="59.958316" lon="17.6952326">
        <ele>36.6675</ele>
        <time>2013-03-17T10:50:54Z</time>
      </trkpt>
      <trkpt lat="59.9582758" lon="17.6951308">
        <ele>36.1868</ele>
        <time>2013-03-17T10:50:55Z</time>
      </trkpt>
      <trkpt lat="59.9582364" lon="17.6950287">
        <ele>36.1868</ele>
        <time>2013-03-17T10:50:56Z</time>
      </trkpt>
      <trkpt lat="59.9581986" lon="17.6949266">
        <ele>36.1868</ele>
        <time>2013-03-17T10:50:57Z</time>
      </trkpt>
      <trkpt lat="59.9581619" lon="17.694825">
        <ele>36.1868</ele>
        <time>2013-03-17T10:50:58Z</time>
      </trkpt>
      <trkpt lat="59.9581261" lon="17.6947232">
        <ele>36.1868</ele>
        <time>2013-03-17T10:50:59Z</time>
      </trkpt>
      <trkpt lat="59.9580908" lon="17.6946221">
        <ele>36.1868</ele>
        <time>2013-03-17T10:51:00Z</time>
      </trkpt>
      <trkpt lat="59.9580556" lon="17.6945219">
        <ele>36.1868</ele>
        <time>2013-03-17T10:51:01Z</time>
      </trkpt>
      <trkpt lat="59.9580203" lon="17.6944226">
        <ele>36.1868</ele>
        <time>2013-03-17T10:51:02Z</time>
      </trkpt>
      <trkpt lat="59.9579851" lon="17.6943241">
        <ele>36.1868</ele>
        <time>2013-03-17T10:51:03Z</time>
      </trkpt>
      <trkpt lat="59.9579505" lon="17.6942251">
        <ele>36.1868</ele>
        <time>2013-03-17T10:51:04Z</time>
      </trkpt>
      <trkpt lat="59.9579159" lon="17.6941256">
        <ele>36.1868</ele>
        <time>2013-03-17T10:51:05Z</time>
      </trkpt>
      <trkpt lat="59.957881" lon="17.694027">
        <ele>36.1868</ele>
        <time>2013-03-17T10:51:06Z</time>
      </trkpt>
      <trkpt lat="59.9578463" lon="17.6939285">
        <ele>36.1868</ele>
        <time>2013-03-17T10:51:07Z</time>
      </trkpt>
      <trkpt lat="59.9578117" lon="17.6938295">
        <ele>35.7061</ele>
        <time>2013-03-17T10:51:08Z</time>
      </trkpt>
      <trkpt lat="59.9577769" lon="17.6937306">
        <ele>35.7061</ele>
        <time>2013-03-17T10:51:09Z</time>
      </trkpt>
      <trkpt lat="59.9577423" lon="17.6936316">
        <ele>35.7061</ele>
        <time>2013-03-17T10:51:10Z</time>
      </trkpt>
      <trkpt lat="59.9577083" lon="17.6935336">
        <ele>35.7061</ele>
        <time>2013-03-17T10:51:11Z</time>
      </trkpt>
      <trkpt lat="59.9576738" lon="17.6934364">
        <ele>35.7061</ele>
        <time>2013-03-17T10:51:12Z</time>
      </trkpt>
      <trkpt lat="59.9576386" lon="17.6933405">
        <ele>35.7061</ele>
        <time>2013-03-17T10:51:13Z</time>
      </trkpt>
      <trkpt lat="59.9576037" lon="17.6932453">
        <ele>35.7061</ele>
        <time>2013-03-17T10:51:14Z</time>
      </trkpt>
      <trkpt lat="59.9575692" lon="17.6931505">
        <ele>35.7061</ele>
        <time>2013-03-17T10:51:15Z</time>
      </trkpt>
      <trkpt lat="59.9575346" lon="17.6930555">
        <ele>35.7061</ele>
        <time>2013-03-17T10:51:16Z</time>
      </trkpt>
      <trkpt lat="59.9575008" lon="17.6929594">
        <ele>35.2255</ele>
        <time>2013-03-17T10:51:17Z</time>
      </trkpt>
      <trkpt lat="59.957467" lon="17.6928632">
        <ele>35.7061</ele>
        <time>2013-03-17T10:51:18Z</time>
      </trkpt>
      <trkpt lat="59.9574333" lon="17.6927671">
        <ele>35.7061</ele>
        <time>2013-03-17T10:51:19Z</time>
      </trkpt>
      <trkpt lat="59.9574008" lon="17.6926706">
        <ele>35.7061</ele>
        <time>2013-03-17T10:51:20Z</time>
      </trkpt>
      <trkpt lat="59.9573673" lon="17.6925732">
        <ele>35.7061</ele>
        <time>2013-03-17T10:51:21Z</time>
      </trkpt>
      <trkpt lat="59.9573328" lon="17.6924753">
        <ele>35.7061</ele>
        <time>2013-03-17T10:51:22Z</time>
      </trkpt>
      <trkpt lat="59.9572981" lon="17.6923775">
        <ele>35.7061</ele>
        <time>2013-03-17T10:51:23Z</time>
      </trkpt>
      <trkpt lat="59.9572644" lon="17.6922791">
        <ele>35.7061</ele>
        <time>2013-03-17T10:51:24Z</time>
      </trkpt>
      <trkpt lat="59.9572304" lon="17.6921803">
        <ele>35.7061</ele>
        <time>2013-03-17T10:51:25Z</time>
      </trkpt>
      <trkpt lat="59.9571957" lon="17.6920832">
        <ele>35.7061</ele>
        <time>2013-03-17T10:51:26Z</time>
      </trkpt>
      <trkpt lat="59.9571634" lon="17.6919871">
        <ele>35.7061</ele>
        <time>2013-03-17T10:51:27Z</time>
      </trkpt>
      <trkpt lat="59.9571314" lon="17.6918905">
        <ele>35.7061</ele>
        <time>2013-03-17T10:51:28Z</time>
      </trkpt>
      <trkpt lat="59.9570988" lon="17.6917944">
        <ele>35.7061</ele>
        <time>2013-03-17T10:51:29Z</time>
      </trkpt>
      <trkpt lat="59.9570658" lon="17.6916987">
        <ele>35.7061</ele>
        <time>2013-03-17T10:51:30Z</time>
      </trkpt>
      <trkpt lat="59.9570334" lon="17.6916027">
        <ele>35.7061</ele>
        <time>2013-03-17T10:51:31Z</time>
      </trkpt>
      <trkpt lat="59.9570014" lon="17.6915091">
        <ele>35.7061</ele>
        <time>2013-03-17T10:51:32Z</time>
      </trkpt>
      <trkpt lat="59.9569693" lon="17.6914175">
        <ele>36.1868</ele>
        <time>2013-03-17T10:51:33Z</time>
      </trkpt>
      <trkpt lat="59.9569379" lon="17.691328">
        <ele>36.1868</ele>
        <time>2013-03-17T10:51:34Z</time>
      </trkpt>
      <trkpt lat="59.9569082" lon="17.6912408">
        <ele>36.1868</ele>
        <time>2013-03-17T10:51:35Z</time>
      </trkpt>
      <trkpt lat="59.9568802" lon="17.6911561">
        <ele>36.6675</ele>
        <time>2013-03-17T10:51:36Z</time>
      </trkpt>
      <trkpt lat="59.9568527" lon="17.6910748">
        <ele>36.6675</ele>
        <time>2013-03-17T10:51:37Z</time>
      </trkpt>
      <trkpt lat="59.9568259" lon="17.6909989">
        <ele>37.1481</ele>
        <time>2013-03-17T10:51:38Z</time>
      </trkpt>
      <trkpt lat="59.9567998" lon="17.690928">
        <ele>37.1481</ele>
        <time>2013-03-17T10:51:39Z</time>
      </trkpt>
      <trkpt lat="59.9567775" lon="17.6908612">
        <ele>37.1481</ele>
        <time>2013-03-17T10:51:40Z</time>
      </trkpt>
      <trkpt lat="59.956757" lon="17.690796">
        <ele>37.1481</ele>
        <time>2013-03-17T10:51:41Z</time>
      </trkpt>
      <trkpt lat="59.9567361" lon="17.6907313">
        <ele>37.1481</ele>
        <time>2013-03-17T10:51:42Z</time>
      </trkpt>
      <trkpt lat="59.9567129" lon="17.6906671">
        <ele>37.1481</ele>
        <time>2013-03-17T10:51:43Z</time>
      </trkpt>
      <trkpt lat="59.956691" lon="17.6906023">
        <ele>37.1481</ele>
        <time>2013-03-17T10:51:44Z</time>
      </trkpt>
      <trkpt lat="59.9566685" lon="17.6905381">
        <ele>37.1481</ele>
        <time>2013-03-17T10:51:45Z</time>
      </trkpt>
      <trkpt lat="59.9566467" lon="17.6904733">
        <ele>37.1481</ele>
        <time>2013-03-17T10:51:46Z</time>
      </trkpt>
      <trkpt lat="59.9566264" lon="17.6904075">
        <ele>37.6287</ele>
        <time>2013-03-17T10:51:47Z</time>
      </trkpt>
      <trkpt lat="59.956606" lon="17.6903428">
        <ele>37.6287</ele>
        <time>2013-03-17T10:51:48Z</time>
      </trkpt>
      <trkpt lat="59.9565833" lon="17.6902801">
        <ele>38.1094</ele>
        <time>2013-03-17T10:51:49Z</time>
      </trkpt>
      <trkpt lat="59.9565607" lon="17.6902174">
        <ele>38.1094</ele>
        <time>2013-03-17T10:51:50Z</time>
      </trkpt>
      <trkpt lat="59.9565394" lon="17.6901536">
        <ele>38.1094</ele>
        <time>2013-03-17T10:51:51Z</time>
      </trkpt>
      <trkpt lat="59.9565195" lon="17.6900908">
        <ele>38.1094</ele>
        <time>2013-03-17T10:51:52Z</time>
      </trkpt>
      <trkpt lat="59.9564983" lon="17.6900284">
        <ele>38.1094</ele>
        <time>2013-03-17T10:51:53Z</time>
      </trkpt>
      <trkpt lat="59.9564772" lon="17.6899661">
        <ele>38.5901</ele>
        <time>2013-03-17T10:51:54Z</time>
      </trkpt>
      <trkpt lat="59.9564591" lon="17.6899031">
        <ele>38.1094</ele>
        <time>2013-03-17T10:51:55Z</time>
      </trkpt>
      <trkpt lat="59.9564425" lon="17.6898401">
        <ele>38.1094</ele>
        <time>2013-03-17T10:51:56Z</time>
      </trkpt>
      <trkpt lat="59.9564233" lon="17.6897745">
        <ele>38.1094</ele>
        <time>2013-03-17T10:51:57Z</time>
      </trkpt>
      <trkpt lat="59.9564029" lon="17.6897028">
        <ele>38.1094</ele>
        <time>2013-03-17T10:51:58Z</time>
      </trkpt>
      <trkpt lat="59.9563838" lon="17.6896257">
        <ele>38.1094</ele>
        <time>2013-03-17T10:51:59Z</time>
      </trkpt>
      <trkpt lat="59.9563659" lon="17.689545">
        <ele>38.1094</ele>
        <time>2013-03-17T10:52:00Z</time>
      </trkpt>
      <trkpt lat="59.9563473" lon="17.6894626">
        <ele>38.5901</ele>
        <time>2013-03-17T10:52:01Z</time>
      </trkpt>
      <trkpt lat="59.9563281" lon="17.6893786">
        <ele>38.5901</ele>
        <time>2013-03-17T10:52:02Z</time>
      </trkpt>
      <trkpt lat="59.9563082" lon="17.6892928">
        <ele>38.5901</ele>
        <time>2013-03-17T10:52:03Z</time>
      </trkpt>
      <trkpt lat="59.9562892" lon="17.6892047">
        <ele>38.5901</ele>
        <time>2013-03-17T10:52:04Z</time>
      </trkpt>
      <trkpt lat="59.9562691" lon="17.6891159">
        <ele>39.0707</ele>
        <time>2013-03-17T10:52:05Z</time>
      </trkpt>
      <trkpt lat="59.956246" lon="17.6890291">
        <ele>39.0707</ele>
        <time>2013-03-17T10:52:06Z</time>
      </trkpt>
      <trkpt lat="59.9562198" lon="17.6889451">
        <ele>39.0707</ele>
        <time>2013-03-17T10:52:07Z</time>
      </trkpt>
      <trkpt lat="59.9561903" lon="17.6888648">
        <ele>39.0707</ele>
        <time>2013-03-17T10:52:08Z</time>
      </trkpt>
      <trkpt lat="59.9561579" lon="17.688788">
        <ele>39.0707</ele>
        <time>2013-03-17T10:52:09Z</time>
      </trkpt>
      <trkpt lat="59.9561265" lon="17.6887085">
        <ele>39.0707</ele>
        <time>2013-03-17T10:52:10Z</time>
      </trkpt>
      <trkpt lat="59.9560989" lon="17.6886209">
        <ele>39.0707</ele>
        <time>2013-03-17T10:52:11Z</time>
      </trkpt>
      <trkpt lat="59.9560777" lon="17.6885225">
        <ele>39.0707</ele>
        <time>2013-03-17T10:52:12Z</time>
      </trkpt>
      <trkpt lat="59.9560613" lon="17.6884175">
        <ele>39.0707</ele>
        <time>2013-03-17T10:52:13Z</time>
      </trkpt>
      <trkpt lat="59.9560466" lon="17.6883112">
        <ele>39.0707</ele>
        <time>2013-03-17T10:52:14Z</time>
      </trkpt>
      <trkpt lat="59.9560315" lon="17.6882032">
        <ele>39.0707</ele>
        <time>2013-03-17T10:52:15Z</time>
      </trkpt>
      <trkpt lat="59.9560153" lon="17.6880937">
        <ele>39.0707</ele>
        <time>2013-03-17T10:52:16Z</time>
      </trkpt>
      <trkpt lat="59.9559986" lon="17.6879833">
        <ele>39.0707</ele>
        <time>2013-03-17T10:52:17Z</time>
      </trkpt>
      <trkpt lat="59.9559815" lon="17.6878724">
        <ele>39.0707</ele>
        <time>2013-03-17T10:52:18Z</time>
      </trkpt>
      <trkpt lat="59.955964" lon="17.6877614">
        <ele>39.0707</ele>
        <time>2013-03-17T10:52:19Z</time>
      </trkpt>
      <trkpt lat="59.9559461" lon="17.6876501">
        <ele>39.0707</ele>
        <time>2013-03-17T10:52:20Z</time>
      </trkpt>
      <trkpt lat="59.9559283" lon="17.6875383">
        <ele>39.0707</ele>
        <time>2013-03-17T10:52:21Z</time>
      </trkpt>
      <trkpt lat="59.955912" lon="17.6874247">
        <ele>39.0707</ele>
        <time>2013-03-17T10:52:22Z</time>
      </trkpt>
      <trkpt lat="59.9558953" lon="17.6873089">
        <ele>39.0707</ele>
        <time>2013-03-17T10:52:23Z</time>
      </trkpt>
      <trkpt lat="59.9558775" lon="17.6871922">
        <ele>39.0707</ele>
        <time>2013-03-17T10:52:24Z</time>
      </trkpt>
      <trkpt lat="59.9558594" lon="17.6870757">
        <ele>39.0707</ele>
        <time>2013-03-17T10:52:25Z</time>
      </trkpt>
      <trkpt lat="59.9558409" lon="17.6869602">
        <ele>39.0707</ele>
        <time>2013-03-17T10:52:26Z</time>
      </trkpt>
      <trkpt lat="59.9558234" lon="17.6868448">
        <ele>39.0707</ele>
        <time>2013-03-17T10:52:27Z</time>
      </trkpt>
      <trkpt lat="59.9558068" lon="17.6867288">
        <ele>39.0707</ele>
        <time>2013-03-17T10:52:28Z</time>
      </trkpt>
      <trkpt lat="59.9557904" lon="17.6866131">
        <ele>39.0707</ele>
        <time>2013-03-17T10:52:29Z</time>
      </trkpt>
      <trkpt lat="59.9557741" lon="17.6864975">
        <ele>39.0707</ele>
        <time>2013-03-17T10:52:30Z</time>
      </trkpt>
      <trkpt lat="59.9557589" lon="17.6863811">
        <ele>39.0707</ele>
        <time>2013-03-17T10:52:31Z</time>
      </trkpt>
      <trkpt lat="59.9557435" lon="17.6862655">
        <ele>38.5901</ele>
        <time>2013-03-17T10:52:32Z</time>
      </trkpt>
      <trkpt lat="59.9557271" lon="17.6861503">
        <ele>38.5901</ele>
        <time>2013-03-17T10:52:33Z</time>
      </trkpt>
      <trkpt lat="59.9557106" lon="17.6860355">
        <ele>38.5901</ele>
        <time>2013-03-17T10:52:34Z</time>
      </trkpt>
      <trkpt lat="59.9556933" lon="17.6859221">
        <ele>38.5901</ele>
        <time>2013-03-17T10:52:35Z</time>
      </trkpt>
      <trkpt lat="59.9556754" lon="17.6858095">
        <ele>38.5901</ele>
        <time>2013-03-17T10:52:36Z</time>
      </trkpt>
      <trkpt lat="59.9556588" lon="17.6856966">
        <ele>38.5901</ele>
        <time>2013-03-17T10:52:37Z</time>
      </trkpt>
      <trkpt lat="59.9556438" lon="17.6855841">
        <ele>38.5901</ele>
        <time>2013-03-17T10:52:38Z</time>
      </trkpt>
      <trkpt lat="59.9556298" lon="17.6854739">
        <ele>38.5901</ele>
        <time>2013-03-17T10:52:39Z</time>
      </trkpt>
      <trkpt lat="59.9556148" lon="17.6853645">
        <ele>38.1094</ele>
        <time>2013-03-17T10:52:40Z</time>
      </trkpt>
      <trkpt lat="59.9555992" lon="17.6852529">
        <ele>38.1094</ele>
        <time>2013-03-17T10:52:41Z</time>
      </trkpt>
      <trkpt lat="59.9555838" lon="17.6851409">
        <ele>38.1094</ele>
        <time>2013-03-17T10:52:42Z</time>
      </trkpt>
      <trkpt lat="59.9555676" lon="17.6850301">
        <ele>38.1094</ele>
        <time>2013-03-17T10:52:43Z</time>
      </trkpt>
      <trkpt lat="59.9555506" lon="17.6849187">
        <ele>38.1094</ele>
        <time>2013-03-17T10:52:44Z</time>
      </trkpt>
      <trkpt lat="59.9555332" lon="17.6848063">
        <ele>38.1094</ele>
        <time>2013-03-17T10:52:45Z</time>
      </trkpt>
      <trkpt lat="59.9555149" lon="17.6846935">
        <ele>37.6287</ele>
        <time>2013-03-17T10:52:46Z</time>
      </trkpt>
      <trkpt lat="59.9554967" lon="17.6845792">
        <ele>37.6287</ele>
        <time>2013-03-17T10:52:47Z</time>
      </trkpt>
      <trkpt lat="59.9554785" lon="17.6844627">
        <ele>37.6287</ele>
        <time>2013-03-17T10:52:48Z</time>
      </trkpt>
      <trkpt lat="59.9554588" lon="17.6843457">
        <ele>37.6287</ele>
        <time>2013-03-17T10:52:49Z</time>
      </trkpt>
      <trkpt lat="59.9554384" lon="17.6842277">
        <ele>37.6287</ele>
        <time>2013-03-17T10:52:50Z</time>
      </trkpt>
      <trkpt lat="59.9554169" lon="17.6841076">
        <ele>37.6287</ele>
        <time>2013-03-17T10:52:51Z</time>
      </trkpt>
      <trkpt lat="59.9553935" lon="17.6839853">
        <ele>37.1481</ele>
        <time>2013-03-17T10:52:52Z</time>
      </trkpt>
      <trkpt lat="59.9553678" lon="17.6838612">
        <ele>37.1481</ele>
        <time>2013-03-17T10:52:53Z</time>
      </trkpt>
      <trkpt lat="59.9553395" lon="17.6837343">
        <ele>37.1481</ele>
        <time>2013-03-17T10:52:54Z</time>
      </trkpt>
      <trkpt lat="59.9553097" lon="17.6836074">
        <ele>37.1481</ele>
        <time>2013-03-17T10:52:55Z</time>
      </trkpt>
      <trkpt lat="59.9552799" lon="17.6834812">
        <ele>37.1481</ele>
        <time>2013-03-17T10:52:56Z</time>
      </trkpt>
      <trkpt lat="59.9552495" lon="17.6833568">
        <ele>37.1481</ele>
        <time>2013-03-17T10:52:57Z</time>
      </trkpt>
      <trkpt lat="59.9552199" lon="17.6832334">
        <ele>37.1481</ele>
        <time>2013-03-17T10:52:58Z</time>
      </trkpt>
      <trkpt lat="59.95519" lon="17.6831122">
        <ele>37.1481</ele>
        <time>2013-03-17T10:52:59Z</time>
      </trkpt>
      <trkpt lat="59.9551584" lon="17.6829942">
        <ele>37.1481</ele>
        <time>2013-03-17T10:53:00Z</time>
      </trkpt>
      <trkpt lat="59.9551256" lon="17.6828787">
        <ele>37.1481</ele>
        <time>2013-03-17T10:53:01Z</time>
      </trkpt>
      <trkpt lat="59.9550934" lon="17.6827652">
        <ele>37.1481</ele>
        <time>2013-03-17T10:53:02Z</time>
      </trkpt>
      <trkpt lat="59.9550614" lon="17.6826525">
        <ele>37.1481</ele>
        <time>2013-03-17T10:53:03Z</time>
      </trkpt>
      <trkpt lat="59.9550302" lon="17.6825432">
        <ele>37.1481</ele>
        <time>2013-03-17T10:53:04Z</time>
      </trkpt>
      <trkpt lat="59.9549997" lon="17.6824386">
        <ele>37.1481</ele>
        <time>2013-03-17T10:53:05Z</time>
      </trkpt>
      <trkpt lat="59.9549678" lon="17.6823389">
        <ele>36.6675</ele>
        <time>2013-03-17T10:53:06Z</time>
      </trkpt>
      <trkpt lat="59.9549367" lon="17.6822432">
        <ele>36.6675</ele>
        <time>2013-03-17T10:53:07Z</time>
      </trkpt>
      <trkpt lat="59.9549098" lon="17.6821506">
        <ele>36.6675</ele>
        <time>2013-03-17T10:53:08Z</time>
      </trkpt>
      <trkpt lat="59.9548834" lon="17.6820675">
        <ele>37.1481</ele>
        <time>2013-03-17T10:53:09Z</time>
      </trkpt>
      <trkpt lat="59.954857" lon="17.6819965">
        <ele>37.1481</ele>
        <time>2013-03-17T10:53:10Z</time>
      </trkpt>
      <trkpt lat="59.9548289" lon="17.6819452">
        <ele>36.6675</ele>
        <time>2013-03-17T10:53:11Z</time>
      </trkpt>
      <trkpt lat="59.9548026" lon="17.6819187">
        <ele>36.6675</ele>
        <time>2013-03-17T10:53:12Z</time>
      </trkpt>
      <trkpt lat="59.9547792" lon="17.6818995">
        <ele>36.6675</ele>
        <time>2013-03-17T10:53:13Z</time>
      </trkpt>
      <trkpt lat="59.9547558" lon="17.6818706">
        <ele>36.6675</ele>
        <time>2013-03-17T10:53:14Z</time>
      </trkpt>
      <trkpt lat="59.9547321" lon="17.6818334">
        <ele>36.1868</ele>
        <time>2013-03-17T10:53:15Z</time>
      </trkpt>
      <trkpt lat="59.9547066" lon="17.6817898">
        <ele>36.1868</ele>
        <time>2013-03-17T10:53:16Z</time>
      </trkpt>
      <trkpt lat="59.954679" lon="17.6817393">
        <ele>36.1868</ele>
        <time>2013-03-17T10:53:17Z</time>
      </trkpt>
      <trkpt lat="59.9546505" lon="17.6816816">
        <ele>36.1868</ele>
        <time>2013-03-17T10:53:18Z</time>
      </trkpt>
      <trkpt lat="59.9546207" lon="17.6816168">
        <ele>36.1868</ele>
        <time>2013-03-17T10:53:19Z</time>
      </trkpt>
      <trkpt lat="59.9545923" lon="17.681543">
        <ele>35.7061</ele>
        <time>2013-03-17T10:53:20Z</time>
      </trkpt>
      <trkpt lat="59.9545689" lon="17.6814582">
        <ele>35.7061</ele>
        <time>2013-03-17T10:53:21Z</time>
      </trkpt>
      <trkpt lat="59.9545466" lon="17.6813671">
        <ele>35.7061</ele>
        <time>2013-03-17T10:53:22Z</time>
      </trkpt>
      <trkpt lat="59.9545196" lon="17.6812744">
        <ele>35.2255</ele>
        <time>2013-03-17T10:53:23Z</time>
      </trkpt>
      <trkpt lat="59.9544879" lon="17.6811795">
        <ele>35.2255</ele>
        <time>2013-03-17T10:53:24Z</time>
      </trkpt>
      <trkpt lat="59.9544545" lon="17.6810801">
        <ele>35.2255</ele>
        <time>2013-03-17T10:53:25Z</time>
      </trkpt>
      <trkpt lat="59.9544213" lon="17.6809763">
        <ele>35.2255</ele>
        <time>2013-03-17T10:53:26Z</time>
      </trkpt>
      <trkpt lat="59.9543876" lon="17.6808705">
        <ele>35.2255</ele>
        <time>2013-03-17T10:53:27Z</time>
      </trkpt>
      <trkpt lat="59.9543534" lon="17.6807647">
        <ele>35.2255</ele>
        <time>2013-03-17T10:53:28Z</time>
      </trkpt>
      <trkpt lat="59.9543188" lon="17.6806579">
        <ele>34.7449</ele>
        <time>2013-03-17T10:53:29Z</time>
      </trkpt>
      <trkpt lat="59.9542835" lon="17.6805484">
        <ele>34.7449</ele>
        <time>2013-03-17T10:53:30Z</time>
      </trkpt>
      <trkpt lat="59.9542463" lon="17.6804405">
        <ele>34.7449</ele>
        <time>2013-03-17T10:53:31Z</time>
      </trkpt>
      <trkpt lat="59.9542076" lon="17.6803357">
        <ele>34.7449</ele>
        <time>2013-03-17T10:53:32Z</time>
      </trkpt>
      <trkpt lat="59.9541694" lon="17.6802302">
        <ele>34.7449</ele>
        <time>2013-03-17T10:53:33Z</time>
      </trkpt>
      <trkpt lat="59.9541333" lon="17.680124">
        <ele>34.7449</ele>
        <time>2013-03-17T10:53:34Z</time>
      </trkpt>
      <trkpt lat="59.9540975" lon="17.6800174">
        <ele>34.7449</ele>
        <time>2013-03-17T10:53:35Z</time>
      </trkpt>
      <trkpt lat="59.9540611" lon="17.679907">
        <ele>34.7449</ele>
        <time>2013-03-17T10:53:36Z</time>
      </trkpt>
      <trkpt lat="59.9540244" lon="17.6797939">
        <ele>34.7449</ele>
        <time>2013-03-17T10:53:37Z</time>
      </trkpt>
      <trkpt lat="59.9539872" lon="17.6796785">
        <ele>35.2255</ele>
        <time>2013-03-17T10:53:38Z</time>
      </trkpt>
      <trkpt lat="59.9539484" lon="17.679561">
        <ele>34.7449</ele>
        <time>2013-03-17T10:53:39Z</time>
      </trkpt>
      <trkpt lat="59.9539085" lon="17.6794443">
        <ele>35.2255</ele>
        <time>2013-03-17T10:53:40Z</time>
      </trkpt>
      <trkpt lat="59.9538665" lon="17.679329">
        <ele>34.7449</ele>
        <time>2013-03-17T10:53:41Z</time>
      </trkpt>
      <trkpt lat="59.9538243" lon="17.6792127">
        <ele>35.2255</ele>
        <time>2013-03-17T10:53:42Z</time>
      </trkpt>
      <trkpt lat="59.9537835" lon="17.6790897">
        <ele>35.2255</ele>
        <time>2013-03-17T10:53:43Z</time>
      </trkpt>
      <trkpt lat="59.9537458" lon="17.6789668">
        <ele>35.2255</ele>
        <time>2013-03-17T10:53:44Z</time>
      </trkpt>
      <trkpt lat="59.9537085" lon="17.6788492">
        <ele>35.2255</ele>
        <time>2013-03-17T10:53:45Z</time>
      </trkpt>
      <trkpt lat="59.9536721" lon="17.6787368">
        <ele>35.2255</ele>
        <time>2013-03-17T10:53:46Z</time>
      </trkpt>
      <trkpt lat="59.9536376" lon="17.6786301">
        <ele>35.2255</ele>
        <time>2013-03-17T10:53:47Z</time>
      </trkpt>
      <trkpt lat="59.9536047" lon="17.6785302">
        <ele>35.2255</ele>
        <time>2013-03-17T10:53:48Z</time>
      </trkpt>
      <trkpt lat="59.9535731" lon="17.6784354">
        <ele>35.7061</ele>
        <time>2013-03-17T10:53:49Z</time>
      </trkpt>
      <trkpt lat="59.9535433" lon="17.6783452">
        <ele>35.7061</ele>
        <time>2013-03-17T10:53:50Z</time>
      </trkpt>
      <trkpt lat="59.9535157" lon="17.6782598">
        <ele>35.7061</ele>
        <time>2013-03-17T10:53:51Z</time>
      </trkpt>
      <trkpt lat="59.9534902" lon="17.6781789">
        <ele>36.1868</ele>
        <time>2013-03-17T10:53:52Z</time>
      </trkpt>
      <trkpt lat="59.9534654" lon="17.6781049">
        <ele>36.1868</ele>
        <time>2013-03-17T10:53:53Z</time>
      </trkpt>
      <trkpt lat="59.9534406" lon="17.6780369">
        <ele>36.1868</ele>
        <time>2013-03-17T10:53:54Z</time>
      </trkpt>
      <trkpt lat="59.9534173" lon="17.6779716">
        <ele>36.1868</ele>
        <time>2013-03-17T10:53:55Z</time>
      </trkpt>
      <trkpt lat="59.9533955" lon="17.677909">
        <ele>36.1868</ele>
        <time>2013-03-17T10:53:56Z</time>
      </trkpt>
      <trkpt lat="59.9533755" lon="17.6778489">
        <ele>36.1868</ele>
        <time>2013-03-17T10:53:57Z</time>
      </trkpt>
      <trkpt lat="59.9533562" lon="17.6777926">
        <ele>36.1868</ele>
        <time>2013-03-17T10:53:58Z</time>
      </trkpt>
      <trkpt lat="59.9533385" lon="17.6777392">
        <ele>36.1868</ele>
        <time>2013-03-17T10:53:59Z</time>
      </trkpt>
      <trkpt lat="59.9533194" lon="17.6776904">
        <ele>36.1868</ele>
        <time>2013-03-17T10:54:00Z</time>
      </trkpt>
      <trkpt lat="59.9533007" lon="17.6776451">
        <ele>35.7061</ele>
        <time>2013-03-17T10:54:01Z</time>
      </trkpt>
      <trkpt lat="59.9532851" lon="17.6776012">
        <ele>35.7061</ele>
        <time>2013-03-17T10:54:02Z</time>
      </trkpt>
      <trkpt lat="59.9532703" lon="17.6775604">
        <ele>35.7061</ele>
        <time>2013-03-17T10:54:03Z</time>
      </trkpt>
      <trkpt lat="59.9532567" lon="17.6775218">
        <ele>35.7061</ele>
        <time>2013-03-17T10:54:04Z</time>
      </trkpt>
      <trkpt lat="59.9532442" lon="17.6774827">
        <ele>35.7061</ele>
        <time>2013-03-17T10:54:05Z</time>
      </trkpt>
      <trkpt lat="59.9532307" lon="17.6774437">
        <ele>36.1868</ele>
        <time>2013-03-17T10:54:06Z</time>
      </trkpt>
      <trkpt lat="59.9532159" lon="17.6774023">
        <ele>36.1868</ele>
        <time>2013-03-17T10:54:07Z</time>
      </trkpt>
      <trkpt lat="59.9532004" lon="17.6773602">
        <ele>36.1868</ele>
        <time>2013-03-17T10:54:08Z</time>
      </trkpt>
      <trkpt lat="59.9531848" lon="17.6773195">
        <ele>36.1868</ele>
        <time>2013-03-17T10:54:09Z</time>
      </trkpt>
      <trkpt lat="59.95317" lon="17.6772789">
        <ele>36.1868</ele>
        <time>2013-03-17T10:54:10Z</time>
      </trkpt>
      <trkpt lat="59.9531556" lon="17.6772382">
        <ele>35.7061</ele>
        <time>2013-03-17T10:54:11Z</time>
      </trkpt>
      <trkpt lat="59.9531408" lon="17.6771982">
        <ele>35.7061</ele>
        <time>2013-03-17T10:54:12Z</time>
      </trkpt>
      <trkpt lat="59.9531252" lon="17.6771596">
        <ele>35.7061</ele>
        <time>2013-03-17T10:54:13Z</time>
      </trkpt>
      <trkpt lat="59.9531091" lon="17.6771214">
        <ele>35.2255</ele>
        <time>2013-03-17T10:54:14Z</time>
      </trkpt>
      <trkpt lat="59.9530923" lon="17.6770859">
        <ele>35.2255</ele>
        <time>2013-03-17T10:54:15Z</time>
      </trkpt>
      <trkpt lat="59.9530748" lon="17.6770523">
        <ele>35.2255</ele>
        <time>2013-03-17T10:54:16Z</time>
      </trkpt>
      <trkpt lat="59.9530569" lon="17.6770154">
        <ele>35.2255</ele>
        <time>2013-03-17T10:54:17Z</time>
      </trkpt>
      <trkpt lat="59.9530398" lon="17.6769734">
        <ele>34.7449</ele>
        <time>2013-03-17T10:54:18Z</time>
      </trkpt>
      <trkpt lat="59.9530272" lon="17.676928">
        <ele>35.2255</ele>
        <time>2013-03-17T10:54:19Z</time>
      </trkpt>
      <trkpt lat="59.9530132" lon="17.6768826">
        <ele>35.2255</ele>
        <time>2013-03-17T10:54:20Z</time>
      </trkpt>
      <trkpt lat="59.9529962" lon="17.6768319">
        <ele>35.2255</ele>
        <time>2013-03-17T10:54:21Z</time>
      </trkpt>
      <trkpt lat="59.9529765" lon="17.6767766">
        <ele>35.2255</ele>
        <time>2013-03-17T10:54:22Z</time>
      </trkpt>
      <trkpt lat="59.9529544" lon="17.6767185">
        <ele>35.2255</ele>
        <time>2013-03-17T10:54:23Z</time>
      </trkpt>
      <trkpt lat="59.95293" lon="17.6766568">
        <ele>35.2255</ele>
        <time>2013-03-17T10:54:24Z</time>
      </trkpt>
      <trkpt lat="59.9529044" lon="17.6765917">
        <ele>35.2255</ele>
        <time>2013-03-17T10:54:25Z</time>
      </trkpt>
      <trkpt lat="59.9528776" lon="17.6765242">
        <ele>35.7061</ele>
        <time>2013-03-17T10:54:26Z</time>
      </trkpt>
      <trkpt lat="59.9528499" lon="17.6764564">
        <ele>35.7061</ele>
        <time>2013-03-17T10:54:27Z</time>
      </trkpt>
      <trkpt lat="59.9528227" lon="17.6763875">
        <ele>35.7061</ele>
        <time>2013-03-17T10:54:28Z</time>
      </trkpt>
      <trkpt lat="59.9527962" lon="17.6763162">
        <ele>35.7061</ele>
        <time>2013-03-17T10:54:29Z</time>
      </trkpt>
      <trkpt lat="59.9527698" lon="17.6762408">
        <ele>36.1868</ele>
        <time>2013-03-17T10:54:30Z</time>
      </trkpt>
      <trkpt lat="59.9527433" lon="17.6761601">
        <ele>36.1868</ele>
        <time>2013-03-17T10:54:31Z</time>
      </trkpt>
      <trkpt lat="59.952716" lon="17.6760747">
        <ele>36.1868</ele>
        <time>2013-03-17T10:54:32Z</time>
      </trkpt>
      <trkpt lat="59.9526879" lon="17.675988">
        <ele>36.1868</ele>
        <time>2013-03-17T10:54:33Z</time>
      </trkpt>
      <trkpt lat="59.9526579" lon="17.6759034">
        <ele>36.6675</ele>
        <time>2013-03-17T10:54:34Z</time>
      </trkpt>
      <trkpt lat="59.9526263" lon="17.6758202">
        <ele>36.6675</ele>
        <time>2013-03-17T10:54:35Z</time>
      </trkpt>
      <trkpt lat="59.9525938" lon="17.6757397">
        <ele>37.1481</ele>
        <time>2013-03-17T10:54:36Z</time>
      </trkpt>
      <trkpt lat="59.9525611" lon="17.6756614">
        <ele>37.6287</ele>
        <time>2013-03-17T10:54:37Z</time>
      </trkpt>
      <trkpt lat="59.9525294" lon="17.6755861">
        <ele>37.6287</ele>
        <time>2013-03-17T10:54:38Z</time>
      </trkpt>
      <trkpt lat="59.9524987" lon="17.6755136">
        <ele>38.1094</ele>
        <time>2013-03-17T10:54:39Z</time>
      </trkpt>
      <trkpt lat="59.9524677" lon="17.6754434">
        <ele>38.5901</ele>
        <time>2013-03-17T10:54:40Z</time>
      </trkpt>
      <trkpt lat="59.9524357" lon="17.6753745">
        <ele>38.5901</ele>
        <time>2013-03-17T10:54:41Z</time>
      </trkpt>
      <trkpt lat="59.9524072" lon="17.6752998">
        <ele>39.0707</ele>
        <time>2013-03-17T10:54:42Z</time>
      </trkpt>
      <trkpt lat="59.9523829" lon="17.6752169">
        <ele>39.0707</ele>
        <time>2013-03-17T10:54:43Z</time>
      </trkpt>
      <trkpt lat="59.9523602" lon="17.6751283">
        <ele>39.0707</ele>
        <time>2013-03-17T10:54:44Z</time>
      </trkpt>
      <trkpt lat="59.9523378" lon="17.6750318">
        <ele>39.0707</ele>
        <time>2013-03-17T10:54:45Z</time>
      </trkpt>
      <trkpt lat="59.9523164" lon="17.6749279">
        <ele>39.0707</ele>
        <time>2013-03-17T10:54:46Z</time>
      </trkpt>
      <trkpt lat="59.9522986" lon="17.6748134">
        <ele>39.0707</ele>
        <time>2013-03-17T10:54:47Z</time>
      </trkpt>
      <trkpt lat="59.9522799" lon="17.6746885">
        <ele>39.0707</ele>
        <time>2013-03-17T10:54:48Z</time>
      </trkpt>
      <trkpt lat="59.9522595" lon="17.6745548">
        <ele>38.5901</ele>
        <time>2013-03-17T10:54:49Z</time>
      </trkpt>
      <trkpt lat="59.9522357" lon="17.6744172">
        <ele>38.1094</ele>
        <time>2013-03-17T10:54:50Z</time>
      </trkpt>
      <trkpt lat="59.9522083" lon="17.6742805">
        <ele>37.6287</ele>
        <time>2013-03-17T10:54:51Z</time>
      </trkpt>
      <trkpt lat="59.9521803" lon="17.6741447">
        <ele>37.6287</ele>
        <time>2013-03-17T10:54:52Z</time>
      </trkpt>
      <trkpt lat="59.952153" lon="17.6740084">
        <ele>37.6287</ele>
        <time>2013-03-17T10:54:53Z</time>
      </trkpt>
      <trkpt lat="59.9521257" lon="17.6738716">
        <ele>37.1481</ele>
        <time>2013-03-17T10:54:54Z</time>
      </trkpt>
      <trkpt lat="59.952101" lon="17.6737313">
        <ele>37.1481</ele>
        <time>2013-03-17T10:54:55Z</time>
      </trkpt>
      <trkpt lat="59.9520773" lon="17.6735899">
        <ele>36.6675</ele>
        <time>2013-03-17T10:54:56Z</time>
      </trkpt>
      <trkpt lat="59.9520532" lon="17.6734521">
        <ele>36.1868</ele>
        <time>2013-03-17T10:54:57Z</time>
      </trkpt>
      <trkpt lat="59.9520291" lon="17.6733175">
        <ele>36.1868</ele>
        <time>2013-03-17T10:54:58Z</time>
      </trkpt>
      <trkpt lat="59.9520051" lon="17.6731835">
        <ele>36.1868</ele>
        <time>2013-03-17T10:54:59Z</time>
      </trkpt>
      <trkpt lat="59.9519825" lon="17.6730478">
        <ele>35.7061</ele>
        <time>2013-03-17T10:55:00Z</time>
      </trkpt>
      <trkpt lat="59.9519622" lon="17.6729107">
        <ele>35.7061</ele>
        <time>2013-03-17T10:55:01Z</time>
      </trkpt>
      <trkpt lat="59.9519436" lon="17.6727739">
        <ele>35.7061</ele>
        <time>2013-03-17T10:55:02Z</time>
      </trkpt>
      <trkpt lat="59.9519264" lon="17.6726367">
        <ele>35.7061</ele>
        <time>2013-03-17T10:55:03Z</time>
      </trkpt>
      <trkpt lat="59.9519104" lon="17.6724968">
        <ele>35.2255</ele>
        <time>2013-03-17T10:55:04Z</time>
      </trkpt>
      <trkpt lat="59.9518959" lon="17.6723548">
        <ele>35.2255</ele>
        <time>2013-03-17T10:55:05Z</time>
      </trkpt>
      <trkpt lat="59.9518824" lon="17.6722113">
        <ele>34.7449</ele>
        <time>2013-03-17T10:55:06Z</time>
      </trkpt>
      <trkpt lat="59.9518702" lon="17.6720664">
        <ele>34.7449</ele>
        <time>2013-03-17T10:55:07Z</time>
      </trkpt>
      <trkpt lat="59.9518618" lon="17.6719223">
        <ele>34.7449</ele>
        <time>2013-03-17T10:55:08Z</time>
      </trkpt>
      <trkpt lat="59.9518566" lon="17.6717815">
        <ele>34.7449</ele>
        <time>2013-03-17T10:55:09Z</time>
      </trkpt>
      <trkpt lat="59.9518519" lon="17.6716425">
        <ele>34.2642</ele>
        <time>2013-03-17T10:55:10Z</time>
      </trkpt>
      <trkpt lat="59.9518456" lon="17.6715024">
        <ele>34.2642</ele>
        <time>2013-03-17T10:55:11Z</time>
      </trkpt>
      <trkpt lat="59.9518342" lon="17.6713612">
        <ele>33.7834</ele>
        <time>2013-03-17T10:55:12Z</time>
      </trkpt>
      <trkpt lat="59.9518166" lon="17.6712197">
        <ele>33.3029</ele>
        <time>2013-03-17T10:55:13Z</time>
      </trkpt>
      <trkpt lat="59.9517981" lon="17.6710693">
        <ele>32.8223</ele>
        <time>2013-03-17T10:55:14Z</time>
      </trkpt>
      <trkpt lat="59.9517815" lon="17.6709157">
        <ele>32.3416</ele>
        <time>2013-03-17T10:55:15Z</time>
      </trkpt>
      <trkpt lat="59.9517756" lon="17.6707579">
        <ele>31.8607</ele>
        <time>2013-03-17T10:55:16Z</time>
      </trkpt>
      <trkpt lat="59.9517795" lon="17.6706013">
        <ele>31.3801</ele>
        <time>2013-03-17T10:55:17Z</time>
      </trkpt>
      <trkpt lat="59.9517875" lon="17.6704474">
        <ele>30.8995</ele>
        <time>2013-03-17T10:55:18Z</time>
      </trkpt>
      <trkpt lat="59.9517987" lon="17.6702984">
        <ele>30.8995</ele>
        <time>2013-03-17T10:55:19Z</time>
      </trkpt>
      <trkpt lat="59.9518094" lon="17.6701513">
        <ele>30.4188</ele>
        <time>2013-03-17T10:55:20Z</time>
      </trkpt>
      <trkpt lat="59.9518184" lon="17.6700062">
        <ele>30.4188</ele>
        <time>2013-03-17T10:55:21Z</time>
      </trkpt>
      <trkpt lat="59.9518265" lon="17.6698641">
        <ele>29.9381</ele>
        <time>2013-03-17T10:55:22Z</time>
      </trkpt>
      <trkpt lat="59.9518336" lon="17.6697253">
        <ele>29.9381</ele>
        <time>2013-03-17T10:55:23Z</time>
      </trkpt>
      <trkpt lat="59.9518383" lon="17.6695871">
        <ele>29.9381</ele>
        <time>2013-03-17T10:55:24Z</time>
      </trkpt>
      <trkpt lat="59.9518431" lon="17.6694519">
        <ele>29.4575</ele>
        <time>2013-03-17T10:55:25Z</time>
      </trkpt>
      <trkpt lat="59.9518474" lon="17.6693209">
        <ele>29.4575</ele>
        <time>2013-03-17T10:55:26Z</time>
      </trkpt>
      <trkpt lat="59.9518523" lon="17.6691949">
        <ele>29.4575</ele>
        <time>2013-03-17T10:55:27Z</time>
      </trkpt>
      <trkpt lat="59.9518565" lon="17.6690729">
        <ele>28.9769</ele>
        <time>2013-03-17T10:55:28Z</time>
      </trkpt>
      <trkpt lat="59.9518588" lon="17.6689522">
        <ele>28.9769</ele>
        <time>2013-03-17T10:55:29Z</time>
      </trkpt>
      <trkpt lat="59.9518585" lon="17.6688298">
        <ele>28.4962</ele>
        <time>2013-03-17T10:55:30Z</time>
      </trkpt>
      <trkpt lat="59.951852" lon="17.6687076">
        <ele>28.4962</ele>
        <time>2013-03-17T10:55:31Z</time>
      </trkpt>
      <trkpt lat="59.9518374" lon="17.6685864">
        <ele>28.0155</ele>
        <time>2013-03-17T10:55:32Z</time>
      </trkpt>
      <trkpt lat="59.9518146" lon="17.6684667">
        <ele>28.0155</ele>
        <time>2013-03-17T10:55:33Z</time>
      </trkpt>
      <trkpt lat="59.9517846" lon="17.6683486">
        <ele>28.0155</ele>
        <time>2013-03-17T10:55:34Z</time>
      </trkpt>
      <trkpt lat="59.9517498" lon="17.6682372">
        <ele>27.5349</ele>
        <time>2013-03-17T10:55:35Z</time>
      </trkpt>
      <trkpt lat="59.9517084" lon="17.6681415">
        <ele>27.5349</ele>
        <time>2013-03-17T10:55:36Z</time>
      </trkpt>
      <trkpt lat="59.9516597" lon="17.6680692">
        <ele>27.5349</ele>
        <time>2013-03-17T10:55:37Z</time>
      </trkpt>
      <trkpt lat="59.9516053" lon="17.6680222">
        <ele>27.5349</ele>
        <time>2013-03-17T10:55:38Z</time>
      </trkpt>
      <trkpt lat="59.9515489" lon="17.6680001">
        <ele>27.5349</ele>
        <time>2013-03-17T10:55:39Z</time>
      </trkpt>
      <trkpt lat="59.9514929" lon="17.6679979">
        <ele>27.5349</ele>
        <time>2013-03-17T10:55:40Z</time>
      </trkpt>
      <trkpt lat="59.9514378" lon="17.6680057">
        <ele>27.5349</ele>
        <time>2013-03-17T10:55:41Z</time>
      </trkpt>
      <trkpt lat="59.9513836" lon="17.6680169">
        <ele>27.0543</ele>
        <time>2013-03-17T10:55:42Z</time>
      </trkpt>
      <trkpt lat="59.9513309" lon="17.6680321">
        <ele>27.0543</ele>
        <time>2013-03-17T10:55:43Z</time>
      </trkpt>
      <trkpt lat="59.951279" lon="17.6680514">
        <ele>27.0543</ele>
        <time>2013-03-17T10:55:44Z</time>
      </trkpt>
      <trkpt lat="59.9512277" lon="17.6680702">
        <ele>27.0543</ele>
        <time>2013-03-17T10:55:45Z</time>
      </trkpt>
      <trkpt lat="59.951178" lon="17.6680874">
        <ele>27.0543</ele>
        <time>2013-03-17T10:55:46Z</time>
      </trkpt>
      <trkpt lat="59.9511294" lon="17.6681036">
        <ele>27.0543</ele>
        <time>2013-03-17T10:55:47Z</time>
      </trkpt>
      <trkpt lat="59.9510817" lon="17.6681194">
        <ele>26.5736</ele>
        <time>2013-03-17T10:55:48Z</time>
      </trkpt>
      <trkpt lat="59.9510351" lon="17.6681339">
        <ele>26.5736</ele>
        <time>2013-03-17T10:55:49Z</time>
      </trkpt>
      <trkpt lat="59.9509894" lon="17.6681459">
        <ele>26.5736</ele>
        <time>2013-03-17T10:55:50Z</time>
      </trkpt>
      <trkpt lat="59.9509442" lon="17.6681571">
        <ele>26.5736</ele>
        <time>2013-03-17T10:55:51Z</time>
      </trkpt>
      <trkpt lat="59.9508986" lon="17.6681666">
        <ele>26.5736</ele>
        <time>2013-03-17T10:55:52Z</time>
      </trkpt>
      <trkpt lat="59.9508527" lon="17.6681735">
        <ele>26.5736</ele>
        <time>2013-03-17T10:55:53Z</time>
      </trkpt>
      <trkpt lat="59.9508069" lon="17.6681812">
        <ele>27.0543</ele>
        <time>2013-03-17T10:55:54Z</time>
      </trkpt>
      <trkpt lat="59.9507608" lon="17.6681917">
        <ele>27.0543</ele>
        <time>2013-03-17T10:55:55Z</time>
      </trkpt>
      <trkpt lat="59.9507145" lon="17.6682025">
        <ele>27.0543</ele>
        <time>2013-03-17T10:55:56Z</time>
      </trkpt>
      <trkpt lat="59.9506684" lon="17.6682122">
        <ele>27.0543</ele>
        <time>2013-03-17T10:55:57Z</time>
      </trkpt>
      <trkpt lat="59.9506227" lon="17.6682206">
        <ele>27.0543</ele>
        <time>2013-03-17T10:55:58Z</time>
      </trkpt>
      <trkpt lat="59.9505776" lon="17.6682282">
        <ele>27.5349</ele>
        <time>2013-03-17T10:55:59Z</time>
      </trkpt>
      <trkpt lat="59.9505324" lon="17.6682341">
        <ele>27.5349</ele>
        <time>2013-03-17T10:56:00Z</time>
      </trkpt>
      <trkpt lat="59.950487" lon="17.6682367">
        <ele>27.5349</ele>
        <time>2013-03-17T10:56:01Z</time>
      </trkpt>
      <trkpt lat="59.9504415" lon="17.668236">
        <ele>27.5349</ele>
        <time>2013-03-17T10:56:02Z</time>
      </trkpt>
      <trkpt lat="59.9503959" lon="17.6682335">
        <ele>27.5349</ele>
        <time>2013-03-17T10:56:03Z</time>
      </trkpt>
      <trkpt lat="59.95035" lon="17.668231">
        <ele>28.0155</ele>
        <time>2013-03-17T10:56:04Z</time>
      </trkpt>
      <trkpt lat="59.9503045" lon="17.668227">
        <ele>28.0155</ele>
        <time>2013-03-17T10:56:05Z</time>
      </trkpt>
      <trkpt lat="59.9502595" lon="17.6682189">
        <ele>28.0155</ele>
        <time>2013-03-17T10:56:06Z</time>
      </trkpt>
      <trkpt lat="59.9502145" lon="17.6682085">
        <ele>28.0155</ele>
        <time>2013-03-17T10:56:07Z</time>
      </trkpt>
      <trkpt lat="59.9501695" lon="17.6681974">
        <ele>28.0155</ele>
        <time>2013-03-17T10:56:08Z</time>
      </trkpt>
      <trkpt lat="59.9501243" lon="17.6681842">
        <ele>28.4962</ele>
        <time>2013-03-17T10:56:09Z</time>
      </trkpt>
      <trkpt lat="59.9500788" lon="17.6681709">
        <ele>28.4962</ele>
        <time>2013-03-17T10:56:10Z</time>
      </trkpt>
      <trkpt lat="59.9500327" lon="17.6681586">
        <ele>28.4962</ele>
        <time>2013-03-17T10:56:11Z</time>
      </trkpt>
      <trkpt lat="59.949986" lon="17.668144">
        <ele>28.4962</ele>
        <time>2013-03-17T10:56:12Z</time>
      </trkpt>
      <trkpt lat="59.9499393" lon="17.668129">
        <ele>28.0155</ele>
        <time>2013-03-17T10:56:13Z</time>
      </trkpt>
      <trkpt lat="59.9498922" lon="17.6681145">
        <ele>28.4962</ele>
        <time>2013-03-17T10:56:14Z</time>
      </trkpt>
      <trkpt lat="59.9498457" lon="17.668098">
        <ele>28.4962</ele>
        <time>2013-03-17T10:56:15Z</time>
      </trkpt>
      <trkpt lat="59.9497996" lon="17.668079">
        <ele>28.4962</ele>
        <time>2013-03-17T10:56:16Z</time>
      </trkpt>
      <trkpt lat="59.949753" lon="17.6680576">
        <ele>28.4962</ele>
        <time>2013-03-17T10:56:17Z</time>
      </trkpt>
      <trkpt lat="59.9497064" lon="17.6680351">
        <ele>28.4962</ele>
        <time>2013-03-17T10:56:18Z</time>
      </trkpt>
      <trkpt lat="59.9496597" lon="17.6680114">
        <ele>28.4962</ele>
        <time>2013-03-17T10:56:19Z</time>
      </trkpt>
      <trkpt lat="59.9496131" lon="17.6679879">
        <ele>28.4962</ele>
        <time>2013-03-17T10:56:20Z</time>
      </trkpt>
      <trkpt lat="59.9495666" lon="17.6679648">
        <ele>28.4962</ele>
        <time>2013-03-17T10:56:21Z</time>
      </trkpt>
      <trkpt lat="59.9495204" lon="17.667942">
        <ele>28.4962</ele>
        <time>2013-03-17T10:56:22Z</time>
      </trkpt>
      <trkpt lat="59.9494748" lon="17.6679187">
        <ele>28.9769</ele>
        <time>2013-03-17T10:56:23Z</time>
      </trkpt>
      <trkpt lat="59.9494293" lon="17.6678944">
        <ele>28.9769</ele>
        <time>2013-03-17T10:56:24Z</time>
      </trkpt>
      <trkpt lat="59.949384" lon="17.6678685">
        <ele>28.9769</ele>
        <time>2013-03-17T10:56:25Z</time>
      </trkpt>
      <trkpt lat="59.9493375" lon="17.6678388">
        <ele>28.9769</ele>
        <time>2013-03-17T10:56:26Z</time>
      </trkpt>
      <trkpt lat="59.9492954" lon="17.6678112">
        <ele>28.9769</ele>
        <time>2013-03-17T10:56:27Z</time>
      </trkpt>
      <trkpt lat="59.9492514" lon="17.6677856">
        <ele>28.9769</ele>
        <time>2013-03-17T10:56:28Z</time>
      </trkpt>
      <trkpt lat="59.949204" lon="17.6677558">
        <ele>28.9769</ele>
        <time>2013-03-17T10:56:29Z</time>
      </trkpt>
      <trkpt lat="59.9491593" lon="17.6677292">
        <ele>28.9769</ele>
        <time>2013-03-17T10:56:30Z</time>
      </trkpt>
      <trkpt lat="59.9491138" lon="17.6677038">
        <ele>28.9769</ele>
        <time>2013-03-17T10:56:31Z</time>
      </trkpt>
      <trkpt lat="59.9490686" lon="17.6676782">
        <ele>28.9769</ele>
        <time>2013-03-17T10:56:32Z</time>
      </trkpt>
      <trkpt lat="59.9490236" lon="17.6676525">
        <ele>28.9769</ele>
        <time>2013-03-17T10:56:33Z</time>
      </trkpt>
      <trkpt lat="59.9489786" lon="17.6676274">
        <ele>28.9769</ele>
        <time>2013-03-17T10:56:34Z</time>
      </trkpt>
      <trkpt lat="59.948934" lon="17.6676015">
        <ele>28.9769</ele>
        <time>2013-03-17T10:56:35Z</time>
      </trkpt>
      <trkpt lat="59.9488887" lon="17.6675756">
        <ele>28.9769</ele>
        <time>2013-03-17T10:56:36Z</time>
      </trkpt>
      <trkpt lat="59.9488434" lon="17.6675492">
        <ele>28.9769</ele>
        <time>2013-03-17T10:56:37Z</time>
      </trkpt>
      <trkpt lat="59.9487984" lon="17.6675219">
        <ele>28.9769</ele>
        <time>2013-03-17T10:56:38Z</time>
      </trkpt>
      <trkpt lat="59.9487532" lon="17.6674959">
        <ele>28.9769</ele>
        <time>2013-03-17T10:56:39Z</time>
      </trkpt>
      <trkpt lat="59.9487076" lon="17.6674693">
        <ele>28.9769</ele>
        <time>2013-03-17T10:56:40Z</time>
      </trkpt>
      <trkpt lat="59.948662" lon="17.6674424">
        <ele>28.9769</ele>
        <time>2013-03-17T10:56:41Z</time>
      </trkpt>
      <trkpt lat="59.9486162" lon="17.6674165">
        <ele>28.9769</ele>
        <time>2013-03-17T10:56:42Z</time>
      </trkpt>
      <trkpt lat="59.9485699" lon="17.6673903">
        <ele>29.4575</ele>
        <time>2013-03-17T10:56:43Z</time>
      </trkpt>
      <trkpt lat="59.9485238" lon="17.6673622">
        <ele>29.4575</ele>
        <time>2013-03-17T10:56:44Z</time>
      </trkpt>
      <trkpt lat="59.9484781" lon="17.6673339">
        <ele>29.4575</ele>
        <time>2013-03-17T10:56:45Z</time>
      </trkpt>
      <trkpt lat="59.9484319" lon="17.6673077">
        <ele>29.4575</ele>
        <time>2013-03-17T10:56:46Z</time>
      </trkpt>
      <trkpt lat="59.9483864" lon="17.667283">
        <ele>29.4575</ele>
        <time>2013-03-17T10:56:47Z</time>
      </trkpt>
      <trkpt lat="59.9483412" lon="17.6672582">
        <ele>29.9381</ele>
        <time>2013-03-17T10:56:48Z</time>
      </trkpt>
      <trkpt lat="59.9482966" lon="17.6672327">
        <ele>29.9381</ele>
        <time>2013-03-17T10:56:49Z</time>
      </trkpt>
      <trkpt lat="59.9482521" lon="17.667206">
        <ele>29.9381</ele>
        <time>2013-03-17T10:56:50Z</time>
      </trkpt>
      <trkpt lat="59.9482067" lon="17.6671803">
        <ele>29.9381</ele>
        <time>2013-03-17T10:56:51Z</time>
      </trkpt>
      <trkpt lat="59.9481604" lon="17.6671561">
        <ele>29.9381</ele>
        <time>2013-03-17T10:56:52Z</time>
      </trkpt>
      <trkpt lat="59.9481145" lon="17.6671313">
        <ele>29.9381</ele>
        <time>2013-03-17T10:56:53Z</time>
      </trkpt>
      <trkpt lat="59.9480689" lon="17.6671057">
        <ele>30.4188</ele>
        <time>2013-03-17T10:56:54Z</time>
      </trkpt>
      <trkpt lat="59.9480234" lon="17.66708">
        <ele>30.4188</ele>
        <time>2013-03-17T10:56:55Z</time>
      </trkpt>
      <trkpt lat="59.947978" lon="17.6670552">
        <ele>30.4188</ele>
        <time>2013-03-17T10:56:56Z</time>
      </trkpt>
      <trkpt lat="59.947932" lon="17.6670319">
        <ele>30.4188</ele>
        <time>2013-03-17T10:56:57Z</time>
      </trkpt>
      <trkpt lat="59.9478855" lon="17.6670104">
        <ele>30.4188</ele>
        <time>2013-03-17T10:56:58Z</time>
      </trkpt>
      <trkpt lat="59.9478385" lon="17.6669886">
        <ele>30.4188</ele>
        <time>2013-03-17T10:56:59Z</time>
      </trkpt>
      <trkpt lat="59.9477922" lon="17.6669649">
        <ele>30.4188</ele>
        <time>2013-03-17T10:57:00Z</time>
      </trkpt>
      <trkpt lat="59.9477468" lon="17.6669401">
        <ele>30.8995</ele>
        <time>2013-03-17T10:57:01Z</time>
      </trkpt>
      <trkpt lat="59.9477021" lon="17.6669168">
        <ele>30.8995</ele>
        <time>2013-03-17T10:57:02Z</time>
      </trkpt>
      <trkpt lat="59.9476581" lon="17.666894">
        <ele>30.8995</ele>
        <time>2013-03-17T10:57:03Z</time>
      </trkpt>
      <trkpt lat="59.9476154" lon="17.6668712">
        <ele>30.8995</ele>
        <time>2013-03-17T10:57:04Z</time>
      </trkpt>
      <trkpt lat="59.9475733" lon="17.6668503">
        <ele>30.8995</ele>
        <time>2013-03-17T10:57:05Z</time>
      </trkpt>
      <trkpt lat="59.9475321" lon="17.6668308">
        <ele>30.8995</ele>
        <time>2013-03-17T10:57:06Z</time>
      </trkpt>
      <trkpt lat="59.9474913" lon="17.666811">
        <ele>30.8995</ele>
        <time>2013-03-17T10:57:07Z</time>
      </trkpt>
      <trkpt lat="59.9474509" lon="17.6667924">
        <ele>30.8995</ele>
        <time>2013-03-17T10:57:08Z</time>
      </trkpt>
      <trkpt lat="59.9474106" lon="17.6667738">
        <ele>30.8995</ele>
        <time>2013-03-17T10:57:09Z</time>
      </trkpt>
      <trkpt lat="59.9473704" lon="17.6667537">
        <ele>30.8995</ele>
        <time>2013-03-17T10:57:10Z</time>
      </trkpt>
      <trkpt lat="59.9473292" lon="17.6667335">
        <ele>31.3801</ele>
        <time>2013-03-17T10:57:11Z</time>
      </trkpt>
      <trkpt lat="59.9472867" lon="17.6667122">
        <ele>31.3801</ele>
        <time>2013-03-17T10:57:12Z</time>
      </trkpt>
      <trkpt lat="59.9472438" lon="17.6666894">
        <ele>31.3801</ele>
        <time>2013-03-17T10:57:13Z</time>
      </trkpt>
      <trkpt lat="59.9472" lon="17.6666687">
        <ele>31.3801</ele>
        <time>2013-03-17T10:57:14Z</time>
      </trkpt>
      <trkpt lat="59.9471556" lon="17.6666502">
        <ele>31.3801</ele>
        <time>2013-03-17T10:57:15Z</time>
      </trkpt>
      <trkpt lat="59.9471116" lon="17.6666323">
        <ele>31.3801</ele>
        <time>2013-03-17T10:57:16Z</time>
      </trkpt>
      <trkpt lat="59.947068" lon="17.6666142">
        <ele>31.3801</ele>
        <time>2013-03-17T10:57:17Z</time>
      </trkpt>
      <trkpt lat="59.9470251" lon="17.6665941">
        <ele>31.3801</ele>
        <time>2013-03-17T10:57:18Z</time>
      </trkpt>
      <trkpt lat="59.9469826" lon="17.6665742">
        <ele>31.3801</ele>
        <time>2013-03-17T10:57:19Z</time>
      </trkpt>
      <trkpt lat="59.9469406" lon="17.6665553">
        <ele>31.3801</ele>
        <time>2013-03-17T10:57:20Z</time>
      </trkpt>
      <trkpt lat="59.9468991" lon="17.6665382">
        <ele>31.3801</ele>
        <time>2013-03-17T10:57:21Z</time>
      </trkpt>
      <trkpt lat="59.9468578" lon="17.6665232">
        <ele>31.3801</ele>
        <time>2013-03-17T10:57:22Z</time>
      </trkpt>
      <trkpt lat="59.9468163" lon="17.6665097">
        <ele>31.3801</ele>
        <time>2013-03-17T10:57:23Z</time>
      </trkpt>
      <trkpt lat="59.9467744" lon="17.6664967">
        <ele>31.3801</ele>
        <time>2013-03-17T10:57:24Z</time>
      </trkpt>
      <trkpt lat="59.9467319" lon="17.6664848">
        <ele>31.8607</ele>
        <time>2013-03-17T10:57:25Z</time>
      </trkpt>
      <trkpt lat="59.946689" lon="17.6664769">
        <ele>31.8607</ele>
        <time>2013-03-17T10:57:26Z</time>
      </trkpt>
      <trkpt lat="59.9466458" lon="17.666473">
        <ele>31.8607</ele>
        <time>2013-03-17T10:57:27Z</time>
      </trkpt>
      <trkpt lat="59.9466022" lon="17.6664702">
        <ele>31.8607</ele>
        <time>2013-03-17T10:57:28Z</time>
      </trkpt>
      <trkpt lat="59.9465584" lon="17.6664656">
        <ele>31.8607</ele>
        <time>2013-03-17T10:57:29Z</time>
      </trkpt>
      <trkpt lat="59.946515" lon="17.6664579">
        <ele>31.8607</ele>
        <time>2013-03-17T10:57:30Z</time>
      </trkpt>
      <trkpt lat="59.9464719" lon="17.6664435">
        <ele>31.8607</ele>
        <time>2013-03-17T10:57:31Z</time>
      </trkpt>
      <trkpt lat="59.9464293" lon="17.6664263">
        <ele>31.8607</ele>
        <time>2013-03-17T10:57:32Z</time>
      </trkpt>
      <trkpt lat="59.9463867" lon="17.6664096">
        <ele>31.8607</ele>
        <time>2013-03-17T10:57:33Z</time>
      </trkpt>
      <trkpt lat="59.9463447" lon="17.666389">
        <ele>31.8607</ele>
        <time>2013-03-17T10:57:34Z</time>
      </trkpt>
      <trkpt lat="59.9463036" lon="17.6663614">
        <ele>31.8607</ele>
        <time>2013-03-17T10:57:35Z</time>
      </trkpt>
      <trkpt lat="59.9462641" lon="17.6663303">
        <ele>31.8607</ele>
        <time>2013-03-17T10:57:36Z</time>
      </trkpt>
      <trkpt lat="59.9462243" lon="17.6663004">
        <ele>31.8607</ele>
        <time>2013-03-17T10:57:37Z</time>
      </trkpt>
      <trkpt lat="59.9461838" lon="17.666274">
        <ele>31.8607</ele>
        <time>2013-03-17T10:57:38Z</time>
      </trkpt>
      <trkpt lat="59.946142" lon="17.6662523">
        <ele>32.3416</ele>
        <time>2013-03-17T10:57:39Z</time>
      </trkpt>
      <trkpt lat="59.9460993" lon="17.6662342">
        <ele>32.3416</ele>
        <time>2013-03-17T10:57:40Z</time>
      </trkpt>
      <trkpt lat="59.9460553" lon="17.6662164">
        <ele>32.3416</ele>
        <time>2013-03-17T10:57:41Z</time>
      </trkpt>
      <trkpt lat="59.9460104" lon="17.6661976">
        <ele>32.3416</ele>
        <time>2013-03-17T10:57:42Z</time>
      </trkpt>
      <trkpt lat="59.9459647" lon="17.6661788">
        <ele>32.3416</ele>
        <time>2013-03-17T10:57:43Z</time>
      </trkpt>
      <trkpt lat="59.9459186" lon="17.6661586">
        <ele>32.3416</ele>
        <time>2013-03-17T10:57:44Z</time>
      </trkpt>
      <trkpt lat="59.9458721" lon="17.6661393">
        <ele>32.3416</ele>
        <time>2013-03-17T10:57:45Z</time>
      </trkpt>
      <trkpt lat="59.9458247" lon="17.6661239">
        <ele>32.3416</ele>
        <time>2013-03-17T10:57:46Z</time>
      </trkpt>
      <trkpt lat="59.9457773" lon="17.6661108">
        <ele>32.3416</ele>
        <time>2013-03-17T10:57:47Z</time>
      </trkpt>
      <trkpt lat="59.9457311" lon="17.6660963">
        <ele>32.3416</ele>
        <time>2013-03-17T10:57:48Z</time>
      </trkpt>
      <trkpt lat="59.9456856" lon="17.6660806">
        <ele>32.8223</ele>
        <time>2013-03-17T10:57:49Z</time>
      </trkpt>
      <trkpt lat="59.9456404" lon="17.6660651">
        <ele>32.8223</ele>
        <time>2013-03-17T10:57:50Z</time>
      </trkpt>
      <trkpt lat="59.9455949" lon="17.6660482">
        <ele>32.8223</ele>
        <time>2013-03-17T10:57:51Z</time>
      </trkpt>
      <trkpt lat="59.9455498" lon="17.666029">
        <ele>32.8223</ele>
        <time>2013-03-17T10:57:52Z</time>
      </trkpt>
      <trkpt lat="59.9455047" lon="17.6660086">
        <ele>32.8223</ele>
        <time>2013-03-17T10:57:53Z</time>
      </trkpt>
      <trkpt lat="59.9454596" lon="17.6659892">
        <ele>32.8223</ele>
        <time>2013-03-17T10:57:54Z</time>
      </trkpt>
      <trkpt lat="59.9454145" lon="17.6659698">
        <ele>32.8223</ele>
        <time>2013-03-17T10:57:55Z</time>
      </trkpt>
      <trkpt lat="59.9453693" lon="17.6659507">
        <ele>32.8223</ele>
        <time>2013-03-17T10:57:56Z</time>
      </trkpt>
      <trkpt lat="59.9453241" lon="17.6659326">
        <ele>32.8223</ele>
        <time>2013-03-17T10:57:57Z</time>
      </trkpt>
      <trkpt lat="59.9452793" lon="17.6659146">
        <ele>32.8223</ele>
        <time>2013-03-17T10:57:58Z</time>
      </trkpt>
      <trkpt lat="59.9452349" lon="17.665898">
        <ele>32.8223</ele>
        <time>2013-03-17T10:57:59Z</time>
      </trkpt>
      <trkpt lat="59.9451908" lon="17.6658824">
        <ele>33.3029</ele>
        <time>2013-03-17T10:58:00Z</time>
      </trkpt>
      <trkpt lat="59.9451468" lon="17.6658685">
        <ele>33.3029</ele>
        <time>2013-03-17T10:58:01Z</time>
      </trkpt>
      <trkpt lat="59.9451033" lon="17.6658539">
        <ele>33.3029</ele>
        <time>2013-03-17T10:58:02Z</time>
      </trkpt>
      <trkpt lat="59.9450606" lon="17.6658358">
        <ele>33.3029</ele>
        <time>2013-03-17T10:58:03Z</time>
      </trkpt>
      <trkpt lat="59.9450183" lon="17.665818">
        <ele>33.3029</ele>
        <time>2013-03-17T10:58:04Z</time>
      </trkpt>
      <trkpt lat="59.9449764" lon="17.6658011">
        <ele>33.3029</ele>
        <time>2013-03-17T10:58:05Z</time>
      </trkpt>
      <trkpt lat="59.9449349" lon="17.6657833">
        <ele>33.3029</ele>
        <time>2013-03-17T10:58:06Z</time>
      </trkpt>
      <trkpt lat="59.9448935" lon="17.6657649">
        <ele>33.3029</ele>
        <time>2013-03-17T10:58:07Z</time>
      </trkpt>
      <trkpt lat="59.9448516" lon="17.6657476">
        <ele>33.3029</ele>
        <time>2013-03-17T10:58:08Z</time>
      </trkpt>
      <trkpt lat="59.9448097" lon="17.6657316">
        <ele>33.7834</ele>
        <time>2013-03-17T10:58:09Z</time>
      </trkpt>
      <trkpt lat="59.9447679" lon="17.6657167">
        <ele>33.7834</ele>
        <time>2013-03-17T10:58:10Z</time>
      </trkpt>
      <trkpt lat="59.9447261" lon="17.6657021">
        <ele>33.7834</ele>
        <time>2013-03-17T10:58:11Z</time>
      </trkpt>
      <trkpt lat="59.9446842" lon="17.6656871">
        <ele>33.7834</ele>
        <time>2013-03-17T10:58:12Z</time>
      </trkpt>
      <trkpt lat="59.9446428" lon="17.6656713">
        <ele>33.7834</ele>
        <time>2013-03-17T10:58:13Z</time>
      </trkpt>
      <trkpt lat="59.9446018" lon="17.6656544">
        <ele>33.7834</ele>
        <time>2013-03-17T10:58:14Z</time>
      </trkpt>
      <trkpt lat="59.944561" lon="17.6656379">
        <ele>33.7834</ele>
        <time>2013-03-17T10:58:15Z</time>
      </trkpt>
      <trkpt lat="59.9445205" lon="17.6656239">
        <ele>33.7834</ele>
        <time>2013-03-17T10:58:16Z</time>
      </trkpt>
      <trkpt lat="59.9444807" lon="17.6656099">
        <ele>33.7834</ele>
        <time>2013-03-17T10:58:17Z</time>
      </trkpt>
      <trkpt lat="59.9444422" lon="17.6655936">
        <ele>33.7834</ele>
        <time>2013-03-17T10:58:18Z</time>
      </trkpt>
      <trkpt lat="59.9444045" lon="17.6655766">
        <ele>33.7834</ele>
        <time>2013-03-17T10:58:19Z</time>
      </trkpt>
      <trkpt lat="59.9443675" lon="17.6655606">
        <ele>33.7834</ele>
        <time>2013-03-17T10:58:20Z</time>
      </trkpt>
      <trkpt lat="59.9443312" lon="17.6655458">
        <ele>33.7834</ele>
        <time>2013-03-17T10:58:21Z</time>
      </trkpt>
      <trkpt lat="59.9442946" lon="17.6655322">
        <ele>33.7834</ele>
        <time>2013-03-17T10:58:22Z</time>
      </trkpt>
      <trkpt lat="59.9442583" lon="17.6655181">
        <ele>34.2642</ele>
        <time>2013-03-17T10:58:23Z</time>
      </trkpt>
      <trkpt lat="59.9442216" lon="17.6655042">
        <ele>34.2642</ele>
        <time>2013-03-17T10:58:24Z</time>
      </trkpt>
      <trkpt lat="59.9441848" lon="17.6654901">
        <ele>34.2642</ele>
        <time>2013-03-17T10:58:25Z</time>
      </trkpt>
      <trkpt lat="59.9441482" lon="17.6654731">
        <ele>34.2642</ele>
        <time>2013-03-17T10:58:26Z</time>
      </trkpt>
      <trkpt lat="59.9441123" lon="17.6654544">
        <ele>34.2642</ele>
        <time>2013-03-17T10:58:27Z</time>
      </trkpt>
      <trkpt lat="59.9440766" lon="17.6654364">
        <ele>34.2642</ele>
        <time>2013-03-17T10:58:28Z</time>
      </trkpt>
      <trkpt lat="59.9440407" lon="17.6654209">
        <ele>34.2642</ele>
        <time>2013-03-17T10:58:29Z</time>
      </trkpt>
      <trkpt lat="59.9440042" lon="17.6654068">
        <ele>34.2642</ele>
        <time>2013-03-17T10:58:30Z</time>
      </trkpt>
      <trkpt lat="59.9439676" lon="17.6653904">
        <ele>34.2642</ele>
        <time>2013-03-17T10:58:31Z</time>
      </trkpt>
      <trkpt lat="59.9439305" lon="17.6653709">
        <ele>34.2642</ele>
        <time>2013-03-17T10:58:32Z</time>
      </trkpt>
      <trkpt lat="59.9438932" lon="17.6653488">
        <ele>34.7449</ele>
        <time>2013-03-17T10:58:33Z</time>
      </trkpt>
      <trkpt lat="59.9438555" lon="17.6653286">
        <ele>34.7449</ele>
        <time>2013-03-17T10:58:34Z</time>
      </trkpt>
      <trkpt lat="59.9438174" lon="17.6653094">
        <ele>34.7449</ele>
        <time>2013-03-17T10:58:35Z</time>
      </trkpt>
      <trkpt lat="59.9437794" lon="17.6652871">
        <ele>34.7449</ele>
        <time>2013-03-17T10:58:36Z</time>
      </trkpt>
      <trkpt lat="59.9437417" lon="17.6652629">
        <ele>34.7449</ele>
        <time>2013-03-17T10:58:37Z</time>
      </trkpt>
      <trkpt lat="59.9437039" lon="17.665239">
        <ele>34.7449</ele>
        <time>2013-03-17T10:58:38Z</time>
      </trkpt>
      <trkpt lat="59.9436661" lon="17.6652147">
        <ele>35.2255</ele>
        <time>2013-03-17T10:58:39Z</time>
      </trkpt>
      <trkpt lat="59.9436285" lon="17.6651882">
        <ele>35.2255</ele>
        <time>2013-03-17T10:58:40Z</time>
      </trkpt>
      <trkpt lat="59.9435912" lon="17.6651597">
        <ele>35.2255</ele>
        <time>2013-03-17T10:58:41Z</time>
      </trkpt>
      <trkpt lat="59.9435539" lon="17.6651298">
        <ele>35.2255</ele>
        <time>2013-03-17T10:58:42Z</time>
      </trkpt>
      <trkpt lat="59.9435156" lon="17.6651017">
        <ele>35.2255</ele>
        <time>2013-03-17T10:58:43Z</time>
      </trkpt>
      <trkpt lat="59.9434772" lon="17.6650739">
        <ele>35.2255</ele>
        <time>2013-03-17T10:58:44Z</time>
      </trkpt>
      <trkpt lat="59.9434398" lon="17.665044">
        <ele>35.7061</ele>
        <time>2013-03-17T10:58:45Z</time>
      </trkpt>
      <trkpt lat="59.9434026" lon="17.6650138">
        <ele>35.7061</ele>
        <time>2013-03-17T10:58:46Z</time>
      </trkpt>
      <trkpt lat="59.943365" lon="17.664985">
        <ele>35.7061</ele>
        <time>2013-03-17T10:58:47Z</time>
      </trkpt>
      <trkpt lat="59.9433276" lon="17.6649572">
        <ele>35.7061</ele>
        <time>2013-03-17T10:58:48Z</time>
      </trkpt>
      <trkpt lat="59.9432909" lon="17.6649281">
        <ele>35.7061</ele>
        <time>2013-03-17T10:58:49Z</time>
      </trkpt>
      <trkpt lat="59.943255" lon="17.6648951">
        <ele>35.7061</ele>
        <time>2013-03-17T10:58:50Z</time>
      </trkpt>
      <trkpt lat="59.9432192" lon="17.6648622">
        <ele>35.7061</ele>
        <time>2013-03-17T10:58:51Z</time>
      </trkpt>
      <trkpt lat="59.9431829" lon="17.6648298">
        <ele>35.7061</ele>
        <time>2013-03-17T10:58:52Z</time>
      </trkpt>
      <trkpt lat="59.9431467" lon="17.6647972">
        <ele>35.7061</ele>
        <time>2013-03-17T10:58:53Z</time>
      </trkpt>
      <trkpt lat="59.9431106" lon="17.664765">
        <ele>35.7061</ele>
        <time>2013-03-17T10:58:54Z</time>
      </trkpt>
      <trkpt lat="59.9430756" lon="17.664732">
        <ele>35.7061</ele>
        <time>2013-03-17T10:58:55Z</time>
      </trkpt>
      <trkpt lat="59.9430409" lon="17.6646995">
        <ele>35.7061</ele>
        <time>2013-03-17T10:58:56Z</time>
      </trkpt>
      <trkpt lat="59.9430068" lon="17.6646675">
        <ele>35.7061</ele>
        <time>2013-03-17T10:58:57Z</time>
      </trkpt>
      <trkpt lat="59.942973" lon="17.6646365">
        <ele>36.1868</ele>
        <time>2013-03-17T10:58:58Z</time>
      </trkpt>
      <trkpt lat="59.9429392" lon="17.6646055">
        <ele>36.1868</ele>
        <time>2013-03-17T10:58:59Z</time>
      </trkpt>
      <trkpt lat="59.9429067" lon="17.6645717">
        <ele>36.1868</ele>
        <time>2013-03-17T10:59:00Z</time>
      </trkpt>
      <trkpt lat="59.9428749" lon="17.6645367">
        <ele>36.1868</ele>
        <time>2013-03-17T10:59:01Z</time>
      </trkpt>
      <trkpt lat="59.9428432" lon="17.6645029">
        <ele>36.1868</ele>
        <time>2013-03-17T10:59:02Z</time>
      </trkpt>
      <trkpt lat="59.9428114" lon="17.6644693">
        <ele>36.1868</ele>
        <time>2013-03-17T10:59:03Z</time>
      </trkpt>
      <trkpt lat="59.9427795" lon="17.6644345">
        <ele>36.1868</ele>
        <time>2013-03-17T10:59:04Z</time>
      </trkpt>
      <trkpt lat="59.9427474" lon="17.6643983">
        <ele>36.1868</ele>
        <time>2013-03-17T10:59:05Z</time>
      </trkpt>
      <trkpt lat="59.9427145" lon="17.664363">
        <ele>36.1868</ele>
        <time>2013-03-17T10:59:06Z</time>
      </trkpt>
      <trkpt lat="59.9426806" lon="17.6643271">
        <ele>36.1868</ele>
        <time>2013-03-17T10:59:07Z</time>
      </trkpt>
      <trkpt lat="59.9426474" lon="17.6642885">
        <ele>36.1868</ele>
        <time>2013-03-17T10:59:08Z</time>
      </trkpt>
      <trkpt lat="59.9426138" lon="17.6642496">
        <ele>36.1868</ele>
        <time>2013-03-17T10:59:09Z</time>
      </trkpt>
      <trkpt lat="59.9425795" lon="17.6642108">
        <ele>36.6675</ele>
        <time>2013-03-17T10:59:10Z</time>
      </trkpt>
      <trkpt lat="59.9425453" lon="17.6641698">
        <ele>36.6675</ele>
        <time>2013-03-17T10:59:11Z</time>
      </trkpt>
      <trkpt lat="59.9425122" lon="17.6641264">
        <ele>36.6675</ele>
        <time>2013-03-17T10:59:12Z</time>
      </trkpt>
      <trkpt lat="59.94248" lon="17.6640832">
        <ele>36.6675</ele>
        <time>2013-03-17T10:59:13Z</time>
      </trkpt>
      <trkpt lat="59.9424478" lon="17.6640408">
        <ele>36.6675</ele>
        <time>2013-03-17T10:59:14Z</time>
      </trkpt>
      <trkpt lat="59.9424148" lon="17.6639998">
        <ele>36.6675</ele>
        <time>2013-03-17T10:59:15Z</time>
      </trkpt>
      <trkpt lat="59.9423812" lon="17.6639581">
        <ele>36.6675</ele>
        <time>2013-03-17T10:59:16Z</time>
      </trkpt>
      <trkpt lat="59.9423481" lon="17.6639144">
        <ele>36.6675</ele>
        <time>2013-03-17T10:59:17Z</time>
      </trkpt>
      <trkpt lat="59.9423159" lon="17.6638709">
        <ele>36.6675</ele>
        <time>2013-03-17T10:59:18Z</time>
      </trkpt>
      <trkpt lat="59.9422838" lon="17.6638267">
        <ele>36.6675</ele>
        <time>2013-03-17T10:59:19Z</time>
      </trkpt>
      <trkpt lat="59.9422521" lon="17.6637806">
        <ele>36.6675</ele>
        <time>2013-03-17T10:59:20Z</time>
      </trkpt>
      <trkpt lat="59.9422196" lon="17.663734">
        <ele>36.6675</ele>
        <time>2013-03-17T10:59:21Z</time>
      </trkpt>
      <trkpt lat="59.9421869" lon="17.6636875">
        <ele>36.6675</ele>
        <time>2013-03-17T10:59:22Z</time>
      </trkpt>
      <trkpt lat="59.9421549" lon="17.6636389">
        <ele>36.6675</ele>
        <time>2013-03-17T10:59:23Z</time>
      </trkpt>
      <trkpt lat="59.9421226" lon="17.6635891">
        <ele>36.6675</ele>
        <time>2013-03-17T10:59:24Z</time>
      </trkpt>
      <trkpt lat="59.9420895" lon="17.6635395">
        <ele>36.6675</ele>
        <time>2013-03-17T10:59:25Z</time>
      </trkpt>
      <trkpt lat="59.9420574" lon="17.6634886">
        <ele>36.6675</ele>
        <time>2013-03-17T10:59:26Z</time>
      </trkpt>
      <trkpt lat="59.9420258" lon="17.6634384">
        <ele>36.6675</ele>
        <time>2013-03-17T10:59:27Z</time>
      </trkpt>
      <trkpt lat="59.941995" lon="17.6633897">
        <ele>36.6675</ele>
        <time>2013-03-17T10:59:28Z</time>
      </trkpt>
      <trkpt lat="59.9419646" lon="17.6633418">
        <ele>36.6675</ele>
        <time>2013-03-17T10:59:29Z</time>
      </trkpt>
      <trkpt lat="59.9419341" lon="17.6632926">
        <ele>36.6675</ele>
        <time>2013-03-17T10:59:30Z</time>
      </trkpt>
      <trkpt lat="59.9419045" lon="17.6632406">
        <ele>36.6675</ele>
        <time>2013-03-17T10:59:31Z</time>
      </trkpt>
      <trkpt lat="59.9418745" lon="17.6631877">
        <ele>36.6675</ele>
        <time>2013-03-17T10:59:32Z</time>
      </trkpt>
      <trkpt lat="59.9418435" lon="17.6631344">
        <ele>36.6675</ele>
        <time>2013-03-17T10:59:33Z</time>
      </trkpt>
      <trkpt lat="59.9418122" lon="17.6630802">
        <ele>36.6675</ele>
        <time>2013-03-17T10:59:34Z</time>
      </trkpt>
      <trkpt lat="59.9417814" lon="17.6630243">
        <ele>36.6675</ele>
        <time>2013-03-17T10:59:35Z</time>
      </trkpt>
      <trkpt lat="59.9417508" lon="17.6629676">
        <ele>36.6675</ele>
        <time>2013-03-17T10:59:36Z</time>
      </trkpt>
      <trkpt lat="59.9417198" lon="17.6629119">
        <ele>36.6675</ele>
        <time>2013-03-17T10:59:37Z</time>
      </trkpt>
      <trkpt lat="59.9416871" lon="17.6628573">
        <ele>36.6675</ele>
        <time>2013-03-17T10:59:38Z</time>
      </trkpt>
      <trkpt lat="59.9416534" lon="17.6628026">
        <ele>36.6675</ele>
        <time>2013-03-17T10:59:39Z</time>
      </trkpt>
      <trkpt lat="59.9416197" lon="17.6627462">
        <ele>36.6675</ele>
        <time>2013-03-17T10:59:40Z</time>
      </trkpt>
      <trkpt lat="59.9415859" lon="17.6626893">
        <ele>36.6675</ele>
        <time>2013-03-17T10:59:41Z</time>
      </trkpt>
      <trkpt lat="59.9415518" lon="17.6626332">
        <ele>36.6675</ele>
        <time>2013-03-17T10:59:42Z</time>
      </trkpt>
      <trkpt lat="59.9415171" lon="17.6625775">
        <ele>36.6675</ele>
        <time>2013-03-17T10:59:43Z</time>
      </trkpt>
      <trkpt lat="59.9414813" lon="17.6625218">
        <ele>36.1868</ele>
        <time>2013-03-17T10:59:44Z</time>
      </trkpt>
      <trkpt lat="59.9414441" lon="17.6624671">
        <ele>36.1868</ele>
        <time>2013-03-17T10:59:45Z</time>
      </trkpt>
      <trkpt lat="59.9414056" lon="17.6624158">
        <ele>36.1868</ele>
        <time>2013-03-17T10:59:46Z</time>
      </trkpt>
      <trkpt lat="59.941366" lon="17.6623687">
        <ele>36.1868</ele>
        <time>2013-03-17T10:59:47Z</time>
      </trkpt>
      <trkpt lat="59.9413247" lon="17.6623268">
        <ele>36.1868</ele>
        <time>2013-03-17T10:59:48Z</time>
      </trkpt>
      <trkpt lat="59.9412815" lon="17.6622884">
        <ele>36.1868</ele>
        <time>2013-03-17T10:59:49Z</time>
      </trkpt>
      <trkpt lat="59.9412379" lon="17.6622516">
        <ele>36.1868</ele>
        <time>2013-03-17T10:59:50Z</time>
      </trkpt>
      <trkpt lat="59.9411938" lon="17.6622178">
        <ele>36.1868</ele>
        <time>2013-03-17T10:59:51Z</time>
      </trkpt>
      <trkpt lat="59.9411487" lon="17.6621889">
        <ele>36.1868</ele>
        <time>2013-03-17T10:59:52Z</time>
      </trkpt>
      <trkpt lat="59.9411031" lon="17.6621625">
        <ele>36.1868</ele>
        <time>2013-03-17T10:59:53Z</time>
      </trkpt>
      <trkpt lat="59.9410575" lon="17.6621392">
        <ele>36.1868</ele>
        <time>2013-03-17T10:59:54Z</time>
      </trkpt>
      <trkpt lat="59.9410114" lon="17.6621207">
        <ele>36.1868</ele>
        <time>2013-03-17T10:59:55Z</time>
      </trkpt>
      <trkpt lat="59.9409647" lon="17.6621057">
        <ele>36.1868</ele>
        <time>2013-03-17T10:59:56Z</time>
      </trkpt>
      <trkpt lat="59.9409172" lon="17.6620948">
        <ele>36.1868</ele>
        <time>2013-03-17T10:59:57Z</time>
      </trkpt>
      <trkpt lat="59.9408695" lon="17.6620881">
        <ele>36.1868</ele>
        <time>2013-03-17T10:59:58Z</time>
      </trkpt>
      <trkpt lat="59.9408214" lon="17.6620812">
        <ele>36.1868</ele>
        <time>2013-03-17T10:59:59Z</time>
      </trkpt>
      <trkpt lat="59.9407737" lon="17.6620688">
        <ele>36.1868</ele>
        <time>2013-03-17T11:00:00Z</time>
      </trkpt>
      <trkpt lat="59.9407255" lon="17.6620523">
        <ele>35.7061</ele>
        <time>2013-03-17T11:00:01Z</time>
      </trkpt>
      <trkpt lat="59.9406775" lon="17.6620298">
        <ele>35.7061</ele>
        <time>2013-03-17T11:00:02Z</time>
      </trkpt>
      <trkpt lat="59.9406303" lon="17.6619978">
        <ele>35.7061</ele>
        <time>2013-03-17T11:00:03Z</time>
      </trkpt>
      <trkpt lat="59.940585" lon="17.6619527">
        <ele>35.7061</ele>
        <time>2013-03-17T11:00:04Z</time>
      </trkpt>
      <trkpt lat="59.9405432" lon="17.6618894">
        <ele>35.7061</ele>
        <time>2013-03-17T11:00:05Z</time>
      </trkpt>
      <trkpt lat="59.9405053" lon="17.6618138">
        <ele>35.2255</ele>
        <time>2013-03-17T11:00:06Z</time>
      </trkpt>
      <trkpt lat="59.9404719" lon="17.661729">
        <ele>35.2255</ele>
        <time>2013-03-17T11:00:07Z</time>
      </trkpt>
      <trkpt lat="59.940446" lon="17.6616336">
        <ele>34.7449</ele>
        <time>2013-03-17T11:00:08Z</time>
      </trkpt>
      <trkpt lat="59.9404293" lon="17.6615306">
        <ele>34.7449</ele>
        <time>2013-03-17T11:00:09Z</time>
      </trkpt>
      <trkpt lat="59.9404195" lon="17.6614252">
        <ele>34.7449</ele>
        <time>2013-03-17T11:00:10Z</time>
      </trkpt>
      <trkpt lat="59.9404284" lon="17.6613244">
        <ele>34.2642</ele>
        <time>2013-03-17T11:00:11Z</time>
      </trkpt>
      <trkpt lat="59.9404407" lon="17.6612213">
        <ele>34.2642</ele>
        <time>2013-03-17T11:00:12Z</time>
      </trkpt>
      <trkpt lat="59.9404411" lon="17.6611156">
        <ele>33.7834</ele>
        <time>2013-03-17T11:00:13Z</time>
      </trkpt>
      <trkpt lat="59.9404488" lon="17.6610037">
        <ele>33.7834</ele>
        <time>2013-03-17T11:00:14Z</time>
      </trkpt>
      <trkpt lat="59.9404619" lon="17.660893">
        <ele>33.7834</ele>
        <time>2013-03-17T11:00:15Z</time>
      </trkpt>
      <trkpt lat="59.9404826" lon="17.6607876">
        <ele>33.7834</ele>
        <time>2013-03-17T11:00:16Z</time>
      </trkpt>
      <trkpt lat="59.940506" lon="17.6606851">
        <ele>33.7834</ele>
        <time>2013-03-17T11:00:17Z</time>
      </trkpt>
      <trkpt lat="59.9405294" lon="17.660585">
        <ele>33.7834</ele>
        <time>2013-03-17T11:00:18Z</time>
      </trkpt>
      <trkpt lat="59.9405494" lon="17.6604841">
        <ele>34.2642</ele>
        <time>2013-03-17T11:00:19Z</time>
      </trkpt>
      <trkpt lat="59.9405588" lon="17.6603797">
        <ele>34.2642</ele>
        <time>2013-03-17T11:00:20Z</time>
      </trkpt>
      <trkpt lat="59.9405596" lon="17.660284">
        <ele>34.2642</ele>
        <time>2013-03-17T11:00:21Z</time>
      </trkpt>
      <trkpt lat="59.9405515" lon="17.6601936">
        <ele>34.2642</ele>
        <time>2013-03-17T11:00:22Z</time>
      </trkpt>
      <trkpt lat="59.9405361" lon="17.6601067">
        <ele>34.7449</ele>
        <time>2013-03-17T11:00:23Z</time>
      </trkpt>
      <trkpt lat="59.940521" lon="17.6599966">
        <ele>34.7449</ele>
        <time>2013-03-17T11:00:24Z</time>
      </trkpt>
      <trkpt lat="59.9404867" lon="17.6599221">
        <ele>34.7449</ele>
        <time>2013-03-17T11:00:25Z</time>
      </trkpt>
      <trkpt lat="59.94046" lon="17.6598677">
        <ele>35.2255</ele>
        <time>2013-03-17T11:00:26Z</time>
      </trkpt>
      <trkpt lat="59.9404392" lon="17.6597963">
        <ele>35.2255</ele>
        <time>2013-03-17T11:00:27Z</time>
      </trkpt>
      <trkpt lat="59.9404178" lon="17.6596958">
        <ele>35.7061</ele>
        <time>2013-03-17T11:00:28Z</time>
      </trkpt>
      <trkpt lat="59.9403893" lon="17.6595937">
        <ele>36.6675</ele>
        <time>2013-03-17T11:00:29Z</time>
      </trkpt>
      <trkpt lat="59.9403682" lon="17.6594897">
        <ele>36.6675</ele>
        <time>2013-03-17T11:00:30Z</time>
      </trkpt>
      <trkpt lat="59.9403462" lon="17.6593713">
        <ele>36.1868</ele>
        <time>2013-03-17T11:00:31Z</time>
      </trkpt>
      <trkpt lat="59.9403272" lon="17.659257">
        <ele>35.7061</ele>
        <time>2013-03-17T11:00:32Z</time>
      </trkpt>
      <trkpt lat="59.9403087" lon="17.6591467">
        <ele>36.1868</ele>
        <time>2013-03-17T11:00:33Z</time>
      </trkpt>
      <trkpt lat="59.9402897" lon="17.6590354">
        <ele>36.1868</ele>
        <time>2013-03-17T11:00:34Z</time>
      </trkpt>
      <trkpt lat="59.9402716" lon="17.6589248">
        <ele>36.1868</ele>
        <time>2013-03-17T11:00:35Z</time>
      </trkpt>
      <trkpt lat="59.940249" lon="17.6588151">
        <ele>36.1868</ele>
        <time>2013-03-17T11:00:36Z</time>
      </trkpt>
      <trkpt lat="59.9402252" lon="17.6587078">
        <ele>36.1868</ele>
        <time>2013-03-17T11:00:37Z</time>
      </trkpt>
      <trkpt lat="59.9402041" lon="17.6586018">
        <ele>36.1868</ele>
        <time>2013-03-17T11:00:38Z</time>
      </trkpt>
      <trkpt lat="59.9401837" lon="17.658497">
        <ele>36.1868</ele>
        <time>2013-03-17T11:00:39Z</time>
      </trkpt>
      <trkpt lat="59.940163" lon="17.658394">
        <ele>36.6675</ele>
        <time>2013-03-17T11:00:40Z</time>
      </trkpt>
      <trkpt lat="59.9401416" lon="17.658293">
        <ele>36.6675</ele>
        <time>2013-03-17T11:00:41Z</time>
      </trkpt>
      <trkpt lat="59.9401199" lon="17.6581921">
        <ele>36.6675</ele>
        <time>2013-03-17T11:00:42Z</time>
      </trkpt>
      <trkpt lat="59.9400983" lon="17.6580901">
        <ele>37.1481</ele>
        <time>2013-03-17T11:00:43Z</time>
      </trkpt>
      <trkpt lat="59.9400756" lon="17.657987">
        <ele>37.1481</ele>
        <time>2013-03-17T11:00:44Z</time>
      </trkpt>
      <trkpt lat="59.9400538" lon="17.6578843">
        <ele>37.1481</ele>
        <time>2013-03-17T11:00:45Z</time>
      </trkpt>
      <trkpt lat="59.9400329" lon="17.6577822">
        <ele>37.1481</ele>
        <time>2013-03-17T11:00:46Z</time>
      </trkpt>
      <trkpt lat="59.9400118" lon="17.6576812">
        <ele>37.1481</ele>
        <time>2013-03-17T11:00:47Z</time>
      </trkpt>
      <trkpt lat="59.9399896" lon="17.6575823">
        <ele>37.1481</ele>
        <time>2013-03-17T11:00:48Z</time>
      </trkpt>
      <trkpt lat="59.9399684" lon="17.6574835">
        <ele>37.6287</ele>
        <time>2013-03-17T11:00:49Z</time>
      </trkpt>
      <trkpt lat="59.9399484" lon="17.6573844">
        <ele>37.6287</ele>
        <time>2013-03-17T11:00:50Z</time>
      </trkpt>
      <trkpt lat="59.9399285" lon="17.6572863">
        <ele>37.6287</ele>
        <time>2013-03-17T11:00:51Z</time>
      </trkpt>
      <trkpt lat="59.9399092" lon="17.6571902">
        <ele>37.6287</ele>
        <time>2013-03-17T11:00:52Z</time>
      </trkpt>
      <trkpt lat="59.9398899" lon="17.6570962">
        <ele>37.6287</ele>
        <time>2013-03-17T11:00:53Z</time>
      </trkpt>
      <trkpt lat="59.9398705" lon="17.6570035">
        <ele>38.1094</ele>
        <time>2013-03-17T11:00:54Z</time>
      </trkpt>
      <trkpt lat="59.9398512" lon="17.6569139">
        <ele>38.1094</ele>
        <time>2013-03-17T11:00:55Z</time>
      </trkpt>
      <trkpt lat="59.9398315" lon="17.656827">
        <ele>38.1094</ele>
        <time>2013-03-17T11:00:56Z</time>
      </trkpt>
      <trkpt lat="59.9398129" lon="17.6567415">
        <ele>38.1094</ele>
        <time>2013-03-17T11:00:57Z</time>
      </trkpt>
      <trkpt lat="59.9397955" lon="17.656656">
        <ele>38.1094</ele>
        <time>2013-03-17T11:00:58Z</time>
      </trkpt>
      <trkpt lat="59.9397798" lon="17.6565691">
        <ele>38.1094</ele>
        <time>2013-03-17T11:00:59Z</time>
      </trkpt>
      <trkpt lat="59.939766" lon="17.6564815">
        <ele>38.1094</ele>
        <time>2013-03-17T11:01:00Z</time>
      </trkpt>
      <trkpt lat="59.9397516" lon="17.6563936">
        <ele>38.1094</ele>
        <time>2013-03-17T11:01:01Z</time>
      </trkpt>
      <trkpt lat="59.9397362" lon="17.6563054">
        <ele>38.5901</ele>
        <time>2013-03-17T11:01:02Z</time>
      </trkpt>
      <trkpt lat="59.9397206" lon="17.656218">
        <ele>38.5901</ele>
        <time>2013-03-17T11:01:03Z</time>
      </trkpt>
      <trkpt lat="59.9397041" lon="17.6561324">
        <ele>38.5901</ele>
        <time>2013-03-17T11:01:04Z</time>
      </trkpt>
      <trkpt lat="59.9396869" lon="17.6560479">
        <ele>38.5901</ele>
        <time>2013-03-17T11:01:05Z</time>
      </trkpt>
      <trkpt lat="59.9396698" lon="17.655963">
        <ele>38.5901</ele>
        <time>2013-03-17T11:01:06Z</time>
      </trkpt>
      <trkpt lat="59.9396528" lon="17.6558787">
        <ele>38.5901</ele>
        <time>2013-03-17T11:01:07Z</time>
      </trkpt>
      <trkpt lat="59.9396347" lon="17.6557957">
        <ele>38.5901</ele>
        <time>2013-03-17T11:01:08Z</time>
      </trkpt>
      <trkpt lat="59.939615" lon="17.6557128">
        <ele>38.5901</ele>
        <time>2013-03-17T11:01:09Z</time>
      </trkpt>
      <trkpt lat="59.9395954" lon="17.6556289">
        <ele>38.5901</ele>
        <time>2013-03-17T11:01:10Z</time>
      </trkpt>
      <trkpt lat="59.9395783" lon="17.6555423">
        <ele>38.5901</ele>
        <time>2013-03-17T11:01:11Z</time>
      </trkpt>
      <trkpt lat="59.9395625" lon="17.6554543">
        <ele>38.5901</ele>
        <time>2013-03-17T11:01:12Z</time>
      </trkpt>
      <trkpt lat="59.9395462" lon="17.6553662">
        <ele>38.5901</ele>
        <time>2013-03-17T11:01:13Z</time>
      </trkpt>
      <trkpt lat="59.9395295" lon="17.655278">
        <ele>38.5901</ele>
        <time>2013-03-17T11:01:14Z</time>
      </trkpt>
      <trkpt lat="59.9395119" lon="17.6551891">
        <ele>38.5901</ele>
        <time>2013-03-17T11:01:15Z</time>
      </trkpt>
      <trkpt lat="59.9394936" lon="17.6550993">
        <ele>38.5901</ele>
        <time>2013-03-17T11:01:16Z</time>
      </trkpt>
      <trkpt lat="59.9394746" lon="17.6550088">
        <ele>38.5901</ele>
        <time>2013-03-17T11:01:17Z</time>
      </trkpt>
      <trkpt lat="59.9394557" lon="17.6549182">
        <ele>38.5901</ele>
        <time>2013-03-17T11:01:18Z</time>
      </trkpt>
      <trkpt lat="59.9394376" lon="17.6548265">
        <ele>38.5901</ele>
        <time>2013-03-17T11:01:19Z</time>
      </trkpt>
      <trkpt lat="59.9394205" lon="17.6547338">
        <ele>38.5901</ele>
        <time>2013-03-17T11:01:20Z</time>
      </trkpt>
      <trkpt lat="59.9394025" lon="17.654641">
        <ele>38.5901</ele>
        <time>2013-03-17T11:01:21Z</time>
      </trkpt>
      <trkpt lat="59.9393835" lon="17.6545477">
        <ele>38.5901</ele>
        <time>2013-03-17T11:01:22Z</time>
      </trkpt>
      <trkpt lat="59.9393649" lon="17.6544536">
        <ele>38.5901</ele>
        <time>2013-03-17T11:01:23Z</time>
      </trkpt>
      <trkpt lat="59.9393461" lon="17.6543598">
        <ele>38.5901</ele>
        <time>2013-03-17T11:01:24Z</time>
      </trkpt>
      <trkpt lat="59.9393264" lon="17.6542659">
        <ele>38.5901</ele>
        <time>2013-03-17T11:01:25Z</time>
      </trkpt>
      <trkpt lat="59.9393071" lon="17.6541722">
        <ele>38.5901</ele>
        <time>2013-03-17T11:01:26Z</time>
      </trkpt>
      <trkpt lat="59.9392875" lon="17.654079">
        <ele>38.5901</ele>
        <time>2013-03-17T11:01:27Z</time>
      </trkpt>
      <trkpt lat="59.9392683" lon="17.6539852">
        <ele>38.5901</ele>
        <time>2013-03-17T11:01:28Z</time>
      </trkpt>
      <trkpt lat="59.9392493" lon="17.6538902">
        <ele>38.5901</ele>
        <time>2013-03-17T11:01:29Z</time>
      </trkpt>
      <trkpt lat="59.9392299" lon="17.6537951">
        <ele>38.5901</ele>
        <time>2013-03-17T11:01:30Z</time>
      </trkpt>
      <trkpt lat="59.939209" lon="17.6537003">
        <ele>38.5901</ele>
        <time>2013-03-17T11:01:31Z</time>
      </trkpt>
      <trkpt lat="59.9391877" lon="17.6536058">
        <ele>38.5901</ele>
        <time>2013-03-17T11:01:32Z</time>
      </trkpt>
      <trkpt lat="59.9391669" lon="17.6535113">
        <ele>38.5901</ele>
        <time>2013-03-17T11:01:33Z</time>
      </trkpt>
      <trkpt lat="59.9391461" lon="17.6534173">
        <ele>38.5901</ele>
        <time>2013-03-17T11:01:34Z</time>
      </trkpt>
      <trkpt lat="59.9391247" lon="17.6533232">
        <ele>38.5901</ele>
        <time>2013-03-17T11:01:35Z</time>
      </trkpt>
      <trkpt lat="59.9391032" lon="17.6532299">
        <ele>38.5901</ele>
        <time>2013-03-17T11:01:36Z</time>
      </trkpt>
      <trkpt lat="59.9390825" lon="17.653137">
        <ele>38.5901</ele>
        <time>2013-03-17T11:01:37Z</time>
      </trkpt>
      <trkpt lat="59.9390608" lon="17.6530451">
        <ele>38.1094</ele>
        <time>2013-03-17T11:01:38Z</time>
      </trkpt>
      <trkpt lat="59.9390374" lon="17.6529543">
        <ele>38.1094</ele>
        <time>2013-03-17T11:01:39Z</time>
      </trkpt>
      <trkpt lat="59.9390135" lon="17.6528616">
        <ele>38.1094</ele>
        <time>2013-03-17T11:01:40Z</time>
      </trkpt>
      <trkpt lat="59.9389902" lon="17.6527669">
        <ele>38.1094</ele>
        <time>2013-03-17T11:01:41Z</time>
      </trkpt>
      <trkpt lat="59.9389663" lon="17.652672">
        <ele>38.1094</ele>
        <time>2013-03-17T11:01:42Z</time>
      </trkpt>
      <trkpt lat="59.9389411" lon="17.6525768">
        <ele>38.1094</ele>
        <time>2013-03-17T11:01:43Z</time>
      </trkpt>
      <trkpt lat="59.9389158" lon="17.6524807">
        <ele>38.1094</ele>
        <time>2013-03-17T11:01:44Z</time>
      </trkpt>
      <trkpt lat="59.9388898" lon="17.6523837">
        <ele>38.1094</ele>
        <time>2013-03-17T11:01:45Z</time>
      </trkpt>
      <trkpt lat="59.9388628" lon="17.652287">
        <ele>38.1094</ele>
        <time>2013-03-17T11:01:46Z</time>
      </trkpt>
      <trkpt lat="59.9388348" lon="17.6521898">
        <ele>38.1094</ele>
        <time>2013-03-17T11:01:47Z</time>
      </trkpt>
      <trkpt lat="59.9388064" lon="17.6520922">
        <ele>38.1094</ele>
        <time>2013-03-17T11:01:48Z</time>
      </trkpt>
      <trkpt lat="59.9387777" lon="17.6519945">
        <ele>38.1094</ele>
        <time>2013-03-17T11:01:49Z</time>
      </trkpt>
      <trkpt lat="59.9387486" lon="17.6518966">
        <ele>38.1094</ele>
        <time>2013-03-17T11:01:50Z</time>
      </trkpt>
      <trkpt lat="59.9387188" lon="17.6517978">
        <ele>38.1094</ele>
        <time>2013-03-17T11:01:51Z</time>
      </trkpt>
      <trkpt lat="59.9386878" lon="17.6516988">
        <ele>37.6287</ele>
        <time>2013-03-17T11:01:52Z</time>
      </trkpt>
      <trkpt lat="59.9386577" lon="17.6515994">
        <ele>37.6287</ele>
        <time>2013-03-17T11:01:53Z</time>
      </trkpt>
      <trkpt lat="59.938628" lon="17.6515029">
        <ele>37.6287</ele>
        <time>2013-03-17T11:01:54Z</time>
      </trkpt>
      <trkpt lat="59.9385977" lon="17.6514118">
        <ele>37.6287</ele>
        <time>2013-03-17T11:01:55Z</time>
      </trkpt>
      <trkpt lat="59.9385669" lon="17.6513245">
        <ele>37.6287</ele>
        <time>2013-03-17T11:01:56Z</time>
      </trkpt>
      <trkpt lat="59.9385371" lon="17.6512386">
        <ele>37.6287</ele>
        <time>2013-03-17T11:01:57Z</time>
      </trkpt>
      <trkpt lat="59.938508" lon="17.6511527">
        <ele>37.6287</ele>
        <time>2013-03-17T11:01:58Z</time>
      </trkpt>
      <trkpt lat="59.9384758" lon="17.6510689">
        <ele>37.6287</ele>
        <time>2013-03-17T11:01:59Z</time>
      </trkpt>
      <trkpt lat="59.938439" lon="17.6509886">
        <ele>37.6287</ele>
        <time>2013-03-17T11:02:00Z</time>
      </trkpt>
      <trkpt lat="59.9383992" lon="17.6509099">
        <ele>37.6287</ele>
        <time>2013-03-17T11:02:01Z</time>
      </trkpt>
      <trkpt lat="59.9383583" lon="17.6508293">
        <ele>37.6287</ele>
        <time>2013-03-17T11:02:02Z</time>
      </trkpt>
      <trkpt lat="59.9383187" lon="17.6507456">
        <ele>37.6287</ele>
        <time>2013-03-17T11:02:03Z</time>
      </trkpt>
      <trkpt lat="59.9382809" lon="17.6506595">
        <ele>37.6287</ele>
        <time>2013-03-17T11:02:04Z</time>
      </trkpt>
      <trkpt lat="59.9382474" lon="17.6505695">
        <ele>37.6287</ele>
        <time>2013-03-17T11:02:05Z</time>
      </trkpt>
      <trkpt lat="59.9382157" lon="17.6504777">
        <ele>37.6287</ele>
        <time>2013-03-17T11:02:06Z</time>
      </trkpt>
      <trkpt lat="59.938184" lon="17.650387">
        <ele>37.6287</ele>
        <time>2013-03-17T11:02:07Z</time>
      </trkpt>
      <trkpt lat="59.938153" lon="17.650297">
        <ele>37.6287</ele>
        <time>2013-03-17T11:02:08Z</time>
      </trkpt>
      <trkpt lat="59.9381222" lon="17.6502075">
        <ele>37.6287</ele>
        <time>2013-03-17T11:02:09Z</time>
      </trkpt>
      <trkpt lat="59.938091" lon="17.6501188">
        <ele>37.6287</ele>
        <time>2013-03-17T11:02:10Z</time>
      </trkpt>
      <trkpt lat="59.9380578" lon="17.6500318">
        <ele>37.6287</ele>
        <time>2013-03-17T11:02:11Z</time>
      </trkpt>
      <trkpt lat="59.9380241" lon="17.6499473">
        <ele>37.1481</ele>
        <time>2013-03-17T11:02:12Z</time>
      </trkpt>
      <trkpt lat="59.9379909" lon="17.649864">
        <ele>37.1481</ele>
        <time>2013-03-17T11:02:13Z</time>
      </trkpt>
      <trkpt lat="59.9379573" lon="17.6497817">
        <ele>37.1481</ele>
        <time>2013-03-17T11:02:14Z</time>
      </trkpt>
      <trkpt lat="59.9379231" lon="17.6497009">
        <ele>37.1481</ele>
        <time>2013-03-17T11:02:15Z</time>
      </trkpt>
      <trkpt lat="59.9378891" lon="17.649621">
        <ele>37.1481</ele>
        <time>2013-03-17T11:02:16Z</time>
      </trkpt>
      <trkpt lat="59.9378574" lon="17.6495376">
        <ele>37.1481</ele>
        <time>2013-03-17T11:02:17Z</time>
      </trkpt>
      <trkpt lat="59.9378289" lon="17.6494495">
        <ele>37.1481</ele>
        <time>2013-03-17T11:02:18Z</time>
      </trkpt>
      <trkpt lat="59.9378023" lon="17.6493599">
        <ele>37.1481</ele>
        <time>2013-03-17T11:02:19Z</time>
      </trkpt>
      <trkpt lat="59.9377714" lon="17.6492771">
        <ele>37.1481</ele>
        <time>2013-03-17T11:02:20Z</time>
      </trkpt>
      <trkpt lat="59.9377372" lon="17.6492014">
        <ele>37.1481</ele>
        <time>2013-03-17T11:02:21Z</time>
      </trkpt>
      <trkpt lat="59.9377038" lon="17.6491263">
        <ele>37.1481</ele>
        <time>2013-03-17T11:02:22Z</time>
      </trkpt>
      <trkpt lat="59.9376704" lon="17.6490539">
        <ele>37.6287</ele>
        <time>2013-03-17T11:02:23Z</time>
      </trkpt>
      <trkpt lat="59.9376354" lon="17.6489863">
        <ele>37.6287</ele>
        <time>2013-03-17T11:02:24Z</time>
      </trkpt>
      <trkpt lat="59.9376023" lon="17.6489164">
        <ele>37.6287</ele>
        <time>2013-03-17T11:02:25Z</time>
      </trkpt>
      <trkpt lat="59.9375693" lon="17.6488501">
        <ele>37.6287</ele>
        <time>2013-03-17T11:02:26Z</time>
      </trkpt>
      <trkpt lat="59.9375321" lon="17.6487969">
        <ele>37.6287</ele>
        <time>2013-03-17T11:02:27Z</time>
      </trkpt>
      <trkpt lat="59.9374943" lon="17.6487521">
        <ele>37.6287</ele>
        <time>2013-03-17T11:02:28Z</time>
      </trkpt>
      <trkpt lat="59.9374598" lon="17.648706">
        <ele>38.1094</ele>
        <time>2013-03-17T11:02:29Z</time>
      </trkpt>
      <trkpt lat="59.9374288" lon="17.6486584">
        <ele>38.1094</ele>
        <time>2013-03-17T11:02:30Z</time>
      </trkpt>
      <trkpt lat="59.9373994" lon="17.6486068">
        <ele>38.1094</ele>
        <time>2013-03-17T11:02:31Z</time>
      </trkpt>
      <trkpt lat="59.9373742" lon="17.6485433">
        <ele>38.1094</ele>
        <time>2013-03-17T11:02:32Z</time>
      </trkpt>
      <trkpt lat="59.9373532" lon="17.6484718">
        <ele>38.1094</ele>
        <time>2013-03-17T11:02:33Z</time>
      </trkpt>
      <trkpt lat="59.9373319" lon="17.6484007">
        <ele>38.1094</ele>
        <time>2013-03-17T11:02:34Z</time>
      </trkpt>
      <trkpt lat="59.9373067" lon="17.6483337">
        <ele>37.6287</ele>
        <time>2013-03-17T11:02:35Z</time>
      </trkpt>
      <trkpt lat="59.9372757" lon="17.6482751">
        <ele>37.6287</ele>
        <time>2013-03-17T11:02:36Z</time>
      </trkpt>
      <trkpt lat="59.9372398" lon="17.6482232">
        <ele>37.6287</ele>
        <time>2013-03-17T11:02:37Z</time>
      </trkpt>
      <trkpt lat="59.9372005" lon="17.648174">
        <ele>37.6287</ele>
        <time>2013-03-17T11:02:38Z</time>
      </trkpt>
      <trkpt lat="59.93716" lon="17.6481248">
        <ele>37.6287</ele>
        <time>2013-03-17T11:02:39Z</time>
      </trkpt>
      <trkpt lat="59.9371203" lon="17.6480732">
        <ele>37.6287</ele>
        <time>2013-03-17T11:02:40Z</time>
      </trkpt>
      <trkpt lat="59.9370809" lon="17.6480201">
        <ele>37.6287</ele>
        <time>2013-03-17T11:02:41Z</time>
      </trkpt>
      <trkpt lat="59.9370409" lon="17.6479674">
        <ele>37.6287</ele>
        <time>2013-03-17T11:02:42Z</time>
      </trkpt>
      <trkpt lat="59.937" lon="17.6479167">
        <ele>37.6287</ele>
        <time>2013-03-17T11:02:43Z</time>
      </trkpt>
      <trkpt lat="59.9369581" lon="17.6478661">
        <ele>37.6287</ele>
        <time>2013-03-17T11:02:44Z</time>
      </trkpt>
      <trkpt lat="59.9369168" lon="17.6478164">
        <ele>37.6287</ele>
        <time>2013-03-17T11:02:45Z</time>
      </trkpt>
      <trkpt lat="59.9368768" lon="17.647767">
        <ele>37.6287</ele>
        <time>2013-03-17T11:02:46Z</time>
      </trkpt>
      <trkpt lat="59.9368364" lon="17.6477177">
        <ele>37.6287</ele>
        <time>2013-03-17T11:02:47Z</time>
      </trkpt>
      <trkpt lat="59.936796" lon="17.6476691">
        <ele>37.6287</ele>
        <time>2013-03-17T11:02:48Z</time>
      </trkpt>
      <trkpt lat="59.936756" lon="17.6476178">
        <ele>37.6287</ele>
        <time>2013-03-17T11:02:49Z</time>
      </trkpt>
      <trkpt lat="59.9367163" lon="17.6475654">
        <ele>37.6287</ele>
        <time>2013-03-17T11:02:50Z</time>
      </trkpt>
      <trkpt lat="59.9366764" lon="17.6475154">
        <ele>37.6287</ele>
        <time>2013-03-17T11:02:51Z</time>
      </trkpt>
      <trkpt lat="59.936636" lon="17.6474648">
        <ele>37.6287</ele>
        <time>2013-03-17T11:02:52Z</time>
      </trkpt>
      <trkpt lat="59.936596" lon="17.6474138">
        <ele>37.6287</ele>
        <time>2013-03-17T11:02:53Z</time>
      </trkpt>
      <trkpt lat="59.9365554" lon="17.6473629">
        <ele>37.6287</ele>
        <time>2013-03-17T11:02:54Z</time>
      </trkpt>
      <trkpt lat="59.9365148" lon="17.6473112">
        <ele>37.6287</ele>
        <time>2013-03-17T11:02:55Z</time>
      </trkpt>
      <trkpt lat="59.9364738" lon="17.6472605">
        <ele>37.6287</ele>
        <time>2013-03-17T11:02:56Z</time>
      </trkpt>
      <trkpt lat="59.9364328" lon="17.6472097">
        <ele>37.6287</ele>
        <time>2013-03-17T11:02:57Z</time>
      </trkpt>
      <trkpt lat="59.9363927" lon="17.6471597">
        <ele>37.6287</ele>
        <time>2013-03-17T11:02:58Z</time>
      </trkpt>
      <trkpt lat="59.9363537" lon="17.6471101">
        <ele>38.1094</ele>
        <time>2013-03-17T11:02:59Z</time>
      </trkpt>
      <trkpt lat="59.9363245" lon="17.6470437">
        <ele>37.6287</ele>
        <time>2013-03-17T11:03:00Z</time>
      </trkpt>
      <trkpt lat="59.9363111" lon="17.6469603">
        <ele>37.6287</ele>
        <time>2013-03-17T11:03:01Z</time>
      </trkpt>
      <trkpt lat="59.9362945" lon="17.6468857">
        <ele>37.6287</ele>
        <time>2013-03-17T11:03:02Z</time>
      </trkpt>
      <trkpt lat="59.936265" lon="17.6468289">
        <ele>37.6287</ele>
        <time>2013-03-17T11:03:03Z</time>
      </trkpt>
      <trkpt lat="59.9362312" lon="17.6467798">
        <ele>37.6287</ele>
        <time>2013-03-17T11:03:04Z</time>
      </trkpt>
      <trkpt lat="59.9361961" lon="17.6467335">
        <ele>37.6287</ele>
        <time>2013-03-17T11:03:05Z</time>
      </trkpt>
      <trkpt lat="59.9361599" lon="17.6466891">
        <ele>37.6287</ele>
        <time>2013-03-17T11:03:06Z</time>
      </trkpt>
      <trkpt lat="59.9361247" lon="17.6466465">
        <ele>37.6287</ele>
        <time>2013-03-17T11:03:07Z</time>
      </trkpt>
      <trkpt lat="59.9360909" lon="17.6466047">
        <ele>37.6287</ele>
        <time>2013-03-17T11:03:08Z</time>
      </trkpt>
      <trkpt lat="59.9360583" lon="17.6465652">
        <ele>37.6287</ele>
        <time>2013-03-17T11:03:09Z</time>
      </trkpt>
      <trkpt lat="59.9360246" lon="17.646529">
        <ele>37.6287</ele>
        <time>2013-03-17T11:03:10Z</time>
      </trkpt>
      <trkpt lat="59.9359892" lon="17.6464918">
        <ele>37.6287</ele>
        <time>2013-03-17T11:03:11Z</time>
      </trkpt>
      <trkpt lat="59.9359541" lon="17.6464502">
        <ele>37.6287</ele>
        <time>2013-03-17T11:03:12Z</time>
      </trkpt>
      <trkpt lat="59.9359198" lon="17.6464078">
        <ele>37.6287</ele>
        <time>2013-03-17T11:03:13Z</time>
      </trkpt>
      <trkpt lat="59.9358843" lon="17.6463663">
        <ele>37.1481</ele>
        <time>2013-03-17T11:03:14Z</time>
      </trkpt>
      <trkpt lat="59.9358476" lon="17.6463234">
        <ele>37.1481</ele>
        <time>2013-03-17T11:03:15Z</time>
      </trkpt>
      <trkpt lat="59.93581" lon="17.6462768">
        <ele>37.1481</ele>
        <time>2013-03-17T11:03:16Z</time>
      </trkpt>
      <trkpt lat="59.9357702" lon="17.6462258">
        <ele>37.1481</ele>
        <time>2013-03-17T11:03:17Z</time>
      </trkpt>
      <trkpt lat="59.9357305" lon="17.6461696">
        <ele>36.6675</ele>
        <time>2013-03-17T11:03:18Z</time>
      </trkpt>
      <trkpt lat="59.9356898" lon="17.6461098">
        <ele>36.6675</ele>
        <time>2013-03-17T11:03:19Z</time>
      </trkpt>
      <trkpt lat="59.9356491" lon="17.6460498">
        <ele>36.6675</ele>
        <time>2013-03-17T11:03:20Z</time>
      </trkpt>
      <trkpt lat="59.935607" lon="17.6459934">
        <ele>36.6675</ele>
        <time>2013-03-17T11:03:21Z</time>
      </trkpt>
      <trkpt lat="59.9355621" lon="17.6459405">
        <ele>36.6675</ele>
        <time>2013-03-17T11:03:22Z</time>
      </trkpt>
      <trkpt lat="59.9355164" lon="17.6458903">
        <ele>36.1868</ele>
        <time>2013-03-17T11:03:23Z</time>
      </trkpt>
      <trkpt lat="59.9354708" lon="17.6458455">
        <ele>36.1868</ele>
        <time>2013-03-17T11:03:24Z</time>
      </trkpt>
      <trkpt lat="59.9354252" lon="17.6458047">
        <ele>36.1868</ele>
        <time>2013-03-17T11:03:25Z</time>
      </trkpt>
      <trkpt lat="59.9353797" lon="17.6457611">
        <ele>36.1868</ele>
        <time>2013-03-17T11:03:26Z</time>
      </trkpt>
      <trkpt lat="59.935334" lon="17.6457135">
        <ele>36.1868</ele>
        <time>2013-03-17T11:03:27Z</time>
      </trkpt>
      <trkpt lat="59.9352881" lon="17.6456661">
        <ele>36.1868</ele>
        <time>2013-03-17T11:03:28Z</time>
      </trkpt>
      <trkpt lat="59.9352417" lon="17.645619">
        <ele>36.6675</ele>
        <time>2013-03-17T11:03:29Z</time>
      </trkpt>
      <trkpt lat="59.9351954" lon="17.6455687">
        <ele>36.6675</ele>
        <time>2013-03-17T11:03:30Z</time>
      </trkpt>
      <trkpt lat="59.9351513" lon="17.6455137">
        <ele>36.6675</ele>
        <time>2013-03-17T11:03:31Z</time>
      </trkpt>
      <trkpt lat="59.9351094" lon="17.645455">
        <ele>36.6675</ele>
        <time>2013-03-17T11:03:32Z</time>
      </trkpt>
      <trkpt lat="59.9350668" lon="17.6453973">
        <ele>36.6675</ele>
        <time>2013-03-17T11:03:33Z</time>
      </trkpt>
      <trkpt lat="59.9350244" lon="17.6453438">
        <ele>36.6675</ele>
        <time>2013-03-17T11:03:34Z</time>
      </trkpt>
      <trkpt lat="59.9349824" lon="17.6452956">
        <ele>36.1868</ele>
        <time>2013-03-17T11:03:35Z</time>
      </trkpt>
      <trkpt lat="59.9349394" lon="17.645252">
        <ele>36.1868</ele>
        <time>2013-03-17T11:03:36Z</time>
      </trkpt>
      <trkpt lat="59.9348972" lon="17.645205">
        <ele>36.1868</ele>
        <time>2013-03-17T11:03:37Z</time>
      </trkpt>
      <trkpt lat="59.934855" lon="17.645153">
        <ele>35.7061</ele>
        <time>2013-03-17T11:03:38Z</time>
      </trkpt>
      <trkpt lat="59.934812" lon="17.6451008">
        <ele>35.7061</ele>
        <time>2013-03-17T11:03:39Z</time>
      </trkpt>
      <trkpt lat="59.9347684" lon="17.6450485">
        <ele>35.7061</ele>
        <time>2013-03-17T11:03:40Z</time>
      </trkpt>
      <trkpt lat="59.9347247" lon="17.6449941">
        <ele>35.7061</ele>
        <time>2013-03-17T11:03:41Z</time>
      </trkpt>
      <trkpt lat="59.9346805" lon="17.6449393">
        <ele>35.7061</ele>
        <time>2013-03-17T11:03:42Z</time>
      </trkpt>
      <trkpt lat="59.9346367" lon="17.6448829">
        <ele>35.7061</ele>
        <time>2013-03-17T11:03:43Z</time>
      </trkpt>
      <trkpt lat="59.9345925" lon="17.6448247">
        <ele>35.7061</ele>
        <time>2013-03-17T11:03:44Z</time>
      </trkpt>
      <trkpt lat="59.9345477" lon="17.6447667">
        <ele>35.2255</ele>
        <time>2013-03-17T11:03:45Z</time>
      </trkpt>
      <trkpt lat="59.9345036" lon="17.6447044">
        <ele>35.2255</ele>
        <time>2013-03-17T11:03:46Z</time>
      </trkpt>
      <trkpt lat="59.9344603" lon="17.6446355">
        <ele>35.2255</ele>
        <time>2013-03-17T11:03:47Z</time>
      </trkpt>
      <trkpt lat="59.9344151" lon="17.6445605">
        <ele>34.2642</ele>
        <time>2013-03-17T11:03:48Z</time>
      </trkpt>
      <trkpt lat="59.934367" lon="17.6444809">
        <ele>33.7834</ele>
        <time>2013-03-17T11:03:49Z</time>
      </trkpt>
      <trkpt lat="59.9343162" lon="17.6444029">
        <ele>33.7834</ele>
        <time>2013-03-17T11:03:50Z</time>
      </trkpt>
      <trkpt lat="59.9342646" lon="17.6443276">
        <ele>33.3029</ele>
        <time>2013-03-17T11:03:51Z</time>
      </trkpt>
      <trkpt lat="59.9342132" lon="17.6442544">
        <ele>33.3029</ele>
        <time>2013-03-17T11:03:52Z</time>
      </trkpt>
      <trkpt lat="59.9341609" lon="17.6441856">
        <ele>33.3029</ele>
        <time>2013-03-17T11:03:53Z</time>
      </trkpt>
      <trkpt lat="59.9341076" lon="17.6441203">
        <ele>32.8223</ele>
        <time>2013-03-17T11:03:54Z</time>
      </trkpt>
      <trkpt lat="59.9340545" lon="17.6440532">
        <ele>32.8223</ele>
        <time>2013-03-17T11:03:55Z</time>
      </trkpt>
      <trkpt lat="59.9340023" lon="17.643987">
        <ele>32.8223</ele>
        <time>2013-03-17T11:03:56Z</time>
      </trkpt>
      <trkpt lat="59.9339504" lon="17.6439258">
        <ele>32.8223</ele>
        <time>2013-03-17T11:03:57Z</time>
      </trkpt>
      <trkpt lat="59.9338978" lon="17.643869">
        <ele>32.3416</ele>
        <time>2013-03-17T11:03:58Z</time>
      </trkpt>
      <trkpt lat="59.9338449" lon="17.643816">
        <ele>32.3416</ele>
        <time>2013-03-17T11:03:59Z</time>
      </trkpt>
      <trkpt lat="59.9337915" lon="17.6437671">
        <ele>31.8607</ele>
        <time>2013-03-17T11:04:00Z</time>
      </trkpt>
      <trkpt lat="59.9337374" lon="17.6437193">
        <ele>31.8607</ele>
        <time>2013-03-17T11:04:01Z</time>
      </trkpt>
      <trkpt lat="59.9336827" lon="17.643668">
        <ele>31.3801</ele>
        <time>2013-03-17T11:04:02Z</time>
      </trkpt>
      <trkpt lat="59.9336282" lon="17.643612">
        <ele>30.8995</ele>
        <time>2013-03-17T11:04:03Z</time>
      </trkpt>
      <trkpt lat="59.9335729" lon="17.643553">
        <ele>30.4188</ele>
        <time>2013-03-17T11:04:04Z</time>
      </trkpt>
      <trkpt lat="59.9335167" lon="17.6434894">
        <ele>30.4188</ele>
        <time>2013-03-17T11:04:05Z</time>
      </trkpt>
      <trkpt lat="59.9334608" lon="17.6434194">
        <ele>29.9381</ele>
        <time>2013-03-17T11:04:06Z</time>
      </trkpt>
      <trkpt lat="59.9334052" lon="17.6433423">
        <ele>29.4575</ele>
        <time>2013-03-17T11:04:07Z</time>
      </trkpt>
      <trkpt lat="59.9333521" lon="17.6432567">
        <ele>28.9769</ele>
        <time>2013-03-17T11:04:08Z</time>
      </trkpt>
      <trkpt lat="59.9332999" lon="17.643163">
        <ele>28.4962</ele>
        <time>2013-03-17T11:04:09Z</time>
      </trkpt>
      <trkpt lat="59.933246" lon="17.6430665">
        <ele>28.0155</ele>
        <time>2013-03-17T11:04:10Z</time>
      </trkpt>
      <trkpt lat="59.933188" lon="17.6429708">
        <ele>27.5349</ele>
        <time>2013-03-17T11:04:11Z</time>
      </trkpt>
      <trkpt lat="59.9331263" lon="17.6428779">
        <ele>27.0543</ele>
        <time>2013-03-17T11:04:12Z</time>
      </trkpt>
      <trkpt lat="59.9330619" lon="17.6427909">
        <ele>27.0543</ele>
        <time>2013-03-17T11:04:13Z</time>
      </trkpt>
      <trkpt lat="59.9329975" lon="17.642709">
        <ele>26.5736</ele>
        <time>2013-03-17T11:04:14Z</time>
      </trkpt>
      <trkpt lat="59.9329345" lon="17.6426272">
        <ele>26.5736</ele>
        <time>2013-03-17T11:04:15Z</time>
      </trkpt>
      <trkpt lat="59.9328757" lon="17.6425397">
        <ele>26.0929</ele>
        <time>2013-03-17T11:04:16Z</time>
      </trkpt>
      <trkpt lat="59.9328213" lon="17.6424474">
        <ele>26.0929</ele>
        <time>2013-03-17T11:04:17Z</time>
      </trkpt>
      <trkpt lat="59.9327706" lon="17.6423562">
        <ele>25.6123</ele>
        <time>2013-03-17T11:04:18Z</time>
      </trkpt>
      <trkpt lat="59.932719" lon="17.6422694">
        <ele>25.6123</ele>
        <time>2013-03-17T11:04:19Z</time>
      </trkpt>
      <trkpt lat="59.9326646" lon="17.6421895">
        <ele>25.6123</ele>
        <time>2013-03-17T11:04:20Z</time>
      </trkpt>
      <trkpt lat="59.9326079" lon="17.6421186">
        <ele>25.6123</ele>
        <time>2013-03-17T11:04:21Z</time>
      </trkpt>
      <trkpt lat="59.9325504" lon="17.6420555">
        <ele>25.6123</ele>
        <time>2013-03-17T11:04:22Z</time>
      </trkpt>
      <trkpt lat="59.9324924" lon="17.6419969">
        <ele>25.6123</ele>
        <time>2013-03-17T11:04:23Z</time>
      </trkpt>
      <trkpt lat="59.9324346" lon="17.6419405">
        <ele>25.1317</ele>
        <time>2013-03-17T11:04:24Z</time>
      </trkpt>
      <trkpt lat="59.9323787" lon="17.6418857">
        <ele>25.1317</ele>
        <time>2013-03-17T11:04:25Z</time>
      </trkpt>
      <trkpt lat="59.9323235" lon="17.6418342">
        <ele>25.1317</ele>
        <time>2013-03-17T11:04:26Z</time>
      </trkpt>
      <trkpt lat="59.9322689" lon="17.6417866">
        <ele>25.1317</ele>
        <time>2013-03-17T11:04:27Z</time>
      </trkpt>
      <trkpt lat="59.932216" lon="17.6417398">
        <ele>25.1317</ele>
        <time>2013-03-17T11:04:28Z</time>
      </trkpt>
      <trkpt lat="59.932165" lon="17.6416918">
        <ele>25.1317</ele>
        <time>2013-03-17T11:04:29Z</time>
      </trkpt>
      <trkpt lat="59.9321171" lon="17.6416431">
        <ele>25.6123</ele>
        <time>2013-03-17T11:04:30Z</time>
      </trkpt>
      <trkpt lat="59.932072" lon="17.6415987">
        <ele>25.6123</ele>
        <time>2013-03-17T11:04:31Z</time>
      </trkpt>
      <trkpt lat="59.9320285" lon="17.6415617">
        <ele>25.6123</ele>
        <time>2013-03-17T11:04:32Z</time>
      </trkpt>
      <trkpt lat="59.9319837" lon="17.6415285">
        <ele>25.6123</ele>
        <time>2013-03-17T11:04:33Z</time>
      </trkpt>
      <trkpt lat="59.9319359" lon="17.6414965">
        <ele>25.1317</ele>
        <time>2013-03-17T11:04:34Z</time>
      </trkpt>
      <trkpt lat="59.9318861" lon="17.6414634">
        <ele>25.1317</ele>
        <time>2013-03-17T11:04:35Z</time>
      </trkpt>
      <trkpt lat="59.9318345" lon="17.641429">
        <ele>25.1317</ele>
        <time>2013-03-17T11:04:36Z</time>
      </trkpt>
      <trkpt lat="59.9317821" lon="17.6413938">
        <ele>25.1317</ele>
        <time>2013-03-17T11:04:37Z</time>
      </trkpt>
      <trkpt lat="59.9317301" lon="17.6413573">
        <ele>25.1317</ele>
        <time>2013-03-17T11:04:38Z</time>
      </trkpt>
      <trkpt lat="59.931678" lon="17.6413212">
        <ele>25.1317</ele>
        <time>2013-03-17T11:04:39Z</time>
      </trkpt>
      <trkpt lat="59.9316265" lon="17.641286">
        <ele>24.651</ele>
        <time>2013-03-17T11:04:40Z</time>
      </trkpt>
      <trkpt lat="59.9315753" lon="17.6412505">
        <ele>24.651</ele>
        <time>2013-03-17T11:04:41Z</time>
      </trkpt>
      <trkpt lat="59.9315242" lon="17.6412146">
        <ele>24.651</ele>
        <time>2013-03-17T11:04:42Z</time>
      </trkpt>
      <trkpt lat="59.9314733" lon="17.6411785">
        <ele>24.651</ele>
        <time>2013-03-17T11:04:43Z</time>
      </trkpt>
      <trkpt lat="59.9314231" lon="17.6411407">
        <ele>24.651</ele>
        <time>2013-03-17T11:04:44Z</time>
      </trkpt>
      <trkpt lat="59.9313733" lon="17.6411018">
        <ele>24.651</ele>
        <time>2013-03-17T11:04:45Z</time>
      </trkpt>
      <trkpt lat="59.9313223" lon="17.6410619">
        <ele>24.651</ele>
        <time>2013-03-17T11:04:46Z</time>
      </trkpt>
      <trkpt lat="59.9312676" lon="17.6410211">
        <ele>24.1703</ele>
        <time>2013-03-17T11:04:47Z</time>
      </trkpt>
      <trkpt lat="59.9312087" lon="17.6409791">
        <ele>23.6896</ele>
        <time>2013-03-17T11:04:48Z</time>
      </trkpt>
      <trkpt lat="59.9311471" lon="17.6409344">
        <ele>23.6896</ele>
        <time>2013-03-17T11:04:49Z</time>
      </trkpt>
      <trkpt lat="59.9310833" lon="17.6408888">
        <ele>23.209</ele>
        <time>2013-03-17T11:04:50Z</time>
      </trkpt>
      <trkpt lat="59.9310187" lon="17.640847">
        <ele>23.209</ele>
        <time>2013-03-17T11:04:51Z</time>
      </trkpt>
      <trkpt lat="59.9309543" lon="17.6408116">
        <ele>22.7283</ele>
        <time>2013-03-17T11:04:52Z</time>
      </trkpt>
      <trkpt lat="59.9308895" lon="17.6407851">
        <ele>22.7283</ele>
        <time>2013-03-17T11:04:53Z</time>
      </trkpt>
      <trkpt lat="59.9308257" lon="17.6407676">
        <ele>23.209</ele>
        <time>2013-03-17T11:04:54Z</time>
      </trkpt>
      <trkpt lat="59.9307643" lon="17.6407589">
        <ele>23.209</ele>
        <time>2013-03-17T11:04:55Z</time>
      </trkpt>
      <trkpt lat="59.9307057" lon="17.6407599">
        <ele>22.7283</ele>
        <time>2013-03-17T11:04:56Z</time>
      </trkpt>
      <trkpt lat="59.9306467" lon="17.6407707">
        <ele>22.7283</ele>
        <time>2013-03-17T11:04:57Z</time>
      </trkpt>
      <trkpt lat="59.9305871" lon="17.6407856">
        <ele>22.7283</ele>
        <time>2013-03-17T11:04:58Z</time>
      </trkpt>
      <trkpt lat="59.9305264" lon="17.6407988">
        <ele>22.2476</ele>
        <time>2013-03-17T11:04:59Z</time>
      </trkpt>
      <trkpt lat="59.9304647" lon="17.6408076">
        <ele>21.767</ele>
        <time>2013-03-17T11:05:00Z</time>
      </trkpt>
      <trkpt lat="59.9304037" lon="17.6408098">
        <ele>21.767</ele>
        <time>2013-03-17T11:05:01Z</time>
      </trkpt>
      <trkpt lat="59.9303415" lon="17.640807">
        <ele>21.2864</ele>
        <time>2013-03-17T11:05:02Z</time>
      </trkpt>
      <trkpt lat="59.9302778" lon="17.6408034">
        <ele>21.2864</ele>
        <time>2013-03-17T11:05:03Z</time>
      </trkpt>
      <trkpt lat="59.9302141" lon="17.6408003">
        <ele>21.2864</ele>
        <time>2013-03-17T11:05:04Z</time>
      </trkpt>
      <trkpt lat="59.9301499" lon="17.6407972">
        <ele>21.2864</ele>
        <time>2013-03-17T11:05:05Z</time>
      </trkpt>
      <trkpt lat="59.930086" lon="17.6407942">
        <ele>21.2864</ele>
        <time>2013-03-17T11:05:06Z</time>
      </trkpt>
      <trkpt lat="59.9300228" lon="17.6407921">
        <ele>21.2864</ele>
        <time>2013-03-17T11:05:07Z</time>
      </trkpt>
      <trkpt lat="59.9299609" lon="17.6407919">
        <ele>21.2864</ele>
        <time>2013-03-17T11:05:08Z</time>
      </trkpt>
      <trkpt lat="59.9299012" lon="17.640794">
        <ele>21.2864</ele>
        <time>2013-03-17T11:05:09Z</time>
      </trkpt>
      <trkpt lat="59.9298438" lon="17.6407978">
        <ele>21.2864</ele>
        <time>2013-03-17T11:05:10Z</time>
      </trkpt>
      <trkpt lat="59.9297892" lon="17.6408033">
        <ele>21.2864</ele>
        <time>2013-03-17T11:05:11Z</time>
      </trkpt>
      <trkpt lat="59.9297348" lon="17.6408117">
        <ele>21.2864</ele>
        <time>2013-03-17T11:05:12Z</time>
      </trkpt>
      <trkpt lat="59.9296794" lon="17.640823">
        <ele>21.2864</ele>
        <time>2013-03-17T11:05:13Z</time>
      </trkpt>
      <trkpt lat="59.9296237" lon="17.6408345">
        <ele>21.2864</ele>
        <time>2013-03-17T11:05:14Z</time>
      </trkpt>
      <trkpt lat="59.9295678" lon="17.6408453">
        <ele>21.2864</ele>
        <time>2013-03-17T11:05:15Z</time>
      </trkpt>
      <trkpt lat="59.929512" lon="17.6408561">
        <ele>20.8057</ele>
        <time>2013-03-17T11:05:16Z</time>
      </trkpt>
      <trkpt lat="59.9294567" lon="17.6408666">
        <ele>20.8057</ele>
        <time>2013-03-17T11:05:17Z</time>
      </trkpt>
      <trkpt lat="59.929402" lon="17.6408739">
        <ele>20.8057</ele>
        <time>2013-03-17T11:05:18Z</time>
      </trkpt>
      <trkpt lat="59.9293485" lon="17.6408783">
        <ele>20.8057</ele>
        <time>2013-03-17T11:05:19Z</time>
      </trkpt>
      <trkpt lat="59.9292957" lon="17.6408825">
        <ele>20.8057</ele>
        <time>2013-03-17T11:05:20Z</time>
      </trkpt>
      <trkpt lat="59.9292435" lon="17.6408848">
        <ele>20.8057</ele>
        <time>2013-03-17T11:05:21Z</time>
      </trkpt>
      <trkpt lat="59.9291917" lon="17.6408853">
        <ele>20.8057</ele>
        <time>2013-03-17T11:05:22Z</time>
      </trkpt>
      <trkpt lat="59.9291402" lon="17.6408853">
        <ele>20.8057</ele>
        <time>2013-03-17T11:05:23Z</time>
      </trkpt>
      <trkpt lat="59.929089" lon="17.6408858">
        <ele>20.8057</ele>
        <time>2013-03-17T11:05:24Z</time>
      </trkpt>
      <trkpt lat="59.9290388" lon="17.6408879">
        <ele>20.8057</ele>
        <time>2013-03-17T11:05:25Z</time>
      </trkpt>
      <trkpt lat="59.9289893" lon="17.6408915">
        <ele>20.8057</ele>
        <time>2013-03-17T11:05:26Z</time>
      </trkpt>
      <trkpt lat="59.9289399" lon="17.6408971">
        <ele>20.8057</ele>
        <time>2013-03-17T11:05:27Z</time>
      </trkpt>
      <trkpt lat="59.9288915" lon="17.6409058">
        <ele>20.8057</ele>
        <time>2013-03-17T11:05:28Z</time>
      </trkpt>
      <trkpt lat="59.9288435" lon="17.6409164">
        <ele>20.8057</ele>
        <time>2013-03-17T11:05:29Z</time>
      </trkpt>
      <trkpt lat="59.9287964" lon="17.6409255">
        <ele>20.8057</ele>
        <time>2013-03-17T11:05:30Z</time>
      </trkpt>
      <trkpt lat="59.9287493" lon="17.6409351">
        <ele>20.8057</ele>
        <time>2013-03-17T11:05:31Z</time>
      </trkpt>
      <trkpt lat="59.9287018" lon="17.6409474">
        <ele>20.8057</ele>
        <time>2013-03-17T11:05:32Z</time>
      </trkpt>
      <trkpt lat="59.9286548" lon="17.6409574">
        <ele>21.2864</ele>
        <time>2013-03-17T11:05:33Z</time>
      </trkpt>
      <trkpt lat="59.9286083" lon="17.6409667">
        <ele>21.2864</ele>
        <time>2013-03-17T11:05:34Z</time>
      </trkpt>
      <trkpt lat="59.9285616" lon="17.6409765">
        <ele>21.2864</ele>
        <time>2013-03-17T11:05:35Z</time>
      </trkpt>
      <trkpt lat="59.9285146" lon="17.6409857">
        <ele>21.2864</ele>
        <time>2013-03-17T11:05:36Z</time>
      </trkpt>
      <trkpt lat="59.9284678" lon="17.6409931">
        <ele>21.2864</ele>
        <time>2013-03-17T11:05:37Z</time>
      </trkpt>
      <trkpt lat="59.9284203" lon="17.6409997">
        <ele>21.2864</ele>
        <time>2013-03-17T11:05:38Z</time>
      </trkpt>
      <trkpt lat="59.9283726" lon="17.6410061">
        <ele>21.2864</ele>
        <time>2013-03-17T11:05:39Z</time>
      </trkpt>
      <trkpt lat="59.9283249" lon="17.6410133">
        <ele>21.2864</ele>
        <time>2013-03-17T11:05:40Z</time>
      </trkpt>
      <trkpt lat="59.9282776" lon="17.6410205">
        <ele>21.2864</ele>
        <time>2013-03-17T11:05:41Z</time>
      </trkpt>
      <trkpt lat="59.9282303" lon="17.6410263">
        <ele>21.2864</ele>
        <time>2013-03-17T11:05:42Z</time>
      </trkpt>
      <trkpt lat="59.9281829" lon="17.6410311">
        <ele>21.2864</ele>
        <time>2013-03-17T11:05:43Z</time>
      </trkpt>
      <trkpt lat="59.9281349" lon="17.6410355">
        <ele>21.767</ele>
        <time>2013-03-17T11:05:44Z</time>
      </trkpt>
      <trkpt lat="59.9280872" lon="17.6410413">
        <ele>21.2864</ele>
        <time>2013-03-17T11:05:45Z</time>
      </trkpt>
      <trkpt lat="59.9280388" lon="17.6410486">
        <ele>21.2864</ele>
        <time>2013-03-17T11:05:46Z</time>
      </trkpt>
      <trkpt lat="59.9279893" lon="17.641056">
        <ele>21.2864</ele>
        <time>2013-03-17T11:05:47Z</time>
      </trkpt>
      <trkpt lat="59.9279399" lon="17.641061">
        <ele>21.2864</ele>
        <time>2013-03-17T11:05:48Z</time>
      </trkpt>
      <trkpt lat="59.9278903" lon="17.6410627">
        <ele>21.2864</ele>
        <time>2013-03-17T11:05:49Z</time>
      </trkpt>
      <trkpt lat="59.9278416" lon="17.641064">
        <ele>21.2864</ele>
        <time>2013-03-17T11:05:50Z</time>
      </trkpt>
      <trkpt lat="59.9277939" lon="17.6410702">
        <ele>21.2864</ele>
        <time>2013-03-17T11:05:51Z</time>
      </trkpt>
      <trkpt lat="59.9277462" lon="17.6410784">
        <ele>21.2864</ele>
        <time>2013-03-17T11:05:52Z</time>
      </trkpt>
      <trkpt lat="59.9276985" lon="17.6410829">
        <ele>21.2864</ele>
        <time>2013-03-17T11:05:53Z</time>
      </trkpt>
      <trkpt lat="59.9276511" lon="17.6410847">
        <ele>21.2864</ele>
        <time>2013-03-17T11:05:54Z</time>
      </trkpt>
      <trkpt lat="59.9276044" lon="17.6410888">
        <ele>21.2864</ele>
        <time>2013-03-17T11:05:55Z</time>
      </trkpt>
      <trkpt lat="59.9275584" lon="17.6410954">
        <ele>21.2864</ele>
        <time>2013-03-17T11:05:56Z</time>
      </trkpt>
      <trkpt lat="59.927513" lon="17.6411004">
        <ele>21.2864</ele>
        <time>2013-03-17T11:05:57Z</time>
      </trkpt>
      <trkpt lat="59.9274676" lon="17.6411034">
        <ele>21.2864</ele>
        <time>2013-03-17T11:05:58Z</time>
      </trkpt>
      <trkpt lat="59.9274226" lon="17.6411055">
        <ele>21.2864</ele>
        <time>2013-03-17T11:05:59Z</time>
      </trkpt>
      <trkpt lat="59.9273779" lon="17.6411091">
        <ele>21.2864</ele>
        <time>2013-03-17T11:06:00Z</time>
      </trkpt>
      <trkpt lat="59.9273335" lon="17.6411125">
        <ele>21.2864</ele>
        <time>2013-03-17T11:06:01Z</time>
      </trkpt>
      <trkpt lat="59.9272894" lon="17.6411146">
        <ele>21.2864</ele>
        <time>2013-03-17T11:06:02Z</time>
      </trkpt>
      <trkpt lat="59.9272449" lon="17.6411169">
        <ele>21.2864</ele>
        <time>2013-03-17T11:06:03Z</time>
      </trkpt>
      <trkpt lat="59.9272001" lon="17.6411199">
        <ele>21.2864</ele>
        <time>2013-03-17T11:06:04Z</time>
      </trkpt>
      <trkpt lat="59.9271549" lon="17.6411245">
        <ele>21.2864</ele>
        <time>2013-03-17T11:06:05Z</time>
      </trkpt>
      <trkpt lat="59.9271095" lon="17.6411286">
        <ele>21.2864</ele>
        <time>2013-03-17T11:06:06Z</time>
      </trkpt>
      <trkpt lat="59.9270642" lon="17.6411333">
        <ele>21.2864</ele>
        <time>2013-03-17T11:06:07Z</time>
      </trkpt>
      <trkpt lat="59.9270189" lon="17.6411375">
        <ele>21.2864</ele>
        <time>2013-03-17T11:06:08Z</time>
      </trkpt>
      <trkpt lat="59.9269732" lon="17.6411413">
        <ele>21.2864</ele>
        <time>2013-03-17T11:06:09Z</time>
      </trkpt>
      <trkpt lat="59.9269274" lon="17.6411457">
        <ele>21.767</ele>
        <time>2013-03-17T11:06:10Z</time>
      </trkpt>
      <trkpt lat="59.9268813" lon="17.6411505">
        <ele>21.767</ele>
        <time>2013-03-17T11:06:11Z</time>
      </trkpt>
      <trkpt lat="59.9268353" lon="17.6411565">
        <ele>21.767</ele>
        <time>2013-03-17T11:06:12Z</time>
      </trkpt>
      <trkpt lat="59.9267892" lon="17.6411627">
        <ele>21.767</ele>
        <time>2013-03-17T11:06:13Z</time>
      </trkpt>
      <trkpt lat="59.9267433" lon="17.6411691">
        <ele>21.767</ele>
        <time>2013-03-17T11:06:14Z</time>
      </trkpt>
      <trkpt lat="59.9266972" lon="17.6411744">
        <ele>21.767</ele>
        <time>2013-03-17T11:06:15Z</time>
      </trkpt>
      <trkpt lat="59.9266513" lon="17.6411793">
        <ele>21.767</ele>
        <time>2013-03-17T11:06:16Z</time>
      </trkpt>
      <trkpt lat="59.9266051" lon="17.6411846">
        <ele>21.767</ele>
        <time>2013-03-17T11:06:17Z</time>
      </trkpt>
      <trkpt lat="59.9265585" lon="17.6411893">
        <ele>21.767</ele>
        <time>2013-03-17T11:06:18Z</time>
      </trkpt>
      <trkpt lat="59.9265117" lon="17.6411945">
        <ele>21.767</ele>
        <time>2013-03-17T11:06:19Z</time>
      </trkpt>
      <trkpt lat="59.9264642" lon="17.6411987">
        <ele>21.767</ele>
        <time>2013-03-17T11:06:20Z</time>
      </trkpt>
      <trkpt lat="59.9264166" lon="17.6412031">
        <ele>21.767</ele>
        <time>2013-03-17T11:06:21Z</time>
      </trkpt>
      <trkpt lat="59.9263692" lon="17.641208">
        <ele>21.2864</ele>
        <time>2013-03-17T11:06:22Z</time>
      </trkpt>
      <trkpt lat="59.9263216" lon="17.6412132">
        <ele>21.2864</ele>
        <time>2013-03-17T11:06:23Z</time>
      </trkpt>
      <trkpt lat="59.9262741" lon="17.6412197">
        <ele>21.2864</ele>
        <time>2013-03-17T11:06:24Z</time>
      </trkpt>
      <trkpt lat="59.9262266" lon="17.6412276">
        <ele>21.2864</ele>
        <time>2013-03-17T11:06:25Z</time>
      </trkpt>
      <trkpt lat="59.9261794" lon="17.6412353">
        <ele>21.2864</ele>
        <time>2013-03-17T11:06:26Z</time>
      </trkpt>
      <trkpt lat="59.9261328" lon="17.6412412">
        <ele>21.2864</ele>
        <time>2013-03-17T11:06:27Z</time>
      </trkpt>
      <trkpt lat="59.9260864" lon="17.6412479">
        <ele>21.2864</ele>
        <time>2013-03-17T11:06:28Z</time>
      </trkpt>
      <trkpt lat="59.9260395" lon="17.6412554">
        <ele>21.767</ele>
        <time>2013-03-17T11:06:29Z</time>
      </trkpt>
      <trkpt lat="59.9259925" lon="17.6412614">
        <ele>21.767</ele>
        <time>2013-03-17T11:06:30Z</time>
      </trkpt>
      <trkpt lat="59.9259455" lon="17.6412658">
        <ele>21.767</ele>
        <time>2013-03-17T11:06:31Z</time>
      </trkpt>
      <trkpt lat="59.9258985" lon="17.6412708">
        <ele>21.767</ele>
        <time>2013-03-17T11:06:32Z</time>
      </trkpt>
      <trkpt lat="59.9258515" lon="17.6412769">
        <ele>21.767</ele>
        <time>2013-03-17T11:06:33Z</time>
      </trkpt>
      <trkpt lat="59.9258044" lon="17.6412835">
        <ele>21.767</ele>
        <time>2013-03-17T11:06:34Z</time>
      </trkpt>
      <trkpt lat="59.9257575" lon="17.6412913">
        <ele>21.767</ele>
        <time>2013-03-17T11:06:35Z</time>
      </trkpt>
      <trkpt lat="59.9257109" lon="17.6412981">
        <ele>21.767</ele>
        <time>2013-03-17T11:06:36Z</time>
      </trkpt>
      <trkpt lat="59.9256649" lon="17.6413033">
        <ele>21.767</ele>
        <time>2013-03-17T11:06:37Z</time>
      </trkpt>
      <trkpt lat="59.9256194" lon="17.6413106">
        <ele>21.767</ele>
        <time>2013-03-17T11:06:38Z</time>
      </trkpt>
      <trkpt lat="59.9255743" lon="17.6413162">
        <ele>21.767</ele>
        <time>2013-03-17T11:06:39Z</time>
      </trkpt>
      <trkpt lat="59.9255301" lon="17.6413182">
        <ele>22.2476</ele>
        <time>2013-03-17T11:06:40Z</time>
      </trkpt>
      <trkpt lat="59.9254862" lon="17.6413229">
        <ele>22.2476</ele>
        <time>2013-03-17T11:06:41Z</time>
      </trkpt>
      <trkpt lat="59.925443" lon="17.64133">
        <ele>22.2476</ele>
        <time>2013-03-17T11:06:42Z</time>
      </trkpt>
      <trkpt lat="59.9254002" lon="17.6413343">
        <ele>22.2476</ele>
        <time>2013-03-17T11:06:43Z</time>
      </trkpt>
      <trkpt lat="59.9253578" lon="17.6413354">
        <ele>22.2476</ele>
        <time>2013-03-17T11:06:44Z</time>
      </trkpt>
      <trkpt lat="59.9253158" lon="17.641336">
        <ele>22.2476</ele>
        <time>2013-03-17T11:06:45Z</time>
      </trkpt>
      <trkpt lat="59.9252738" lon="17.641338">
        <ele>22.7283</ele>
        <time>2013-03-17T11:06:46Z</time>
      </trkpt>
      <trkpt lat="59.9252318" lon="17.6413399">
        <ele>22.7283</ele>
        <time>2013-03-17T11:06:47Z</time>
      </trkpt>
      <trkpt lat="59.9251895" lon="17.6413407">
        <ele>22.7283</ele>
        <time>2013-03-17T11:06:48Z</time>
      </trkpt>
      <trkpt lat="59.9251476" lon="17.6413401">
        <ele>22.7283</ele>
        <time>2013-03-17T11:06:49Z</time>
      </trkpt>
      <trkpt lat="59.9251063" lon="17.6413396">
        <ele>22.7283</ele>
        <time>2013-03-17T11:06:50Z</time>
      </trkpt>
      <trkpt lat="59.9250651" lon="17.6413392">
        <ele>22.7283</ele>
        <time>2013-03-17T11:06:51Z</time>
      </trkpt>
      <trkpt lat="59.9250237" lon="17.6413402">
        <ele>22.7283</ele>
        <time>2013-03-17T11:06:52Z</time>
      </trkpt>
      <trkpt lat="59.9249827" lon="17.641343">
        <ele>23.209</ele>
        <time>2013-03-17T11:06:53Z</time>
      </trkpt>
      <trkpt lat="59.9249416" lon="17.6413477">
        <ele>23.209</ele>
        <time>2013-03-17T11:06:54Z</time>
      </trkpt>
      <trkpt lat="59.9248998" lon="17.6413528">
        <ele>23.209</ele>
        <time>2013-03-17T11:06:55Z</time>
      </trkpt>
      <trkpt lat="59.9248587" lon="17.6413585">
        <ele>23.209</ele>
        <time>2013-03-17T11:06:56Z</time>
      </trkpt>
      <trkpt lat="59.9248169" lon="17.6413665">
        <ele>23.209</ele>
        <time>2013-03-17T11:06:57Z</time>
      </trkpt>
      <trkpt lat="59.9247745" lon="17.6413746">
        <ele>23.209</ele>
        <time>2013-03-17T11:06:58Z</time>
      </trkpt>
      <trkpt lat="59.9247316" lon="17.6413815">
        <ele>23.209</ele>
        <time>2013-03-17T11:06:59Z</time>
      </trkpt>
      <trkpt lat="59.9246881" lon="17.6413909">
        <ele>23.209</ele>
        <time>2013-03-17T11:07:00Z</time>
      </trkpt>
      <trkpt lat="59.9246441" lon="17.6414042">
        <ele>23.209</ele>
        <time>2013-03-17T11:07:01Z</time>
      </trkpt>
      <trkpt lat="59.9245989" lon="17.6414191">
        <ele>23.209</ele>
        <time>2013-03-17T11:07:02Z</time>
      </trkpt>
      <trkpt lat="59.9245528" lon="17.6414313">
        <ele>23.209</ele>
        <time>2013-03-17T11:07:03Z</time>
      </trkpt>
      <trkpt lat="59.9245055" lon="17.6414412">
        <ele>23.209</ele>
        <time>2013-03-17T11:07:04Z</time>
      </trkpt>
      <trkpt lat="59.924458" lon="17.641449">
        <ele>23.209</ele>
        <time>2013-03-17T11:07:05Z</time>
      </trkpt>
      <trkpt lat="59.9244101" lon="17.6414556">
        <ele>23.209</ele>
        <time>2013-03-17T11:07:06Z</time>
      </trkpt>
      <trkpt lat="59.9243622" lon="17.641459">
        <ele>23.209</ele>
        <time>2013-03-17T11:07:07Z</time>
      </trkpt>
      <trkpt lat="59.924315" lon="17.6414603">
        <ele>23.209</ele>
        <time>2013-03-17T11:07:08Z</time>
      </trkpt>
      <trkpt lat="59.9242679" lon="17.6414618">
        <ele>23.209</ele>
        <time>2013-03-17T11:07:09Z</time>
      </trkpt>
      <trkpt lat="59.9242202" lon="17.6414639">
        <ele>22.7283</ele>
        <time>2013-03-17T11:07:10Z</time>
      </trkpt>
      <trkpt lat="59.9241721" lon="17.6414668">
        <ele>22.7283</ele>
        <time>2013-03-17T11:07:11Z</time>
      </trkpt>
      <trkpt lat="59.9241242" lon="17.64147">
        <ele>22.7283</ele>
        <time>2013-03-17T11:07:12Z</time>
      </trkpt>
      <trkpt lat="59.9240768" lon="17.6414731">
        <ele>22.7283</ele>
        <time>2013-03-17T11:07:13Z</time>
      </trkpt>
      <trkpt lat="59.9240291" lon="17.6414768">
        <ele>22.7283</ele>
        <time>2013-03-17T11:07:14Z</time>
      </trkpt>
      <trkpt lat="59.9239809" lon="17.6414813">
        <ele>22.7283</ele>
        <time>2013-03-17T11:07:15Z</time>
      </trkpt>
      <trkpt lat="59.9239327" lon="17.6414868">
        <ele>22.7283</ele>
        <time>2013-03-17T11:07:16Z</time>
      </trkpt>
      <trkpt lat="59.923884" lon="17.6414942">
        <ele>22.7283</ele>
        <time>2013-03-17T11:07:17Z</time>
      </trkpt>
      <trkpt lat="59.9238359" lon="17.6415003">
        <ele>22.7283</ele>
        <time>2013-03-17T11:07:18Z</time>
      </trkpt>
      <trkpt lat="59.9237882" lon="17.6415043">
        <ele>23.209</ele>
        <time>2013-03-17T11:07:19Z</time>
      </trkpt>
      <trkpt lat="59.9237414" lon="17.641509">
        <ele>23.209</ele>
        <time>2013-03-17T11:07:20Z</time>
      </trkpt>
      <trkpt lat="59.9236956" lon="17.6415141">
        <ele>23.209</ele>
        <time>2013-03-17T11:07:21Z</time>
      </trkpt>
      <trkpt lat="59.9236519" lon="17.6415192">
        <ele>23.209</ele>
        <time>2013-03-17T11:07:22Z</time>
      </trkpt>
      <trkpt lat="59.9236096" lon="17.6415245">
        <ele>23.6896</ele>
        <time>2013-03-17T11:07:23Z</time>
      </trkpt>
      <trkpt lat="59.9235695" lon="17.6415317">
        <ele>23.6896</ele>
        <time>2013-03-17T11:07:24Z</time>
      </trkpt>
      <trkpt lat="59.9235303" lon="17.6415396">
        <ele>23.6896</ele>
        <time>2013-03-17T11:07:25Z</time>
      </trkpt>
      <trkpt lat="59.9234909" lon="17.6415453">
        <ele>24.1703</ele>
        <time>2013-03-17T11:07:26Z</time>
      </trkpt>
      <trkpt lat="59.9234515" lon="17.6415502">
        <ele>24.1703</ele>
        <time>2013-03-17T11:07:27Z</time>
      </trkpt>
      <trkpt lat="59.9234122" lon="17.6415551">
        <ele>24.1703</ele>
        <time>2013-03-17T11:07:28Z</time>
      </trkpt>
      <trkpt lat="59.9233738" lon="17.64156">
        <ele>24.1703</ele>
        <time>2013-03-17T11:07:29Z</time>
      </trkpt>
      <trkpt lat="59.9233369" lon="17.6415664">
        <ele>24.651</ele>
        <time>2013-03-17T11:07:30Z</time>
      </trkpt>
      <trkpt lat="59.9233003" lon="17.6415743">
        <ele>24.651</ele>
        <time>2013-03-17T11:07:31Z</time>
      </trkpt>
      <trkpt lat="59.9232639" lon="17.6415802">
        <ele>24.651</ele>
        <time>2013-03-17T11:07:32Z</time>
      </trkpt>
      <trkpt lat="59.9232272" lon="17.6415821">
        <ele>24.651</ele>
        <time>2013-03-17T11:07:33Z</time>
      </trkpt>
      <trkpt lat="59.9231904" lon="17.6415845">
        <ele>24.651</ele>
        <time>2013-03-17T11:07:34Z</time>
      </trkpt>
      <trkpt lat="59.9231531" lon="17.6415909">
        <ele>25.1317</ele>
        <time>2013-03-17T11:07:35Z</time>
      </trkpt>
      <trkpt lat="59.9231151" lon="17.6415979">
        <ele>25.1317</ele>
        <time>2013-03-17T11:07:36Z</time>
      </trkpt>
      <trkpt lat="59.9230768" lon="17.641602">
        <ele>25.1317</ele>
        <time>2013-03-17T11:07:37Z</time>
      </trkpt>
      <trkpt lat="59.9230384" lon="17.6416038">
        <ele>25.1317</ele>
        <time>2013-03-17T11:07:38Z</time>
      </trkpt>
      <trkpt lat="59.9229993" lon="17.6416059">
        <ele>25.1317</ele>
        <time>2013-03-17T11:07:39Z</time>
      </trkpt>
      <trkpt lat="59.9229598" lon="17.6416111">
        <ele>25.1317</ele>
        <time>2013-03-17T11:07:40Z</time>
      </trkpt>
      <trkpt lat="59.9229204" lon="17.6416203">
        <ele>25.6123</ele>
        <time>2013-03-17T11:07:41Z</time>
      </trkpt>
      <trkpt lat="59.9228822" lon="17.6416286">
        <ele>25.6123</ele>
        <time>2013-03-17T11:07:42Z</time>
      </trkpt>
      <trkpt lat="59.922845" lon="17.6416342">
        <ele>25.6123</ele>
        <time>2013-03-17T11:07:43Z</time>
      </trkpt>
      <trkpt lat="59.9228085" lon="17.6416401">
        <ele>25.6123</ele>
        <time>2013-03-17T11:07:44Z</time>
      </trkpt>
      <trkpt lat="59.9227717" lon="17.6416457">
        <ele>26.0929</ele>
        <time>2013-03-17T11:07:45Z</time>
      </trkpt>
      <trkpt lat="59.9227344" lon="17.6416478">
        <ele>26.0929</ele>
        <time>2013-03-17T11:07:46Z</time>
      </trkpt>
      <trkpt lat="59.9226983" lon="17.6416463">
        <ele>26.0929</ele>
        <time>2013-03-17T11:07:47Z</time>
      </trkpt>
      <trkpt lat="59.9226615" lon="17.6416468">
        <ele>26.0929</ele>
        <time>2013-03-17T11:07:48Z</time>
      </trkpt>
      <trkpt lat="59.922623" lon="17.6416509">
        <ele>26.0929</ele>
        <time>2013-03-17T11:07:49Z</time>
      </trkpt>
      <trkpt lat="59.9225834" lon="17.6416582">
        <ele>26.0929</ele>
        <time>2013-03-17T11:07:50Z</time>
      </trkpt>
      <trkpt lat="59.9225432" lon="17.6416676">
        <ele>26.0929</ele>
        <time>2013-03-17T11:07:51Z</time>
      </trkpt>
      <trkpt lat="59.9225025" lon="17.6416782">
        <ele>26.0929</ele>
        <time>2013-03-17T11:07:52Z</time>
      </trkpt>
      <trkpt lat="59.9224611" lon="17.6416875">
        <ele>26.0929</ele>
        <time>2013-03-17T11:07:53Z</time>
      </trkpt>
      <trkpt lat="59.9224176" lon="17.6416934">
        <ele>26.0929</ele>
        <time>2013-03-17T11:07:54Z</time>
      </trkpt>
      <trkpt lat="59.9223734" lon="17.641698">
        <ele>26.0929</ele>
        <time>2013-03-17T11:07:55Z</time>
      </trkpt>
      <trkpt lat="59.9223279" lon="17.6416994">
        <ele>26.5736</ele>
        <time>2013-03-17T11:07:56Z</time>
      </trkpt>
      <trkpt lat="59.9222824" lon="17.6417001">
        <ele>26.5736</ele>
        <time>2013-03-17T11:07:57Z</time>
      </trkpt>
      <trkpt lat="59.9222367" lon="17.6417032">
        <ele>26.5736</ele>
        <time>2013-03-17T11:07:58Z</time>
      </trkpt>
      <trkpt lat="59.9221905" lon="17.6417084">
        <ele>26.5736</ele>
        <time>2013-03-17T11:07:59Z</time>
      </trkpt>
      <trkpt lat="59.9221444" lon="17.6417147">
        <ele>26.5736</ele>
        <time>2013-03-17T11:08:00Z</time>
      </trkpt>
      <trkpt lat="59.9220993" lon="17.6417217">
        <ele>26.5736</ele>
        <time>2013-03-17T11:08:01Z</time>
      </trkpt>
      <trkpt lat="59.9220559" lon="17.6417291">
        <ele>26.5736</ele>
        <time>2013-03-17T11:08:02Z</time>
      </trkpt>
      <trkpt lat="59.9220128" lon="17.6417343">
        <ele>26.5736</ele>
        <time>2013-03-17T11:08:03Z</time>
      </trkpt>
      <trkpt lat="59.921971" lon="17.6417396">
        <ele>27.0543</ele>
        <time>2013-03-17T11:08:04Z</time>
      </trkpt>
      <trkpt lat="59.9219306" lon="17.6417479">
        <ele>26.5736</ele>
        <time>2013-03-17T11:08:05Z</time>
      </trkpt>
      <trkpt lat="59.9218897" lon="17.6417544">
        <ele>26.5736</ele>
        <time>2013-03-17T11:08:06Z</time>
      </trkpt>
      <trkpt lat="59.9218479" lon="17.6417628">
        <ele>26.5736</ele>
        <time>2013-03-17T11:08:07Z</time>
      </trkpt>
      <trkpt lat="59.9218068" lon="17.6417724">
        <ele>26.5736</ele>
        <time>2013-03-17T11:08:08Z</time>
      </trkpt>
      <trkpt lat="59.9217673" lon="17.6417826">
        <ele>26.5736</ele>
        <time>2013-03-17T11:08:09Z</time>
      </trkpt>
      <trkpt lat="59.9217272" lon="17.6417924">
        <ele>26.5736</ele>
        <time>2013-03-17T11:08:10Z</time>
      </trkpt>
      <trkpt lat="59.9216861" lon="17.6418021">
        <ele>26.5736</ele>
        <time>2013-03-17T11:08:11Z</time>
      </trkpt>
      <trkpt lat="59.9216469" lon="17.64181">
        <ele>26.5736</ele>
        <time>2013-03-17T11:08:12Z</time>
      </trkpt>
      <trkpt lat="59.9216085" lon="17.6418161">
        <ele>26.0929</ele>
        <time>2013-03-17T11:08:13Z</time>
      </trkpt>
      <trkpt lat="59.9215691" lon="17.6418188">
        <ele>25.6123</ele>
        <time>2013-03-17T11:08:14Z</time>
      </trkpt>
      <trkpt lat="59.9215307" lon="17.6418222">
        <ele>25.1317</ele>
        <time>2013-03-17T11:08:15Z</time>
      </trkpt>
      <trkpt lat="59.9214891" lon="17.6418276">
        <ele>25.1317</ele>
        <time>2013-03-17T11:08:16Z</time>
      </trkpt>
      <trkpt lat="59.9214435" lon="17.6418296">
        <ele>24.651</ele>
        <time>2013-03-17T11:08:17Z</time>
      </trkpt>
      <trkpt lat="59.9213929" lon="17.6418313">
        <ele>24.651</ele>
        <time>2013-03-17T11:08:18Z</time>
      </trkpt>
      <trkpt lat="59.9213431" lon="17.6418346">
        <ele>24.1703</ele>
        <time>2013-03-17T11:08:19Z</time>
      </trkpt>
      <trkpt lat="59.9212919" lon="17.6418382">
        <ele>23.6896</ele>
        <time>2013-03-17T11:08:20Z</time>
      </trkpt>
      <trkpt lat="59.9212385" lon="17.6418421">
        <ele>23.209</ele>
        <time>2013-03-17T11:08:21Z</time>
      </trkpt>
      <trkpt lat="59.9211827" lon="17.6418483">
        <ele>23.209</ele>
        <time>2013-03-17T11:08:22Z</time>
      </trkpt>
      <trkpt lat="59.9211265" lon="17.6418556">
        <ele>23.209</ele>
        <time>2013-03-17T11:08:23Z</time>
      </trkpt>
      <trkpt lat="59.9210674" lon="17.6418648">
        <ele>23.209</ele>
        <time>2013-03-17T11:08:24Z</time>
      </trkpt>
      <trkpt lat="59.921013" lon="17.6418651">
        <ele>22.7283</ele>
        <time>2013-03-17T11:08:25Z</time>
      </trkpt>
      <trkpt lat="59.9209594" lon="17.6418654">
        <ele>22.2476</ele>
        <time>2013-03-17T11:08:26Z</time>
      </trkpt>
      <trkpt lat="59.9209053" lon="17.6418637">
        <ele>22.2476</ele>
        <time>2013-03-17T11:08:27Z</time>
      </trkpt>
      <trkpt lat="59.9208506" lon="17.6418608">
        <ele>22.2476</ele>
        <time>2013-03-17T11:08:28Z</time>
      </trkpt>
      <trkpt lat="59.920796" lon="17.6418597">
        <ele>21.767</ele>
        <time>2013-03-17T11:08:29Z</time>
      </trkpt>
      <trkpt lat="59.9207414" lon="17.6418586">
        <ele>21.767</ele>
        <time>2013-03-17T11:08:30Z</time>
      </trkpt>
      <trkpt lat="59.9206867" lon="17.6418579">
        <ele>21.767</ele>
        <time>2013-03-17T11:08:31Z</time>
      </trkpt>
      <trkpt lat="59.9206315" lon="17.6418582">
        <ele>21.767</ele>
        <time>2013-03-17T11:08:32Z</time>
      </trkpt>
      <trkpt lat="59.9205767" lon="17.6418606">
        <ele>21.767</ele>
        <time>2013-03-17T11:08:33Z</time>
      </trkpt>
      <trkpt lat="59.9205231" lon="17.6418641">
        <ele>21.767</ele>
        <time>2013-03-17T11:08:34Z</time>
      </trkpt>
      <trkpt lat="59.9204704" lon="17.6418683">
        <ele>21.767</ele>
        <time>2013-03-17T11:08:35Z</time>
      </trkpt>
      <trkpt lat="59.9204156" lon="17.6418778">
        <ele>22.2476</ele>
        <time>2013-03-17T11:08:36Z</time>
      </trkpt>
      <trkpt lat="59.920364" lon="17.6418824">
        <ele>22.2476</ele>
        <time>2013-03-17T11:08:37Z</time>
      </trkpt>
      <trkpt lat="59.9203129" lon="17.641884">
        <ele>22.7283</ele>
        <time>2013-03-17T11:08:38Z</time>
      </trkpt>
      <trkpt lat="59.9202614" lon="17.6418862">
        <ele>22.7283</ele>
        <time>2013-03-17T11:08:39Z</time>
      </trkpt>
      <trkpt lat="59.9202122" lon="17.6418879">
        <ele>23.209</ele>
        <time>2013-03-17T11:08:40Z</time>
      </trkpt>
      <trkpt lat="59.9201637" lon="17.6418891">
        <ele>23.209</ele>
        <time>2013-03-17T11:08:41Z</time>
      </trkpt>
      <trkpt lat="59.9201144" lon="17.6418898">
        <ele>23.6896</ele>
        <time>2013-03-17T11:08:42Z</time>
      </trkpt>
      <trkpt lat="59.9200649" lon="17.6418933">
        <ele>23.6896</ele>
        <time>2013-03-17T11:08:43Z</time>
      </trkpt>
      <trkpt lat="59.9200157" lon="17.6419011">
        <ele>23.6896</ele>
        <time>2013-03-17T11:08:44Z</time>
      </trkpt>
      <trkpt lat="59.9199669" lon="17.6419129">
        <ele>24.1703</ele>
        <time>2013-03-17T11:08:45Z</time>
      </trkpt>
      <trkpt lat="59.9199188" lon="17.641925">
        <ele>24.1703</ele>
        <time>2013-03-17T11:08:46Z</time>
      </trkpt>
      <trkpt lat="59.919871" lon="17.6419342">
        <ele>24.1703</ele>
        <time>2013-03-17T11:08:47Z</time>
      </trkpt>
      <trkpt lat="59.9198235" lon="17.6419425">
        <ele>24.1703</ele>
        <time>2013-03-17T11:08:48Z</time>
      </trkpt>
      <trkpt lat="59.9197771" lon="17.6419529">
        <ele>24.651</ele>
        <time>2013-03-17T11:08:49Z</time>
      </trkpt>
      <trkpt lat="59.9197309" lon="17.6419638">
        <ele>24.651</ele>
        <time>2013-03-17T11:08:50Z</time>
      </trkpt>
      <trkpt lat="59.9196844" lon="17.6419734">
        <ele>24.651</ele>
        <time>2013-03-17T11:08:51Z</time>
      </trkpt>
      <trkpt lat="59.9196379" lon="17.6419814">
        <ele>24.651</ele>
        <time>2013-03-17T11:08:52Z</time>
      </trkpt>
      <trkpt lat="59.9195918" lon="17.6419906">
        <ele>25.1317</ele>
        <time>2013-03-17T11:08:53Z</time>
      </trkpt>
      <trkpt lat="59.9195453" lon="17.6419999">
        <ele>25.1317</ele>
        <time>2013-03-17T11:08:54Z</time>
      </trkpt>
      <trkpt lat="59.9194984" lon="17.6420057">
        <ele>25.1317</ele>
        <time>2013-03-17T11:08:55Z</time>
      </trkpt>
      <trkpt lat="59.9194512" lon="17.6420114">
        <ele>25.1317</ele>
        <time>2013-03-17T11:08:56Z</time>
      </trkpt>
      <trkpt lat="59.9194036" lon="17.6420176">
        <ele>25.6123</ele>
        <time>2013-03-17T11:08:57Z</time>
      </trkpt>
      <trkpt lat="59.9193559" lon="17.6420228">
        <ele>25.6123</ele>
        <time>2013-03-17T11:08:58Z</time>
      </trkpt>
      <trkpt lat="59.9193085" lon="17.6420281">
        <ele>25.6123</ele>
        <time>2013-03-17T11:08:59Z</time>
      </trkpt>
      <trkpt lat="59.9192618" lon="17.6420325">
        <ele>25.6123</ele>
        <time>2013-03-17T11:09:00Z</time>
      </trkpt>
      <trkpt lat="59.9192163" lon="17.6420361">
        <ele>26.0929</ele>
        <time>2013-03-17T11:09:01Z</time>
      </trkpt>
      <trkpt lat="59.9191715" lon="17.6420419">
        <ele>26.0929</ele>
        <time>2013-03-17T11:09:02Z</time>
      </trkpt>
      <trkpt lat="59.9191266" lon="17.6420482">
        <ele>26.0929</ele>
        <time>2013-03-17T11:09:03Z</time>
      </trkpt>
      <trkpt lat="59.9190811" lon="17.6420528">
        <ele>26.0929</ele>
        <time>2013-03-17T11:09:04Z</time>
      </trkpt>
      <trkpt lat="59.9190339" lon="17.6420564">
        <ele>26.0929</ele>
        <time>2013-03-17T11:09:05Z</time>
      </trkpt>
      <trkpt lat="59.9189863" lon="17.642059">
        <ele>26.0929</ele>
        <time>2013-03-17T11:09:06Z</time>
      </trkpt>
      <trkpt lat="59.9189381" lon="17.642063">
        <ele>26.0929</ele>
        <time>2013-03-17T11:09:07Z</time>
      </trkpt>
      <trkpt lat="59.9188892" lon="17.6420677">
        <ele>26.0929</ele>
        <time>2013-03-17T11:09:08Z</time>
      </trkpt>
      <trkpt lat="59.9188402" lon="17.6420729">
        <ele>26.0929</ele>
        <time>2013-03-17T11:09:09Z</time>
      </trkpt>
      <trkpt lat="59.918792" lon="17.6420792">
        <ele>26.0929</ele>
        <time>2013-03-17T11:09:10Z</time>
      </trkpt>
      <trkpt lat="59.9187436" lon="17.6420866">
        <ele>26.0929</ele>
        <time>2013-03-17T11:09:11Z</time>
      </trkpt>
      <trkpt lat="59.9186952" lon="17.6420959">
        <ele>26.0929</ele>
        <time>2013-03-17T11:09:12Z</time>
      </trkpt>
      <trkpt lat="59.9186474" lon="17.6421047">
        <ele>26.0929</ele>
        <time>2013-03-17T11:09:13Z</time>
      </trkpt>
      <trkpt lat="59.9185994" lon="17.64211">
        <ele>26.0929</ele>
        <time>2013-03-17T11:09:14Z</time>
      </trkpt>
      <trkpt lat="59.9185501" lon="17.6421148">
        <ele>26.0929</ele>
        <time>2013-03-17T11:09:15Z</time>
      </trkpt>
      <trkpt lat="59.9184998" lon="17.6421206">
        <ele>26.0929</ele>
        <time>2013-03-17T11:09:16Z</time>
      </trkpt>
      <trkpt lat="59.9184484" lon="17.6421275">
        <ele>26.0929</ele>
        <time>2013-03-17T11:09:17Z</time>
      </trkpt>
      <trkpt lat="59.9183957" lon="17.6421358">
        <ele>26.0929</ele>
        <time>2013-03-17T11:09:18Z</time>
      </trkpt>
      <trkpt lat="59.9183424" lon="17.6421435">
        <ele>25.6123</ele>
        <time>2013-03-17T11:09:19Z</time>
      </trkpt>
      <trkpt lat="59.9182914" lon="17.6421483">
        <ele>25.6123</ele>
        <time>2013-03-17T11:09:20Z</time>
      </trkpt>
      <trkpt lat="59.9182401" lon="17.6421512">
        <ele>25.1317</ele>
        <time>2013-03-17T11:09:21Z</time>
      </trkpt>
      <trkpt lat="59.9181885" lon="17.642156">
        <ele>25.1317</ele>
        <time>2013-03-17T11:09:22Z</time>
      </trkpt>
      <trkpt lat="59.9181365" lon="17.642163">
        <ele>25.1317</ele>
        <time>2013-03-17T11:09:23Z</time>
      </trkpt>
      <trkpt lat="59.9180844" lon="17.6421663">
        <ele>24.651</ele>
        <time>2013-03-17T11:09:24Z</time>
      </trkpt>
      <trkpt lat="59.9180316" lon="17.6421666">
        <ele>24.651</ele>
        <time>2013-03-17T11:09:25Z</time>
      </trkpt>
      <trkpt lat="59.9179792" lon="17.64217">
        <ele>24.1703</ele>
        <time>2013-03-17T11:09:26Z</time>
      </trkpt>
      <trkpt lat="59.9179276" lon="17.6421762">
        <ele>24.1703</ele>
        <time>2013-03-17T11:09:27Z</time>
      </trkpt>
      <trkpt lat="59.917877" lon="17.6421824">
        <ele>24.1703</ele>
        <time>2013-03-17T11:09:28Z</time>
      </trkpt>
      <trkpt lat="59.917827" lon="17.6421885">
        <ele>24.1703</ele>
        <time>2013-03-17T11:09:29Z</time>
      </trkpt>
      <trkpt lat="59.9177772" lon="17.6421925">
        <ele>24.1703</ele>
        <time>2013-03-17T11:09:30Z</time>
      </trkpt>
      <trkpt lat="59.9177275" lon="17.6421948">
        <ele>24.1703</ele>
        <time>2013-03-17T11:09:31Z</time>
      </trkpt>
      <trkpt lat="59.9176767" lon="17.6421965">
        <ele>24.1703</ele>
        <time>2013-03-17T11:09:32Z</time>
      </trkpt>
      <trkpt lat="59.9176244" lon="17.6421967">
        <ele>24.1703</ele>
        <time>2013-03-17T11:09:33Z</time>
      </trkpt>
      <trkpt lat="59.917572" lon="17.642196">
        <ele>24.1703</ele>
        <time>2013-03-17T11:09:34Z</time>
      </trkpt>
      <trkpt lat="59.9175193" lon="17.6421962">
        <ele>24.1703</ele>
        <time>2013-03-17T11:09:35Z</time>
      </trkpt>
      <trkpt lat="59.917466" lon="17.6421978">
        <ele>24.1703</ele>
        <time>2013-03-17T11:09:36Z</time>
      </trkpt>
      <trkpt lat="59.9174124" lon="17.6421998">
        <ele>24.1703</ele>
        <time>2013-03-17T11:09:37Z</time>
      </trkpt>
      <trkpt lat="59.917359" lon="17.6422015">
        <ele>24.1703</ele>
        <time>2013-03-17T11:09:38Z</time>
      </trkpt>
      <trkpt lat="59.9173054" lon="17.642202">
        <ele>24.1703</ele>
        <time>2013-03-17T11:09:39Z</time>
      </trkpt>
      <trkpt lat="59.9172513" lon="17.6422006">
        <ele>24.1703</ele>
        <time>2013-03-17T11:09:40Z</time>
      </trkpt>
      <trkpt lat="59.9171977" lon="17.6421993">
        <ele>24.1703</ele>
        <time>2013-03-17T11:09:41Z</time>
      </trkpt>
      <trkpt lat="59.9171458" lon="17.6422039">
        <ele>24.1703</ele>
        <time>2013-03-17T11:09:42Z</time>
      </trkpt>
      <trkpt lat="59.917096" lon="17.6422191">
        <ele>24.1703</ele>
        <time>2013-03-17T11:09:43Z</time>
      </trkpt>
      <trkpt lat="59.9170484" lon="17.6422388">
        <ele>24.651</ele>
        <time>2013-03-17T11:09:44Z</time>
      </trkpt>
      <trkpt lat="59.9170021" lon="17.6422557">
        <ele>24.651</ele>
        <time>2013-03-17T11:09:45Z</time>
      </trkpt>
      <trkpt lat="59.9169563" lon="17.6422669">
        <ele>24.651</ele>
        <time>2013-03-17T11:09:46Z</time>
      </trkpt>
      <trkpt lat="59.9169119" lon="17.6422759">
        <ele>24.651</ele>
        <time>2013-03-17T11:09:47Z</time>
      </trkpt>
      <trkpt lat="59.9168681" lon="17.6422843">
        <ele>24.651</ele>
        <time>2013-03-17T11:09:48Z</time>
      </trkpt>
      <trkpt lat="59.9168252" lon="17.6422922">
        <ele>24.651</ele>
        <time>2013-03-17T11:09:49Z</time>
      </trkpt>
      <trkpt lat="59.9167831" lon="17.6422967">
        <ele>24.651</ele>
        <time>2013-03-17T11:09:50Z</time>
      </trkpt>
      <trkpt lat="59.9167413" lon="17.6422999">
        <ele>25.1317</ele>
        <time>2013-03-17T11:09:51Z</time>
      </trkpt>
      <trkpt lat="59.9167009" lon="17.642305">
        <ele>25.1317</ele>
        <time>2013-03-17T11:09:52Z</time>
      </trkpt>
      <trkpt lat="59.916661" lon="17.6423108">
        <ele>25.1317</ele>
        <time>2013-03-17T11:09:53Z</time>
      </trkpt>
      <trkpt lat="59.916622" lon="17.642316">
        <ele>25.6123</ele>
        <time>2013-03-17T11:09:54Z</time>
      </trkpt>
      <trkpt lat="59.916583" lon="17.6423218">
        <ele>25.6123</ele>
        <time>2013-03-17T11:09:55Z</time>
      </trkpt>
      <trkpt lat="59.9165437" lon="17.6423284">
        <ele>25.6123</ele>
        <time>2013-03-17T11:09:56Z</time>
      </trkpt>
      <trkpt lat="59.9165037" lon="17.6423348">
        <ele>25.6123</ele>
        <time>2013-03-17T11:09:57Z</time>
      </trkpt>
      <trkpt lat="59.9164634" lon="17.642341">
        <ele>25.6123</ele>
        <time>2013-03-17T11:09:58Z</time>
      </trkpt>
      <trkpt lat="59.9164226" lon="17.6423479">
        <ele>26.0929</ele>
        <time>2013-03-17T11:09:59Z</time>
      </trkpt>
      <trkpt lat="59.9163812" lon="17.6423549">
        <ele>26.0929</ele>
        <time>2013-03-17T11:10:00Z</time>
      </trkpt>
      <trkpt lat="59.9163392" lon="17.6423596">
        <ele>26.0929</ele>
        <time>2013-03-17T11:10:01Z</time>
      </trkpt>
      <trkpt lat="59.9162962" lon="17.6423653">
        <ele>26.0929</ele>
        <time>2013-03-17T11:10:02Z</time>
      </trkpt>
      <trkpt lat="59.9162522" lon="17.642373">
        <ele>26.0929</ele>
        <time>2013-03-17T11:10:03Z</time>
      </trkpt>
      <trkpt lat="59.9162071" lon="17.6423781">
        <ele>26.0929</ele>
        <time>2013-03-17T11:10:04Z</time>
      </trkpt>
      <trkpt lat="59.9161601" lon="17.6423795">
        <ele>26.0929</ele>
        <time>2013-03-17T11:10:05Z</time>
      </trkpt>
      <trkpt lat="59.9161121" lon="17.6423801">
        <ele>26.0929</ele>
        <time>2013-03-17T11:10:06Z</time>
      </trkpt>
      <trkpt lat="59.9160625" lon="17.6423817">
        <ele>26.0929</ele>
        <time>2013-03-17T11:10:07Z</time>
      </trkpt>
      <trkpt lat="59.9160113" lon="17.6423838">
        <ele>25.6123</ele>
        <time>2013-03-17T11:10:08Z</time>
      </trkpt>
      <trkpt lat="59.9159583" lon="17.6423855">
        <ele>25.6123</ele>
        <time>2013-03-17T11:10:09Z</time>
      </trkpt>
      <trkpt lat="59.9159042" lon="17.6423855">
        <ele>25.6123</ele>
        <time>2013-03-17T11:10:10Z</time>
      </trkpt>
      <trkpt lat="59.9158495" lon="17.6423839">
        <ele>25.6123</ele>
        <time>2013-03-17T11:10:11Z</time>
      </trkpt>
      <trkpt lat="59.9157943" lon="17.6423817">
        <ele>25.6123</ele>
        <time>2013-03-17T11:10:12Z</time>
      </trkpt>
      <trkpt lat="59.9157392" lon="17.6423828">
        <ele>25.6123</ele>
        <time>2013-03-17T11:10:13Z</time>
      </trkpt>
      <trkpt lat="59.9156837" lon="17.6423879">
        <ele>25.6123</ele>
        <time>2013-03-17T11:10:14Z</time>
      </trkpt>
      <trkpt lat="59.9156276" lon="17.6423958">
        <ele>25.6123</ele>
        <time>2013-03-17T11:10:15Z</time>
      </trkpt>
      <trkpt lat="59.915572" lon="17.6424052">
        <ele>25.6123</ele>
        <time>2013-03-17T11:10:16Z</time>
      </trkpt>
      <trkpt lat="59.9155162" lon="17.6424165">
        <ele>25.6123</ele>
        <time>2013-03-17T11:10:17Z</time>
      </trkpt>
      <trkpt lat="59.9154617" lon="17.6424294">
        <ele>25.6123</ele>
        <time>2013-03-17T11:10:18Z</time>
      </trkpt>
      <trkpt lat="59.9154088" lon="17.6424434">
        <ele>25.6123</ele>
        <time>2013-03-17T11:10:19Z</time>
      </trkpt>
      <trkpt lat="59.9153596" lon="17.6424605">
        <ele>25.6123</ele>
        <time>2013-03-17T11:10:20Z</time>
      </trkpt>
      <trkpt lat="59.9153167" lon="17.6424806">
        <ele>25.6123</ele>
        <time>2013-03-17T11:10:21Z</time>
      </trkpt>
      <trkpt lat="59.9152818" lon="17.6425009">
        <ele>25.6123</ele>
        <time>2013-03-17T11:10:22Z</time>
      </trkpt>
      <trkpt lat="59.9152487" lon="17.6425217">
        <ele>25.6123</ele>
        <time>2013-03-17T11:10:23Z</time>
      </trkpt>
      <trkpt lat="59.9152197" lon="17.6425391">
        <ele>25.6123</ele>
        <time>2013-03-17T11:10:24Z</time>
      </trkpt>
      <trkpt lat="59.9151975" lon="17.6425502">
        <ele>25.6123</ele>
        <time>2013-03-17T11:10:25Z</time>
      </trkpt>
      <trkpt lat="59.9151846" lon="17.6425595">
        <ele>25.6123</ele>
        <time>2013-03-17T11:10:26Z</time>
      </trkpt>
      <trkpt lat="59.9151819" lon="17.6425672">
        <ele>25.6123</ele>
        <time>2013-03-17T11:10:27Z</time>
      </trkpt>
      <trkpt lat="59.9151824" lon="17.6425694">
        <ele>25.6123</ele>
        <time>2013-03-17T11:10:28Z</time>
      </trkpt>
      <trkpt lat="59.9151841" lon="17.6425683">
        <ele>25.6123</ele>
        <time>2013-03-17T11:10:29Z</time>
      </trkpt>
      <trkpt lat="59.915186" lon="17.6425683">
        <ele>26.0929</ele>
        <time>2013-03-17T11:10:30Z</time>
      </trkpt>
      <trkpt lat="59.9151872" lon="17.6425688">
        <ele>26.0929</ele>
        <time>2013-03-17T11:10:31Z</time>
      </trkpt>
      <trkpt lat="59.9151861" lon="17.6425731">
        <ele>26.0929</ele>
        <time>2013-03-17T11:10:32Z</time>
      </trkpt>
      <trkpt lat="59.9151851" lon="17.6425744">
        <ele>26.5736</ele>
        <time>2013-03-17T11:10:33Z</time>
      </trkpt>
      <trkpt lat="59.9151851" lon="17.6425741">
        <ele>26.5736</ele>
        <time>2013-03-17T11:10:34Z</time>
      </trkpt>
      <trkpt lat="59.9151851" lon="17.642574">
        <ele>26.5736</ele>
        <time>2013-03-17T11:10:35Z</time>
      </trkpt>
      <trkpt lat="59.9151823" lon="17.6425779">
        <ele>26.5736</ele>
        <time>2013-03-17T11:10:36Z</time>
      </trkpt>
      <trkpt lat="59.9151784" lon="17.6425811">
        <ele>26.5736</ele>
        <time>2013-03-17T11:10:37Z</time>
      </trkpt>
      <trkpt lat="59.9151757" lon="17.6425807">
        <ele>27.0543</ele>
        <time>2013-03-17T11:10:38Z</time>
      </trkpt>
      <trkpt lat="59.9151722" lon="17.6425829">
        <ele>27.0543</ele>
        <time>2013-03-17T11:10:39Z</time>
      </trkpt>
      <trkpt lat="59.9151679" lon="17.6425873">
        <ele>27.0543</ele>
        <time>2013-03-17T11:10:40Z</time>
      </trkpt>
      <trkpt lat="59.9151634" lon="17.6425945">
        <ele>27.0543</ele>
        <time>2013-03-17T11:10:41Z</time>
      </trkpt>
      <trkpt lat="59.915159" lon="17.6425993">
        <ele>27.0543</ele>
        <time>2013-03-17T11:10:42Z</time>
      </trkpt>
      <trkpt lat="59.915154" lon="17.6426012">
        <ele>27.0543</ele>
        <time>2013-03-17T11:10:43Z</time>
      </trkpt>
      <trkpt lat="59.9151472" lon="17.6426082">
        <ele>26.5736</ele>
        <time>2013-03-17T11:10:44Z</time>
      </trkpt>
      <trkpt lat="59.915141" lon="17.6426149">
        <ele>26.5736</ele>
        <time>2013-03-17T11:10:45Z</time>
      </trkpt>
      <trkpt lat="59.9151308" lon="17.6426253">
        <ele>27.0543</ele>
        <time>2013-03-17T11:10:46Z</time>
      </trkpt>
      <trkpt lat="59.9151177" lon="17.6426284">
        <ele>26.5736</ele>
        <time>2013-03-17T11:10:47Z</time>
      </trkpt>
      <trkpt lat="59.9151032" lon="17.6426268">
        <ele>26.5736</ele>
        <time>2013-03-17T11:10:48Z</time>
      </trkpt>
      <trkpt lat="59.9150856" lon="17.6426267">
        <ele>26.5736</ele>
        <time>2013-03-17T11:10:49Z</time>
      </trkpt>
      <trkpt lat="59.9150644" lon="17.6426306">
        <ele>26.5736</ele>
        <time>2013-03-17T11:10:50Z</time>
      </trkpt>
      <trkpt lat="59.915043" lon="17.6426455">
        <ele>26.5736</ele>
        <time>2013-03-17T11:10:51Z</time>
      </trkpt>
      <trkpt lat="59.9150198" lon="17.6426626">
        <ele>26.5736</ele>
        <time>2013-03-17T11:10:52Z</time>
      </trkpt>
      <trkpt lat="59.9149918" lon="17.6426743">
        <ele>26.5736</ele>
        <time>2013-03-17T11:10:53Z</time>
      </trkpt>
      <trkpt lat="59.9149603" lon="17.6426802">
        <ele>26.5736</ele>
        <time>2013-03-17T11:10:54Z</time>
      </trkpt>
      <trkpt lat="59.9149266" lon="17.6426869">
        <ele>27.0543</ele>
        <time>2013-03-17T11:10:55Z</time>
      </trkpt>
      <trkpt lat="59.9148909" lon="17.6426935">
        <ele>27.0543</ele>
        <time>2013-03-17T11:10:56Z</time>
      </trkpt>
      <trkpt lat="59.9148539" lon="17.6427008">
        <ele>27.0543</ele>
        <time>2013-03-17T11:10:57Z</time>
      </trkpt>
      <trkpt lat="59.914815" lon="17.642708">
        <ele>27.0543</ele>
        <time>2013-03-17T11:10:58Z</time>
      </trkpt>
      <trkpt lat="59.9147757" lon="17.6427155">
        <ele>27.5349</ele>
        <time>2013-03-17T11:10:59Z</time>
      </trkpt>
      <trkpt lat="59.914736" lon="17.6427227">
        <ele>27.5349</ele>
        <time>2013-03-17T11:11:00Z</time>
      </trkpt>
      <trkpt lat="59.9146954" lon="17.6427305">
        <ele>27.5349</ele>
        <time>2013-03-17T11:11:01Z</time>
      </trkpt>
      <trkpt lat="59.9146535" lon="17.6427423">
        <ele>28.0155</ele>
        <time>2013-03-17T11:11:02Z</time>
      </trkpt>
      <trkpt lat="59.9146112" lon="17.6427525">
        <ele>28.4962</ele>
        <time>2013-03-17T11:11:03Z</time>
      </trkpt>
      <trkpt lat="59.9145693" lon="17.6427616">
        <ele>28.4962</ele>
        <time>2013-03-17T11:11:04Z</time>
      </trkpt>
      <trkpt lat="59.9145277" lon="17.6427713">
        <ele>28.9769</ele>
        <time>2013-03-17T11:11:05Z</time>
      </trkpt>
      <trkpt lat="59.9144858" lon="17.6427807">
        <ele>28.9769</ele>
        <time>2013-03-17T11:11:06Z</time>
      </trkpt>
      <trkpt lat="59.9144449" lon="17.6427869">
        <ele>28.9769</ele>
        <time>2013-03-17T11:11:07Z</time>
      </trkpt>
      <trkpt lat="59.9144041" lon="17.6427957">
        <ele>28.9769</ele>
        <time>2013-03-17T11:11:08Z</time>
      </trkpt>
      <trkpt lat="59.9143625" lon="17.642805">
        <ele>28.9769</ele>
        <time>2013-03-17T11:11:09Z</time>
      </trkpt>
      <trkpt lat="59.9143205" lon="17.6428138">
        <ele>29.4575</ele>
        <time>2013-03-17T11:11:10Z</time>
      </trkpt>
      <trkpt lat="59.9142796" lon="17.6428247">
        <ele>29.4575</ele>
        <time>2013-03-17T11:11:11Z</time>
      </trkpt>
      <trkpt lat="59.9142387" lon="17.642835">
        <ele>29.9381</ele>
        <time>2013-03-17T11:11:12Z</time>
      </trkpt>
      <trkpt lat="59.9141963" lon="17.6428427">
        <ele>29.9381</ele>
        <time>2013-03-17T11:11:13Z</time>
      </trkpt>
      <trkpt lat="59.9141546" lon="17.6428506">
        <ele>30.4188</ele>
        <time>2013-03-17T11:11:14Z</time>
      </trkpt>
      <trkpt lat="59.9141138" lon="17.6428592">
        <ele>30.4188</ele>
        <time>2013-03-17T11:11:15Z</time>
      </trkpt>
      <trkpt lat="59.9140735" lon="17.6428687">
        <ele>30.4188</ele>
        <time>2013-03-17T11:11:16Z</time>
      </trkpt>
      <trkpt lat="59.9140351" lon="17.6428755">
        <ele>30.4188</ele>
        <time>2013-03-17T11:11:17Z</time>
      </trkpt>
      <trkpt lat="59.9139962" lon="17.642882">
        <ele>30.4188</ele>
        <time>2013-03-17T11:11:18Z</time>
      </trkpt>
      <trkpt lat="59.913957" lon="17.6428872">
        <ele>30.4188</ele>
        <time>2013-03-17T11:11:19Z</time>
      </trkpt>
      <trkpt lat="59.9139166" lon="17.642892">
        <ele>30.8995</ele>
        <time>2013-03-17T11:11:20Z</time>
      </trkpt>
      <trkpt lat="59.9138751" lon="17.6428973">
        <ele>30.8995</ele>
        <time>2013-03-17T11:11:21Z</time>
      </trkpt>
      <trkpt lat="59.9138329" lon="17.6429053">
        <ele>30.8995</ele>
        <time>2013-03-17T11:11:22Z</time>
      </trkpt>
      <trkpt lat="59.9137901" lon="17.6429148">
        <ele>30.8995</ele>
        <time>2013-03-17T11:11:23Z</time>
      </trkpt>
      <trkpt lat="59.9137465" lon="17.6429231">
        <ele>30.8995</ele>
        <time>2013-03-17T11:11:24Z</time>
      </trkpt>
      <trkpt lat="59.9137024" lon="17.6429312">
        <ele>31.3801</ele>
        <time>2013-03-17T11:11:25Z</time>
      </trkpt>
      <trkpt lat="59.913658" lon="17.6429395">
        <ele>31.3801</ele>
        <time>2013-03-17T11:11:26Z</time>
      </trkpt>
      <trkpt lat="59.9136133" lon="17.6429469">
        <ele>31.3801</ele>
        <time>2013-03-17T11:11:27Z</time>
      </trkpt>
      <trkpt lat="59.9135698" lon="17.642954">
        <ele>31.8607</ele>
        <time>2013-03-17T11:11:28Z</time>
      </trkpt>
      <trkpt lat="59.913526" lon="17.6429642">
        <ele>31.8607</ele>
        <time>2013-03-17T11:11:29Z</time>
      </trkpt>
      <trkpt lat="59.9134834" lon="17.6429716">
        <ele>31.8607</ele>
        <time>2013-03-17T11:11:30Z</time>
      </trkpt>
      <trkpt lat="59.9134406" lon="17.6429776">
        <ele>31.8607</ele>
        <time>2013-03-17T11:11:31Z</time>
      </trkpt>
      <trkpt lat="59.9133983" lon="17.6429843">
        <ele>31.8607</ele>
        <time>2013-03-17T11:11:32Z</time>
      </trkpt>
      <trkpt lat="59.913355" lon="17.6429897">
        <ele>31.8607</ele>
        <time>2013-03-17T11:11:33Z</time>
      </trkpt>
      <trkpt lat="59.9133136" lon="17.6429962">
        <ele>31.8607</ele>
        <time>2013-03-17T11:11:34Z</time>
      </trkpt>
      <trkpt lat="59.9132726" lon="17.643005">
        <ele>31.8607</ele>
        <time>2013-03-17T11:11:35Z</time>
      </trkpt>
      <trkpt lat="59.9132318" lon="17.6430148">
        <ele>31.8607</ele>
        <time>2013-03-17T11:11:36Z</time>
      </trkpt>
      <trkpt lat="59.9131923" lon="17.6430219">
        <ele>31.8607</ele>
        <time>2013-03-17T11:11:37Z</time>
      </trkpt>
      <trkpt lat="59.913154" lon="17.6430262">
        <ele>31.3801</ele>
        <time>2013-03-17T11:11:38Z</time>
      </trkpt>
      <trkpt lat="59.913117" lon="17.6430292">
        <ele>31.3801</ele>
        <time>2013-03-17T11:11:39Z</time>
      </trkpt>
      <trkpt lat="59.913079" lon="17.6430318">
        <ele>31.3801</ele>
        <time>2013-03-17T11:11:40Z</time>
      </trkpt>
      <trkpt lat="59.913039" lon="17.6430402">
        <ele>31.3801</ele>
        <time>2013-03-17T11:11:41Z</time>
      </trkpt>
      <trkpt lat="59.9130006" lon="17.6430464">
        <ele>31.3801</ele>
        <time>2013-03-17T11:11:42Z</time>
      </trkpt>
      <trkpt lat="59.9129608" lon="17.6430541">
        <ele>31.3801</ele>
        <time>2013-03-17T11:11:43Z</time>
      </trkpt>
      <trkpt lat="59.9129198" lon="17.6430633">
        <ele>31.3801</ele>
        <time>2013-03-17T11:11:44Z</time>
      </trkpt>
      <trkpt lat="59.9128779" lon="17.6430731">
        <ele>31.3801</ele>
        <time>2013-03-17T11:11:45Z</time>
      </trkpt>
      <trkpt lat="59.9128354" lon="17.6430812">
        <ele>31.3801</ele>
        <time>2013-03-17T11:11:46Z</time>
      </trkpt>
      <trkpt lat="59.9127936" lon="17.6430846">
        <ele>31.3801</ele>
        <time>2013-03-17T11:11:47Z</time>
      </trkpt>
      <trkpt lat="59.9127519" lon="17.6430791">
        <ele>30.8995</ele>
        <time>2013-03-17T11:11:48Z</time>
      </trkpt>
      <trkpt lat="59.912708" lon="17.6430666">
        <ele>30.8995</ele>
        <time>2013-03-17T11:11:49Z</time>
      </trkpt>
      <trkpt lat="59.9126601" lon="17.6430483">
        <ele>30.4188</ele>
        <time>2013-03-17T11:11:50Z</time>
      </trkpt>
      <trkpt lat="59.912607" lon="17.643027">
        <ele>29.9381</ele>
        <time>2013-03-17T11:11:51Z</time>
      </trkpt>
      <trkpt lat="59.9125511" lon="17.6430091">
        <ele>29.9381</ele>
        <time>2013-03-17T11:11:52Z</time>
      </trkpt>
      <trkpt lat="59.9124961" lon="17.6430013">
        <ele>29.9381</ele>
        <time>2013-03-17T11:11:53Z</time>
      </trkpt>
      <trkpt lat="59.9124434" lon="17.643002">
        <ele>29.9381</ele>
        <time>2013-03-17T11:11:54Z</time>
      </trkpt>
      <trkpt lat="59.9123914" lon="17.6430102">
        <ele>29.9381</ele>
        <time>2013-03-17T11:11:55Z</time>
      </trkpt>
      <trkpt lat="59.9123406" lon="17.643021">
        <ele>29.9381</ele>
        <time>2013-03-17T11:11:56Z</time>
      </trkpt>
      <trkpt lat="59.9122909" lon="17.6430324">
        <ele>29.9381</ele>
        <time>2013-03-17T11:11:57Z</time>
      </trkpt>
      <trkpt lat="59.9122418" lon="17.6430433">
        <ele>29.9381</ele>
        <time>2013-03-17T11:11:58Z</time>
      </trkpt>
      <trkpt lat="59.9121935" lon="17.6430552">
        <ele>29.9381</ele>
        <time>2013-03-17T11:11:59Z</time>
      </trkpt>
      <trkpt lat="59.9121464" lon="17.6430665">
        <ele>30.4188</ele>
        <time>2013-03-17T11:12:00Z</time>
      </trkpt>
      <trkpt lat="59.9121014" lon="17.6430784">
        <ele>30.4188</ele>
        <time>2013-03-17T11:12:01Z</time>
      </trkpt>
      <trkpt lat="59.9120572" lon="17.643091">
        <ele>30.4188</ele>
        <time>2013-03-17T11:12:02Z</time>
      </trkpt>
      <trkpt lat="59.9120154" lon="17.6431066">
        <ele>30.4188</ele>
        <time>2013-03-17T11:12:03Z</time>
      </trkpt>
      <trkpt lat="59.9119729" lon="17.6431216">
        <ele>30.4188</ele>
        <time>2013-03-17T11:12:04Z</time>
      </trkpt>
      <trkpt lat="59.9119309" lon="17.6431361">
        <ele>30.4188</ele>
        <time>2013-03-17T11:12:05Z</time>
      </trkpt>
      <trkpt lat="59.9118875" lon="17.6431479">
        <ele>29.9381</ele>
        <time>2013-03-17T11:12:06Z</time>
      </trkpt>
      <trkpt lat="59.9118408" lon="17.6431529">
        <ele>29.9381</ele>
        <time>2013-03-17T11:12:07Z</time>
      </trkpt>
      <trkpt lat="59.9117921" lon="17.6431577">
        <ele>29.9381</ele>
        <time>2013-03-17T11:12:08Z</time>
      </trkpt>
      <trkpt lat="59.9117425" lon="17.6431628">
        <ele>29.9381</ele>
        <time>2013-03-17T11:12:09Z</time>
      </trkpt>
      <trkpt lat="59.9116922" lon="17.64317">
        <ele>29.9381</ele>
        <time>2013-03-17T11:12:10Z</time>
      </trkpt>
      <trkpt lat="59.9116415" lon="17.6431785">
        <ele>30.4188</ele>
        <time>2013-03-17T11:12:11Z</time>
      </trkpt>
      <trkpt lat="59.9115911" lon="17.6431908">
        <ele>30.4188</ele>
        <time>2013-03-17T11:12:12Z</time>
      </trkpt>
      <trkpt lat="59.9115399" lon="17.6432049">
        <ele>30.8995</ele>
        <time>2013-03-17T11:12:13Z</time>
      </trkpt>
      <trkpt lat="59.9114891" lon="17.6432178">
        <ele>31.3801</ele>
        <time>2013-03-17T11:12:14Z</time>
      </trkpt>
      <trkpt lat="59.9114383" lon="17.6432313">
        <ele>31.3801</ele>
        <time>2013-03-17T11:12:15Z</time>
      </trkpt>
      <trkpt lat="59.9113882" lon="17.6432482">
        <ele>31.8607</ele>
        <time>2013-03-17T11:12:16Z</time>
      </trkpt>
      <trkpt lat="59.9113395" lon="17.6432636">
        <ele>31.8607</ele>
        <time>2013-03-17T11:12:17Z</time>
      </trkpt>
      <trkpt lat="59.9112889" lon="17.6432789">
        <ele>31.8607</ele>
        <time>2013-03-17T11:12:18Z</time>
      </trkpt>
      <trkpt lat="59.9112375" lon="17.6432894">
        <ele>31.8607</ele>
        <time>2013-03-17T11:12:19Z</time>
      </trkpt>
      <trkpt lat="59.9111855" lon="17.643299">
        <ele>32.3416</ele>
        <time>2013-03-17T11:12:20Z</time>
      </trkpt>
      <trkpt lat="59.9111358" lon="17.6433075">
        <ele>31.8607</ele>
        <time>2013-03-17T11:12:21Z</time>
      </trkpt>
      <trkpt lat="59.9110849" lon="17.6433154">
        <ele>31.8607</ele>
        <time>2013-03-17T11:12:22Z</time>
      </trkpt>
      <trkpt lat="59.9110339" lon="17.643324">
        <ele>31.8607</ele>
        <time>2013-03-17T11:12:23Z</time>
      </trkpt>
      <trkpt lat="59.910982" lon="17.6433323">
        <ele>31.8607</ele>
        <time>2013-03-17T11:12:24Z</time>
      </trkpt>
      <trkpt lat="59.9109296" lon="17.6433396">
        <ele>31.3801</ele>
        <time>2013-03-17T11:12:25Z</time>
      </trkpt>
      <trkpt lat="59.9108757" lon="17.643349">
        <ele>31.3801</ele>
        <time>2013-03-17T11:12:26Z</time>
      </trkpt>
      <trkpt lat="59.910822" lon="17.6433598">
        <ele>31.3801</ele>
        <time>2013-03-17T11:12:27Z</time>
      </trkpt>
      <trkpt lat="59.9107675" lon="17.6433715">
        <ele>31.3801</ele>
        <time>2013-03-17T11:12:28Z</time>
      </trkpt>
      <trkpt lat="59.9107119" lon="17.6433836">
        <ele>31.3801</ele>
        <time>2013-03-17T11:12:29Z</time>
      </trkpt>
      <trkpt lat="59.9106557" lon="17.6433964">
        <ele>31.3801</ele>
        <time>2013-03-17T11:12:30Z</time>
      </trkpt>
      <trkpt lat="59.9106002" lon="17.6434151">
        <ele>30.8995</ele>
        <time>2013-03-17T11:12:31Z</time>
      </trkpt>
      <trkpt lat="59.9105463" lon="17.6434431">
        <ele>31.3801</ele>
        <time>2013-03-17T11:12:32Z</time>
      </trkpt>
      <trkpt lat="59.9104938" lon="17.6434736">
        <ele>31.3801</ele>
        <time>2013-03-17T11:12:33Z</time>
      </trkpt>
      <trkpt lat="59.9104431" lon="17.6435007">
        <ele>31.3801</ele>
        <time>2013-03-17T11:12:34Z</time>
      </trkpt>
      <trkpt lat="59.9103926" lon="17.6435225">
        <ele>31.3801</ele>
        <time>2013-03-17T11:12:35Z</time>
      </trkpt>
      <trkpt lat="59.9103412" lon="17.643539">
        <ele>30.8995</ele>
        <time>2013-03-17T11:12:36Z</time>
      </trkpt>
      <trkpt lat="59.9102889" lon="17.6435505">
        <ele>30.8995</ele>
        <time>2013-03-17T11:12:37Z</time>
      </trkpt>
      <trkpt lat="59.9102358" lon="17.6435599">
        <ele>30.8995</ele>
        <time>2013-03-17T11:12:38Z</time>
      </trkpt>
      <trkpt lat="59.9101828" lon="17.6435658">
        <ele>30.8995</ele>
        <time>2013-03-17T11:12:39Z</time>
      </trkpt>
      <trkpt lat="59.9101283" lon="17.6435666">
        <ele>30.8995</ele>
        <time>2013-03-17T11:12:40Z</time>
      </trkpt>
      <trkpt lat="59.9100732" lon="17.6435585">
        <ele>30.8995</ele>
        <time>2013-03-17T11:12:41Z</time>
      </trkpt>
      <trkpt lat="59.9100153" lon="17.6435414">
        <ele>30.8995</ele>
        <time>2013-03-17T11:12:42Z</time>
      </trkpt>
      <trkpt lat="59.9099526" lon="17.6435178">
        <ele>30.4188</ele>
        <time>2013-03-17T11:12:43Z</time>
      </trkpt>
      <trkpt lat="59.9098884" lon="17.6434927">
        <ele>30.4188</ele>
        <time>2013-03-17T11:12:44Z</time>
      </trkpt>
      <trkpt lat="59.9098254" lon="17.6434765">
        <ele>30.4188</ele>
        <time>2013-03-17T11:12:45Z</time>
      </trkpt>
      <trkpt lat="59.9097639" lon="17.6434757">
        <ele>30.4188</ele>
        <time>2013-03-17T11:12:46Z</time>
      </trkpt>
      <trkpt lat="59.909703" lon="17.6434832">
        <ele>30.4188</ele>
        <time>2013-03-17T11:12:47Z</time>
      </trkpt>
      <trkpt lat="59.9096425" lon="17.6434971">
        <ele>30.4188</ele>
        <time>2013-03-17T11:12:48Z</time>
      </trkpt>
      <trkpt lat="59.9095828" lon="17.643515">
        <ele>30.4188</ele>
        <time>2013-03-17T11:12:49Z</time>
      </trkpt>
      <trkpt lat="59.9095227" lon="17.6435301">
        <ele>30.4188</ele>
        <time>2013-03-17T11:12:50Z</time>
      </trkpt>
      <trkpt lat="59.909463" lon="17.6435426">
        <ele>30.4188</ele>
        <time>2013-03-17T11:12:51Z</time>
      </trkpt>
      <trkpt lat="59.9094041" lon="17.6435546">
        <ele>30.4188</ele>
        <time>2013-03-17T11:12:52Z</time>
      </trkpt>
      <trkpt lat="59.9093461" lon="17.6435661">
        <ele>30.4188</ele>
        <time>2013-03-17T11:12:53Z</time>
      </trkpt>
      <trkpt lat="59.9092886" lon="17.6435752">
        <ele>30.4188</ele>
        <time>2013-03-17T11:12:54Z</time>
      </trkpt>
      <trkpt lat="59.9092321" lon="17.6435824">
        <ele>30.4188</ele>
        <time>2013-03-17T11:12:55Z</time>
      </trkpt>
      <trkpt lat="59.9091772" lon="17.643591">
        <ele>30.4188</ele>
        <time>2013-03-17T11:12:56Z</time>
      </trkpt>
      <trkpt lat="59.9091228" lon="17.6435998">
        <ele>30.4188</ele>
        <time>2013-03-17T11:12:57Z</time>
      </trkpt>
      <trkpt lat="59.9090694" lon="17.6436065">
        <ele>30.4188</ele>
        <time>2013-03-17T11:12:58Z</time>
      </trkpt>
      <trkpt lat="59.9090165" lon="17.6436121">
        <ele>30.4188</ele>
        <time>2013-03-17T11:12:59Z</time>
      </trkpt>
      <trkpt lat="59.9089633" lon="17.6436173">
        <ele>30.4188</ele>
        <time>2013-03-17T11:13:00Z</time>
      </trkpt>
      <trkpt lat="59.9089102" lon="17.643623">
        <ele>30.4188</ele>
        <time>2013-03-17T11:13:01Z</time>
      </trkpt>
      <trkpt lat="59.9088571" lon="17.6436292">
        <ele>30.4188</ele>
        <time>2013-03-17T11:13:02Z</time>
      </trkpt>
      <trkpt lat="59.9088043" lon="17.6436338">
        <ele>30.4188</ele>
        <time>2013-03-17T11:13:03Z</time>
      </trkpt>
      <trkpt lat="59.908752" lon="17.6436364">
        <ele>30.4188</ele>
        <time>2013-03-17T11:13:04Z</time>
      </trkpt>
      <trkpt lat="59.9087004" lon="17.6436391">
        <ele>30.4188</ele>
        <time>2013-03-17T11:13:05Z</time>
      </trkpt>
      <trkpt lat="59.9086492" lon="17.643643">
        <ele>30.4188</ele>
        <time>2013-03-17T11:13:06Z</time>
      </trkpt>
      <trkpt lat="59.9085981" lon="17.6436461">
        <ele>30.4188</ele>
        <time>2013-03-17T11:13:07Z</time>
      </trkpt>
      <trkpt lat="59.9085463" lon="17.6436495">
        <ele>30.4188</ele>
        <time>2013-03-17T11:13:08Z</time>
      </trkpt>
      <trkpt lat="59.908496" lon="17.6436521">
        <ele>30.8995</ele>
        <time>2013-03-17T11:13:09Z</time>
      </trkpt>
      <trkpt lat="59.9084466" lon="17.6436514">
        <ele>30.8995</ele>
        <time>2013-03-17T11:13:10Z</time>
      </trkpt>
      <trkpt lat="59.9083976" lon="17.6436478">
        <ele>30.8995</ele>
        <time>2013-03-17T11:13:11Z</time>
      </trkpt>
      <trkpt lat="59.9083493" lon="17.6436445">
        <ele>31.3801</ele>
        <time>2013-03-17T11:13:12Z</time>
      </trkpt>
      <trkpt lat="59.9083013" lon="17.6436406">
        <ele>31.3801</ele>
        <time>2013-03-17T11:13:13Z</time>
      </trkpt>
      <trkpt lat="59.9082531" lon="17.6436348">
        <ele>31.3801</ele>
        <time>2013-03-17T11:13:14Z</time>
      </trkpt>
      <trkpt lat="59.908203" lon="17.6436282">
        <ele>31.3801</ele>
        <time>2013-03-17T11:13:15Z</time>
      </trkpt>
      <trkpt lat="59.908152" lon="17.643621">
        <ele>31.3801</ele>
        <time>2013-03-17T11:13:16Z</time>
      </trkpt>
      <trkpt lat="59.9080998" lon="17.6436136">
        <ele>31.3801</ele>
        <time>2013-03-17T11:13:17Z</time>
      </trkpt>
      <trkpt lat="59.9080464" lon="17.6436069">
        <ele>31.3801</ele>
        <time>2013-03-17T11:13:18Z</time>
      </trkpt>
      <trkpt lat="59.9079924" lon="17.6436002">
        <ele>31.3801</ele>
        <time>2013-03-17T11:13:19Z</time>
      </trkpt>
      <trkpt lat="59.907939" lon="17.6435898">
        <ele>31.3801</ele>
        <time>2013-03-17T11:13:20Z</time>
      </trkpt>
      <trkpt lat="59.9078853" lon="17.643579">
        <ele>31.3801</ele>
        <time>2013-03-17T11:13:21Z</time>
      </trkpt>
      <trkpt lat="59.9078304" lon="17.6435709">
        <ele>31.3801</ele>
        <time>2013-03-17T11:13:22Z</time>
      </trkpt>
      <trkpt lat="59.9077748" lon="17.6435623">
        <ele>31.3801</ele>
        <time>2013-03-17T11:13:23Z</time>
      </trkpt>
      <trkpt lat="59.9077195" lon="17.6435537">
        <ele>31.3801</ele>
        <time>2013-03-17T11:13:24Z</time>
      </trkpt>
      <trkpt lat="59.907665" lon="17.6435458">
        <ele>30.8995</ele>
        <time>2013-03-17T11:13:25Z</time>
      </trkpt>
      <trkpt lat="59.9076113" lon="17.6435359">
        <ele>30.8995</ele>
        <time>2013-03-17T11:13:26Z</time>
      </trkpt>
      <trkpt lat="59.9075573" lon="17.6435251">
        <ele>30.8995</ele>
        <time>2013-03-17T11:13:27Z</time>
      </trkpt>
      <trkpt lat="59.9075026" lon="17.643515">
        <ele>30.8995</ele>
        <time>2013-03-17T11:13:28Z</time>
      </trkpt>
      <trkpt lat="59.9074479" lon="17.6435054">
        <ele>30.8995</ele>
        <time>2013-03-17T11:13:29Z</time>
      </trkpt>
      <trkpt lat="59.9073922" lon="17.6434962">
        <ele>30.8995</ele>
        <time>2013-03-17T11:13:30Z</time>
      </trkpt>
      <trkpt lat="59.9073361" lon="17.6434863">
        <ele>30.8995</ele>
        <time>2013-03-17T11:13:31Z</time>
      </trkpt>
      <trkpt lat="59.9072802" lon="17.6434749">
        <ele>30.8995</ele>
        <time>2013-03-17T11:13:32Z</time>
      </trkpt>
      <trkpt lat="59.9072248" lon="17.6434633">
        <ele>30.4188</ele>
        <time>2013-03-17T11:13:33Z</time>
      </trkpt>
      <trkpt lat="59.9071698" lon="17.6434529">
        <ele>30.4188</ele>
        <time>2013-03-17T11:13:34Z</time>
      </trkpt>
      <trkpt lat="59.907115" lon="17.6434416">
        <ele>30.4188</ele>
        <time>2013-03-17T11:13:35Z</time>
      </trkpt>
      <trkpt lat="59.9070612" lon="17.643428">
        <ele>30.4188</ele>
        <time>2013-03-17T11:13:36Z</time>
      </trkpt>
      <trkpt lat="59.9070074" lon="17.6434151">
        <ele>30.4188</ele>
        <time>2013-03-17T11:13:37Z</time>
      </trkpt>
      <trkpt lat="59.9069535" lon="17.6434038">
        <ele>30.4188</ele>
        <time>2013-03-17T11:13:38Z</time>
      </trkpt>
      <trkpt lat="59.9068989" lon="17.6433923">
        <ele>30.4188</ele>
        <time>2013-03-17T11:13:39Z</time>
      </trkpt>
      <trkpt lat="59.9068432" lon="17.6433783">
        <ele>30.4188</ele>
        <time>2013-03-17T11:13:40Z</time>
      </trkpt>
      <trkpt lat="59.9067875" lon="17.6433615">
        <ele>29.9381</ele>
        <time>2013-03-17T11:13:41Z</time>
      </trkpt>
      <trkpt lat="59.9067316" lon="17.6433468">
        <ele>29.9381</ele>
        <time>2013-03-17T11:13:42Z</time>
      </trkpt>
      <trkpt lat="59.9066752" lon="17.6433338">
        <ele>29.9381</ele>
        <time>2013-03-17T11:13:43Z</time>
      </trkpt>
      <trkpt lat="59.9066187" lon="17.6433176">
        <ele>29.9381</ele>
        <time>2013-03-17T11:13:44Z</time>
      </trkpt>
      <trkpt lat="59.9065616" lon="17.6432991">
        <ele>29.9381</ele>
        <time>2013-03-17T11:13:45Z</time>
      </trkpt>
      <trkpt lat="59.9065048" lon="17.64328">
        <ele>29.4575</ele>
        <time>2013-03-17T11:13:46Z</time>
      </trkpt>
      <trkpt lat="59.9064489" lon="17.6432613">
        <ele>29.4575</ele>
        <time>2013-03-17T11:13:47Z</time>
      </trkpt>
      <trkpt lat="59.9063938" lon="17.6432406">
        <ele>29.4575</ele>
        <time>2013-03-17T11:13:48Z</time>
      </trkpt>
      <trkpt lat="59.9063392" lon="17.6432183">
        <ele>29.4575</ele>
        <time>2013-03-17T11:13:49Z</time>
      </trkpt>
      <trkpt lat="59.9062855" lon="17.6431949">
        <ele>28.9769</ele>
        <time>2013-03-17T11:13:50Z</time>
      </trkpt>
      <trkpt lat="59.9062324" lon="17.6431691">
        <ele>28.9769</ele>
        <time>2013-03-17T11:13:51Z</time>
      </trkpt>
      <trkpt lat="59.9061793" lon="17.6431447">
        <ele>28.9769</ele>
        <time>2013-03-17T11:13:52Z</time>
      </trkpt>
      <trkpt lat="59.9061261" lon="17.6431225">
        <ele>28.9769</ele>
        <time>2013-03-17T11:13:53Z</time>
      </trkpt>
      <trkpt lat="59.9060739" lon="17.6431013">
        <ele>28.9769</ele>
        <time>2013-03-17T11:13:54Z</time>
      </trkpt>
      <trkpt lat="59.9060231" lon="17.6430779">
        <ele>28.4962</ele>
        <time>2013-03-17T11:13:55Z</time>
      </trkpt>
      <trkpt lat="59.9059728" lon="17.6430525">
        <ele>28.4962</ele>
        <time>2013-03-17T11:13:56Z</time>
      </trkpt>
      <trkpt lat="59.9059235" lon="17.6430296">
        <ele>28.4962</ele>
        <time>2013-03-17T11:13:57Z</time>
      </trkpt>
      <trkpt lat="59.9058753" lon="17.6430091">
        <ele>28.4962</ele>
        <time>2013-03-17T11:13:58Z</time>
      </trkpt>
      <trkpt lat="59.9058283" lon="17.6429868">
        <ele>28.4962</ele>
        <time>2013-03-17T11:13:59Z</time>
      </trkpt>
      <trkpt lat="59.9057832" lon="17.6429625">
        <ele>28.0155</ele>
        <time>2013-03-17T11:14:00Z</time>
      </trkpt>
      <trkpt lat="59.9057447" lon="17.6429438">
        <ele>28.0155</ele>
        <time>2013-03-17T11:14:01Z</time>
      </trkpt>
      <trkpt lat="59.9057138" lon="17.6429293">
        <ele>28.0155</ele>
        <time>2013-03-17T11:14:02Z</time>
      </trkpt>
      <trkpt lat="59.90569" lon="17.6429139">
        <ele>27.5349</ele>
        <time>2013-03-17T11:14:03Z</time>
      </trkpt>
      <trkpt lat="59.9056673" lon="17.6429006">
        <ele>27.0543</ele>
        <time>2013-03-17T11:14:04Z</time>
      </trkpt>
      <trkpt lat="59.9056454" lon="17.6428879">
        <ele>26.5736</ele>
        <time>2013-03-17T11:14:05Z</time>
      </trkpt>
      <trkpt lat="59.905622" lon="17.6428806">
        <ele>26.5736</ele>
        <time>2013-03-17T11:14:06Z</time>
      </trkpt>
      <trkpt lat="59.9056003" lon="17.6428791">
        <ele>26.0929</ele>
        <time>2013-03-17T11:14:07Z</time>
      </trkpt>
      <trkpt lat="59.9055776" lon="17.6428782">
        <ele>26.0929</ele>
        <time>2013-03-17T11:14:08Z</time>
      </trkpt>
      <trkpt lat="59.9055551" lon="17.6428737">
        <ele>26.0929</ele>
        <time>2013-03-17T11:14:09Z</time>
      </trkpt>
      <trkpt lat="59.9055328" lon="17.6428703">
        <ele>26.0929</ele>
        <time>2013-03-17T11:14:10Z</time>
      </trkpt>
      <trkpt lat="59.9055126" lon="17.6428682">
        <ele>26.0929</ele>
        <time>2013-03-17T11:14:11Z</time>
      </trkpt>
      <trkpt lat="59.9054962" lon="17.6428698">
        <ele>26.0929</ele>
        <time>2013-03-17T11:14:12Z</time>
      </trkpt>
      <trkpt lat="59.9054836" lon="17.6428773">
        <ele>26.0929</ele>
        <time>2013-03-17T11:14:13Z</time>
      </trkpt>
      <trkpt lat="59.9054719" lon="17.6428896">
        <ele>26.0929</ele>
        <time>2013-03-17T11:14:14Z</time>
      </trkpt>
      <trkpt lat="59.9054647" lon="17.6429071">
        <ele>26.0929</ele>
        <time>2013-03-17T11:14:15Z</time>
      </trkpt>
      <trkpt lat="59.9054646" lon="17.6429205">
        <ele>26.0929</ele>
        <time>2013-03-17T11:14:16Z</time>
      </trkpt>
      <trkpt lat="59.9054655" lon="17.6429246">
        <ele>25.6123</ele>
        <time>2013-03-17T11:14:17Z</time>
      </trkpt>
      <trkpt lat="59.905465" lon="17.6429257">
        <ele>25.6123</ele>
        <time>2013-03-17T11:14:18Z</time>
      </trkpt>
      <trkpt lat="59.9054645" lon="17.6429269">
        <ele>26.0929</ele>
        <time>2013-03-17T11:14:19Z</time>
      </trkpt>
      <trkpt lat="59.9054641" lon="17.6429272">
        <ele>26.0929</ele>
        <time>2013-03-17T11:14:20Z</time>
      </trkpt>
      <trkpt lat="59.9054636" lon="17.6429273">
        <ele>26.0929</ele>
        <time>2013-03-17T11:14:21Z</time>
      </trkpt>
      <trkpt lat="59.9054632" lon="17.6429279">
        <ele>26.0929</ele>
        <time>2013-03-17T11:14:22Z</time>
      </trkpt>
      <trkpt lat="59.9054632" lon="17.6429278">
        <ele>26.0929</ele>
        <time>2013-03-17T11:14:23Z</time>
      </trkpt>
      <trkpt lat="59.9054635" lon="17.6429281">
        <ele>26.0929</ele>
        <time>2013-03-17T11:14:24Z</time>
      </trkpt>
      <trkpt lat="59.9054639" lon="17.6429287">
        <ele>26.0929</ele>
        <time>2013-03-17T11:14:25Z</time>
      </trkpt>
      <trkpt lat="59.9054644" lon="17.6429288">
        <ele>26.0929</ele>
        <time>2013-03-17T11:14:26Z</time>
      </trkpt>
      <trkpt lat="59.9054651" lon="17.6429287">
        <ele>25.6123</ele>
        <time>2013-03-17T11:14:27Z</time>
      </trkpt>
      <trkpt lat="59.9054665" lon="17.6429291">
        <ele>25.6123</ele>
        <time>2013-03-17T11:14:28Z</time>
      </trkpt>
      <trkpt lat="59.9054579" lon="17.6429515">
        <ele>27.5349</ele>
        <time>2013-03-17T11:14:29Z</time>
      </trkpt>
      <trkpt lat="59.9054552" lon="17.6429635">
        <ele>27.5349</ele>
        <time>2013-03-17T11:14:30Z</time>
      </trkpt>
      <trkpt lat="59.9054551" lon="17.6429656">
        <ele>28.0155</ele>
        <time>2013-03-17T11:14:31Z</time>
      </trkpt>
      <trkpt lat="59.9054561" lon="17.642963">
        <ele>27.5349</ele>
        <time>2013-03-17T11:14:32Z</time>
      </trkpt>
      <trkpt lat="59.9054596" lon="17.6429576">
        <ele>27.0543</ele>
        <time>2013-03-17T11:14:33Z</time>
      </trkpt>
      <trkpt lat="59.9054601" lon="17.6429577">
        <ele>26.5736</ele>
        <time>2013-03-17T11:14:34Z</time>
      </trkpt>
      <trkpt lat="59.9054599" lon="17.6429571">
        <ele>26.0929</ele>
        <time>2013-03-17T11:14:35Z</time>
      </trkpt>
      <trkpt lat="59.9054595" lon="17.6429571">
        <ele>26.0929</ele>
        <time>2013-03-17T11:14:36Z</time>
      </trkpt>
      <trkpt lat="59.9054562" lon="17.642965">
        <ele>26.0929</ele>
        <time>2013-03-17T11:14:37Z</time>
      </trkpt>
      <trkpt lat="59.9054516" lon="17.6429864">
        <ele>26.0929</ele>
        <time>2013-03-17T11:14:38Z</time>
      </trkpt>
      <trkpt lat="59.90545" lon="17.6430143">
        <ele>26.0929</ele>
        <time>2013-03-17T11:14:39Z</time>
      </trkpt>
      <trkpt lat="59.9054552" lon="17.6430438">
        <ele>25.6123</ele>
        <time>2013-03-17T11:14:40Z</time>
      </trkpt>
      <trkpt lat="59.9054698" lon="17.6430718">
        <ele>25.6123</ele>
        <time>2013-03-17T11:14:41Z</time>
      </trkpt>
      <trkpt lat="59.9054922" lon="17.643093">
        <ele>25.6123</ele>
        <time>2013-03-17T11:14:42Z</time>
      </trkpt>
      <trkpt lat="59.9055201" lon="17.643104">
        <ele>25.1317</ele>
        <time>2013-03-17T11:14:43Z</time>
      </trkpt>
      <trkpt lat="59.9055522" lon="17.6431126">
        <ele>25.1317</ele>
        <time>2013-03-17T11:14:44Z</time>
      </trkpt>
      <trkpt lat="59.9055859" lon="17.6431276">
        <ele>24.651</ele>
        <time>2013-03-17T11:14:45Z</time>
      </trkpt>
      <trkpt lat="59.9056204" lon="17.6431484">
        <ele>24.651</ele>
        <time>2013-03-17T11:14:46Z</time>
      </trkpt>
      <trkpt lat="59.9056566" lon="17.6431671">
        <ele>24.651</ele>
        <time>2013-03-17T11:14:47Z</time>
      </trkpt>
      <trkpt lat="59.9056947" lon="17.6431866">
        <ele>24.1703</ele>
        <time>2013-03-17T11:14:48Z</time>
      </trkpt>
      <trkpt lat="59.9057314" lon="17.6432111">
        <ele>24.1703</ele>
        <time>2013-03-17T11:14:49Z</time>
      </trkpt>
      <trkpt lat="59.9057645" lon="17.6432489">
        <ele>24.1703</ele>
        <time>2013-03-17T11:14:50Z</time>
      </trkpt>
      <trkpt lat="59.905791" lon="17.643307">
        <ele>24.1703</ele>
        <time>2013-03-17T11:14:51Z</time>
      </trkpt>
      <trkpt lat="59.9058103" lon="17.6433799">
        <ele>24.1703</ele>
        <time>2013-03-17T11:14:52Z</time>
      </trkpt>
      <trkpt lat="59.9058252" lon="17.6434609">
        <ele>23.6896</ele>
        <time>2013-03-17T11:14:53Z</time>
      </trkpt>
      <trkpt lat="59.9058395" lon="17.6435468">
        <ele>24.1703</ele>
        <time>2013-03-17T11:14:54Z</time>
      </trkpt>
      <trkpt lat="59.9058557" lon="17.6436314">
        <ele>24.1703</ele>
        <time>2013-03-17T11:14:55Z</time>
      </trkpt>
      <trkpt lat="59.905874" lon="17.6437126">
        <ele>24.1703</ele>
        <time>2013-03-17T11:14:56Z</time>
      </trkpt>
      <trkpt lat="59.9058937" lon="17.6437913">
        <ele>24.1703</ele>
        <time>2013-03-17T11:14:57Z</time>
      </trkpt>
      <trkpt lat="59.9059116" lon="17.6438645">
        <ele>24.1703</ele>
        <time>2013-03-17T11:14:58Z</time>
      </trkpt>
      <trkpt lat="59.9059301" lon="17.6439334">
        <ele>24.1703</ele>
        <time>2013-03-17T11:14:59Z</time>
      </trkpt>
      <trkpt lat="59.9059511" lon="17.6440016">
        <ele>24.1703</ele>
        <time>2013-03-17T11:15:00Z</time>
      </trkpt>
      <trkpt lat="59.9059728" lon="17.6440664">
        <ele>24.651</ele>
        <time>2013-03-17T11:15:01Z</time>
      </trkpt>
      <trkpt lat="59.9059949" lon="17.6441312">
        <ele>24.651</ele>
        <time>2013-03-17T11:15:02Z</time>
      </trkpt>
      <trkpt lat="59.9060149" lon="17.6441974">
        <ele>25.1317</ele>
        <time>2013-03-17T11:15:03Z</time>
      </trkpt>
      <trkpt lat="59.9060334" lon="17.6442642">
        <ele>25.1317</ele>
        <time>2013-03-17T11:15:04Z</time>
      </trkpt>
      <trkpt lat="59.906051" lon="17.6443306">
        <ele>25.1317</ele>
        <time>2013-03-17T11:15:05Z</time>
      </trkpt>
      <trkpt lat="59.9060692" lon="17.6443951">
        <ele>25.6123</ele>
        <time>2013-03-17T11:15:06Z</time>
      </trkpt>
      <trkpt lat="59.9060856" lon="17.6444601">
        <ele>25.6123</ele>
        <time>2013-03-17T11:15:07Z</time>
      </trkpt>
      <trkpt lat="59.9060991" lon="17.6445275">
        <ele>25.6123</ele>
        <time>2013-03-17T11:15:08Z</time>
      </trkpt>
      <trkpt lat="59.906111" lon="17.6445964">
        <ele>25.6123</ele>
        <time>2013-03-17T11:15:09Z</time>
      </trkpt>
      <trkpt lat="59.9061213" lon="17.6446648">
        <ele>25.6123</ele>
        <time>2013-03-17T11:15:10Z</time>
      </trkpt>
      <trkpt lat="59.9061302" lon="17.644733">
        <ele>25.6123</ele>
        <time>2013-03-17T11:15:11Z</time>
      </trkpt>
      <trkpt lat="59.9061385" lon="17.6448004">
        <ele>25.6123</ele>
        <time>2013-03-17T11:15:12Z</time>
      </trkpt>
      <trkpt lat="59.9061461" lon="17.6448673">
        <ele>25.6123</ele>
        <time>2013-03-17T11:15:13Z</time>
      </trkpt>
      <trkpt lat="59.9061521" lon="17.6449335">
        <ele>26.0929</ele>
        <time>2013-03-17T11:15:14Z</time>
      </trkpt>
      <trkpt lat="59.9061573" lon="17.6449993">
        <ele>26.0929</ele>
        <time>2013-03-17T11:15:15Z</time>
      </trkpt>
      <trkpt lat="59.9061587" lon="17.6450651">
        <ele>26.0929</ele>
        <time>2013-03-17T11:15:16Z</time>
      </trkpt>
      <trkpt lat="59.9061556" lon="17.6451293">
        <ele>26.5736</ele>
        <time>2013-03-17T11:15:17Z</time>
      </trkpt>
      <trkpt lat="59.9061505" lon="17.6451918">
        <ele>26.5736</ele>
        <time>2013-03-17T11:15:18Z</time>
      </trkpt>
      <trkpt lat="59.9061456" lon="17.645253">
        <ele>26.5736</ele>
        <time>2013-03-17T11:15:19Z</time>
      </trkpt>
      <trkpt lat="59.90614" lon="17.6453125">
        <ele>26.5736</ele>
        <time>2013-03-17T11:15:20Z</time>
      </trkpt>
      <trkpt lat="59.9061351" lon="17.6453702">
        <ele>26.5736</ele>
        <time>2013-03-17T11:15:21Z</time>
      </trkpt>
      <trkpt lat="59.9061318" lon="17.6454268">
        <ele>27.0543</ele>
        <time>2013-03-17T11:15:22Z</time>
      </trkpt>
      <trkpt lat="59.9061256" lon="17.6454815">
        <ele>27.0543</ele>
        <time>2013-03-17T11:15:23Z</time>
      </trkpt>
      <trkpt lat="59.9061168" lon="17.6455319">
        <ele>27.0543</ele>
        <time>2013-03-17T11:15:24Z</time>
      </trkpt>
      <trkpt lat="59.9061092" lon="17.6455779">
        <ele>27.0543</ele>
        <time>2013-03-17T11:15:25Z</time>
      </trkpt>
      <trkpt lat="59.9061032" lon="17.6456218">
        <ele>27.0543</ele>
        <time>2013-03-17T11:15:26Z</time>
      </trkpt>
      <trkpt lat="59.9060985" lon="17.6456634">
        <ele>27.0543</ele>
        <time>2013-03-17T11:15:27Z</time>
      </trkpt>
      <trkpt lat="59.906094" lon="17.6457012">
        <ele>27.0543</ele>
        <time>2013-03-17T11:15:28Z</time>
      </trkpt>
      <trkpt lat="59.9060888" lon="17.645734">
        <ele>27.0543</ele>
        <time>2013-03-17T11:15:29Z</time>
      </trkpt>
      <trkpt lat="59.9060814" lon="17.6457627">
        <ele>27.0543</ele>
        <time>2013-03-17T11:15:30Z</time>
      </trkpt>
      <trkpt lat="59.9060748" lon="17.6457892">
        <ele>27.0543</ele>
        <time>2013-03-17T11:15:31Z</time>
      </trkpt>
      <trkpt lat="59.9060708" lon="17.6458088">
        <ele>26.5736</ele>
        <time>2013-03-17T11:15:32Z</time>
      </trkpt>
      <trkpt lat="59.9060706" lon="17.6458156">
        <ele>27.0543</ele>
        <time>2013-03-17T11:15:33Z</time>
      </trkpt>
      <trkpt lat="59.9060339" lon="17.6459307">
        <ele>29.9381</ele>
        <time>2013-03-17T11:16:29Z</time>
      </trkpt>
      <trkpt lat="59.9060288" lon="17.6459639">
        <ele>29.4575</ele>
        <time>2013-03-17T11:16:30Z</time>
      </trkpt>
      <trkpt lat="59.906023" lon="17.6460031">
        <ele>28.9769</ele>
        <time>2013-03-17T11:16:31Z</time>
      </trkpt>
      <trkpt lat="59.9060189" lon="17.6460465">
        <ele>28.4962</ele>
        <time>2013-03-17T11:16:32Z</time>
      </trkpt>
      <trkpt lat="59.9060138" lon="17.6460985">
        <ele>28.0155</ele>
        <time>2013-03-17T11:16:33Z</time>
      </trkpt>
      <trkpt lat="59.9060079" lon="17.646161">
        <ele>27.5349</ele>
        <time>2013-03-17T11:16:34Z</time>
      </trkpt>
      <trkpt lat="59.9060014" lon="17.6462295">
        <ele>27.0543</ele>
        <time>2013-03-17T11:16:35Z</time>
      </trkpt>
      <trkpt lat="59.9059951" lon="17.6463001">
        <ele>27.0543</ele>
        <time>2013-03-17T11:16:36Z</time>
      </trkpt>
      <trkpt lat="59.9059878" lon="17.6463758">
        <ele>27.0543</ele>
        <time>2013-03-17T11:16:37Z</time>
      </trkpt>
      <trkpt lat="59.9059785" lon="17.6464502">
        <ele>26.5736</ele>
        <time>2013-03-17T11:16:38Z</time>
      </trkpt>
      <trkpt lat="59.9059679" lon="17.646526">
        <ele>26.5736</ele>
        <time>2013-03-17T11:16:39Z</time>
      </trkpt>
      <trkpt lat="59.9059573" lon="17.6466081">
        <ele>26.5736</ele>
        <time>2013-03-17T11:16:40Z</time>
      </trkpt>
      <trkpt lat="59.9059472" lon="17.6466917">
        <ele>26.5736</ele>
        <time>2013-03-17T11:16:41Z</time>
      </trkpt>
      <trkpt lat="59.9059377" lon="17.6467775">
        <ele>26.5736</ele>
        <time>2013-03-17T11:16:42Z</time>
      </trkpt>
      <trkpt lat="59.9059291" lon="17.6468653">
        <ele>26.5736</ele>
        <time>2013-03-17T11:16:43Z</time>
      </trkpt>
      <trkpt lat="59.905922" lon="17.6469556">
        <ele>26.5736</ele>
        <time>2013-03-17T11:16:44Z</time>
      </trkpt>
      <trkpt lat="59.9059175" lon="17.647047">
        <ele>26.5736</ele>
        <time>2013-03-17T11:16:45Z</time>
      </trkpt>
      <trkpt lat="59.9059153" lon="17.6471403">
        <ele>26.5736</ele>
        <time>2013-03-17T11:16:46Z</time>
      </trkpt>
      <trkpt lat="59.9059162" lon="17.6472354">
        <ele>26.5736</ele>
        <time>2013-03-17T11:16:47Z</time>
      </trkpt>
      <trkpt lat="59.9059199" lon="17.6473313">
        <ele>26.5736</ele>
        <time>2013-03-17T11:16:48Z</time>
      </trkpt>
      <trkpt lat="59.9059253" lon="17.6474276">
        <ele>26.5736</ele>
        <time>2013-03-17T11:16:49Z</time>
      </trkpt>
      <trkpt lat="59.9059325" lon="17.6475247">
        <ele>26.5736</ele>
        <time>2013-03-17T11:16:50Z</time>
      </trkpt>
      <trkpt lat="59.9059412" lon="17.647622">
        <ele>26.5736</ele>
        <time>2013-03-17T11:16:51Z</time>
      </trkpt>
      <trkpt lat="59.9059526" lon="17.6477179">
        <ele>26.5736</ele>
        <time>2013-03-17T11:16:52Z</time>
      </trkpt>
      <trkpt lat="59.9059676" lon="17.6478126">
        <ele>26.5736</ele>
        <time>2013-03-17T11:16:53Z</time>
      </trkpt>
      <trkpt lat="59.9059853" lon="17.6479069">
        <ele>26.5736</ele>
        <time>2013-03-17T11:16:54Z</time>
      </trkpt>
      <trkpt lat="59.9060054" lon="17.6479999">
        <ele>26.5736</ele>
        <time>2013-03-17T11:16:55Z</time>
      </trkpt>
      <trkpt lat="59.9060292" lon="17.6480907">
        <ele>26.5736</ele>
        <time>2013-03-17T11:16:56Z</time>
      </trkpt>
      <trkpt lat="59.9060561" lon="17.6481814">
        <ele>26.5736</ele>
        <time>2013-03-17T11:16:57Z</time>
      </trkpt>
      <trkpt lat="59.9060847" lon="17.648273">
        <ele>26.0929</ele>
        <time>2013-03-17T11:16:58Z</time>
      </trkpt>
      <trkpt lat="59.9061145" lon="17.6483654">
        <ele>26.0929</ele>
        <time>2013-03-17T11:16:59Z</time>
      </trkpt>
      <trkpt lat="59.9061449" lon="17.6484575">
        <ele>26.0929</ele>
        <time>2013-03-17T11:17:00Z</time>
      </trkpt>
      <trkpt lat="59.9061764" lon="17.6485486">
        <ele>26.0929</ele>
        <time>2013-03-17T11:17:01Z</time>
      </trkpt>
      <trkpt lat="59.9062101" lon="17.6486374">
        <ele>26.5736</ele>
        <time>2013-03-17T11:17:02Z</time>
      </trkpt>
      <trkpt lat="59.9062456" lon="17.6487247">
        <ele>26.0929</ele>
        <time>2013-03-17T11:17:03Z</time>
      </trkpt>
      <trkpt lat="59.9062804" lon="17.6488133">
        <ele>26.0929</ele>
        <time>2013-03-17T11:17:04Z</time>
      </trkpt>
      <trkpt lat="59.9063142" lon="17.6489034">
        <ele>26.0929</ele>
        <time>2013-03-17T11:17:05Z</time>
      </trkpt>
      <trkpt lat="59.9063474" lon="17.6489952">
        <ele>26.5736</ele>
        <time>2013-03-17T11:17:06Z</time>
      </trkpt>
      <trkpt lat="59.9063801" lon="17.6490881">
        <ele>26.5736</ele>
        <time>2013-03-17T11:17:07Z</time>
      </trkpt>
      <trkpt lat="59.906412" lon="17.649182">
        <ele>26.5736</ele>
        <time>2013-03-17T11:17:08Z</time>
      </trkpt>
      <trkpt lat="59.9064415" lon="17.6492779">
        <ele>26.5736</ele>
        <time>2013-03-17T11:17:09Z</time>
      </trkpt>
      <trkpt lat="59.906468" lon="17.6493754">
        <ele>26.5736</ele>
        <time>2013-03-17T11:17:10Z</time>
      </trkpt>
      <trkpt lat="59.9064929" lon="17.6494729">
        <ele>27.0543</ele>
        <time>2013-03-17T11:17:11Z</time>
      </trkpt>
      <trkpt lat="59.9065161" lon="17.6495712">
        <ele>27.0543</ele>
        <time>2013-03-17T11:17:12Z</time>
      </trkpt>
      <trkpt lat="59.9065385" lon="17.6496688">
        <ele>27.0543</ele>
        <time>2013-03-17T11:17:13Z</time>
      </trkpt>
      <trkpt lat="59.9065607" lon="17.6497648">
        <ele>27.5349</ele>
        <time>2013-03-17T11:17:14Z</time>
      </trkpt>
      <trkpt lat="59.9065823" lon="17.6498594">
        <ele>27.5349</ele>
        <time>2013-03-17T11:17:15Z</time>
      </trkpt>
      <trkpt lat="59.9066032" lon="17.6499523">
        <ele>27.5349</ele>
        <time>2013-03-17T11:17:16Z</time>
      </trkpt>
      <trkpt lat="59.906623" lon="17.6500433">
        <ele>27.5349</ele>
        <time>2013-03-17T11:17:17Z</time>
      </trkpt>
      <trkpt lat="59.9066426" lon="17.6501342">
        <ele>27.5349</ele>
        <time>2013-03-17T11:17:18Z</time>
      </trkpt>
      <trkpt lat="59.9066632" lon="17.6502253">
        <ele>28.0155</ele>
        <time>2013-03-17T11:17:19Z</time>
      </trkpt>
      <trkpt lat="59.9066845" lon="17.6503167">
        <ele>28.0155</ele>
        <time>2013-03-17T11:17:20Z</time>
      </trkpt>
      <trkpt lat="59.9067063" lon="17.6504095">
        <ele>28.0155</ele>
        <time>2013-03-17T11:17:21Z</time>
      </trkpt>
      <trkpt lat="59.9067286" lon="17.6505045">
        <ele>28.0155</ele>
        <time>2013-03-17T11:17:22Z</time>
      </trkpt>
      <trkpt lat="59.906752" lon="17.6506003">
        <ele>28.0155</ele>
        <time>2013-03-17T11:17:23Z</time>
      </trkpt>
      <trkpt lat="59.9067763" lon="17.6506968">
        <ele>28.0155</ele>
        <time>2013-03-17T11:17:24Z</time>
      </trkpt>
      <trkpt lat="59.9067997" lon="17.6507934">
        <ele>28.4962</ele>
        <time>2013-03-17T11:17:25Z</time>
      </trkpt>
      <trkpt lat="59.9068223" lon="17.6508897">
        <ele>28.4962</ele>
        <time>2013-03-17T11:17:26Z</time>
      </trkpt>
      <trkpt lat="59.9068456" lon="17.6509853">
        <ele>28.4962</ele>
        <time>2013-03-17T11:17:27Z</time>
      </trkpt>
      <trkpt lat="59.9068695" lon="17.6510803">
        <ele>28.4962</ele>
        <time>2013-03-17T11:17:28Z</time>
      </trkpt>
      <trkpt lat="59.9068922" lon="17.6511771">
        <ele>28.4962</ele>
        <time>2013-03-17T11:17:29Z</time>
      </trkpt>
      <trkpt lat="59.9069136" lon="17.6512755">
        <ele>28.4962</ele>
        <time>2013-03-17T11:17:30Z</time>
      </trkpt>
      <trkpt lat="59.9069351" lon="17.6513746">
        <ele>28.4962</ele>
        <time>2013-03-17T11:17:31Z</time>
      </trkpt>
      <trkpt lat="59.9069545" lon="17.6514753">
        <ele>28.4962</ele>
        <time>2013-03-17T11:17:32Z</time>
      </trkpt>
      <trkpt lat="59.9069722" lon="17.651577">
        <ele>28.9769</ele>
        <time>2013-03-17T11:17:33Z</time>
      </trkpt>
      <trkpt lat="59.9069895" lon="17.6516785">
        <ele>28.9769</ele>
        <time>2013-03-17T11:17:34Z</time>
      </trkpt>
      <trkpt lat="59.9070052" lon="17.6517804">
        <ele>28.9769</ele>
        <time>2013-03-17T11:17:35Z</time>
      </trkpt>
      <trkpt lat="59.9070196" lon="17.6518831">
        <ele>28.9769</ele>
        <time>2013-03-17T11:17:36Z</time>
      </trkpt>
      <trkpt lat="59.907033" lon="17.6519867">
        <ele>28.9769</ele>
        <time>2013-03-17T11:17:37Z</time>
      </trkpt>
      <trkpt lat="59.9070446" lon="17.6520929">
        <ele>28.9769</ele>
        <time>2013-03-17T11:17:38Z</time>
      </trkpt>
      <trkpt lat="59.9070538" lon="17.6522017">
        <ele>29.4575</ele>
        <time>2013-03-17T11:17:39Z</time>
      </trkpt>
      <trkpt lat="59.9070606" lon="17.6523121">
        <ele>29.4575</ele>
        <time>2013-03-17T11:17:40Z</time>
      </trkpt>
      <trkpt lat="59.9070662" lon="17.6524245">
        <ele>29.4575</ele>
        <time>2013-03-17T11:17:41Z</time>
      </trkpt>
      <trkpt lat="59.9070704" lon="17.6525387">
        <ele>29.4575</ele>
        <time>2013-03-17T11:17:42Z</time>
      </trkpt>
      <trkpt lat="59.9070737" lon="17.652654">
        <ele>29.4575</ele>
        <time>2013-03-17T11:17:43Z</time>
      </trkpt>
      <trkpt lat="59.9070751" lon="17.6527709">
        <ele>29.4575</ele>
        <time>2013-03-17T11:17:44Z</time>
      </trkpt>
      <trkpt lat="59.9070736" lon="17.6528889">
        <ele>29.9381</ele>
        <time>2013-03-17T11:17:45Z</time>
      </trkpt>
      <trkpt lat="59.907071" lon="17.653007">
        <ele>29.9381</ele>
        <time>2013-03-17T11:17:46Z</time>
      </trkpt>
      <trkpt lat="59.9070675" lon="17.6531247">
        <ele>29.9381</ele>
        <time>2013-03-17T11:17:47Z</time>
      </trkpt>
      <trkpt lat="59.9070637" lon="17.6532418">
        <ele>29.9381</ele>
        <time>2013-03-17T11:17:48Z</time>
      </trkpt>
      <trkpt lat="59.9070601" lon="17.6533593">
        <ele>29.9381</ele>
        <time>2013-03-17T11:17:49Z</time>
      </trkpt>
      <trkpt lat="59.9070564" lon="17.6534772">
        <ele>29.9381</ele>
        <time>2013-03-17T11:17:50Z</time>
      </trkpt>
      <trkpt lat="59.9070516" lon="17.6535936">
        <ele>29.9381</ele>
        <time>2013-03-17T11:17:51Z</time>
      </trkpt>
      <trkpt lat="59.9070482" lon="17.653707">
        <ele>29.9381</ele>
        <time>2013-03-17T11:17:52Z</time>
      </trkpt>
      <trkpt lat="59.9070481" lon="17.653817">
        <ele>29.9381</ele>
        <time>2013-03-17T11:17:53Z</time>
      </trkpt>
      <trkpt lat="59.9070516" lon="17.6539244">
        <ele>29.9381</ele>
        <time>2013-03-17T11:17:54Z</time>
      </trkpt>
      <trkpt lat="59.9070555" lon="17.6540149">
        <ele>29.9381</ele>
        <time>2013-03-17T11:17:55Z</time>
      </trkpt>
      <trkpt lat="59.9070586" lon="17.6540748">
        <ele>29.9381</ele>
        <time>2013-03-17T11:17:56Z</time>
      </trkpt>
      <trkpt lat="59.9070627" lon="17.6541183">
        <ele>29.9381</ele>
        <time>2013-03-17T11:17:57Z</time>
      </trkpt>
      <trkpt lat="59.9070735" lon="17.6542588">
        <ele>29.4575</ele>
        <time>2013-03-17T11:20:47Z</time>
      </trkpt>
      <trkpt lat="59.9070719" lon="17.6542981">
        <ele>29.4575</ele>
        <time>2013-03-17T11:20:48Z</time>
      </trkpt>
      <trkpt lat="59.9070695" lon="17.6543411">
        <ele>29.4575</ele>
        <time>2013-03-17T11:20:49Z</time>
      </trkpt>
      <trkpt lat="59.9070656" lon="17.6543886">
        <ele>29.4575</ele>
        <time>2013-03-17T11:20:50Z</time>
      </trkpt>
      <trkpt lat="59.9070607" lon="17.6544363">
        <ele>29.9381</ele>
        <time>2013-03-17T11:20:51Z</time>
      </trkpt>
      <trkpt lat="59.9070552" lon="17.6544839">
        <ele>29.9381</ele>
        <time>2013-03-17T11:20:52Z</time>
      </trkpt>
      <trkpt lat="59.9070508" lon="17.6545358">
        <ele>29.9381</ele>
        <time>2013-03-17T11:20:53Z</time>
      </trkpt>
      <trkpt lat="59.9070488" lon="17.6545918">
        <ele>29.9381</ele>
        <time>2013-03-17T11:20:54Z</time>
      </trkpt>
      <trkpt lat="59.907046" lon="17.6546549">
        <ele>29.9381</ele>
        <time>2013-03-17T11:20:55Z</time>
      </trkpt>
      <trkpt lat="59.9070409" lon="17.6547261">
        <ele>30.4188</ele>
        <time>2013-03-17T11:20:56Z</time>
      </trkpt>
      <trkpt lat="59.9070347" lon="17.6548052">
        <ele>30.4188</ele>
        <time>2013-03-17T11:20:57Z</time>
      </trkpt>
      <trkpt lat="59.9070285" lon="17.6548891">
        <ele>30.4188</ele>
        <time>2013-03-17T11:20:58Z</time>
      </trkpt>
      <trkpt lat="59.9070249" lon="17.6549763">
        <ele>30.4188</ele>
        <time>2013-03-17T11:20:59Z</time>
      </trkpt>
      <trkpt lat="59.9070236" lon="17.6550669">
        <ele>30.8995</ele>
        <time>2013-03-17T11:21:00Z</time>
      </trkpt>
      <trkpt lat="59.9070217" lon="17.655159">
        <ele>30.8995</ele>
        <time>2013-03-17T11:21:01Z</time>
      </trkpt>
      <trkpt lat="59.9070197" lon="17.6552527">
        <ele>30.8995</ele>
        <time>2013-03-17T11:21:02Z</time>
      </trkpt>
      <trkpt lat="59.90702" lon="17.6553477">
        <ele>31.3801</ele>
        <time>2013-03-17T11:21:03Z</time>
      </trkpt>
      <trkpt lat="59.9070209" lon="17.6554444">
        <ele>31.3801</ele>
        <time>2013-03-17T11:21:04Z</time>
      </trkpt>
      <trkpt lat="59.9070223" lon="17.6555409">
        <ele>31.3801</ele>
        <time>2013-03-17T11:21:05Z</time>
      </trkpt>
      <trkpt lat="59.9070242" lon="17.6556382">
        <ele>31.8607</ele>
        <time>2013-03-17T11:21:06Z</time>
      </trkpt>
      <trkpt lat="59.9070255" lon="17.6557349">
        <ele>31.8607</ele>
        <time>2013-03-17T11:21:07Z</time>
      </trkpt>
      <trkpt lat="59.9070264" lon="17.6558288">
        <ele>31.8607</ele>
        <time>2013-03-17T11:21:08Z</time>
      </trkpt>
      <trkpt lat="59.9070271" lon="17.6559215">
        <ele>32.3416</ele>
        <time>2013-03-17T11:21:09Z</time>
      </trkpt>
      <trkpt lat="59.9070276" lon="17.6560131">
        <ele>32.3416</ele>
        <time>2013-03-17T11:21:10Z</time>
      </trkpt>
      <trkpt lat="59.9070284" lon="17.6561029">
        <ele>32.8223</ele>
        <time>2013-03-17T11:21:11Z</time>
      </trkpt>
      <trkpt lat="59.90703" lon="17.6561907">
        <ele>32.8223</ele>
        <time>2013-03-17T11:21:12Z</time>
      </trkpt>
      <trkpt lat="59.9070316" lon="17.6562765">
        <ele>33.3029</ele>
        <time>2013-03-17T11:21:13Z</time>
      </trkpt>
      <trkpt lat="59.9070341" lon="17.6563603">
        <ele>33.3029</ele>
        <time>2013-03-17T11:21:14Z</time>
      </trkpt>
      <trkpt lat="59.9070383" lon="17.6564436">
        <ele>33.3029</ele>
        <time>2013-03-17T11:21:15Z</time>
      </trkpt>
      <trkpt lat="59.9070435" lon="17.6565271">
        <ele>33.3029</ele>
        <time>2013-03-17T11:21:16Z</time>
      </trkpt>
      <trkpt lat="59.9070504" lon="17.6566101">
        <ele>33.3029</ele>
        <time>2013-03-17T11:21:17Z</time>
      </trkpt>
      <trkpt lat="59.9070586" lon="17.6566939">
        <ele>33.7834</ele>
        <time>2013-03-17T11:21:18Z</time>
      </trkpt>
      <trkpt lat="59.9070674" lon="17.6567794">
        <ele>33.7834</ele>
        <time>2013-03-17T11:21:19Z</time>
      </trkpt>
      <trkpt lat="59.9070763" lon="17.6568657">
        <ele>33.7834</ele>
        <time>2013-03-17T11:21:20Z</time>
      </trkpt>
      <trkpt lat="59.9070865" lon="17.6569529">
        <ele>33.7834</ele>
        <time>2013-03-17T11:21:21Z</time>
      </trkpt>
      <trkpt lat="59.9070995" lon="17.6570405">
        <ele>33.7834</ele>
        <time>2013-03-17T11:21:22Z</time>
      </trkpt>
      <trkpt lat="59.9071146" lon="17.6571297">
        <ele>33.7834</ele>
        <time>2013-03-17T11:21:23Z</time>
      </trkpt>
      <trkpt lat="59.9071288" lon="17.6572212">
        <ele>33.7834</ele>
        <time>2013-03-17T11:21:24Z</time>
      </trkpt>
      <trkpt lat="59.9071435" lon="17.6573138">
        <ele>33.7834</ele>
        <time>2013-03-17T11:21:25Z</time>
      </trkpt>
      <trkpt lat="59.9071597" lon="17.6574072">
        <ele>33.7834</ele>
        <time>2013-03-17T11:21:26Z</time>
      </trkpt>
      <trkpt lat="59.9071751" lon="17.6575029">
        <ele>33.7834</ele>
        <time>2013-03-17T11:21:27Z</time>
      </trkpt>
      <trkpt lat="59.9071896" lon="17.6575994">
        <ele>33.7834</ele>
        <time>2013-03-17T11:21:28Z</time>
      </trkpt>
      <trkpt lat="59.907204" lon="17.6576952">
        <ele>34.2642</ele>
        <time>2013-03-17T11:21:29Z</time>
      </trkpt>
      <trkpt lat="59.9072186" lon="17.6577903">
        <ele>34.2642</ele>
        <time>2013-03-17T11:21:30Z</time>
      </trkpt>
      <trkpt lat="59.9072336" lon="17.6578853">
        <ele>34.2642</ele>
        <time>2013-03-17T11:21:31Z</time>
      </trkpt>
      <trkpt lat="59.9072482" lon="17.6579802">
        <ele>34.2642</ele>
        <time>2013-03-17T11:21:32Z</time>
      </trkpt>
      <trkpt lat="59.9072617" lon="17.6580755">
        <ele>34.2642</ele>
        <time>2013-03-17T11:21:33Z</time>
      </trkpt>
      <trkpt lat="59.9072746" lon="17.6581713">
        <ele>34.7449</ele>
        <time>2013-03-17T11:21:34Z</time>
      </trkpt>
      <trkpt lat="59.9072879" lon="17.6582661">
        <ele>34.7449</ele>
        <time>2013-03-17T11:21:35Z</time>
      </trkpt>
      <trkpt lat="59.9073027" lon="17.6583583">
        <ele>35.2255</ele>
        <time>2013-03-17T11:21:36Z</time>
      </trkpt>
      <trkpt lat="59.907317" lon="17.6584493">
        <ele>35.2255</ele>
        <time>2013-03-17T11:21:37Z</time>
      </trkpt>
      <trkpt lat="59.9073305" lon="17.6585385">
        <ele>35.2255</ele>
        <time>2013-03-17T11:21:38Z</time>
      </trkpt>
      <trkpt lat="59.9073436" lon="17.6586265">
        <ele>35.7061</ele>
        <time>2013-03-17T11:21:39Z</time>
      </trkpt>
      <trkpt lat="59.9073559" lon="17.6587146">
        <ele>35.7061</ele>
        <time>2013-03-17T11:21:40Z</time>
      </trkpt>
      <trkpt lat="59.9073656" lon="17.6588025">
        <ele>35.7061</ele>
        <time>2013-03-17T11:21:41Z</time>
      </trkpt>
      <trkpt lat="59.9073749" lon="17.6588907">
        <ele>35.7061</ele>
        <time>2013-03-17T11:21:42Z</time>
      </trkpt>
      <trkpt lat="59.9073839" lon="17.6589793">
        <ele>35.7061</ele>
        <time>2013-03-17T11:21:43Z</time>
      </trkpt>
      <trkpt lat="59.9073909" lon="17.6590695">
        <ele>35.7061</ele>
        <time>2013-03-17T11:21:44Z</time>
      </trkpt>
      <trkpt lat="59.9073963" lon="17.6591586">
        <ele>36.1868</ele>
        <time>2013-03-17T11:21:45Z</time>
      </trkpt>
      <trkpt lat="59.9074025" lon="17.659244">
        <ele>36.1868</ele>
        <time>2013-03-17T11:21:46Z</time>
      </trkpt>
      <trkpt lat="59.907409" lon="17.6593249">
        <ele>36.1868</ele>
        <time>2013-03-17T11:21:47Z</time>
      </trkpt>
      <trkpt lat="59.907416" lon="17.6594031">
        <ele>36.1868</ele>
        <time>2013-03-17T11:21:48Z</time>
      </trkpt>
      <trkpt lat="59.9074239" lon="17.6594786">
        <ele>36.1868</ele>
        <time>2013-03-17T11:21:49Z</time>
      </trkpt>
      <trkpt lat="59.9074314" lon="17.6595518">
        <ele>36.1868</ele>
        <time>2013-03-17T11:21:50Z</time>
      </trkpt>
      <trkpt lat="59.9074384" lon="17.6596228">
        <ele>36.1868</ele>
        <time>2013-03-17T11:21:51Z</time>
      </trkpt>
      <trkpt lat="59.9074456" lon="17.6596947">
        <ele>35.7061</ele>
        <time>2013-03-17T11:21:52Z</time>
      </trkpt>
      <trkpt lat="59.9074517" lon="17.6597712">
        <ele>35.7061</ele>
        <time>2013-03-17T11:21:53Z</time>
      </trkpt>
      <trkpt lat="59.9074575" lon="17.6598504">
        <ele>35.7061</ele>
        <time>2013-03-17T11:21:54Z</time>
      </trkpt>
      <trkpt lat="59.9074652" lon="17.659931">
        <ele>35.7061</ele>
        <time>2013-03-17T11:21:55Z</time>
      </trkpt>
      <trkpt lat="59.9074754" lon="17.6600119">
        <ele>35.7061</ele>
        <time>2013-03-17T11:21:56Z</time>
      </trkpt>
      <trkpt lat="59.907487" lon="17.6600922">
        <ele>35.7061</ele>
        <time>2013-03-17T11:21:57Z</time>
      </trkpt>
      <trkpt lat="59.9074981" lon="17.6601698">
        <ele>35.7061</ele>
        <time>2013-03-17T11:21:58Z</time>
      </trkpt>
      <trkpt lat="59.9075087" lon="17.6602423">
        <ele>35.7061</ele>
        <time>2013-03-17T11:21:59Z</time>
      </trkpt>
      <trkpt lat="59.9075201" lon="17.6603058">
        <ele>36.1868</ele>
        <time>2013-03-17T11:22:00Z</time>
      </trkpt>
      <trkpt lat="59.907532" lon="17.6603607">
        <ele>36.1868</ele>
        <time>2013-03-17T11:22:01Z</time>
      </trkpt>
      <trkpt lat="59.9075433" lon="17.6604132">
        <ele>36.1868</ele>
        <time>2013-03-17T11:22:02Z</time>
      </trkpt>
      <trkpt lat="59.9075536" lon="17.6604691">
        <ele>36.1868</ele>
        <time>2013-03-17T11:22:03Z</time>
      </trkpt>
      <trkpt lat="59.9075647" lon="17.6605304">
        <ele>36.1868</ele>
        <time>2013-03-17T11:22:04Z</time>
      </trkpt>
      <trkpt lat="59.9075765" lon="17.6605971">
        <ele>36.1868</ele>
        <time>2013-03-17T11:22:05Z</time>
      </trkpt>
      <trkpt lat="59.9075879" lon="17.6606686">
        <ele>36.6675</ele>
        <time>2013-03-17T11:22:06Z</time>
      </trkpt>
      <trkpt lat="59.9075978" lon="17.6607447">
        <ele>36.6675</ele>
        <time>2013-03-17T11:22:07Z</time>
      </trkpt>
      <trkpt lat="59.9076083" lon="17.6608219">
        <ele>36.6675</ele>
        <time>2013-03-17T11:22:08Z</time>
      </trkpt>
      <trkpt lat="59.9076207" lon="17.6609002">
        <ele>36.6675</ele>
        <time>2013-03-17T11:22:09Z</time>
      </trkpt>
      <trkpt lat="59.9076329" lon="17.6609819">
        <ele>36.6675</ele>
        <time>2013-03-17T11:22:10Z</time>
      </trkpt>
      <trkpt lat="59.9076429" lon="17.6610667">
        <ele>36.6675</ele>
        <time>2013-03-17T11:22:11Z</time>
      </trkpt>
      <trkpt lat="59.9076507" lon="17.6611551">
        <ele>36.6675</ele>
        <time>2013-03-17T11:22:12Z</time>
      </trkpt>
      <trkpt lat="59.9076577" lon="17.6612477">
        <ele>36.6675</ele>
        <time>2013-03-17T11:22:13Z</time>
      </trkpt>
      <trkpt lat="59.9076652" lon="17.6613459">
        <ele>36.1868</ele>
        <time>2013-03-17T11:22:14Z</time>
      </trkpt>
      <trkpt lat="59.9076735" lon="17.6614497">
        <ele>36.1868</ele>
        <time>2013-03-17T11:22:15Z</time>
      </trkpt>
      <trkpt lat="59.9076802" lon="17.6615584">
        <ele>36.1868</ele>
        <time>2013-03-17T11:22:16Z</time>
      </trkpt>
      <trkpt lat="59.9076862" lon="17.6616699">
        <ele>35.7061</ele>
        <time>2013-03-17T11:22:17Z</time>
      </trkpt>
      <trkpt lat="59.907693" lon="17.6617832">
        <ele>35.7061</ele>
        <time>2013-03-17T11:22:18Z</time>
      </trkpt>
      <trkpt lat="59.9077019" lon="17.6618984">
        <ele>35.2255</ele>
        <time>2013-03-17T11:22:19Z</time>
      </trkpt>
      <trkpt lat="59.9077129" lon="17.6620149">
        <ele>35.2255</ele>
        <time>2013-03-17T11:22:20Z</time>
      </trkpt>
      <trkpt lat="59.9077251" lon="17.662131">
        <ele>35.2255</ele>
        <time>2013-03-17T11:22:21Z</time>
      </trkpt>
      <trkpt lat="59.907739" lon="17.662247">
        <ele>34.7449</ele>
        <time>2013-03-17T11:22:22Z</time>
      </trkpt>
      <trkpt lat="59.9077542" lon="17.6623636">
        <ele>34.7449</ele>
        <time>2013-03-17T11:22:23Z</time>
      </trkpt>
      <trkpt lat="59.907768" lon="17.6624799">
        <ele>34.7449</ele>
        <time>2013-03-17T11:22:24Z</time>
      </trkpt>
      <trkpt lat="59.9077817" lon="17.6625956">
        <ele>34.7449</ele>
        <time>2013-03-17T11:22:25Z</time>
      </trkpt>
      <trkpt lat="59.9077967" lon="17.6627101">
        <ele>34.7449</ele>
        <time>2013-03-17T11:22:26Z</time>
      </trkpt>
      <trkpt lat="59.9078128" lon="17.6628233">
        <ele>34.7449</ele>
        <time>2013-03-17T11:22:27Z</time>
      </trkpt>
      <trkpt lat="59.9078292" lon="17.6629353">
        <ele>34.7449</ele>
        <time>2013-03-17T11:22:28Z</time>
      </trkpt>
      <trkpt lat="59.9078458" lon="17.6630463">
        <ele>34.7449</ele>
        <time>2013-03-17T11:22:29Z</time>
      </trkpt>
      <trkpt lat="59.9078598" lon="17.6631564">
        <ele>34.7449</ele>
        <time>2013-03-17T11:22:30Z</time>
      </trkpt>
      <trkpt lat="59.9078724" lon="17.6632669">
        <ele>34.7449</ele>
        <time>2013-03-17T11:22:31Z</time>
      </trkpt>
      <trkpt lat="59.9078851" lon="17.6633774">
        <ele>34.7449</ele>
        <time>2013-03-17T11:22:32Z</time>
      </trkpt>
      <trkpt lat="59.907897" lon="17.6634891">
        <ele>34.7449</ele>
        <time>2013-03-17T11:22:33Z</time>
      </trkpt>
      <trkpt lat="59.9079076" lon="17.6636011">
        <ele>34.7449</ele>
        <time>2013-03-17T11:22:34Z</time>
      </trkpt>
      <trkpt lat="59.9079178" lon="17.6637135">
        <ele>34.7449</ele>
        <time>2013-03-17T11:22:35Z</time>
      </trkpt>
      <trkpt lat="59.9079269" lon="17.663827">
        <ele>34.7449</ele>
        <time>2013-03-17T11:22:36Z</time>
      </trkpt>
      <trkpt lat="59.9079345" lon="17.6639415">
        <ele>34.7449</ele>
        <time>2013-03-17T11:22:37Z</time>
      </trkpt>
      <trkpt lat="59.907941" lon="17.6640564">
        <ele>34.7449</ele>
        <time>2013-03-17T11:22:38Z</time>
      </trkpt>
      <trkpt lat="59.9079475" lon="17.6641713">
        <ele>35.2255</ele>
        <time>2013-03-17T11:22:39Z</time>
      </trkpt>
      <trkpt lat="59.9079521" lon="17.6642857">
        <ele>35.2255</ele>
        <time>2013-03-17T11:22:40Z</time>
      </trkpt>
      <trkpt lat="59.9079524" lon="17.6643999">
        <ele>35.2255</ele>
        <time>2013-03-17T11:22:41Z</time>
      </trkpt>
      <trkpt lat="59.9079502" lon="17.6645113">
        <ele>35.2255</ele>
        <time>2013-03-17T11:22:42Z</time>
      </trkpt>
      <trkpt lat="59.9079457" lon="17.6646156">
        <ele>35.2255</ele>
        <time>2013-03-17T11:22:43Z</time>
      </trkpt>
      <trkpt lat="59.9079385" lon="17.6647141">
        <ele>35.2255</ele>
        <time>2013-03-17T11:22:44Z</time>
      </trkpt>
      <trkpt lat="59.9079323" lon="17.6648078">
        <ele>35.7061</ele>
        <time>2013-03-17T11:22:45Z</time>
      </trkpt>
      <trkpt lat="59.9079241" lon="17.6648972">
        <ele>35.7061</ele>
        <time>2013-03-17T11:22:46Z</time>
      </trkpt>
      <trkpt lat="59.9079153" lon="17.6649844">
        <ele>35.7061</ele>
        <time>2013-03-17T11:22:47Z</time>
      </trkpt>
      <trkpt lat="59.9079049" lon="17.6650691">
        <ele>36.1868</ele>
        <time>2013-03-17T11:22:48Z</time>
      </trkpt>
      <trkpt lat="59.9078926" lon="17.6651525">
        <ele>36.1868</ele>
        <time>2013-03-17T11:22:49Z</time>
      </trkpt>
      <trkpt lat="59.9078827" lon="17.6652372">
        <ele>36.1868</ele>
        <time>2013-03-17T11:22:50Z</time>
      </trkpt>
      <trkpt lat="59.9078735" lon="17.665325">
        <ele>36.1868</ele>
        <time>2013-03-17T11:22:51Z</time>
      </trkpt>
      <trkpt lat="59.907866" lon="17.6654137">
        <ele>36.1868</ele>
        <time>2013-03-17T11:22:52Z</time>
      </trkpt>
      <trkpt lat="59.9078603" lon="17.6655057">
        <ele>36.6675</ele>
        <time>2013-03-17T11:22:53Z</time>
      </trkpt>
      <trkpt lat="59.907854" lon="17.665598">
        <ele>37.1481</ele>
        <time>2013-03-17T11:22:54Z</time>
      </trkpt>
      <trkpt lat="59.9078458" lon="17.6656895">
        <ele>37.1481</ele>
        <time>2013-03-17T11:22:55Z</time>
      </trkpt>
      <trkpt lat="59.9078356" lon="17.6657829">
        <ele>37.1481</ele>
        <time>2013-03-17T11:22:56Z</time>
      </trkpt>
      <trkpt lat="59.9078269" lon="17.6658809">
        <ele>37.6287</ele>
        <time>2013-03-17T11:22:57Z</time>
      </trkpt>
      <trkpt lat="59.9078155" lon="17.6659833">
        <ele>37.1481</ele>
        <time>2013-03-17T11:22:58Z</time>
      </trkpt>
      <trkpt lat="59.9078044" lon="17.6660894">
        <ele>37.6287</ele>
        <time>2013-03-17T11:22:59Z</time>
      </trkpt>
      <trkpt lat="59.9077909" lon="17.6661981">
        <ele>37.6287</ele>
        <time>2013-03-17T11:23:00Z</time>
      </trkpt>
      <trkpt lat="59.9077755" lon="17.6663064">
        <ele>37.1481</ele>
        <time>2013-03-17T11:23:01Z</time>
      </trkpt>
      <trkpt lat="59.9077647" lon="17.6664139">
        <ele>37.1481</ele>
        <time>2013-03-17T11:23:02Z</time>
      </trkpt>
      <trkpt lat="59.9077564" lon="17.6665189">
        <ele>37.6287</ele>
        <time>2013-03-17T11:23:03Z</time>
      </trkpt>
      <trkpt lat="59.9077481" lon="17.6666195">
        <ele>37.6287</ele>
        <time>2013-03-17T11:23:04Z</time>
      </trkpt>
      <trkpt lat="59.9077412" lon="17.6667184">
        <ele>37.6287</ele>
        <time>2013-03-17T11:23:05Z</time>
      </trkpt>
      <trkpt lat="59.9077361" lon="17.6668172">
        <ele>37.6287</ele>
        <time>2013-03-17T11:23:06Z</time>
      </trkpt>
      <trkpt lat="59.9077313" lon="17.6669171">
        <ele>37.6287</ele>
        <time>2013-03-17T11:23:07Z</time>
      </trkpt>
      <trkpt lat="59.9077267" lon="17.6670185">
        <ele>37.6287</ele>
        <time>2013-03-17T11:23:08Z</time>
      </trkpt>
      <trkpt lat="59.9077232" lon="17.6671204">
        <ele>37.6287</ele>
        <time>2013-03-17T11:23:09Z</time>
      </trkpt>
      <trkpt lat="59.9077207" lon="17.6672219">
        <ele>37.6287</ele>
        <time>2013-03-17T11:23:10Z</time>
      </trkpt>
      <trkpt lat="59.9077176" lon="17.6673214">
        <ele>37.6287</ele>
        <time>2013-03-17T11:23:11Z</time>
      </trkpt>
      <trkpt lat="59.9077154" lon="17.6674184">
        <ele>37.1481</ele>
        <time>2013-03-17T11:23:12Z</time>
      </trkpt>
      <trkpt lat="59.9077116" lon="17.6675129">
        <ele>37.1481</ele>
        <time>2013-03-17T11:23:13Z</time>
      </trkpt>
      <trkpt lat="59.9077064" lon="17.6676042">
        <ele>37.1481</ele>
        <time>2013-03-17T11:23:14Z</time>
      </trkpt>
      <trkpt lat="59.9077" lon="17.6676917">
        <ele>37.1481</ele>
        <time>2013-03-17T11:23:15Z</time>
      </trkpt>
      <trkpt lat="59.907691" lon="17.6677752">
        <ele>36.6675</ele>
        <time>2013-03-17T11:23:16Z</time>
      </trkpt>
      <trkpt lat="59.9076786" lon="17.6678555">
        <ele>36.6675</ele>
        <time>2013-03-17T11:23:17Z</time>
      </trkpt>
      <trkpt lat="59.907663" lon="17.6679296">
        <ele>36.6675</ele>
        <time>2013-03-17T11:23:18Z</time>
      </trkpt>
      <trkpt lat="59.9076424" lon="17.6679968">
        <ele>36.6675</ele>
        <time>2013-03-17T11:23:19Z</time>
      </trkpt>
      <trkpt lat="59.9076179" lon="17.6680574">
        <ele>36.6675</ele>
        <time>2013-03-17T11:23:20Z</time>
      </trkpt>
      <trkpt lat="59.9075865" lon="17.6681098">
        <ele>36.1868</ele>
        <time>2013-03-17T11:23:21Z</time>
      </trkpt>
      <trkpt lat="59.9075496" lon="17.6681538">
        <ele>35.7061</ele>
        <time>2013-03-17T11:23:22Z</time>
      </trkpt>
      <trkpt lat="59.9075097" lon="17.6681902">
        <ele>35.7061</ele>
        <time>2013-03-17T11:23:23Z</time>
      </trkpt>
      <trkpt lat="59.9074651" lon="17.6682203">
        <ele>35.2255</ele>
        <time>2013-03-17T11:23:24Z</time>
      </trkpt>
      <trkpt lat="59.9074185" lon="17.6682459">
        <ele>34.7449</ele>
        <time>2013-03-17T11:23:25Z</time>
      </trkpt>
      <trkpt lat="59.9073683" lon="17.6682656">
        <ele>34.7449</ele>
        <time>2013-03-17T11:23:26Z</time>
      </trkpt>
      <trkpt lat="59.9073175" lon="17.6682757">
        <ele>34.7449</ele>
        <time>2013-03-17T11:23:27Z</time>
      </trkpt>
      <trkpt lat="59.9072647" lon="17.6682875">
        <ele>34.7449</ele>
        <time>2013-03-17T11:23:28Z</time>
      </trkpt>
      <trkpt lat="59.9072128" lon="17.668302">
        <ele>34.7449</ele>
        <time>2013-03-17T11:23:29Z</time>
      </trkpt>
      <trkpt lat="59.907162" lon="17.6683181">
        <ele>34.7449</ele>
        <time>2013-03-17T11:23:30Z</time>
      </trkpt>
      <trkpt lat="59.9071122" lon="17.6683327">
        <ele>34.7449</ele>
        <time>2013-03-17T11:23:31Z</time>
      </trkpt>
      <trkpt lat="59.9070627" lon="17.6683445">
        <ele>35.2255</ele>
        <time>2013-03-17T11:23:32Z</time>
      </trkpt>
      <trkpt lat="59.907015" lon="17.6683546">
        <ele>35.2255</ele>
        <time>2013-03-17T11:23:33Z</time>
      </trkpt>
      <trkpt lat="59.90697" lon="17.6683652">
        <ele>35.2255</ele>
        <time>2013-03-17T11:23:34Z</time>
      </trkpt>
      <trkpt lat="59.9069257" lon="17.6683781">
        <ele>35.2255</ele>
        <time>2013-03-17T11:23:35Z</time>
      </trkpt>
      <trkpt lat="59.9068836" lon="17.6683945">
        <ele>35.7061</ele>
        <time>2013-03-17T11:23:36Z</time>
      </trkpt>
      <trkpt lat="59.9068425" lon="17.6684132">
        <ele>35.7061</ele>
        <time>2013-03-17T11:23:37Z</time>
      </trkpt>
      <trkpt lat="59.9068005" lon="17.6684305">
        <ele>36.1868</ele>
        <time>2013-03-17T11:23:38Z</time>
      </trkpt>
      <trkpt lat="59.9067595" lon="17.6684481">
        <ele>36.1868</ele>
        <time>2013-03-17T11:23:39Z</time>
      </trkpt>
      <trkpt lat="59.9066753" lon="17.6684771">
        <ele>36.1868</ele>
        <time>2013-03-17T11:23:40Z</time>
      </trkpt>
      <trkpt lat="59.9066333" lon="17.668488">
        <ele>36.1868</ele>
        <time>2013-03-17T11:23:41Z</time>
      </trkpt>
      <trkpt lat="59.9065892" lon="17.6685003">
        <ele>36.1868</ele>
        <time>2013-03-17T11:23:42Z</time>
      </trkpt>
      <trkpt lat="59.9065424" lon="17.6685118">
        <ele>36.1868</ele>
        <time>2013-03-17T11:23:43Z</time>
      </trkpt>
      <trkpt lat="59.906494" lon="17.6685184">
        <ele>35.7061</ele>
        <time>2013-03-17T11:23:44Z</time>
      </trkpt>
      <trkpt lat="59.9064452" lon="17.6685211">
        <ele>35.7061</ele>
        <time>2013-03-17T11:23:45Z</time>
      </trkpt>
      <trkpt lat="59.9063951" lon="17.6685214">
        <ele>35.7061</ele>
        <time>2013-03-17T11:23:46Z</time>
      </trkpt>
      <trkpt lat="59.9063425" lon="17.6685191">
        <ele>35.7061</ele>
        <time>2013-03-17T11:23:47Z</time>
      </trkpt>
      <trkpt lat="59.9062899" lon="17.6685134">
        <ele>35.2255</ele>
        <time>2013-03-17T11:23:48Z</time>
      </trkpt>
      <trkpt lat="59.9062368" lon="17.6685044">
        <ele>35.2255</ele>
        <time>2013-03-17T11:23:49Z</time>
      </trkpt>
      <trkpt lat="59.9061851" lon="17.6684916">
        <ele>34.7449</ele>
        <time>2013-03-17T11:23:50Z</time>
      </trkpt>
      <trkpt lat="59.9061312" lon="17.6684797">
        <ele>34.7449</ele>
        <time>2013-03-17T11:23:51Z</time>
      </trkpt>
      <trkpt lat="59.9060778" lon="17.6684639">
        <ele>34.7449</ele>
        <time>2013-03-17T11:23:52Z</time>
      </trkpt>
      <trkpt lat="59.9060244" lon="17.6684443">
        <ele>34.2642</ele>
        <time>2013-03-17T11:23:53Z</time>
      </trkpt>
      <trkpt lat="59.9059713" lon="17.6684232">
        <ele>34.2642</ele>
        <time>2013-03-17T11:23:54Z</time>
      </trkpt>
      <trkpt lat="59.9059188" lon="17.6684028">
        <ele>34.2642</ele>
        <time>2013-03-17T11:23:55Z</time>
      </trkpt>
      <trkpt lat="59.9058671" lon="17.6683814">
        <ele>34.2642</ele>
        <time>2013-03-17T11:23:56Z</time>
      </trkpt>
      <trkpt lat="59.9058179" lon="17.6683604">
        <ele>34.2642</ele>
        <time>2013-03-17T11:23:57Z</time>
      </trkpt>
      <trkpt lat="59.9057695" lon="17.6683394">
        <ele>33.7834</ele>
        <time>2013-03-17T11:23:58Z</time>
      </trkpt>
      <trkpt lat="59.9057224" lon="17.6683179">
        <ele>33.7834</ele>
        <time>2013-03-17T11:23:59Z</time>
      </trkpt>
      <trkpt lat="59.9056765" lon="17.6682948">
        <ele>33.7834</ele>
        <time>2013-03-17T11:24:00Z</time>
      </trkpt>
      <trkpt lat="59.9056325" lon="17.6682709">
        <ele>33.7834</ele>
        <time>2013-03-17T11:24:01Z</time>
      </trkpt>
      <trkpt lat="59.9055893" lon="17.6682486">
        <ele>33.7834</ele>
        <time>2013-03-17T11:24:02Z</time>
      </trkpt>
      <trkpt lat="59.905547" lon="17.6682268">
        <ele>33.3029</ele>
        <time>2013-03-17T11:24:03Z</time>
      </trkpt>
      <trkpt lat="59.9055056" lon="17.6682062">
        <ele>33.3029</ele>
        <time>2013-03-17T11:24:04Z</time>
      </trkpt>
      <trkpt lat="59.9054663" lon="17.668187">
        <ele>33.3029</ele>
        <time>2013-03-17T11:24:05Z</time>
      </trkpt>
      <trkpt lat="59.9054287" lon="17.6681631">
        <ele>33.3029</ele>
        <time>2013-03-17T11:24:06Z</time>
      </trkpt>
      <trkpt lat="59.9053912" lon="17.6681371">
        <ele>33.3029</ele>
        <time>2013-03-17T11:24:07Z</time>
      </trkpt>
      <trkpt lat="59.9053528" lon="17.6681138">
        <ele>33.3029</ele>
        <time>2013-03-17T11:24:08Z</time>
      </trkpt>
      <trkpt lat="59.9053144" lon="17.6680922">
        <ele>33.3029</ele>
        <time>2013-03-17T11:24:09Z</time>
      </trkpt>
      <trkpt lat="59.9052766" lon="17.6680697">
        <ele>33.3029</ele>
        <time>2013-03-17T11:24:10Z</time>
      </trkpt>
      <trkpt lat="59.9052399" lon="17.668048">
        <ele>33.3029</ele>
        <time>2013-03-17T11:24:11Z</time>
      </trkpt>
      <trkpt lat="59.9052042" lon="17.6680285">
        <ele>33.3029</ele>
        <time>2013-03-17T11:24:12Z</time>
      </trkpt>
      <trkpt lat="59.905169" lon="17.6680102">
        <ele>33.3029</ele>
        <time>2013-03-17T11:24:13Z</time>
      </trkpt>
      <trkpt lat="59.9051353" lon="17.6679913">
        <ele>33.7834</ele>
        <time>2013-03-17T11:24:14Z</time>
      </trkpt>
      <trkpt lat="59.9051047" lon="17.6679736">
        <ele>33.7834</ele>
        <time>2013-03-17T11:24:15Z</time>
      </trkpt>
      <trkpt lat="59.9050781" lon="17.667958">
        <ele>33.7834</ele>
        <time>2013-03-17T11:24:16Z</time>
      </trkpt>
      <trkpt lat="59.905057" lon="17.6679438">
        <ele>33.7834</ele>
        <time>2013-03-17T11:24:17Z</time>
      </trkpt>
      <trkpt lat="59.9050397" lon="17.6679296">
        <ele>33.7834</ele>
        <time>2013-03-17T11:24:18Z</time>
      </trkpt>
      <trkpt lat="59.9050265" lon="17.667918">
        <ele>33.7834</ele>
        <time>2013-03-17T11:24:19Z</time>
      </trkpt>
      <trkpt lat="59.9050192" lon="17.6679187">
        <ele>33.7834</ele>
        <time>2013-03-17T11:24:20Z</time>
      </trkpt>
      <trkpt lat="59.9050212" lon="17.6679359">
        <ele>33.7834</ele>
        <time>2013-03-17T11:24:21Z</time>
      </trkpt>
      <trkpt lat="59.90503" lon="17.6679578">
        <ele>33.7834</ele>
        <time>2013-03-17T11:24:22Z</time>
      </trkpt>
      <trkpt lat="59.9050466" lon="17.667973">
        <ele>33.7834</ele>
        <time>2013-03-17T11:24:23Z</time>
      </trkpt>
      <trkpt lat="59.9050708" lon="17.6679863">
        <ele>33.3029</ele>
        <time>2013-03-17T11:24:24Z</time>
      </trkpt>
      <trkpt lat="59.9050998" lon="17.6680013">
        <ele>33.3029</ele>
        <time>2013-03-17T11:24:25Z</time>
      </trkpt>
      <trkpt lat="59.9051319" lon="17.6680197">
        <ele>33.3029</ele>
        <time>2013-03-17T11:24:26Z</time>
      </trkpt>
      <trkpt lat="59.9051668" lon="17.6680412">
        <ele>32.8223</ele>
        <time>2013-03-17T11:24:27Z</time>
      </trkpt>
      <trkpt lat="59.9052045" lon="17.6680647">
        <ele>32.8223</ele>
        <time>2013-03-17T11:24:28Z</time>
      </trkpt>
      <trkpt lat="59.9052439" lon="17.6680885">
        <ele>32.3416</ele>
        <time>2013-03-17T11:24:29Z</time>
      </trkpt>
      <trkpt lat="59.9052857" lon="17.6681093">
        <ele>31.8607</ele>
        <time>2013-03-17T11:24:30Z</time>
      </trkpt>
      <trkpt lat="59.905328" lon="17.6681285">
        <ele>31.8607</ele>
        <time>2013-03-17T11:24:31Z</time>
      </trkpt>
      <trkpt lat="59.9053722" lon="17.6681502">
        <ele>31.3801</ele>
        <time>2013-03-17T11:24:32Z</time>
      </trkpt>
      <trkpt lat="59.9054165" lon="17.668172">
        <ele>31.3801</ele>
        <time>2013-03-17T11:24:33Z</time>
      </trkpt>
      <trkpt lat="59.9054631" lon="17.6681963">
        <ele>30.8995</ele>
        <time>2013-03-17T11:24:34Z</time>
      </trkpt>
      <trkpt lat="59.905509" lon="17.6682207">
        <ele>30.4188</ele>
        <time>2013-03-17T11:24:35Z</time>
      </trkpt>
      <trkpt lat="59.9055558" lon="17.6682448">
        <ele>29.9381</ele>
        <time>2013-03-17T11:24:36Z</time>
      </trkpt>
      <trkpt lat="59.9056013" lon="17.6682692">
        <ele>29.4575</ele>
        <time>2013-03-17T11:24:37Z</time>
      </trkpt>
      <trkpt lat="59.9056466" lon="17.6682953">
        <ele>28.9769</ele>
        <time>2013-03-17T11:24:38Z</time>
      </trkpt>
      <trkpt lat="59.9056925" lon="17.6683199">
        <ele>28.9769</ele>
        <time>2013-03-17T11:24:39Z</time>
      </trkpt>
      <trkpt lat="59.9057388" lon="17.6683432">
        <ele>28.4962</ele>
        <time>2013-03-17T11:24:40Z</time>
      </trkpt>
      <trkpt lat="59.9057868" lon="17.6683652">
        <ele>28.4962</ele>
        <time>2013-03-17T11:24:41Z</time>
      </trkpt>
      <trkpt lat="59.9058354" lon="17.6683863">
        <ele>28.4962</ele>
        <time>2013-03-17T11:24:42Z</time>
      </trkpt>
      <trkpt lat="59.9058853" lon="17.6684075">
        <ele>28.9769</ele>
        <time>2013-03-17T11:24:43Z</time>
      </trkpt>
      <trkpt lat="59.9059353" lon="17.6684282">
        <ele>28.9769</ele>
        <time>2013-03-17T11:24:44Z</time>
      </trkpt>
      <trkpt lat="59.9059868" lon="17.6684495">
        <ele>29.4575</ele>
        <time>2013-03-17T11:24:45Z</time>
      </trkpt>
      <trkpt lat="59.9060368" lon="17.6684683">
        <ele>29.4575</ele>
        <time>2013-03-17T11:24:46Z</time>
      </trkpt>
      <trkpt lat="59.9060894" lon="17.668486">
        <ele>29.9381</ele>
        <time>2013-03-17T11:24:47Z</time>
      </trkpt>
      <trkpt lat="59.9061386" lon="17.6685038">
        <ele>29.9381</ele>
        <time>2013-03-17T11:24:48Z</time>
      </trkpt>
      <trkpt lat="59.9061866" lon="17.6685204">
        <ele>29.9381</ele>
        <time>2013-03-17T11:24:49Z</time>
      </trkpt>
      <trkpt lat="59.9062339" lon="17.6685336">
        <ele>29.9381</ele>
        <time>2013-03-17T11:24:50Z</time>
      </trkpt>
      <trkpt lat="59.9062803" lon="17.6685439">
        <ele>29.9381</ele>
        <time>2013-03-17T11:24:51Z</time>
      </trkpt>
      <trkpt lat="59.9063269" lon="17.6685531">
        <ele>29.9381</ele>
        <time>2013-03-17T11:24:52Z</time>
      </trkpt>
      <trkpt lat="59.9063744" lon="17.6685615">
        <ele>29.9381</ele>
        <time>2013-03-17T11:24:53Z</time>
      </trkpt>
      <trkpt lat="59.9064234" lon="17.668566">
        <ele>30.4188</ele>
        <time>2013-03-17T11:24:54Z</time>
      </trkpt>
      <trkpt lat="59.9064736" lon="17.6685672">
        <ele>30.4188</ele>
        <time>2013-03-17T11:24:55Z</time>
      </trkpt>
      <trkpt lat="59.9065236" lon="17.6685677">
        <ele>30.4188</ele>
        <time>2013-03-17T11:24:56Z</time>
      </trkpt>
      <trkpt lat="59.9065737" lon="17.6685626">
        <ele>30.4188</ele>
        <time>2013-03-17T11:24:57Z</time>
      </trkpt>
      <trkpt lat="59.9066243" lon="17.6685499">
        <ele>30.4188</ele>
        <time>2013-03-17T11:24:58Z</time>
      </trkpt>
      <trkpt lat="59.9066756" lon="17.6685318">
        <ele>30.4188</ele>
        <time>2013-03-17T11:24:59Z</time>
      </trkpt>
      <trkpt lat="59.9067279" lon="17.6685103">
        <ele>30.4188</ele>
        <time>2013-03-17T11:25:00Z</time>
      </trkpt>
      <trkpt lat="59.9067809" lon="17.6684898">
        <ele>30.4188</ele>
        <time>2013-03-17T11:25:01Z</time>
      </trkpt>
      <trkpt lat="59.9068363" lon="17.6684677">
        <ele>29.9381</ele>
        <time>2013-03-17T11:25:02Z</time>
      </trkpt>
      <trkpt lat="59.9068928" lon="17.6684445">
        <ele>29.9381</ele>
        <time>2013-03-17T11:25:03Z</time>
      </trkpt>
      <trkpt lat="59.9069519" lon="17.6684216">
        <ele>29.4575</ele>
        <time>2013-03-17T11:25:04Z</time>
      </trkpt>
      <trkpt lat="59.9070112" lon="17.6684005">
        <ele>28.9769</ele>
        <time>2013-03-17T11:25:05Z</time>
      </trkpt>
      <trkpt lat="59.9070736" lon="17.6683792">
        <ele>28.9769</ele>
        <time>2013-03-17T11:25:06Z</time>
      </trkpt>
      <trkpt lat="59.9071386" lon="17.6683577">
        <ele>28.4962</ele>
        <time>2013-03-17T11:25:07Z</time>
      </trkpt>
      <trkpt lat="59.9072039" lon="17.6683368">
        <ele>28.4962</ele>
        <time>2013-03-17T11:25:08Z</time>
      </trkpt>
      <trkpt lat="59.9072677" lon="17.6683159">
        <ele>28.4962</ele>
        <time>2013-03-17T11:25:09Z</time>
      </trkpt>
      <trkpt lat="59.9073284" lon="17.6682948">
        <ele>28.4962</ele>
        <time>2013-03-17T11:25:10Z</time>
      </trkpt>
      <trkpt lat="59.9073883" lon="17.6682704">
        <ele>28.4962</ele>
        <time>2013-03-17T11:25:11Z</time>
      </trkpt>
      <trkpt lat="59.907446" lon="17.6682384">
        <ele>28.4962</ele>
        <time>2013-03-17T11:25:12Z</time>
      </trkpt>
      <trkpt lat="59.9075011" lon="17.6681984">
        <ele>28.9769</ele>
        <time>2013-03-17T11:25:13Z</time>
      </trkpt>
      <trkpt lat="59.9075502" lon="17.6681455">
        <ele>29.4575</ele>
        <time>2013-03-17T11:25:14Z</time>
      </trkpt>
      <trkpt lat="59.907593" lon="17.6680811">
        <ele>29.4575</ele>
        <time>2013-03-17T11:25:15Z</time>
      </trkpt>
      <trkpt lat="59.9076284" lon="17.6680053">
        <ele>29.4575</ele>
        <time>2013-03-17T11:25:16Z</time>
      </trkpt>
      <trkpt lat="59.9076553" lon="17.6679171">
        <ele>29.4575</ele>
        <time>2013-03-17T11:25:17Z</time>
      </trkpt>
      <trkpt lat="59.9076744" lon="17.6678187">
        <ele>29.4575</ele>
        <time>2013-03-17T11:25:18Z</time>
      </trkpt>
      <trkpt lat="59.9076867" lon="17.6677154">
        <ele>29.4575</ele>
        <time>2013-03-17T11:25:19Z</time>
      </trkpt>
      <trkpt lat="59.9076953" lon="17.6676108">
        <ele>28.9769</ele>
        <time>2013-03-17T11:25:20Z</time>
      </trkpt>
      <trkpt lat="59.9077028" lon="17.6675075">
        <ele>28.9769</ele>
        <time>2013-03-17T11:25:21Z</time>
      </trkpt>
      <trkpt lat="59.9077131" lon="17.6674069">
        <ele>29.4575</ele>
        <time>2013-03-17T11:25:22Z</time>
      </trkpt>
      <trkpt lat="59.907717" lon="17.6673089">
        <ele>28.9769</ele>
        <time>2013-03-17T11:25:23Z</time>
      </trkpt>
      <trkpt lat="59.9077219" lon="17.6672161">
        <ele>28.4962</ele>
        <time>2013-03-17T11:25:24Z</time>
      </trkpt>
      <trkpt lat="59.9077262" lon="17.6671236">
        <ele>28.4962</ele>
        <time>2013-03-17T11:25:25Z</time>
      </trkpt>
      <trkpt lat="59.9077292" lon="17.6670322">
        <ele>28.0155</ele>
        <time>2013-03-17T11:25:26Z</time>
      </trkpt>
      <trkpt lat="59.907732" lon="17.6669422">
        <ele>27.0543</ele>
        <time>2013-03-17T11:25:27Z</time>
      </trkpt>
      <trkpt lat="59.9077361" lon="17.66685">
        <ele>27.0543</ele>
        <time>2013-03-17T11:25:28Z</time>
      </trkpt>
      <trkpt lat="59.9077407" lon="17.6667576">
        <ele>26.5736</ele>
        <time>2013-03-17T11:25:29Z</time>
      </trkpt>
      <trkpt lat="59.9077454" lon="17.6666635">
        <ele>26.0929</ele>
        <time>2013-03-17T11:25:30Z</time>
      </trkpt>
      <trkpt lat="59.9077506" lon="17.6665671">
        <ele>26.0929</ele>
        <time>2013-03-17T11:25:31Z</time>
      </trkpt>
      <trkpt lat="59.9077578" lon="17.6664672">
        <ele>26.0929</ele>
        <time>2013-03-17T11:25:32Z</time>
      </trkpt>
      <trkpt lat="59.9077666" lon="17.6663639">
        <ele>26.5736</ele>
        <time>2013-03-17T11:25:33Z</time>
      </trkpt>
      <trkpt lat="59.907776" lon="17.6662641">
        <ele>26.5736</ele>
        <time>2013-03-17T11:25:34Z</time>
      </trkpt>
      <trkpt lat="59.9077857" lon="17.6661656">
        <ele>26.0929</ele>
        <time>2013-03-17T11:25:35Z</time>
      </trkpt>
      <trkpt lat="59.9077936" lon="17.6660658">
        <ele>26.0929</ele>
        <time>2013-03-17T11:25:36Z</time>
      </trkpt>
      <trkpt lat="59.9078029" lon="17.6659633">
        <ele>26.0929</ele>
        <time>2013-03-17T11:25:37Z</time>
      </trkpt>
      <trkpt lat="59.9078118" lon="17.6658622">
        <ele>26.0929</ele>
        <time>2013-03-17T11:25:38Z</time>
      </trkpt>
      <trkpt lat="59.9078222" lon="17.6657627">
        <ele>26.5736</ele>
        <time>2013-03-17T11:25:39Z</time>
      </trkpt>
      <trkpt lat="59.907832" lon="17.66567">
        <ele>26.0929</ele>
        <time>2013-03-17T11:25:40Z</time>
      </trkpt>
      <trkpt lat="59.9078432" lon="17.6655768">
        <ele>26.0929</ele>
        <time>2013-03-17T11:25:41Z</time>
      </trkpt>
      <trkpt lat="59.907861" lon="17.6654756">
        <ele>27.0543</ele>
        <time>2013-03-17T11:25:42Z</time>
      </trkpt>
      <trkpt lat="59.9078825" lon="17.6653695">
        <ele>28.0155</ele>
        <time>2013-03-17T11:25:43Z</time>
      </trkpt>
      <trkpt lat="59.9078993" lon="17.6652627">
        <ele>28.9769</ele>
        <time>2013-03-17T11:25:44Z</time>
      </trkpt>
      <trkpt lat="59.9079134" lon="17.6651547">
        <ele>28.9769</ele>
        <time>2013-03-17T11:25:45Z</time>
      </trkpt>
      <trkpt lat="59.9079255" lon="17.6650477">
        <ele>28.4962</ele>
        <time>2013-03-17T11:25:46Z</time>
      </trkpt>
      <trkpt lat="59.9079377" lon="17.6649379">
        <ele>28.4962</ele>
        <time>2013-03-17T11:25:47Z</time>
      </trkpt>
      <trkpt lat="59.907951" lon="17.664829">
        <ele>28.4962</ele>
        <time>2013-03-17T11:25:48Z</time>
      </trkpt>
      <trkpt lat="59.907961" lon="17.6647226">
        <ele>28.0155</ele>
        <time>2013-03-17T11:25:49Z</time>
      </trkpt>
      <trkpt lat="59.9079692" lon="17.6646141">
        <ele>28.4962</ele>
        <time>2013-03-17T11:25:50Z</time>
      </trkpt>
      <trkpt lat="59.9079703" lon="17.6645086">
        <ele>28.0155</ele>
        <time>2013-03-17T11:25:51Z</time>
      </trkpt>
      <trkpt lat="59.9079704" lon="17.6644023">
        <ele>28.0155</ele>
        <time>2013-03-17T11:25:52Z</time>
      </trkpt>
      <trkpt lat="59.9079711" lon="17.6642978">
        <ele>27.5349</ele>
        <time>2013-03-17T11:25:53Z</time>
      </trkpt>
      <trkpt lat="59.9079727" lon="17.6641925">
        <ele>27.5349</ele>
        <time>2013-03-17T11:25:54Z</time>
      </trkpt>
      <trkpt lat="59.9079728" lon="17.6640837">
        <ele>28.0155</ele>
        <time>2013-03-17T11:25:55Z</time>
      </trkpt>
      <trkpt lat="59.9079691" lon="17.6639721">
        <ele>28.0155</ele>
        <time>2013-03-17T11:25:56Z</time>
      </trkpt>
      <trkpt lat="59.9079609" lon="17.6638593">
        <ele>28.4962</ele>
        <time>2013-03-17T11:25:57Z</time>
      </trkpt>
      <trkpt lat="59.9079505" lon="17.6637451">
        <ele>28.4962</ele>
        <time>2013-03-17T11:25:58Z</time>
      </trkpt>
      <trkpt lat="59.907941" lon="17.6636293">
        <ele>28.9769</ele>
        <time>2013-03-17T11:25:59Z</time>
      </trkpt>
      <trkpt lat="59.9079318" lon="17.663514">
        <ele>28.9769</ele>
        <time>2013-03-17T11:26:00Z</time>
      </trkpt>
      <trkpt lat="59.90792" lon="17.6633991">
        <ele>28.9769</ele>
        <time>2013-03-17T11:26:01Z</time>
      </trkpt>
      <trkpt lat="59.9079055" lon="17.6632849">
        <ele>29.4575</ele>
        <time>2013-03-17T11:26:02Z</time>
      </trkpt>
      <trkpt lat="59.90789" lon="17.6631707">
        <ele>29.4575</ele>
        <time>2013-03-17T11:26:03Z</time>
      </trkpt>
      <trkpt lat="59.9078748" lon="17.663056">
        <ele>29.4575</ele>
        <time>2013-03-17T11:26:04Z</time>
      </trkpt>
      <trkpt lat="59.9078589" lon="17.6629386">
        <ele>29.4575</ele>
        <time>2013-03-17T11:26:05Z</time>
      </trkpt>
      <trkpt lat="59.9078426" lon="17.6628179">
        <ele>29.4575</ele>
        <time>2013-03-17T11:26:06Z</time>
      </trkpt>
      <trkpt lat="59.907826" lon="17.6626966">
        <ele>28.9769</ele>
        <time>2013-03-17T11:26:07Z</time>
      </trkpt>
      <trkpt lat="59.9078108" lon="17.6625747">
        <ele>28.9769</ele>
        <time>2013-03-17T11:26:08Z</time>
      </trkpt>
      <trkpt lat="59.9077961" lon="17.662452">
        <ele>28.9769</ele>
        <time>2013-03-17T11:26:09Z</time>
      </trkpt>
      <trkpt lat="59.9077812" lon="17.6623309">
        <ele>29.4575</ele>
        <time>2013-03-17T11:26:10Z</time>
      </trkpt>
      <trkpt lat="59.9077676" lon="17.6622096">
        <ele>29.4575</ele>
        <time>2013-03-17T11:26:11Z</time>
      </trkpt>
      <trkpt lat="59.9077551" lon="17.6620893">
        <ele>29.4575</ele>
        <time>2013-03-17T11:26:12Z</time>
      </trkpt>
      <trkpt lat="59.9077443" lon="17.6619708">
        <ele>29.4575</ele>
        <time>2013-03-17T11:26:13Z</time>
      </trkpt>
      <trkpt lat="59.9077335" lon="17.6618543">
        <ele>29.4575</ele>
        <time>2013-03-17T11:26:14Z</time>
      </trkpt>
      <trkpt lat="59.9077228" lon="17.6617398">
        <ele>29.9381</ele>
        <time>2013-03-17T11:26:15Z</time>
      </trkpt>
      <trkpt lat="59.9077138" lon="17.6616274">
        <ele>29.9381</ele>
        <time>2013-03-17T11:26:16Z</time>
      </trkpt>
      <trkpt lat="59.9077061" lon="17.6615179">
        <ele>29.4575</ele>
        <time>2013-03-17T11:26:17Z</time>
      </trkpt>
      <trkpt lat="59.9076978" lon="17.661413">
        <ele>29.4575</ele>
        <time>2013-03-17T11:26:18Z</time>
      </trkpt>
      <trkpt lat="59.907689" lon="17.6613131">
        <ele>29.4575</ele>
        <time>2013-03-17T11:26:19Z</time>
      </trkpt>
      <trkpt lat="59.9076801" lon="17.6612176">
        <ele>29.4575</ele>
        <time>2013-03-17T11:26:20Z</time>
      </trkpt>
      <trkpt lat="59.9076727" lon="17.6611209">
        <ele>29.9381</ele>
        <time>2013-03-17T11:26:21Z</time>
      </trkpt>
      <trkpt lat="59.9076639" lon="17.6610249">
        <ele>29.9381</ele>
        <time>2013-03-17T11:26:22Z</time>
      </trkpt>
      <trkpt lat="59.9076518" lon="17.6609308">
        <ele>29.9381</ele>
        <time>2013-03-17T11:26:23Z</time>
      </trkpt>
      <trkpt lat="59.9076408" lon="17.6608328">
        <ele>29.9381</ele>
        <time>2013-03-17T11:26:24Z</time>
      </trkpt>
      <trkpt lat="59.9076294" lon="17.6607327">
        <ele>30.4188</ele>
        <time>2013-03-17T11:26:25Z</time>
      </trkpt>
      <trkpt lat="59.9076138" lon="17.6606354">
        <ele>29.9381</ele>
        <time>2013-03-17T11:26:26Z</time>
      </trkpt>
      <trkpt lat="59.9075973" lon="17.6605354">
        <ele>29.9381</ele>
        <time>2013-03-17T11:26:27Z</time>
      </trkpt>
      <trkpt lat="59.9075801" lon="17.6604323">
        <ele>29.4575</ele>
        <time>2013-03-17T11:26:28Z</time>
      </trkpt>
      <trkpt lat="59.9075617" lon="17.6603266">
        <ele>29.4575</ele>
        <time>2013-03-17T11:26:29Z</time>
      </trkpt>
      <trkpt lat="59.9075424" lon="17.6602196">
        <ele>29.4575</ele>
        <time>2013-03-17T11:26:30Z</time>
      </trkpt>
      <trkpt lat="59.9075232" lon="17.6601117">
        <ele>29.4575</ele>
        <time>2013-03-17T11:26:31Z</time>
      </trkpt>
      <trkpt lat="59.9075051" lon="17.6600017">
        <ele>29.4575</ele>
        <time>2013-03-17T11:26:32Z</time>
      </trkpt>
      <trkpt lat="59.907488" lon="17.6598896">
        <ele>28.9769</ele>
        <time>2013-03-17T11:26:33Z</time>
      </trkpt>
      <trkpt lat="59.9074712" lon="17.6597718">
        <ele>29.4575</ele>
        <time>2013-03-17T11:26:34Z</time>
      </trkpt>
      <trkpt lat="59.9074559" lon="17.6596594">
        <ele>29.4575</ele>
        <time>2013-03-17T11:26:35Z</time>
      </trkpt>
      <trkpt lat="59.907447" lon="17.6595404">
        <ele>29.4575</ele>
        <time>2013-03-17T11:26:36Z</time>
      </trkpt>
      <trkpt lat="59.9074372" lon="17.6594358">
        <ele>29.4575</ele>
        <time>2013-03-17T11:26:37Z</time>
      </trkpt>
      <trkpt lat="59.9074284" lon="17.659333">
        <ele>29.4575</ele>
        <time>2013-03-17T11:26:38Z</time>
      </trkpt>
      <trkpt lat="59.9074194" lon="17.6592294">
        <ele>28.9769</ele>
        <time>2013-03-17T11:26:39Z</time>
      </trkpt>
      <trkpt lat="59.9074088" lon="17.6591255">
        <ele>28.4962</ele>
        <time>2013-03-17T11:26:40Z</time>
      </trkpt>
      <trkpt lat="59.9073961" lon="17.659019">
        <ele>28.4962</ele>
        <time>2013-03-17T11:26:41Z</time>
      </trkpt>
      <trkpt lat="59.9073847" lon="17.65891">
        <ele>28.4962</ele>
        <time>2013-03-17T11:26:42Z</time>
      </trkpt>
      <trkpt lat="59.907373" lon="17.6588002">
        <ele>28.4962</ele>
        <time>2013-03-17T11:26:43Z</time>
      </trkpt>
      <trkpt lat="59.90736" lon="17.6586886">
        <ele>28.0155</ele>
        <time>2013-03-17T11:26:44Z</time>
      </trkpt>
      <trkpt lat="59.9073459" lon="17.6585704">
        <ele>28.0155</ele>
        <time>2013-03-17T11:26:45Z</time>
      </trkpt>
      <trkpt lat="59.9073316" lon="17.6584549">
        <ele>28.0155</ele>
        <time>2013-03-17T11:26:46Z</time>
      </trkpt>
      <trkpt lat="59.9073164" lon="17.6583368">
        <ele>27.5349</ele>
        <time>2013-03-17T11:26:47Z</time>
      </trkpt>
      <trkpt lat="59.9073018" lon="17.6582157">
        <ele>27.0543</ele>
        <time>2013-03-17T11:26:48Z</time>
      </trkpt>
      <trkpt lat="59.9072866" lon="17.6580905">
        <ele>27.0543</ele>
        <time>2013-03-17T11:26:49Z</time>
      </trkpt>
      <trkpt lat="59.907271" lon="17.657966">
        <ele>27.0543</ele>
        <time>2013-03-17T11:26:50Z</time>
      </trkpt>
      <trkpt lat="59.9072548" lon="17.6578414">
        <ele>27.0543</ele>
        <time>2013-03-17T11:26:51Z</time>
      </trkpt>
      <trkpt lat="59.9072371" lon="17.6577179">
        <ele>27.0543</ele>
        <time>2013-03-17T11:26:52Z</time>
      </trkpt>
      <trkpt lat="59.9072175" lon="17.6575947">
        <ele>27.0543</ele>
        <time>2013-03-17T11:26:53Z</time>
      </trkpt>
      <trkpt lat="59.9071974" lon="17.6574729">
        <ele>27.5349</ele>
        <time>2013-03-17T11:26:54Z</time>
      </trkpt>
      <trkpt lat="59.907177" lon="17.6573522">
        <ele>27.5349</ele>
        <time>2013-03-17T11:26:55Z</time>
      </trkpt>
      <trkpt lat="59.907157" lon="17.6572321">
        <ele>27.5349</ele>
        <time>2013-03-17T11:26:56Z</time>
      </trkpt>
      <trkpt lat="59.9071383" lon="17.6571119">
        <ele>27.5349</ele>
        <time>2013-03-17T11:26:57Z</time>
      </trkpt>
      <trkpt lat="59.9071218" lon="17.6569931">
        <ele>27.5349</ele>
        <time>2013-03-17T11:26:58Z</time>
      </trkpt>
      <trkpt lat="59.9071074" lon="17.656874">
        <ele>27.5349</ele>
        <time>2013-03-17T11:26:59Z</time>
      </trkpt>
      <trkpt lat="59.9070944" lon="17.6567544">
        <ele>27.5349</ele>
        <time>2013-03-17T11:27:00Z</time>
      </trkpt>
      <trkpt lat="59.9070834" lon="17.6566341">
        <ele>27.5349</ele>
        <time>2013-03-17T11:27:01Z</time>
      </trkpt>
      <trkpt lat="59.9070747" lon="17.6565127">
        <ele>27.5349</ele>
        <time>2013-03-17T11:27:02Z</time>
      </trkpt>
      <trkpt lat="59.9070668" lon="17.6563887">
        <ele>27.5349</ele>
        <time>2013-03-17T11:27:03Z</time>
      </trkpt>
      <trkpt lat="59.9070604" lon="17.656262">
        <ele>27.0543</ele>
        <time>2013-03-17T11:27:04Z</time>
      </trkpt>
      <trkpt lat="59.9070555" lon="17.6561332">
        <ele>27.0543</ele>
        <time>2013-03-17T11:27:05Z</time>
      </trkpt>
      <trkpt lat="59.9070517" lon="17.6560007">
        <ele>26.5736</ele>
        <time>2013-03-17T11:27:06Z</time>
      </trkpt>
      <trkpt lat="59.9070486" lon="17.6558639">
        <ele>26.5736</ele>
        <time>2013-03-17T11:27:07Z</time>
      </trkpt>
      <trkpt lat="59.907046" lon="17.6557241">
        <ele>26.0929</ele>
        <time>2013-03-17T11:27:08Z</time>
      </trkpt>
      <trkpt lat="59.9070431" lon="17.6555813">
        <ele>25.6123</ele>
        <time>2013-03-17T11:27:09Z</time>
      </trkpt>
      <trkpt lat="59.907042" lon="17.6554357">
        <ele>25.6123</ele>
        <time>2013-03-17T11:27:10Z</time>
      </trkpt>
      <trkpt lat="59.9070421" lon="17.6552902">
        <ele>25.1317</ele>
        <time>2013-03-17T11:27:11Z</time>
      </trkpt>
      <trkpt lat="59.9070421" lon="17.6551475">
        <ele>25.1317</ele>
        <time>2013-03-17T11:27:12Z</time>
      </trkpt>
      <trkpt lat="59.9070426" lon="17.6550079">
        <ele>24.651</ele>
        <time>2013-03-17T11:27:13Z</time>
      </trkpt>
      <trkpt lat="59.9070444" lon="17.6548721">
        <ele>24.651</ele>
        <time>2013-03-17T11:27:14Z</time>
      </trkpt>
      <trkpt lat="59.9070467" lon="17.6547405">
        <ele>24.651</ele>
        <time>2013-03-17T11:27:15Z</time>
      </trkpt>
      <trkpt lat="59.9070493" lon="17.654613">
        <ele>24.1703</ele>
        <time>2013-03-17T11:27:16Z</time>
      </trkpt>
      <trkpt lat="59.9070537" lon="17.6544903">
        <ele>24.651</ele>
        <time>2013-03-17T11:27:17Z</time>
      </trkpt>
      <trkpt lat="59.907058" lon="17.6543716">
        <ele>24.651</ele>
        <time>2013-03-17T11:27:18Z</time>
      </trkpt>
      <trkpt lat="59.9070635" lon="17.6542525">
        <ele>24.651</ele>
        <time>2013-03-17T11:27:19Z</time>
      </trkpt>
      <trkpt lat="59.907068" lon="17.6541339">
        <ele>24.651</ele>
        <time>2013-03-17T11:27:20Z</time>
      </trkpt>
      <trkpt lat="59.9070714" lon="17.6540153">
        <ele>25.1317</ele>
        <time>2013-03-17T11:27:21Z</time>
      </trkpt>
      <trkpt lat="59.9070745" lon="17.6538957">
        <ele>25.1317</ele>
        <time>2013-03-17T11:27:22Z</time>
      </trkpt>
      <trkpt lat="59.9070777" lon="17.653777">
        <ele>25.6123</ele>
        <time>2013-03-17T11:27:23Z</time>
      </trkpt>
      <trkpt lat="59.9070802" lon="17.6536594">
        <ele>25.6123</ele>
        <time>2013-03-17T11:27:24Z</time>
      </trkpt>
      <trkpt lat="59.9070819" lon="17.6535416">
        <ele>25.6123</ele>
        <time>2013-03-17T11:27:25Z</time>
      </trkpt>
      <trkpt lat="59.9070839" lon="17.6534232">
        <ele>26.0929</ele>
        <time>2013-03-17T11:27:26Z</time>
      </trkpt>
      <trkpt lat="59.9070865" lon="17.6533046">
        <ele>26.0929</ele>
        <time>2013-03-17T11:27:27Z</time>
      </trkpt>
      <trkpt lat="59.9070901" lon="17.6531853">
        <ele>26.0929</ele>
        <time>2013-03-17T11:27:28Z</time>
      </trkpt>
      <trkpt lat="59.9070954" lon="17.6530643">
        <ele>26.0929</ele>
        <time>2013-03-17T11:27:29Z</time>
      </trkpt>
      <trkpt lat="59.9071021" lon="17.6529424">
        <ele>26.0929</ele>
        <time>2013-03-17T11:27:30Z</time>
      </trkpt>
      <trkpt lat="59.9071077" lon="17.6528211">
        <ele>26.0929</ele>
        <time>2013-03-17T11:27:31Z</time>
      </trkpt>
      <trkpt lat="59.9071107" lon="17.6526995">
        <ele>26.0929</ele>
        <time>2013-03-17T11:27:32Z</time>
      </trkpt>
      <trkpt lat="59.9071107" lon="17.6525766">
        <ele>26.5736</ele>
        <time>2013-03-17T11:27:33Z</time>
      </trkpt>
      <trkpt lat="59.9071087" lon="17.6524529">
        <ele>26.5736</ele>
        <time>2013-03-17T11:27:34Z</time>
      </trkpt>
      <trkpt lat="59.9071036" lon="17.6523281">
        <ele>26.5736</ele>
        <time>2013-03-17T11:27:35Z</time>
      </trkpt>
      <trkpt lat="59.9070953" lon="17.6522028">
        <ele>26.5736</ele>
        <time>2013-03-17T11:27:36Z</time>
      </trkpt>
      <trkpt lat="59.907085" lon="17.6520779">
        <ele>26.0929</ele>
        <time>2013-03-17T11:27:37Z</time>
      </trkpt>
      <trkpt lat="59.907073" lon="17.6519534">
        <ele>26.0929</ele>
        <time>2013-03-17T11:27:38Z</time>
      </trkpt>
      <trkpt lat="59.9070574" lon="17.6518299">
        <ele>26.0929</ele>
        <time>2013-03-17T11:27:39Z</time>
      </trkpt>
      <trkpt lat="59.90704" lon="17.6517068">
        <ele>26.0929</ele>
        <time>2013-03-17T11:27:40Z</time>
      </trkpt>
      <trkpt lat="59.9070213" lon="17.6515832">
        <ele>26.0929</ele>
        <time>2013-03-17T11:27:41Z</time>
      </trkpt>
      <trkpt lat="59.9070001" lon="17.6514603">
        <ele>26.0929</ele>
        <time>2013-03-17T11:27:42Z</time>
      </trkpt>
      <trkpt lat="59.9069758" lon="17.6513392">
        <ele>26.0929</ele>
        <time>2013-03-17T11:27:43Z</time>
      </trkpt>
      <trkpt lat="59.9069492" lon="17.65122">
        <ele>26.0929</ele>
        <time>2013-03-17T11:27:44Z</time>
      </trkpt>
      <trkpt lat="59.9069213" lon="17.6511003">
        <ele>25.6123</ele>
        <time>2013-03-17T11:27:45Z</time>
      </trkpt>
      <trkpt lat="59.9068939" lon="17.6509788">
        <ele>25.6123</ele>
        <time>2013-03-17T11:27:46Z</time>
      </trkpt>
      <trkpt lat="59.9068669" lon="17.650857">
        <ele>25.6123</ele>
        <time>2013-03-17T11:27:47Z</time>
      </trkpt>
      <trkpt lat="59.9068396" lon="17.6507374">
        <ele>25.6123</ele>
        <time>2013-03-17T11:27:48Z</time>
      </trkpt>
      <trkpt lat="59.9068121" lon="17.6506191">
        <ele>25.6123</ele>
        <time>2013-03-17T11:27:49Z</time>
      </trkpt>
      <trkpt lat="59.9067849" lon="17.6504997">
        <ele>25.6123</ele>
        <time>2013-03-17T11:27:50Z</time>
      </trkpt>
      <trkpt lat="59.9067577" lon="17.650379">
        <ele>25.6123</ele>
        <time>2013-03-17T11:27:51Z</time>
      </trkpt>
      <trkpt lat="59.9067307" lon="17.6502592">
        <ele>25.6123</ele>
        <time>2013-03-17T11:27:52Z</time>
      </trkpt>
      <trkpt lat="59.9067027" lon="17.6501414">
        <ele>25.6123</ele>
        <time>2013-03-17T11:27:53Z</time>
      </trkpt>
      <trkpt lat="59.9066747" lon="17.650024">
        <ele>25.6123</ele>
        <time>2013-03-17T11:27:54Z</time>
      </trkpt>
      <trkpt lat="59.9066478" lon="17.6499076">
        <ele>25.1317</ele>
        <time>2013-03-17T11:27:55Z</time>
      </trkpt>
      <trkpt lat="59.9066217" lon="17.6497925">
        <ele>25.1317</ele>
        <time>2013-03-17T11:27:56Z</time>
      </trkpt>
      <trkpt lat="59.9065945" lon="17.6496793">
        <ele>25.1317</ele>
        <time>2013-03-17T11:27:57Z</time>
      </trkpt>
      <trkpt lat="59.9065664" lon="17.6495691">
        <ele>24.651</ele>
        <time>2013-03-17T11:27:58Z</time>
      </trkpt>
      <trkpt lat="59.906538" lon="17.6494614">
        <ele>24.651</ele>
        <time>2013-03-17T11:27:59Z</time>
      </trkpt>
      <trkpt lat="59.9065101" lon="17.649354">
        <ele>24.651</ele>
        <time>2013-03-17T11:28:00Z</time>
      </trkpt>
      <trkpt lat="59.9064815" lon="17.649248">
        <ele>24.651</ele>
        <time>2013-03-17T11:28:01Z</time>
      </trkpt>
      <trkpt lat="59.9064507" lon="17.6491453">
        <ele>24.651</ele>
        <time>2013-03-17T11:28:02Z</time>
      </trkpt>
      <trkpt lat="59.9064174" lon="17.649045">
        <ele>24.1703</ele>
        <time>2013-03-17T11:28:03Z</time>
      </trkpt>
      <trkpt lat="59.9063827" lon="17.6489455">
        <ele>24.1703</ele>
        <time>2013-03-17T11:28:04Z</time>
      </trkpt>
      <trkpt lat="59.9063471" lon="17.6488467">
        <ele>24.1703</ele>
        <time>2013-03-17T11:28:05Z</time>
      </trkpt>
      <trkpt lat="59.9063107" lon="17.6487495">
        <ele>24.1703</ele>
        <time>2013-03-17T11:28:06Z</time>
      </trkpt>
      <trkpt lat="59.9062741" lon="17.6486529">
        <ele>24.1703</ele>
        <time>2013-03-17T11:28:07Z</time>
      </trkpt>
      <trkpt lat="59.9062379" lon="17.6485556">
        <ele>24.1703</ele>
        <time>2013-03-17T11:28:08Z</time>
      </trkpt>
      <trkpt lat="59.9062021" lon="17.6484575">
        <ele>24.1703</ele>
        <time>2013-03-17T11:28:09Z</time>
      </trkpt>
      <trkpt lat="59.9061667" lon="17.6483585">
        <ele>24.1703</ele>
        <time>2013-03-17T11:28:10Z</time>
      </trkpt>
      <trkpt lat="59.9061333" lon="17.6482569">
        <ele>24.1703</ele>
        <time>2013-03-17T11:28:11Z</time>
      </trkpt>
      <trkpt lat="59.9061028" lon="17.6481525">
        <ele>24.651</ele>
        <time>2013-03-17T11:28:12Z</time>
      </trkpt>
      <trkpt lat="59.9060749" lon="17.6480473">
        <ele>24.651</ele>
        <time>2013-03-17T11:28:13Z</time>
      </trkpt>
      <trkpt lat="59.9060494" lon="17.6479414">
        <ele>24.651</ele>
        <time>2013-03-17T11:28:14Z</time>
      </trkpt>
      <trkpt lat="59.9060276" lon="17.6478335">
        <ele>24.651</ele>
        <time>2013-03-17T11:28:15Z</time>
      </trkpt>
      <trkpt lat="59.9060091" lon="17.6477233">
        <ele>24.651</ele>
        <time>2013-03-17T11:28:16Z</time>
      </trkpt>
      <trkpt lat="59.9059926" lon="17.647611">
        <ele>24.651</ele>
        <time>2013-03-17T11:28:17Z</time>
      </trkpt>
      <trkpt lat="59.9059795" lon="17.6474961">
        <ele>24.651</ele>
        <time>2013-03-17T11:28:18Z</time>
      </trkpt>
      <trkpt lat="59.905971" lon="17.6473786">
        <ele>24.651</ele>
        <time>2013-03-17T11:28:19Z</time>
      </trkpt>
      <trkpt lat="59.9059671" lon="17.6472609">
        <ele>24.651</ele>
        <time>2013-03-17T11:28:20Z</time>
      </trkpt>
      <trkpt lat="59.9059662" lon="17.6471445">
        <ele>24.651</ele>
        <time>2013-03-17T11:28:21Z</time>
      </trkpt>
      <trkpt lat="59.9059671" lon="17.6470288">
        <ele>24.651</ele>
        <time>2013-03-17T11:28:22Z</time>
      </trkpt>
      <trkpt lat="59.905971" lon="17.6469123">
        <ele>24.1703</ele>
        <time>2013-03-17T11:28:23Z</time>
      </trkpt>
      <trkpt lat="59.9059781" lon="17.6467954">
        <ele>24.1703</ele>
        <time>2013-03-17T11:28:24Z</time>
      </trkpt>
      <trkpt lat="59.9059883" lon="17.6466803">
        <ele>24.1703</ele>
        <time>2013-03-17T11:28:25Z</time>
      </trkpt>
      <trkpt lat="59.9060008" lon="17.6465658">
        <ele>24.1703</ele>
        <time>2013-03-17T11:28:26Z</time>
      </trkpt>
      <trkpt lat="59.9060142" lon="17.6464517">
        <ele>24.1703</ele>
        <time>2013-03-17T11:28:27Z</time>
      </trkpt>
      <trkpt lat="59.9060276" lon="17.6463379">
        <ele>23.6896</ele>
        <time>2013-03-17T11:28:28Z</time>
      </trkpt>
      <trkpt lat="59.9060407" lon="17.6462259">
        <ele>23.6896</ele>
        <time>2013-03-17T11:28:29Z</time>
      </trkpt>
      <trkpt lat="59.9060553" lon="17.6461159">
        <ele>23.209</ele>
        <time>2013-03-17T11:28:30Z</time>
      </trkpt>
      <trkpt lat="59.9060715" lon="17.6460098">
        <ele>23.209</ele>
        <time>2013-03-17T11:28:31Z</time>
      </trkpt>
      <trkpt lat="59.9060893" lon="17.6459065">
        <ele>23.209</ele>
        <time>2013-03-17T11:28:32Z</time>
      </trkpt>
      <trkpt lat="59.9061071" lon="17.6458051">
        <ele>23.209</ele>
        <time>2013-03-17T11:28:33Z</time>
      </trkpt>
      <trkpt lat="59.9061239" lon="17.6457032">
        <ele>23.209</ele>
        <time>2013-03-17T11:28:34Z</time>
      </trkpt>
      <trkpt lat="59.9061386" lon="17.6455996">
        <ele>22.7283</ele>
        <time>2013-03-17T11:28:35Z</time>
      </trkpt>
      <trkpt lat="59.9061519" lon="17.6454939">
        <ele>22.7283</ele>
        <time>2013-03-17T11:28:36Z</time>
      </trkpt>
      <trkpt lat="59.9061644" lon="17.6453857">
        <ele>22.7283</ele>
        <time>2013-03-17T11:28:37Z</time>
      </trkpt>
      <trkpt lat="59.9061743" lon="17.6452738">
        <ele>22.7283</ele>
        <time>2013-03-17T11:28:38Z</time>
      </trkpt>
      <trkpt lat="59.9061811" lon="17.6451573">
        <ele>22.2476</ele>
        <time>2013-03-17T11:28:39Z</time>
      </trkpt>
      <trkpt lat="59.9061841" lon="17.6450376">
        <ele>22.2476</ele>
        <time>2013-03-17T11:28:40Z</time>
      </trkpt>
      <trkpt lat="59.9061821" lon="17.644917">
        <ele>21.767</ele>
        <time>2013-03-17T11:28:41Z</time>
      </trkpt>
      <trkpt lat="59.9061749" lon="17.6447973">
        <ele>21.767</ele>
        <time>2013-03-17T11:28:42Z</time>
      </trkpt>
      <trkpt lat="59.906163" lon="17.6446798">
        <ele>21.2864</ele>
        <time>2013-03-17T11:28:43Z</time>
      </trkpt>
      <trkpt lat="59.9061467" lon="17.6445657">
        <ele>21.2864</ele>
        <time>2013-03-17T11:28:44Z</time>
      </trkpt>
      <trkpt lat="59.9061261" lon="17.6444557">
        <ele>21.2864</ele>
        <time>2013-03-17T11:28:45Z</time>
      </trkpt>
      <trkpt lat="59.9061011" lon="17.6443503">
        <ele>21.2864</ele>
        <time>2013-03-17T11:28:46Z</time>
      </trkpt>
      <trkpt lat="59.9060733" lon="17.644249">
        <ele>21.2864</ele>
        <time>2013-03-17T11:28:47Z</time>
      </trkpt>
      <trkpt lat="59.9060449" lon="17.6441503">
        <ele>21.2864</ele>
        <time>2013-03-17T11:28:48Z</time>
      </trkpt>
      <trkpt lat="59.9060163" lon="17.6440529">
        <ele>20.8057</ele>
        <time>2013-03-17T11:28:49Z</time>
      </trkpt>
      <trkpt lat="59.9059873" lon="17.6439556">
        <ele>20.8057</ele>
        <time>2013-03-17T11:28:50Z</time>
      </trkpt>
      <trkpt lat="59.9059597" lon="17.6438579">
        <ele>20.8057</ele>
        <time>2013-03-17T11:28:51Z</time>
      </trkpt>
      <trkpt lat="59.9059327" lon="17.6437623">
        <ele>20.8057</ele>
        <time>2013-03-17T11:28:52Z</time>
      </trkpt>
      <trkpt lat="59.9059071" lon="17.6436711">
        <ele>20.8057</ele>
        <time>2013-03-17T11:28:53Z</time>
      </trkpt>
      <trkpt lat="59.9058875" lon="17.6435845">
        <ele>20.8057</ele>
        <time>2013-03-17T11:28:54Z</time>
      </trkpt>
      <trkpt lat="59.9058754" lon="17.6435068">
        <ele>20.8057</ele>
        <time>2013-03-17T11:28:55Z</time>
      </trkpt>
      <trkpt lat="59.9058707" lon="17.6434391">
        <ele>21.2864</ele>
        <time>2013-03-17T11:28:56Z</time>
      </trkpt>
      <trkpt lat="59.9058707" lon="17.6433877">
        <ele>21.2864</ele>
        <time>2013-03-17T11:28:57Z</time>
      </trkpt>
      <trkpt lat="59.9058702" lon="17.6433515">
        <ele>21.2864</ele>
        <time>2013-03-17T11:28:58Z</time>
      </trkpt>
      <trkpt lat="59.9058651" lon="17.6433275">
        <ele>21.2864</ele>
        <time>2013-03-17T11:28:59Z</time>
      </trkpt>
      <trkpt lat="59.9058555" lon="17.6433147">
        <ele>21.2864</ele>
        <time>2013-03-17T11:29:00Z</time>
      </trkpt>
      <trkpt lat="59.9058434" lon="17.6433143">
        <ele>21.767</ele>
        <time>2013-03-17T11:29:01Z</time>
      </trkpt>
      <trkpt lat="59.9058359" lon="17.6433309">
        <ele>21.767</ele>
        <time>2013-03-17T11:29:02Z</time>
      </trkpt>
      <trkpt lat="59.9058392" lon="17.6433584">
        <ele>21.767</ele>
        <time>2013-03-17T11:29:03Z</time>
      </trkpt>
      <trkpt lat="59.9058515" lon="17.6433752">
        <ele>21.767</ele>
        <time>2013-03-17T11:29:04Z</time>
      </trkpt>
      <trkpt lat="59.9058671" lon="17.6433759">
        <ele>21.767</ele>
        <time>2013-03-17T11:29:05Z</time>
      </trkpt>
      <trkpt lat="59.905883" lon="17.6433629">
        <ele>21.767</ele>
        <time>2013-03-17T11:29:06Z</time>
      </trkpt>
      <trkpt lat="59.9058985" lon="17.6433385">
        <ele>21.767</ele>
        <time>2013-03-17T11:29:07Z</time>
      </trkpt>
      <trkpt lat="59.9059174" lon="17.6433163">
        <ele>21.767</ele>
        <time>2013-03-17T11:29:08Z</time>
      </trkpt>
      <trkpt lat="59.9059417" lon="17.6433055">
        <ele>21.767</ele>
        <time>2013-03-17T11:29:09Z</time>
      </trkpt>
      <trkpt lat="59.9059718" lon="17.643306">
        <ele>21.2864</ele>
        <time>2013-03-17T11:29:10Z</time>
      </trkpt>
      <trkpt lat="59.9060065" lon="17.6433156">
        <ele>21.2864</ele>
        <time>2013-03-17T11:29:11Z</time>
      </trkpt>
      <trkpt lat="59.9060421" lon="17.6433344">
        <ele>21.2864</ele>
        <time>2013-03-17T11:29:12Z</time>
      </trkpt>
      <trkpt lat="59.906079" lon="17.6433572">
        <ele>21.2864</ele>
        <time>2013-03-17T11:29:13Z</time>
      </trkpt>
      <trkpt lat="59.9061171" lon="17.643379">
        <ele>21.2864</ele>
        <time>2013-03-17T11:29:14Z</time>
      </trkpt>
      <trkpt lat="59.9061575" lon="17.6433995">
        <ele>21.2864</ele>
        <time>2013-03-17T11:29:15Z</time>
      </trkpt>
      <trkpt lat="59.906201" lon="17.6434197">
        <ele>21.2864</ele>
        <time>2013-03-17T11:29:16Z</time>
      </trkpt>
      <trkpt lat="59.9062458" lon="17.6434401">
        <ele>21.2864</ele>
        <time>2013-03-17T11:29:17Z</time>
      </trkpt>
      <trkpt lat="59.9062909" lon="17.6434597">
        <ele>21.2864</ele>
        <time>2013-03-17T11:29:18Z</time>
      </trkpt>
      <trkpt lat="59.9063365" lon="17.6434784">
        <ele>21.2864</ele>
        <time>2013-03-17T11:29:19Z</time>
      </trkpt>
      <trkpt lat="59.9063831" lon="17.6434966">
        <ele>21.2864</ele>
        <time>2013-03-17T11:29:20Z</time>
      </trkpt>
      <trkpt lat="59.9064295" lon="17.643514">
        <ele>21.2864</ele>
        <time>2013-03-17T11:29:21Z</time>
      </trkpt>
      <trkpt lat="59.9064768" lon="17.6435293">
        <ele>21.767</ele>
        <time>2013-03-17T11:29:22Z</time>
      </trkpt>
      <trkpt lat="59.9065243" lon="17.6435436">
        <ele>21.767</ele>
        <time>2013-03-17T11:29:23Z</time>
      </trkpt>
      <trkpt lat="59.9065723" lon="17.6435587">
        <ele>21.767</ele>
        <time>2013-03-17T11:29:24Z</time>
      </trkpt>
      <trkpt lat="59.9066212" lon="17.6435743">
        <ele>22.2476</ele>
        <time>2013-03-17T11:29:25Z</time>
      </trkpt>
      <trkpt lat="59.9066694" lon="17.6435898">
        <ele>22.2476</ele>
        <time>2013-03-17T11:29:26Z</time>
      </trkpt>
      <trkpt lat="59.9067165" lon="17.6436069">
        <ele>22.2476</ele>
        <time>2013-03-17T11:29:27Z</time>
      </trkpt>
      <trkpt lat="59.9067634" lon="17.6436226">
        <ele>22.7283</ele>
        <time>2013-03-17T11:29:28Z</time>
      </trkpt>
      <trkpt lat="59.9068113" lon="17.6436355">
        <ele>22.7283</ele>
        <time>2013-03-17T11:29:29Z</time>
      </trkpt>
      <trkpt lat="59.9068596" lon="17.6436492">
        <ele>23.209</ele>
        <time>2013-03-17T11:29:30Z</time>
      </trkpt>
      <trkpt lat="59.9069079" lon="17.6436642">
        <ele>23.209</ele>
        <time>2013-03-17T11:29:31Z</time>
      </trkpt>
      <trkpt lat="59.9069561" lon="17.6436795">
        <ele>23.209</ele>
        <time>2013-03-17T11:29:32Z</time>
      </trkpt>
      <trkpt lat="59.9070042" lon="17.6436938">
        <ele>23.6896</ele>
        <time>2013-03-17T11:29:33Z</time>
      </trkpt>
      <trkpt lat="59.9070527" lon="17.6437054">
        <ele>23.6896</ele>
        <time>2013-03-17T11:29:34Z</time>
      </trkpt>
      <trkpt lat="59.9071014" lon="17.6437162">
        <ele>23.6896</ele>
        <time>2013-03-17T11:29:35Z</time>
      </trkpt>
      <trkpt lat="59.9071508" lon="17.6437286">
        <ele>24.1703</ele>
        <time>2013-03-17T11:29:36Z</time>
      </trkpt>
      <trkpt lat="59.9072005" lon="17.6437421">
        <ele>24.1703</ele>
        <time>2013-03-17T11:29:37Z</time>
      </trkpt>
      <trkpt lat="59.90725" lon="17.6437548">
        <ele>24.1703</ele>
        <time>2013-03-17T11:29:38Z</time>
      </trkpt>
      <trkpt lat="59.9072997" lon="17.6437644">
        <ele>24.1703</ele>
        <time>2013-03-17T11:29:39Z</time>
      </trkpt>
      <trkpt lat="59.9073496" lon="17.6437757">
        <ele>24.651</ele>
        <time>2013-03-17T11:29:40Z</time>
      </trkpt>
      <trkpt lat="59.9073998" lon="17.6437892">
        <ele>24.651</ele>
        <time>2013-03-17T11:29:41Z</time>
      </trkpt>
      <trkpt lat="59.90745" lon="17.6438009">
        <ele>24.651</ele>
        <time>2013-03-17T11:29:42Z</time>
      </trkpt>
      <trkpt lat="59.9075009" lon="17.6438113">
        <ele>24.651</ele>
        <time>2013-03-17T11:29:43Z</time>
      </trkpt>
      <trkpt lat="59.9075527" lon="17.6438208">
        <ele>25.1317</ele>
        <time>2013-03-17T11:29:44Z</time>
      </trkpt>
      <trkpt lat="59.9076064" lon="17.6438295">
        <ele>25.1317</ele>
        <time>2013-03-17T11:29:45Z</time>
      </trkpt>
      <trkpt lat="59.9076615" lon="17.6438386">
        <ele>25.1317</ele>
        <time>2013-03-17T11:29:46Z</time>
      </trkpt>
      <trkpt lat="59.9077174" lon="17.6438491">
        <ele>25.6123</ele>
        <time>2013-03-17T11:29:47Z</time>
      </trkpt>
      <trkpt lat="59.9077735" lon="17.6438584">
        <ele>25.6123</ele>
        <time>2013-03-17T11:29:48Z</time>
      </trkpt>
      <trkpt lat="59.9078303" lon="17.6438657">
        <ele>25.6123</ele>
        <time>2013-03-17T11:29:49Z</time>
      </trkpt>
      <trkpt lat="59.9078872" lon="17.6438725">
        <ele>25.6123</ele>
        <time>2013-03-17T11:29:50Z</time>
      </trkpt>
      <trkpt lat="59.9079436" lon="17.6438782">
        <ele>25.6123</ele>
        <time>2013-03-17T11:29:51Z</time>
      </trkpt>
      <trkpt lat="59.9079998" lon="17.6438821">
        <ele>25.6123</ele>
        <time>2013-03-17T11:29:52Z</time>
      </trkpt>
      <trkpt lat="59.9080563" lon="17.643887">
        <ele>26.0929</ele>
        <time>2013-03-17T11:29:53Z</time>
      </trkpt>
      <trkpt lat="59.908113" lon="17.6438932">
        <ele>26.0929</ele>
        <time>2013-03-17T11:29:54Z</time>
      </trkpt>
      <trkpt lat="59.9081701" lon="17.6438999">
        <ele>26.0929</ele>
        <time>2013-03-17T11:29:55Z</time>
      </trkpt>
      <trkpt lat="59.9082271" lon="17.6439062">
        <ele>26.0929</ele>
        <time>2013-03-17T11:29:56Z</time>
      </trkpt>
      <trkpt lat="59.9082837" lon="17.6439113">
        <ele>26.0929</ele>
        <time>2013-03-17T11:29:57Z</time>
      </trkpt>
      <trkpt lat="59.9083413" lon="17.6439161">
        <ele>26.0929</ele>
        <time>2013-03-17T11:29:58Z</time>
      </trkpt>
      <trkpt lat="59.9084001" lon="17.6439197">
        <ele>26.0929</ele>
        <time>2013-03-17T11:29:59Z</time>
      </trkpt>
      <trkpt lat="59.9084586" lon="17.6439214">
        <ele>26.0929</ele>
        <time>2013-03-17T11:30:00Z</time>
      </trkpt>
      <trkpt lat="59.9085173" lon="17.6439232">
        <ele>26.0929</ele>
        <time>2013-03-17T11:30:01Z</time>
      </trkpt>
      <trkpt lat="59.9085758" lon="17.6439246">
        <ele>26.0929</ele>
        <time>2013-03-17T11:30:02Z</time>
      </trkpt>
      <trkpt lat="59.9086347" lon="17.6439251">
        <ele>26.5736</ele>
        <time>2013-03-17T11:30:03Z</time>
      </trkpt>
      <trkpt lat="59.9086943" lon="17.6439251">
        <ele>26.5736</ele>
        <time>2013-03-17T11:30:04Z</time>
      </trkpt>
      <trkpt lat="59.9087534" lon="17.6439255">
        <ele>26.5736</ele>
        <time>2013-03-17T11:30:05Z</time>
      </trkpt>
      <trkpt lat="59.9088127" lon="17.6439259">
        <ele>26.5736</ele>
        <time>2013-03-17T11:30:06Z</time>
      </trkpt>
      <trkpt lat="59.9088722" lon="17.6439255">
        <ele>26.5736</ele>
        <time>2013-03-17T11:30:07Z</time>
      </trkpt>
      <trkpt lat="59.9089317" lon="17.6439251">
        <ele>26.5736</ele>
        <time>2013-03-17T11:30:08Z</time>
      </trkpt>
      <trkpt lat="59.9089912" lon="17.6439242">
        <ele>26.5736</ele>
        <time>2013-03-17T11:30:09Z</time>
      </trkpt>
      <trkpt lat="59.9090513" lon="17.6439219">
        <ele>26.5736</ele>
        <time>2013-03-17T11:30:10Z</time>
      </trkpt>
      <trkpt lat="59.9091114" lon="17.6439178">
        <ele>27.0543</ele>
        <time>2013-03-17T11:30:11Z</time>
      </trkpt>
      <trkpt lat="59.909172" lon="17.6439134">
        <ele>27.0543</ele>
        <time>2013-03-17T11:30:12Z</time>
      </trkpt>
      <trkpt lat="59.9092326" lon="17.6439105">
        <ele>27.0543</ele>
        <time>2013-03-17T11:30:13Z</time>
      </trkpt>
      <trkpt lat="59.9092936" lon="17.6439099">
        <ele>27.0543</ele>
        <time>2013-03-17T11:30:14Z</time>
      </trkpt>
      <trkpt lat="59.9093547" lon="17.6439082">
        <ele>27.0543</ele>
        <time>2013-03-17T11:30:15Z</time>
      </trkpt>
      <trkpt lat="59.909416" lon="17.643903">
        <ele>27.0543</ele>
        <time>2013-03-17T11:30:16Z</time>
      </trkpt>
      <trkpt lat="59.9094778" lon="17.6438942">
        <ele>27.0543</ele>
        <time>2013-03-17T11:30:17Z</time>
      </trkpt>
      <trkpt lat="59.9095407" lon="17.6438849">
        <ele>27.0543</ele>
        <time>2013-03-17T11:30:18Z</time>
      </trkpt>
      <trkpt lat="59.9096046" lon="17.6438788">
        <ele>27.0543</ele>
        <time>2013-03-17T11:30:19Z</time>
      </trkpt>
      <trkpt lat="59.9096692" lon="17.6438737">
        <ele>27.0543</ele>
        <time>2013-03-17T11:30:20Z</time>
      </trkpt>
      <trkpt lat="59.9097345" lon="17.6438652">
        <ele>27.0543</ele>
        <time>2013-03-17T11:30:21Z</time>
      </trkpt>
      <trkpt lat="59.9098002" lon="17.6438531">
        <ele>27.0543</ele>
        <time>2013-03-17T11:30:22Z</time>
      </trkpt>
      <trkpt lat="59.9098665" lon="17.6438412">
        <ele>27.5349</ele>
        <time>2013-03-17T11:30:23Z</time>
      </trkpt>
      <trkpt lat="59.9099339" lon="17.6438315">
        <ele>27.5349</ele>
        <time>2013-03-17T11:30:24Z</time>
      </trkpt>
      <trkpt lat="59.9100019" lon="17.643822">
        <ele>27.5349</ele>
        <time>2013-03-17T11:30:25Z</time>
      </trkpt>
      <trkpt lat="59.9100698" lon="17.6438105">
        <ele>27.5349</ele>
        <time>2013-03-17T11:30:26Z</time>
      </trkpt>
      <trkpt lat="59.9101388" lon="17.6437986">
        <ele>27.5349</ele>
        <time>2013-03-17T11:30:27Z</time>
      </trkpt>
      <trkpt lat="59.9102082" lon="17.6437875">
        <ele>27.5349</ele>
        <time>2013-03-17T11:30:28Z</time>
      </trkpt>
      <trkpt lat="59.9102781" lon="17.6437756">
        <ele>27.5349</ele>
        <time>2013-03-17T11:30:29Z</time>
      </trkpt>
      <trkpt lat="59.9103482" lon="17.6437613">
        <ele>27.5349</ele>
        <time>2013-03-17T11:30:30Z</time>
      </trkpt>
      <trkpt lat="59.9104183" lon="17.6437473">
        <ele>27.5349</ele>
        <time>2013-03-17T11:30:31Z</time>
      </trkpt>
      <trkpt lat="59.9104883" lon="17.6437338">
        <ele>27.5349</ele>
        <time>2013-03-17T11:30:32Z</time>
      </trkpt>
      <trkpt lat="59.9105587" lon="17.6437187">
        <ele>27.5349</ele>
        <time>2013-03-17T11:30:33Z</time>
      </trkpt>
      <trkpt lat="59.910629" lon="17.6437039">
        <ele>27.5349</ele>
        <time>2013-03-17T11:30:34Z</time>
      </trkpt>
      <trkpt lat="59.9106995" lon="17.6436908">
        <ele>27.5349</ele>
        <time>2013-03-17T11:30:35Z</time>
      </trkpt>
      <trkpt lat="59.9107697" lon="17.6436764">
        <ele>27.5349</ele>
        <time>2013-03-17T11:30:36Z</time>
      </trkpt>
      <trkpt lat="59.9108403" lon="17.6436619">
        <ele>27.5349</ele>
        <time>2013-03-17T11:30:37Z</time>
      </trkpt>
      <trkpt lat="59.9109105" lon="17.6436481">
        <ele>27.5349</ele>
        <time>2013-03-17T11:30:38Z</time>
      </trkpt>
      <trkpt lat="59.9109804" lon="17.6436355">
        <ele>27.5349</ele>
        <time>2013-03-17T11:30:39Z</time>
      </trkpt>
      <trkpt lat="59.9110503" lon="17.6436223">
        <ele>27.5349</ele>
        <time>2013-03-17T11:30:40Z</time>
      </trkpt>
      <trkpt lat="59.9111198" lon="17.6436075">
        <ele>28.0155</ele>
        <time>2013-03-17T11:30:41Z</time>
      </trkpt>
      <trkpt lat="59.9111892" lon="17.6435918">
        <ele>28.0155</ele>
        <time>2013-03-17T11:30:42Z</time>
      </trkpt>
      <trkpt lat="59.9112586" lon="17.6435744">
        <ele>28.0155</ele>
        <time>2013-03-17T11:30:43Z</time>
      </trkpt>
      <trkpt lat="59.9113283" lon="17.6435602">
        <ele>27.5349</ele>
        <time>2013-03-17T11:30:44Z</time>
      </trkpt>
      <trkpt lat="59.9113984" lon="17.6435489">
        <ele>27.5349</ele>
        <time>2013-03-17T11:30:45Z</time>
      </trkpt>
      <trkpt lat="59.9114678" lon="17.6435365">
        <ele>27.5349</ele>
        <time>2013-03-17T11:30:46Z</time>
      </trkpt>
      <trkpt lat="59.9115371" lon="17.6435229">
        <ele>27.5349</ele>
        <time>2013-03-17T11:30:47Z</time>
      </trkpt>
      <trkpt lat="59.9116063" lon="17.6435085">
        <ele>27.5349</ele>
        <time>2013-03-17T11:30:48Z</time>
      </trkpt>
      <trkpt lat="59.9116761" lon="17.6434934">
        <ele>27.5349</ele>
        <time>2013-03-17T11:30:49Z</time>
      </trkpt>
      <trkpt lat="59.9117454" lon="17.643479">
        <ele>27.5349</ele>
        <time>2013-03-17T11:30:50Z</time>
      </trkpt>
      <trkpt lat="59.9118154" lon="17.643467">
        <ele>27.5349</ele>
        <time>2013-03-17T11:30:51Z</time>
      </trkpt>
      <trkpt lat="59.9118855" lon="17.6434557">
        <ele>27.5349</ele>
        <time>2013-03-17T11:30:52Z</time>
      </trkpt>
      <trkpt lat="59.9119552" lon="17.6434427">
        <ele>27.5349</ele>
        <time>2013-03-17T11:30:53Z</time>
      </trkpt>
      <trkpt lat="59.9120251" lon="17.6434273">
        <ele>27.5349</ele>
        <time>2013-03-17T11:30:54Z</time>
      </trkpt>
      <trkpt lat="59.9120952" lon="17.6434112">
        <ele>27.5349</ele>
        <time>2013-03-17T11:30:55Z</time>
      </trkpt>
      <trkpt lat="59.9121654" lon="17.6433962">
        <ele>27.5349</ele>
        <time>2013-03-17T11:30:56Z</time>
      </trkpt>
      <trkpt lat="59.9122356" lon="17.6433831">
        <ele>27.5349</ele>
        <time>2013-03-17T11:30:57Z</time>
      </trkpt>
      <trkpt lat="59.9123058" lon="17.6433712">
        <ele>27.5349</ele>
        <time>2013-03-17T11:30:58Z</time>
      </trkpt>
      <trkpt lat="59.9123768" lon="17.6433588">
        <ele>27.5349</ele>
        <time>2013-03-17T11:30:59Z</time>
      </trkpt>
      <trkpt lat="59.9124467" lon="17.6433395">
        <ele>27.5349</ele>
        <time>2013-03-17T11:31:00Z</time>
      </trkpt>
      <trkpt lat="59.9125154" lon="17.6433073">
        <ele>27.5349</ele>
        <time>2013-03-17T11:31:01Z</time>
      </trkpt>
      <trkpt lat="59.9125824" lon="17.6432696">
        <ele>27.5349</ele>
        <time>2013-03-17T11:31:02Z</time>
      </trkpt>
      <trkpt lat="59.9126494" lon="17.6432309">
        <ele>27.5349</ele>
        <time>2013-03-17T11:31:03Z</time>
      </trkpt>
      <trkpt lat="59.9127193" lon="17.6431964">
        <ele>27.0543</ele>
        <time>2013-03-17T11:31:04Z</time>
      </trkpt>
      <trkpt lat="59.9127891" lon="17.6431666">
        <ele>27.0543</ele>
        <time>2013-03-17T11:31:05Z</time>
      </trkpt>
      <trkpt lat="59.912859" lon="17.6431386">
        <ele>27.0543</ele>
        <time>2013-03-17T11:31:06Z</time>
      </trkpt>
      <trkpt lat="59.9129293" lon="17.6431151">
        <ele>27.0543</ele>
        <time>2013-03-17T11:31:07Z</time>
      </trkpt>
      <trkpt lat="59.9129996" lon="17.6430961">
        <ele>26.5736</ele>
        <time>2013-03-17T11:31:08Z</time>
      </trkpt>
      <trkpt lat="59.9130707" lon="17.6430801">
        <ele>26.5736</ele>
        <time>2013-03-17T11:31:09Z</time>
      </trkpt>
      <trkpt lat="59.9131439" lon="17.6430677">
        <ele>26.5736</ele>
        <time>2013-03-17T11:31:10Z</time>
      </trkpt>
      <trkpt lat="59.9132163" lon="17.6430571">
        <ele>26.5736</ele>
        <time>2013-03-17T11:31:11Z</time>
      </trkpt>
      <trkpt lat="59.9132879" lon="17.6430443">
        <ele>26.5736</ele>
        <time>2013-03-17T11:31:12Z</time>
      </trkpt>
      <trkpt lat="59.9133576" lon="17.6430262">
        <ele>26.5736</ele>
        <time>2013-03-17T11:31:13Z</time>
      </trkpt>
      <trkpt lat="59.9134255" lon="17.6429992">
        <ele>26.5736</ele>
        <time>2013-03-17T11:31:14Z</time>
      </trkpt>
      <trkpt lat="59.9134927" lon="17.6429721">
        <ele>26.5736</ele>
        <time>2013-03-17T11:31:15Z</time>
      </trkpt>
      <trkpt lat="59.9135601" lon="17.64295">
        <ele>26.0929</ele>
        <time>2013-03-17T11:31:16Z</time>
      </trkpt>
      <trkpt lat="59.9136264" lon="17.6429317">
        <ele>26.0929</ele>
        <time>2013-03-17T11:31:17Z</time>
      </trkpt>
      <trkpt lat="59.9136917" lon="17.6429185">
        <ele>25.6123</ele>
        <time>2013-03-17T11:31:18Z</time>
      </trkpt>
      <trkpt lat="59.9137568" lon="17.6429111">
        <ele>25.6123</ele>
        <time>2013-03-17T11:31:19Z</time>
      </trkpt>
      <trkpt lat="59.9138206" lon="17.642906">
        <ele>25.6123</ele>
        <time>2013-03-17T11:31:20Z</time>
      </trkpt>
      <trkpt lat="59.9138842" lon="17.6428994">
        <ele>25.6123</ele>
        <time>2013-03-17T11:31:21Z</time>
      </trkpt>
      <trkpt lat="59.9139477" lon="17.642894">
        <ele>25.6123</ele>
        <time>2013-03-17T11:31:22Z</time>
      </trkpt>
      <trkpt lat="59.9140108" lon="17.642889">
        <ele>25.6123</ele>
        <time>2013-03-17T11:31:23Z</time>
      </trkpt>
      <trkpt lat="59.9140709" lon="17.6428773">
        <ele>25.6123</ele>
        <time>2013-03-17T11:31:24Z</time>
      </trkpt>
      <trkpt lat="59.9141293" lon="17.6428641">
        <ele>25.6123</ele>
        <time>2013-03-17T11:31:25Z</time>
      </trkpt>
      <trkpt lat="59.9141869" lon="17.6428491">
        <ele>25.6123</ele>
        <time>2013-03-17T11:31:26Z</time>
      </trkpt>
      <trkpt lat="59.9142443" lon="17.6428307">
        <ele>25.6123</ele>
        <time>2013-03-17T11:31:27Z</time>
      </trkpt>
      <trkpt lat="59.9143029" lon="17.6428148">
        <ele>25.1317</ele>
        <time>2013-03-17T11:31:28Z</time>
      </trkpt>
      <trkpt lat="59.9143642" lon="17.6428055">
        <ele>25.1317</ele>
        <time>2013-03-17T11:31:29Z</time>
      </trkpt>
      <trkpt lat="59.9144267" lon="17.6427988">
        <ele>25.1317</ele>
        <time>2013-03-17T11:31:30Z</time>
      </trkpt>
      <trkpt lat="59.9144906" lon="17.6427885">
        <ele>25.1317</ele>
        <time>2013-03-17T11:31:31Z</time>
      </trkpt>
      <trkpt lat="59.9145561" lon="17.6427734">
        <ele>24.651</ele>
        <time>2013-03-17T11:31:32Z</time>
      </trkpt>
      <trkpt lat="59.9146224" lon="17.6427574">
        <ele>24.651</ele>
        <time>2013-03-17T11:31:33Z</time>
      </trkpt>
      <trkpt lat="59.9146899" lon="17.6427428">
        <ele>24.651</ele>
        <time>2013-03-17T11:31:34Z</time>
      </trkpt>
      <trkpt lat="59.9147578" lon="17.6427308">
        <ele>24.651</ele>
        <time>2013-03-17T11:31:35Z</time>
      </trkpt>
      <trkpt lat="59.9148252" lon="17.6427209">
        <ele>24.651</ele>
        <time>2013-03-17T11:31:36Z</time>
      </trkpt>
      <trkpt lat="59.9148904" lon="17.6427111">
        <ele>24.651</ele>
        <time>2013-03-17T11:31:37Z</time>
      </trkpt>
      <trkpt lat="59.9149546" lon="17.642703">
        <ele>24.651</ele>
        <time>2013-03-17T11:31:38Z</time>
      </trkpt>
      <trkpt lat="59.9150191" lon="17.6426957">
        <ele>24.651</ele>
        <time>2013-03-17T11:31:39Z</time>
      </trkpt>
      <trkpt lat="59.9150834" lon="17.6426875">
        <ele>24.651</ele>
        <time>2013-03-17T11:31:40Z</time>
      </trkpt>
      <trkpt lat="59.9151462" lon="17.6426697">
        <ele>24.651</ele>
        <time>2013-03-17T11:31:41Z</time>
      </trkpt>
      <trkpt lat="59.9152067" lon="17.642636">
        <ele>24.1703</ele>
        <time>2013-03-17T11:31:42Z</time>
      </trkpt>
      <trkpt lat="59.9152705" lon="17.6425945">
        <ele>24.1703</ele>
        <time>2013-03-17T11:31:43Z</time>
      </trkpt>
      <trkpt lat="59.9153408" lon="17.6425489">
        <ele>23.6896</ele>
        <time>2013-03-17T11:31:44Z</time>
      </trkpt>
      <trkpt lat="59.9154154" lon="17.642507">
        <ele>23.6896</ele>
        <time>2013-03-17T11:31:45Z</time>
      </trkpt>
      <trkpt lat="59.9154916" lon="17.6424765">
        <ele>23.6896</ele>
        <time>2013-03-17T11:31:46Z</time>
      </trkpt>
      <trkpt lat="59.91557" lon="17.6424574">
        <ele>23.6896</ele>
        <time>2013-03-17T11:31:47Z</time>
      </trkpt>
      <trkpt lat="59.9156496" lon="17.6424454">
        <ele>23.6896</ele>
        <time>2013-03-17T11:31:48Z</time>
      </trkpt>
      <trkpt lat="59.9157293" lon="17.6424398">
        <ele>23.6896</ele>
        <time>2013-03-17T11:31:49Z</time>
      </trkpt>
      <trkpt lat="59.9158076" lon="17.6424376">
        <ele>23.6896</ele>
        <time>2013-03-17T11:31:50Z</time>
      </trkpt>
      <trkpt lat="59.9158854" lon="17.6424348">
        <ele>23.6896</ele>
        <time>2013-03-17T11:31:51Z</time>
      </trkpt>
      <trkpt lat="59.9159612" lon="17.6424326">
        <ele>23.209</ele>
        <time>2013-03-17T11:31:52Z</time>
      </trkpt>
      <trkpt lat="59.9160346" lon="17.6424315">
        <ele>23.209</ele>
        <time>2013-03-17T11:31:53Z</time>
      </trkpt>
      <trkpt lat="59.9161082" lon="17.64243">
        <ele>23.209</ele>
        <time>2013-03-17T11:31:54Z</time>
      </trkpt>
      <trkpt lat="59.9161805" lon="17.6424264">
        <ele>23.6896</ele>
        <time>2013-03-17T11:31:55Z</time>
      </trkpt>
      <trkpt lat="59.9162512" lon="17.6424215">
        <ele>23.6896</ele>
        <time>2013-03-17T11:31:56Z</time>
      </trkpt>
      <trkpt lat="59.9163211" lon="17.6424154">
        <ele>23.6896</ele>
        <time>2013-03-17T11:31:57Z</time>
      </trkpt>
      <trkpt lat="59.9163911" lon="17.6424062">
        <ele>23.6896</ele>
        <time>2013-03-17T11:31:58Z</time>
      </trkpt>
      <trkpt lat="59.916462" lon="17.6423946">
        <ele>23.6896</ele>
        <time>2013-03-17T11:31:59Z</time>
      </trkpt>
      <trkpt lat="59.9165338" lon="17.6423818">
        <ele>23.6896</ele>
        <time>2013-03-17T11:32:00Z</time>
      </trkpt>
      <trkpt lat="59.9166061" lon="17.6423715">
        <ele>23.209</ele>
        <time>2013-03-17T11:32:01Z</time>
      </trkpt>
      <trkpt lat="59.9166796" lon="17.642364">
        <ele>23.209</ele>
        <time>2013-03-17T11:32:02Z</time>
      </trkpt>
      <trkpt lat="59.9167547" lon="17.6423559">
        <ele>22.7283</ele>
        <time>2013-03-17T11:32:03Z</time>
      </trkpt>
      <trkpt lat="59.9168318" lon="17.6423449">
        <ele>22.7283</ele>
        <time>2013-03-17T11:32:04Z</time>
      </trkpt>
      <trkpt lat="59.9169111" lon="17.642331">
        <ele>22.7283</ele>
        <time>2013-03-17T11:32:05Z</time>
      </trkpt>
      <trkpt lat="59.9169919" lon="17.642314">
        <ele>22.2476</ele>
        <time>2013-03-17T11:32:06Z</time>
      </trkpt>
      <trkpt lat="59.9170737" lon="17.6422917">
        <ele>22.2476</ele>
        <time>2013-03-17T11:32:07Z</time>
      </trkpt>
      <trkpt lat="59.9171566" lon="17.6422643">
        <ele>22.2476</ele>
        <time>2013-03-17T11:32:08Z</time>
      </trkpt>
      <trkpt lat="59.9172432" lon="17.642247">
        <ele>21.767</ele>
        <time>2013-03-17T11:32:09Z</time>
      </trkpt>
      <trkpt lat="59.9173312" lon="17.642246">
        <ele>22.2476</ele>
        <time>2013-03-17T11:32:10Z</time>
      </trkpt>
      <trkpt lat="59.9174182" lon="17.6422474">
        <ele>22.2476</ele>
        <time>2013-03-17T11:32:11Z</time>
      </trkpt>
      <trkpt lat="59.9175051" lon="17.6422451">
        <ele>22.2476</ele>
        <time>2013-03-17T11:32:12Z</time>
      </trkpt>
      <trkpt lat="59.9175914" lon="17.6422426">
        <ele>22.2476</ele>
        <time>2013-03-17T11:32:13Z</time>
      </trkpt>
      <trkpt lat="59.9176772" lon="17.6422409">
        <ele>22.2476</ele>
        <time>2013-03-17T11:32:14Z</time>
      </trkpt>
      <trkpt lat="59.9177625" lon="17.6422379">
        <ele>22.2476</ele>
        <time>2013-03-17T11:32:15Z</time>
      </trkpt>
      <trkpt lat="59.9178467" lon="17.642234">
        <ele>22.7283</ele>
        <time>2013-03-17T11:32:16Z</time>
      </trkpt>
      <trkpt lat="59.91793" lon="17.6422285">
        <ele>22.7283</ele>
        <time>2013-03-17T11:32:17Z</time>
      </trkpt>
      <trkpt lat="59.9180125" lon="17.64222">
        <ele>22.7283</ele>
        <time>2013-03-17T11:32:18Z</time>
      </trkpt>
      <trkpt lat="59.918094" lon="17.6422112">
        <ele>23.209</ele>
        <time>2013-03-17T11:32:19Z</time>
      </trkpt>
      <trkpt lat="59.9181733" lon="17.6422041">
        <ele>23.209</ele>
        <time>2013-03-17T11:32:20Z</time>
      </trkpt>
      <trkpt lat="59.9182507" lon="17.6421973">
        <ele>23.6896</ele>
        <time>2013-03-17T11:32:21Z</time>
      </trkpt>
      <trkpt lat="59.9183269" lon="17.6421897">
        <ele>24.1703</ele>
        <time>2013-03-17T11:32:22Z</time>
      </trkpt>
      <trkpt lat="59.9184005" lon="17.6421813">
        <ele>24.651</ele>
        <time>2013-03-17T11:32:23Z</time>
      </trkpt>
      <trkpt lat="59.9184723" lon="17.6421726">
        <ele>24.651</ele>
        <time>2013-03-17T11:32:24Z</time>
      </trkpt>
      <trkpt lat="59.9185428" lon="17.6421648">
        <ele>24.651</ele>
        <time>2013-03-17T11:32:25Z</time>
      </trkpt>
      <trkpt lat="59.9186121" lon="17.6421563">
        <ele>25.1317</ele>
        <time>2013-03-17T11:32:26Z</time>
      </trkpt>
      <trkpt lat="59.9186815" lon="17.6421475">
        <ele>25.1317</ele>
        <time>2013-03-17T11:32:27Z</time>
      </trkpt>
      <trkpt lat="59.9187502" lon="17.6421397">
        <ele>25.1317</ele>
        <time>2013-03-17T11:32:28Z</time>
      </trkpt>
      <trkpt lat="59.9188191" lon="17.6421319">
        <ele>25.1317</ele>
        <time>2013-03-17T11:32:29Z</time>
      </trkpt>
      <trkpt lat="59.9188878" lon="17.6421233">
        <ele>25.6123</ele>
        <time>2013-03-17T11:32:30Z</time>
      </trkpt>
      <trkpt lat="59.9189566" lon="17.642114">
        <ele>25.6123</ele>
        <time>2013-03-17T11:32:31Z</time>
      </trkpt>
      <trkpt lat="59.9190254" lon="17.6421056">
        <ele>25.6123</ele>
        <time>2013-03-17T11:32:32Z</time>
      </trkpt>
      <trkpt lat="59.9190941" lon="17.642097">
        <ele>25.6123</ele>
        <time>2013-03-17T11:32:33Z</time>
      </trkpt>
      <trkpt lat="59.9191633" lon="17.6420876">
        <ele>25.6123</ele>
        <time>2013-03-17T11:32:34Z</time>
      </trkpt>
      <trkpt lat="59.9192328" lon="17.6420803">
        <ele>25.6123</ele>
        <time>2013-03-17T11:32:35Z</time>
      </trkpt>
      <trkpt lat="59.9193033" lon="17.642074">
        <ele>25.6123</ele>
        <time>2013-03-17T11:32:36Z</time>
      </trkpt>
      <trkpt lat="59.9193747" lon="17.6420659">
        <ele>25.6123</ele>
        <time>2013-03-17T11:32:37Z</time>
      </trkpt>
      <trkpt lat="59.9194466" lon="17.642058">
        <ele>25.6123</ele>
        <time>2013-03-17T11:32:38Z</time>
      </trkpt>
      <trkpt lat="59.9195191" lon="17.6420507">
        <ele>25.6123</ele>
        <time>2013-03-17T11:32:39Z</time>
      </trkpt>
      <trkpt lat="59.9195918" lon="17.6420429">
        <ele>25.6123</ele>
        <time>2013-03-17T11:32:40Z</time>
      </trkpt>
      <trkpt lat="59.9196639" lon="17.6420332">
        <ele>25.6123</ele>
        <time>2013-03-17T11:32:41Z</time>
      </trkpt>
      <trkpt lat="59.9197362" lon="17.6420207">
        <ele>25.6123</ele>
        <time>2013-03-17T11:32:42Z</time>
      </trkpt>
      <trkpt lat="59.9198085" lon="17.642004">
        <ele>25.6123</ele>
        <time>2013-03-17T11:32:43Z</time>
      </trkpt>
      <trkpt lat="59.919881" lon="17.6419846">
        <ele>25.6123</ele>
        <time>2013-03-17T11:32:44Z</time>
      </trkpt>
      <trkpt lat="59.9199539" lon="17.6419654">
        <ele>25.1317</ele>
        <time>2013-03-17T11:32:45Z</time>
      </trkpt>
      <trkpt lat="59.9200274" lon="17.6419491">
        <ele>25.1317</ele>
        <time>2013-03-17T11:32:46Z</time>
      </trkpt>
      <trkpt lat="59.920101" lon="17.6419387">
        <ele>25.1317</ele>
        <time>2013-03-17T11:32:47Z</time>
      </trkpt>
      <trkpt lat="59.9201735" lon="17.6419326">
        <ele>25.1317</ele>
        <time>2013-03-17T11:32:48Z</time>
      </trkpt>
      <trkpt lat="59.920244" lon="17.6419291">
        <ele>25.1317</ele>
        <time>2013-03-17T11:32:49Z</time>
      </trkpt>
      <trkpt lat="59.9203147" lon="17.6419259">
        <ele>25.1317</ele>
        <time>2013-03-17T11:32:50Z</time>
      </trkpt>
      <trkpt lat="59.9203875" lon="17.6419229">
        <ele>25.1317</ele>
        <time>2013-03-17T11:32:51Z</time>
      </trkpt>
      <trkpt lat="59.9204604" lon="17.6419209">
        <ele>24.651</ele>
        <time>2013-03-17T11:32:52Z</time>
      </trkpt>
      <trkpt lat="59.9205336" lon="17.641919">
        <ele>24.651</ele>
        <time>2013-03-17T11:32:53Z</time>
      </trkpt>
      <trkpt lat="59.9206066" lon="17.6419147">
        <ele>24.651</ele>
        <time>2013-03-17T11:32:54Z</time>
      </trkpt>
      <trkpt lat="59.9206802" lon="17.6419109">
        <ele>24.651</ele>
        <time>2013-03-17T11:32:55Z</time>
      </trkpt>
      <trkpt lat="59.9207536" lon="17.6419094">
        <ele>24.651</ele>
        <time>2013-03-17T11:32:56Z</time>
      </trkpt>
      <trkpt lat="59.920825" lon="17.6419079">
        <ele>24.651</ele>
        <time>2013-03-17T11:32:57Z</time>
      </trkpt>
      <trkpt lat="59.920896" lon="17.6419078">
        <ele>25.1317</ele>
        <time>2013-03-17T11:32:58Z</time>
      </trkpt>
      <trkpt lat="59.9209659" lon="17.6419067">
        <ele>25.1317</ele>
        <time>2013-03-17T11:32:59Z</time>
      </trkpt>
      <trkpt lat="59.9210335" lon="17.6419025">
        <ele>25.1317</ele>
        <time>2013-03-17T11:33:00Z</time>
      </trkpt>
      <trkpt lat="59.9211007" lon="17.6418983">
        <ele>25.6123</ele>
        <time>2013-03-17T11:33:01Z</time>
      </trkpt>
      <trkpt lat="59.9211682" lon="17.6418944">
        <ele>25.6123</ele>
        <time>2013-03-17T11:33:02Z</time>
      </trkpt>
      <trkpt lat="59.9212332" lon="17.6418877">
        <ele>26.0929</ele>
        <time>2013-03-17T11:33:03Z</time>
      </trkpt>
      <trkpt lat="59.9212956" lon="17.6418796">
        <ele>26.0929</ele>
        <time>2013-03-17T11:33:04Z</time>
      </trkpt>
      <trkpt lat="59.921356" lon="17.6418725">
        <ele>26.5736</ele>
        <time>2013-03-17T11:33:05Z</time>
      </trkpt>
      <trkpt lat="59.9214148" lon="17.6418667">
        <ele>26.5736</ele>
        <time>2013-03-17T11:33:06Z</time>
      </trkpt>
      <trkpt lat="59.9214721" lon="17.6418616">
        <ele>27.0543</ele>
        <time>2013-03-17T11:33:07Z</time>
      </trkpt>
      <trkpt lat="59.9215277" lon="17.6418546">
        <ele>27.0543</ele>
        <time>2013-03-17T11:33:08Z</time>
      </trkpt>
      <trkpt lat="59.9215841" lon="17.6418488">
        <ele>27.5349</ele>
        <time>2013-03-17T11:33:09Z</time>
      </trkpt>
      <trkpt lat="59.92164" lon="17.6418426">
        <ele>27.5349</ele>
        <time>2013-03-17T11:33:10Z</time>
      </trkpt>
      <trkpt lat="59.9216973" lon="17.6418325">
        <ele>27.5349</ele>
        <time>2013-03-17T11:33:11Z</time>
      </trkpt>
      <trkpt lat="59.9217559" lon="17.6418207">
        <ele>27.0543</ele>
        <time>2013-03-17T11:33:12Z</time>
      </trkpt>
      <trkpt lat="59.9218155" lon="17.6418114">
        <ele>27.0543</ele>
        <time>2013-03-17T11:33:13Z</time>
      </trkpt>
      <trkpt lat="59.9218747" lon="17.6418011">
        <ele>27.0543</ele>
        <time>2013-03-17T11:33:14Z</time>
      </trkpt>
      <trkpt lat="59.9219341" lon="17.6417916">
        <ele>26.5736</ele>
        <time>2013-03-17T11:33:15Z</time>
      </trkpt>
      <trkpt lat="59.9219954" lon="17.6417855">
        <ele>26.0929</ele>
        <time>2013-03-17T11:33:16Z</time>
      </trkpt>
      <trkpt lat="59.9220587" lon="17.6417789">
        <ele>26.0929</ele>
        <time>2013-03-17T11:33:17Z</time>
      </trkpt>
      <trkpt lat="59.9221218" lon="17.6417706">
        <ele>25.6123</ele>
        <time>2013-03-17T11:33:18Z</time>
      </trkpt>
      <trkpt lat="59.922186" lon="17.6417612">
        <ele>25.6123</ele>
        <time>2013-03-17T11:33:19Z</time>
      </trkpt>
      <trkpt lat="59.9222514" lon="17.6417509">
        <ele>25.6123</ele>
        <time>2013-03-17T11:33:20Z</time>
      </trkpt>
      <trkpt lat="59.9223176" lon="17.6417413">
        <ele>25.6123</ele>
        <time>2013-03-17T11:33:21Z</time>
      </trkpt>
      <trkpt lat="59.9223842" lon="17.6417348">
        <ele>25.6123</ele>
        <time>2013-03-17T11:33:22Z</time>
      </trkpt>
      <trkpt lat="59.9224502" lon="17.6417303">
        <ele>25.6123</ele>
        <time>2013-03-17T11:33:23Z</time>
      </trkpt>
      <trkpt lat="59.9225159" lon="17.6417244">
        <ele>25.6123</ele>
        <time>2013-03-17T11:33:24Z</time>
      </trkpt>
      <trkpt lat="59.9225827" lon="17.6417156">
        <ele>25.6123</ele>
        <time>2013-03-17T11:33:25Z</time>
      </trkpt>
      <trkpt lat="59.9226497" lon="17.6417084">
        <ele>25.1317</ele>
        <time>2013-03-17T11:33:26Z</time>
      </trkpt>
      <trkpt lat="59.9227164" lon="17.6417031">
        <ele>25.1317</ele>
        <time>2013-03-17T11:33:27Z</time>
      </trkpt>
      <trkpt lat="59.9227843" lon="17.6416959">
        <ele>25.1317</ele>
        <time>2013-03-17T11:33:28Z</time>
      </trkpt>
      <trkpt lat="59.9228541" lon="17.6416888">
        <ele>24.651</ele>
        <time>2013-03-17T11:33:29Z</time>
      </trkpt>
      <trkpt lat="59.9229268" lon="17.641682">
        <ele>24.651</ele>
        <time>2013-03-17T11:33:30Z</time>
      </trkpt>
      <trkpt lat="59.9230013" lon="17.641674">
        <ele>24.1703</ele>
        <time>2013-03-17T11:33:31Z</time>
      </trkpt>
      <trkpt lat="59.923078" lon="17.6416645">
        <ele>24.1703</ele>
        <time>2013-03-17T11:33:32Z</time>
      </trkpt>
      <trkpt lat="59.923156" lon="17.6416541">
        <ele>24.1703</ele>
        <time>2013-03-17T11:33:33Z</time>
      </trkpt>
      <trkpt lat="59.9232349" lon="17.6416441">
        <ele>23.6896</ele>
        <time>2013-03-17T11:33:34Z</time>
      </trkpt>
      <trkpt lat="59.9233148" lon="17.6416344">
        <ele>23.6896</ele>
        <time>2013-03-17T11:33:35Z</time>
      </trkpt>
      <trkpt lat="59.9233961" lon="17.6416239">
        <ele>23.6896</ele>
        <time>2013-03-17T11:33:36Z</time>
      </trkpt>
      <trkpt lat="59.9234788" lon="17.6416114">
        <ele>23.209</ele>
        <time>2013-03-17T11:33:37Z</time>
      </trkpt>
      <trkpt lat="59.9235628" lon="17.6415985">
        <ele>23.209</ele>
        <time>2013-03-17T11:33:38Z</time>
      </trkpt>
      <trkpt lat="59.9236481" lon="17.6415855">
        <ele>22.7283</ele>
        <time>2013-03-17T11:33:39Z</time>
      </trkpt>
      <trkpt lat="59.9237347" lon="17.6415714">
        <ele>22.7283</ele>
        <time>2013-03-17T11:33:40Z</time>
      </trkpt>
      <trkpt lat="59.9238227" lon="17.6415577">
        <ele>22.7283</ele>
        <time>2013-03-17T11:33:41Z</time>
      </trkpt>
      <trkpt lat="59.9239118" lon="17.6415443">
        <ele>22.2476</ele>
        <time>2013-03-17T11:33:42Z</time>
      </trkpt>
      <trkpt lat="59.9240011" lon="17.6415323">
        <ele>22.2476</ele>
        <time>2013-03-17T11:33:43Z</time>
      </trkpt>
      <trkpt lat="59.9240905" lon="17.6415234">
        <ele>22.2476</ele>
        <time>2013-03-17T11:33:44Z</time>
      </trkpt>
      <trkpt lat="59.9241791" lon="17.6415178">
        <ele>22.2476</ele>
        <time>2013-03-17T11:33:45Z</time>
      </trkpt>
      <trkpt lat="59.9242658" lon="17.6415127">
        <ele>22.2476</ele>
        <time>2013-03-17T11:33:46Z</time>
      </trkpt>
      <trkpt lat="59.9243504" lon="17.6415051">
        <ele>22.2476</ele>
        <time>2013-03-17T11:33:47Z</time>
      </trkpt>
      <trkpt lat="59.9244327" lon="17.641495">
        <ele>22.2476</ele>
        <time>2013-03-17T11:33:48Z</time>
      </trkpt>
      <trkpt lat="59.924514" lon="17.6414846">
        <ele>22.2476</ele>
        <time>2013-03-17T11:33:49Z</time>
      </trkpt>
      <trkpt lat="59.9245945" lon="17.6414726">
        <ele>22.2476</ele>
        <time>2013-03-17T11:33:50Z</time>
      </trkpt>
      <trkpt lat="59.924674" lon="17.6414564">
        <ele>22.2476</ele>
        <time>2013-03-17T11:33:51Z</time>
      </trkpt>
      <trkpt lat="59.9247538" lon="17.641438">
        <ele>22.2476</ele>
        <time>2013-03-17T11:33:52Z</time>
      </trkpt>
      <trkpt lat="59.9248335" lon="17.6414212">
        <ele>22.2476</ele>
        <time>2013-03-17T11:33:53Z</time>
      </trkpt>
      <trkpt lat="59.9249134" lon="17.6414081">
        <ele>22.2476</ele>
        <time>2013-03-17T11:33:54Z</time>
      </trkpt>
      <trkpt lat="59.9249941" lon="17.6413996">
        <ele>22.2476</ele>
        <time>2013-03-17T11:33:55Z</time>
      </trkpt>
      <trkpt lat="59.925076" lon="17.6413941">
        <ele>22.2476</ele>
        <time>2013-03-17T11:33:56Z</time>
      </trkpt>
      <trkpt lat="59.9251585" lon="17.641391">
        <ele>22.2476</ele>
        <time>2013-03-17T11:33:57Z</time>
      </trkpt>
      <trkpt lat="59.9252416" lon="17.6413897">
        <ele>22.2476</ele>
        <time>2013-03-17T11:33:58Z</time>
      </trkpt>
      <trkpt lat="59.9253242" lon="17.6413872">
        <ele>21.767</ele>
        <time>2013-03-17T11:33:59Z</time>
      </trkpt>
      <trkpt lat="59.9254071" lon="17.6413834">
        <ele>21.767</ele>
        <time>2013-03-17T11:34:00Z</time>
      </trkpt>
      <trkpt lat="59.9254904" lon="17.6413774">
        <ele>21.767</ele>
        <time>2013-03-17T11:34:01Z</time>
      </trkpt>
      <trkpt lat="59.9255741" lon="17.6413674">
        <ele>21.767</ele>
        <time>2013-03-17T11:34:02Z</time>
      </trkpt>
      <trkpt lat="59.9256578" lon="17.6413556">
        <ele>21.767</ele>
        <time>2013-03-17T11:34:03Z</time>
      </trkpt>
      <trkpt lat="59.9257416" lon="17.6413443">
        <ele>21.2864</ele>
        <time>2013-03-17T11:34:04Z</time>
      </trkpt>
      <trkpt lat="59.9258257" lon="17.6413314">
        <ele>21.2864</ele>
        <time>2013-03-17T11:34:05Z</time>
      </trkpt>
      <trkpt lat="59.9259105" lon="17.6413189">
        <ele>21.2864</ele>
        <time>2013-03-17T11:34:06Z</time>
      </trkpt>
      <trkpt lat="59.9259959" lon="17.6413086">
        <ele>21.2864</ele>
        <time>2013-03-17T11:34:07Z</time>
      </trkpt>
      <trkpt lat="59.926082" lon="17.6412976">
        <ele>21.2864</ele>
        <time>2013-03-17T11:34:08Z</time>
      </trkpt>
      <trkpt lat="59.9261688" lon="17.641286">
        <ele>21.2864</ele>
        <time>2013-03-17T11:34:09Z</time>
      </trkpt>
      <trkpt lat="59.9262565" lon="17.6412754">
        <ele>20.8057</ele>
        <time>2013-03-17T11:34:10Z</time>
      </trkpt>
      <trkpt lat="59.9263445" lon="17.6412653">
        <ele>20.8057</ele>
        <time>2013-03-17T11:34:11Z</time>
      </trkpt>
      <trkpt lat="59.9264322" lon="17.6412539">
        <ele>20.8057</ele>
        <time>2013-03-17T11:34:12Z</time>
      </trkpt>
      <trkpt lat="59.9265201" lon="17.6412418">
        <ele>20.8057</ele>
        <time>2013-03-17T11:34:13Z</time>
      </trkpt>
      <trkpt lat="59.9266072" lon="17.6412313">
        <ele>21.2864</ele>
        <time>2013-03-17T11:34:14Z</time>
      </trkpt>
      <trkpt lat="59.926694" lon="17.6412215">
        <ele>21.2864</ele>
        <time>2013-03-17T11:34:15Z</time>
      </trkpt>
      <trkpt lat="59.9267802" lon="17.6412094">
        <ele>21.2864</ele>
        <time>2013-03-17T11:34:16Z</time>
      </trkpt>
      <trkpt lat="59.9268663" lon="17.6411974">
        <ele>21.2864</ele>
        <time>2013-03-17T11:34:17Z</time>
      </trkpt>
      <trkpt lat="59.9269521" lon="17.6411877">
        <ele>21.2864</ele>
        <time>2013-03-17T11:34:18Z</time>
      </trkpt>
      <trkpt lat="59.927038" lon="17.6411798">
        <ele>21.2864</ele>
        <time>2013-03-17T11:34:19Z</time>
      </trkpt>
      <trkpt lat="59.9271237" lon="17.6411733">
        <ele>21.2864</ele>
        <time>2013-03-17T11:34:20Z</time>
      </trkpt>
      <trkpt lat="59.9272096" lon="17.6411686">
        <ele>21.2864</ele>
        <time>2013-03-17T11:34:21Z</time>
      </trkpt>
      <trkpt lat="59.9272954" lon="17.6411629">
        <ele>21.2864</ele>
        <time>2013-03-17T11:34:22Z</time>
      </trkpt>
      <trkpt lat="59.9273806" lon="17.6411557">
        <ele>21.2864</ele>
        <time>2013-03-17T11:34:23Z</time>
      </trkpt>
      <trkpt lat="59.9274657" lon="17.6411477">
        <ele>21.2864</ele>
        <time>2013-03-17T11:34:24Z</time>
      </trkpt>
      <trkpt lat="59.9275509" lon="17.641139">
        <ele>21.2864</ele>
        <time>2013-03-17T11:34:25Z</time>
      </trkpt>
      <trkpt lat="59.9276358" lon="17.6411293">
        <ele>21.2864</ele>
        <time>2013-03-17T11:34:26Z</time>
      </trkpt>
      <trkpt lat="59.9277204" lon="17.6411183">
        <ele>21.2864</ele>
        <time>2013-03-17T11:34:27Z</time>
      </trkpt>
      <trkpt lat="59.9278052" lon="17.6411085">
        <ele>21.2864</ele>
        <time>2013-03-17T11:34:28Z</time>
      </trkpt>
      <trkpt lat="59.9278896" lon="17.6411003">
        <ele>21.2864</ele>
        <time>2013-03-17T11:34:29Z</time>
      </trkpt>
      <trkpt lat="59.9279727" lon="17.6410934">
        <ele>21.2864</ele>
        <time>2013-03-17T11:34:30Z</time>
      </trkpt>
      <trkpt lat="59.9280535" lon="17.6410869">
        <ele>21.2864</ele>
        <time>2013-03-17T11:34:31Z</time>
      </trkpt>
      <trkpt lat="59.9281328" lon="17.6410814">
        <ele>21.2864</ele>
        <time>2013-03-17T11:34:32Z</time>
      </trkpt>
      <trkpt lat="59.9282119" lon="17.641076">
        <ele>21.2864</ele>
        <time>2013-03-17T11:34:33Z</time>
      </trkpt>
      <trkpt lat="59.9282902" lon="17.6410667">
        <ele>21.2864</ele>
        <time>2013-03-17T11:34:34Z</time>
      </trkpt>
      <trkpt lat="59.9283685" lon="17.6410553">
        <ele>21.2864</ele>
        <time>2013-03-17T11:34:35Z</time>
      </trkpt>
      <trkpt lat="59.928447" lon="17.6410439">
        <ele>21.2864</ele>
        <time>2013-03-17T11:34:36Z</time>
      </trkpt>
      <trkpt lat="59.9285252" lon="17.641032">
        <ele>21.767</ele>
        <time>2013-03-17T11:34:37Z</time>
      </trkpt>
      <trkpt lat="59.9286022" lon="17.641019">
        <ele>21.767</ele>
        <time>2013-03-17T11:34:38Z</time>
      </trkpt>
      <trkpt lat="59.9286789" lon="17.6410039">
        <ele>21.767</ele>
        <time>2013-03-17T11:34:39Z</time>
      </trkpt>
      <trkpt lat="59.9287562" lon="17.6409863">
        <ele>21.767</ele>
        <time>2013-03-17T11:34:40Z</time>
      </trkpt>
      <trkpt lat="59.9288341" lon="17.6409681">
        <ele>21.2864</ele>
        <time>2013-03-17T11:34:41Z</time>
      </trkpt>
      <trkpt lat="59.9289127" lon="17.6409511">
        <ele>21.2864</ele>
        <time>2013-03-17T11:34:42Z</time>
      </trkpt>
      <trkpt lat="59.928992" lon="17.6409374">
        <ele>21.2864</ele>
        <time>2013-03-17T11:34:43Z</time>
      </trkpt>
      <trkpt lat="59.9290714" lon="17.6409281">
        <ele>21.2864</ele>
        <time>2013-03-17T11:34:44Z</time>
      </trkpt>
      <trkpt lat="59.929151" lon="17.6409226">
        <ele>21.2864</ele>
        <time>2013-03-17T11:34:45Z</time>
      </trkpt>
      <trkpt lat="59.92923" lon="17.6409201">
        <ele>21.2864</ele>
        <time>2013-03-17T11:34:46Z</time>
      </trkpt>
      <trkpt lat="59.9293081" lon="17.6409194">
        <ele>21.2864</ele>
        <time>2013-03-17T11:34:47Z</time>
      </trkpt>
      <trkpt lat="59.9293853" lon="17.6409164">
        <ele>21.2864</ele>
        <time>2013-03-17T11:34:48Z</time>
      </trkpt>
      <trkpt lat="59.9294619" lon="17.6409086">
        <ele>21.767</ele>
        <time>2013-03-17T11:34:49Z</time>
      </trkpt>
      <trkpt lat="59.9295375" lon="17.6408978">
        <ele>21.767</ele>
        <time>2013-03-17T11:34:50Z</time>
      </trkpt>
      <trkpt lat="59.9296122" lon="17.6408836">
        <ele>21.767</ele>
        <time>2013-03-17T11:34:51Z</time>
      </trkpt>
      <trkpt lat="59.9296862" lon="17.6408664">
        <ele>21.767</ele>
        <time>2013-03-17T11:34:52Z</time>
      </trkpt>
      <trkpt lat="59.9297587" lon="17.6408499">
        <ele>22.2476</ele>
        <time>2013-03-17T11:34:53Z</time>
      </trkpt>
      <trkpt lat="59.929829" lon="17.6408355">
        <ele>22.2476</ele>
        <time>2013-03-17T11:34:54Z</time>
      </trkpt>
      <trkpt lat="59.9298997" lon="17.6408281">
        <ele>22.2476</ele>
        <time>2013-03-17T11:34:55Z</time>
      </trkpt>
      <trkpt lat="59.929972" lon="17.6408278">
        <ele>21.767</ele>
        <time>2013-03-17T11:34:56Z</time>
      </trkpt>
      <trkpt lat="59.9300453" lon="17.6408293">
        <ele>21.767</ele>
        <time>2013-03-17T11:34:57Z</time>
      </trkpt>
      <trkpt lat="59.9301192" lon="17.6408318">
        <ele>21.767</ele>
        <time>2013-03-17T11:34:58Z</time>
      </trkpt>
      <trkpt lat="59.9301924" lon="17.6408344">
        <ele>21.767</ele>
        <time>2013-03-17T11:34:59Z</time>
      </trkpt>
      <trkpt lat="59.9302652" lon="17.6408366">
        <ele>22.2476</ele>
        <time>2013-03-17T11:35:00Z</time>
      </trkpt>
      <trkpt lat="59.9303378" lon="17.6408381">
        <ele>22.2476</ele>
        <time>2013-03-17T11:35:01Z</time>
      </trkpt>
      <trkpt lat="59.9304095" lon="17.6408395">
        <ele>22.2476</ele>
        <time>2013-03-17T11:35:02Z</time>
      </trkpt>
      <trkpt lat="59.9304803" lon="17.6408385">
        <ele>22.2476</ele>
        <time>2013-03-17T11:35:03Z</time>
      </trkpt>
      <trkpt lat="59.9305496" lon="17.6408338">
        <ele>22.7283</ele>
        <time>2013-03-17T11:35:04Z</time>
      </trkpt>
      <trkpt lat="59.930617" lon="17.6408251">
        <ele>22.7283</ele>
        <time>2013-03-17T11:35:05Z</time>
      </trkpt>
      <trkpt lat="59.930683" lon="17.6408133">
        <ele>23.209</ele>
        <time>2013-03-17T11:35:06Z</time>
      </trkpt>
      <trkpt lat="59.930749" lon="17.6408055">
        <ele>23.209</ele>
        <time>2013-03-17T11:35:07Z</time>
      </trkpt>
      <trkpt lat="59.9308155" lon="17.640806">
        <ele>23.209</ele>
        <time>2013-03-17T11:35:08Z</time>
      </trkpt>
      <trkpt lat="59.9308844" lon="17.6408162">
        <ele>23.209</ele>
        <time>2013-03-17T11:35:09Z</time>
      </trkpt>
      <trkpt lat="59.9309539" lon="17.6408356">
        <ele>23.209</ele>
        <time>2013-03-17T11:35:10Z</time>
      </trkpt>
      <trkpt lat="59.9310227" lon="17.6408672">
        <ele>23.209</ele>
        <time>2013-03-17T11:35:11Z</time>
      </trkpt>
      <trkpt lat="59.9310896" lon="17.6409105">
        <ele>23.209</ele>
        <time>2013-03-17T11:35:12Z</time>
      </trkpt>
      <trkpt lat="59.9311552" lon="17.6409579">
        <ele>23.209</ele>
        <time>2013-03-17T11:35:13Z</time>
      </trkpt>
      <trkpt lat="59.9312175" lon="17.6410055">
        <ele>23.209</ele>
        <time>2013-03-17T11:35:14Z</time>
      </trkpt>
      <trkpt lat="59.9312769" lon="17.6410527">
        <ele>23.6896</ele>
        <time>2013-03-17T11:35:15Z</time>
      </trkpt>
      <trkpt lat="59.931333" lon="17.6410971">
        <ele>24.1703</ele>
        <time>2013-03-17T11:35:16Z</time>
      </trkpt>
      <trkpt lat="59.9313849" lon="17.6411358">
        <ele>24.651</ele>
        <time>2013-03-17T11:35:17Z</time>
      </trkpt>
      <trkpt lat="59.931434" lon="17.6411716">
        <ele>24.651</ele>
        <time>2013-03-17T11:35:18Z</time>
      </trkpt>
      <trkpt lat="59.9314827" lon="17.6412076">
        <ele>24.651</ele>
        <time>2013-03-17T11:35:19Z</time>
      </trkpt>
      <trkpt lat="59.9315318" lon="17.6412458">
        <ele>24.651</ele>
        <time>2013-03-17T11:35:20Z</time>
      </trkpt>
      <trkpt lat="59.9315811" lon="17.6412861">
        <ele>24.651</ele>
        <time>2013-03-17T11:35:21Z</time>
      </trkpt>
      <trkpt lat="59.9316312" lon="17.6413245">
        <ele>24.651</ele>
        <time>2013-03-17T11:35:22Z</time>
      </trkpt>
      <trkpt lat="59.9316822" lon="17.6413604">
        <ele>24.651</ele>
        <time>2013-03-17T11:35:23Z</time>
      </trkpt>
      <trkpt lat="59.9317335" lon="17.6413956">
        <ele>24.651</ele>
        <time>2013-03-17T11:35:24Z</time>
      </trkpt>
      <trkpt lat="59.9317857" lon="17.6414307">
        <ele>24.651</ele>
        <time>2013-03-17T11:35:25Z</time>
      </trkpt>
      <trkpt lat="59.9318377" lon="17.6414644">
        <ele>24.651</ele>
        <time>2013-03-17T11:35:26Z</time>
      </trkpt>
      <trkpt lat="59.9318889" lon="17.641498">
        <ele>24.651</ele>
        <time>2013-03-17T11:35:27Z</time>
      </trkpt>
      <trkpt lat="59.9319386" lon="17.6415312">
        <ele>24.651</ele>
        <time>2013-03-17T11:35:28Z</time>
      </trkpt>
      <trkpt lat="59.9319862" lon="17.6415638">
        <ele>24.651</ele>
        <time>2013-03-17T11:35:29Z</time>
      </trkpt>
      <trkpt lat="59.9320307" lon="17.6415966">
        <ele>25.1317</ele>
        <time>2013-03-17T11:35:30Z</time>
      </trkpt>
      <trkpt lat="59.9320712" lon="17.6416317">
        <ele>25.1317</ele>
        <time>2013-03-17T11:35:31Z</time>
      </trkpt>
      <trkpt lat="59.9321131" lon="17.6416716">
        <ele>25.1317</ele>
        <time>2013-03-17T11:35:32Z</time>
      </trkpt>
      <trkpt lat="59.9321581" lon="17.6417141">
        <ele>24.651</ele>
        <time>2013-03-17T11:35:33Z</time>
      </trkpt>
      <trkpt lat="59.9322043" lon="17.6417575">
        <ele>24.651</ele>
        <time>2013-03-17T11:35:34Z</time>
      </trkpt>
      <trkpt lat="59.9322509" lon="17.6418007">
        <ele>24.651</ele>
        <time>2013-03-17T11:35:35Z</time>
      </trkpt>
      <trkpt lat="59.9322979" lon="17.6418406">
        <ele>24.651</ele>
        <time>2013-03-17T11:35:36Z</time>
      </trkpt>
      <trkpt lat="59.9323442" lon="17.6418798">
        <ele>24.1703</ele>
        <time>2013-03-17T11:35:37Z</time>
      </trkpt>
      <trkpt lat="59.9323896" lon="17.6419214">
        <ele>24.1703</ele>
        <time>2013-03-17T11:35:38Z</time>
      </trkpt>
      <trkpt lat="59.9324347" lon="17.6419652">
        <ele>24.651</ele>
        <time>2013-03-17T11:35:39Z</time>
      </trkpt>
      <trkpt lat="59.9324805" lon="17.6420105">
        <ele>24.651</ele>
        <time>2013-03-17T11:35:40Z</time>
      </trkpt>
      <trkpt lat="59.9325274" lon="17.6420581">
        <ele>24.651</ele>
        <time>2013-03-17T11:35:41Z</time>
      </trkpt>
      <trkpt lat="59.9325742" lon="17.6421103">
        <ele>24.651</ele>
        <time>2013-03-17T11:35:42Z</time>
      </trkpt>
      <trkpt lat="59.9326213" lon="17.6421648">
        <ele>24.651</ele>
        <time>2013-03-17T11:35:43Z</time>
      </trkpt>
      <trkpt lat="59.9326691" lon="17.6422211">
        <ele>24.651</ele>
        <time>2013-03-17T11:35:44Z</time>
      </trkpt>
      <trkpt lat="59.9327161" lon="17.6422817">
        <ele>24.651</ele>
        <time>2013-03-17T11:35:45Z</time>
      </trkpt>
      <trkpt lat="59.9327596" lon="17.6423485">
        <ele>25.1317</ele>
        <time>2013-03-17T11:35:46Z</time>
      </trkpt>
      <trkpt lat="59.9328" lon="17.6424194">
        <ele>25.1317</ele>
        <time>2013-03-17T11:35:47Z</time>
      </trkpt>
      <trkpt lat="59.9328383" lon="17.6424909">
        <ele>25.1317</ele>
        <time>2013-03-17T11:35:48Z</time>
      </trkpt>
      <trkpt lat="59.932876" lon="17.6425617">
        <ele>25.6123</ele>
        <time>2013-03-17T11:35:49Z</time>
      </trkpt>
      <trkpt lat="59.9329155" lon="17.6426289">
        <ele>25.6123</ele>
        <time>2013-03-17T11:35:50Z</time>
      </trkpt>
      <trkpt lat="59.9329575" lon="17.6426905">
        <ele>25.6123</ele>
        <time>2013-03-17T11:35:51Z</time>
      </trkpt>
      <trkpt lat="59.9330015" lon="17.6427473">
        <ele>25.6123</ele>
        <time>2013-03-17T11:35:52Z</time>
      </trkpt>
      <trkpt lat="59.9330464" lon="17.6428025">
        <ele>26.0929</ele>
        <time>2013-03-17T11:35:53Z</time>
      </trkpt>
      <trkpt lat="59.9330906" lon="17.6428605">
        <ele>26.0929</ele>
        <time>2013-03-17T11:35:54Z</time>
      </trkpt>
      <trkpt lat="59.9331337" lon="17.6429201">
        <ele>26.5736</ele>
        <time>2013-03-17T11:35:55Z</time>
      </trkpt>
      <trkpt lat="59.9331756" lon="17.6429809">
        <ele>26.5736</ele>
        <time>2013-03-17T11:35:56Z</time>
      </trkpt>
      <trkpt lat="59.9332164" lon="17.6430431">
        <ele>27.0543</ele>
        <time>2013-03-17T11:35:57Z</time>
      </trkpt>
      <trkpt lat="59.9332548" lon="17.6431049">
        <ele>27.5349</ele>
        <time>2013-03-17T11:35:58Z</time>
      </trkpt>
      <trkpt lat="59.93329" lon="17.6431664">
        <ele>28.0155</ele>
        <time>2013-03-17T11:35:59Z</time>
      </trkpt>
      <trkpt lat="59.9333217" lon="17.6432272">
        <ele>28.4962</ele>
        <time>2013-03-17T11:36:00Z</time>
      </trkpt>
      <trkpt lat="59.933351" lon="17.6432842">
        <ele>28.4962</ele>
        <time>2013-03-17T11:36:01Z</time>
      </trkpt>
      <trkpt lat="59.9333787" lon="17.6433351">
        <ele>28.9769</ele>
        <time>2013-03-17T11:36:02Z</time>
      </trkpt>
      <trkpt lat="59.9334061" lon="17.6433812">
        <ele>28.9769</ele>
        <time>2013-03-17T11:36:03Z</time>
      </trkpt>
      <trkpt lat="59.9334351" lon="17.643422">
        <ele>29.4575</ele>
        <time>2013-03-17T11:36:04Z</time>
      </trkpt>
      <trkpt lat="59.9334647" lon="17.6434592">
        <ele>29.4575</ele>
        <time>2013-03-17T11:36:05Z</time>
      </trkpt>
      <trkpt lat="59.9334942" lon="17.6434944">
        <ele>29.9381</ele>
        <time>2013-03-17T11:36:06Z</time>
      </trkpt>
      <trkpt lat="59.9335238" lon="17.6435276">
        <ele>29.9381</ele>
        <time>2013-03-17T11:36:07Z</time>
      </trkpt>
      <trkpt lat="59.9335532" lon="17.6435591">
        <ele>30.4188</ele>
        <time>2013-03-17T11:36:08Z</time>
      </trkpt>
      <trkpt lat="59.9335829" lon="17.6435883">
        <ele>30.4188</ele>
        <time>2013-03-17T11:36:09Z</time>
      </trkpt>
      <trkpt lat="59.9336111" lon="17.6436193">
        <ele>30.4188</ele>
        <time>2013-03-17T11:36:10Z</time>
      </trkpt>
      <trkpt lat="59.9336393" lon="17.6436509">
        <ele>30.8995</ele>
        <time>2013-03-17T11:36:11Z</time>
      </trkpt>
      <trkpt lat="59.9336687" lon="17.6436792">
        <ele>30.8995</ele>
        <time>2013-03-17T11:36:12Z</time>
      </trkpt>
      <trkpt lat="59.9336979" lon="17.6437095">
        <ele>31.3801</ele>
        <time>2013-03-17T11:36:13Z</time>
      </trkpt>
      <trkpt lat="59.9337265" lon="17.6437426">
        <ele>31.3801</ele>
        <time>2013-03-17T11:36:14Z</time>
      </trkpt>
      <trkpt lat="59.9337547" lon="17.6437762">
        <ele>31.8607</ele>
        <time>2013-03-17T11:36:15Z</time>
      </trkpt>
      <trkpt lat="59.9337837" lon="17.6438089">
        <ele>31.8607</ele>
        <time>2013-03-17T11:36:16Z</time>
      </trkpt>
      <trkpt lat="59.9338133" lon="17.6438406">
        <ele>31.8607</ele>
        <time>2013-03-17T11:36:17Z</time>
      </trkpt>
      <trkpt lat="59.9338446" lon="17.6438726">
        <ele>31.8607</ele>
        <time>2013-03-17T11:36:18Z</time>
      </trkpt>
      <trkpt lat="59.9338776" lon="17.6439056">
        <ele>32.3416</ele>
        <time>2013-03-17T11:36:19Z</time>
      </trkpt>
      <trkpt lat="59.933912" lon="17.6439387">
        <ele>32.3416</ele>
        <time>2013-03-17T11:36:20Z</time>
      </trkpt>
      <trkpt lat="59.9339458" lon="17.6439752">
        <ele>32.3416</ele>
        <time>2013-03-17T11:36:21Z</time>
      </trkpt>
      <trkpt lat="59.9339786" lon="17.6440162">
        <ele>32.3416</ele>
        <time>2013-03-17T11:36:22Z</time>
      </trkpt>
      <trkpt lat="59.9340117" lon="17.6440592">
        <ele>32.8223</ele>
        <time>2013-03-17T11:36:23Z</time>
      </trkpt>
      <trkpt lat="59.9340452" lon="17.6441035">
        <ele>32.8223</ele>
        <time>2013-03-17T11:36:24Z</time>
      </trkpt>
      <trkpt lat="59.9340791" lon="17.6441478">
        <ele>32.8223</ele>
        <time>2013-03-17T11:36:25Z</time>
      </trkpt>
      <trkpt lat="59.9341141" lon="17.6441902">
        <ele>32.8223</ele>
        <time>2013-03-17T11:36:26Z</time>
      </trkpt>
      <trkpt lat="59.9341494" lon="17.6442338">
        <ele>32.8223</ele>
        <time>2013-03-17T11:36:27Z</time>
      </trkpt>
      <trkpt lat="59.9341846" lon="17.6442807">
        <ele>33.3029</ele>
        <time>2013-03-17T11:36:28Z</time>
      </trkpt>
      <trkpt lat="59.9342205" lon="17.6443289">
        <ele>33.3029</ele>
        <time>2013-03-17T11:36:29Z</time>
      </trkpt>
      <trkpt lat="59.9342576" lon="17.6443778">
        <ele>33.3029</ele>
        <time>2013-03-17T11:36:30Z</time>
      </trkpt>
      <trkpt lat="59.9342955" lon="17.6444278">
        <ele>33.3029</ele>
        <time>2013-03-17T11:36:31Z</time>
      </trkpt>
      <trkpt lat="59.9343329" lon="17.6444807">
        <ele>33.7834</ele>
        <time>2013-03-17T11:36:32Z</time>
      </trkpt>
      <trkpt lat="59.9343692" lon="17.6445352">
        <ele>33.7834</ele>
        <time>2013-03-17T11:36:33Z</time>
      </trkpt>
      <trkpt lat="59.9344022" lon="17.6445932">
        <ele>34.2642</ele>
        <time>2013-03-17T11:36:34Z</time>
      </trkpt>
      <trkpt lat="59.9344323" lon="17.6446516">
        <ele>34.7449</ele>
        <time>2013-03-17T11:36:35Z</time>
      </trkpt>
      <trkpt lat="59.9344624" lon="17.6447051">
        <ele>35.2255</ele>
        <time>2013-03-17T11:36:36Z</time>
      </trkpt>
      <trkpt lat="59.9344949" lon="17.6447538">
        <ele>35.7061</ele>
        <time>2013-03-17T11:36:37Z</time>
      </trkpt>
      <trkpt lat="59.934529" lon="17.6448018">
        <ele>35.7061</ele>
        <time>2013-03-17T11:36:38Z</time>
      </trkpt>
      <trkpt lat="59.9345639" lon="17.6448502">
        <ele>35.7061</ele>
        <time>2013-03-17T11:36:39Z</time>
      </trkpt>
      <trkpt lat="59.9346009" lon="17.6448971">
        <ele>36.1868</ele>
        <time>2013-03-17T11:36:40Z</time>
      </trkpt>
      <trkpt lat="59.9346384" lon="17.6449414">
        <ele>36.1868</ele>
        <time>2013-03-17T11:36:41Z</time>
      </trkpt>
      <trkpt lat="59.9346755" lon="17.6449879">
        <ele>36.1868</ele>
        <time>2013-03-17T11:36:42Z</time>
      </trkpt>
      <trkpt lat="59.9347116" lon="17.6450383">
        <ele>36.6675</ele>
        <time>2013-03-17T11:36:43Z</time>
      </trkpt>
      <trkpt lat="59.9347468" lon="17.6450906">
        <ele>36.6675</ele>
        <time>2013-03-17T11:36:44Z</time>
      </trkpt>
      <trkpt lat="59.9347828" lon="17.6451442">
        <ele>36.6675</ele>
        <time>2013-03-17T11:36:45Z</time>
      </trkpt>
      <trkpt lat="59.9348216" lon="17.6451945">
        <ele>36.6675</ele>
        <time>2013-03-17T11:36:46Z</time>
      </trkpt>
      <trkpt lat="59.9348607" lon="17.6452452">
        <ele>36.6675</ele>
        <time>2013-03-17T11:36:47Z</time>
      </trkpt>
      <trkpt lat="59.9349015" lon="17.6452925">
        <ele>36.6675</ele>
        <time>2013-03-17T11:36:48Z</time>
      </trkpt>
      <trkpt lat="59.934942" lon="17.645336">
        <ele>36.6675</ele>
        <time>2013-03-17T11:36:49Z</time>
      </trkpt>
      <trkpt lat="59.9349806" lon="17.6453857">
        <ele>36.1868</ele>
        <time>2013-03-17T11:36:50Z</time>
      </trkpt>
      <trkpt lat="59.9350227" lon="17.6454344">
        <ele>36.1868</ele>
        <time>2013-03-17T11:36:51Z</time>
      </trkpt>
      <trkpt lat="59.9350649" lon="17.6454842">
        <ele>36.6675</ele>
        <time>2013-03-17T11:36:52Z</time>
      </trkpt>
      <trkpt lat="59.9351091" lon="17.6455303">
        <ele>36.1868</ele>
        <time>2013-03-17T11:36:53Z</time>
      </trkpt>
      <trkpt lat="59.9351531" lon="17.6455795">
        <ele>36.6675</ele>
        <time>2013-03-17T11:36:54Z</time>
      </trkpt>
      <trkpt lat="59.9351977" lon="17.6456295">
        <ele>36.6675</ele>
        <time>2013-03-17T11:36:55Z</time>
      </trkpt>
      <trkpt lat="59.9352439" lon="17.6456804">
        <ele>36.6675</ele>
        <time>2013-03-17T11:36:56Z</time>
      </trkpt>
      <trkpt lat="59.935291" lon="17.6457298">
        <ele>36.6675</ele>
        <time>2013-03-17T11:36:57Z</time>
      </trkpt>
      <trkpt lat="59.9353376" lon="17.6457799">
        <ele>36.6675</ele>
        <time>2013-03-17T11:36:58Z</time>
      </trkpt>
      <trkpt lat="59.935385" lon="17.6458301">
        <ele>37.1481</ele>
        <time>2013-03-17T11:36:59Z</time>
      </trkpt>
      <trkpt lat="59.9354342" lon="17.6458756">
        <ele>37.1481</ele>
        <time>2013-03-17T11:37:00Z</time>
      </trkpt>
      <trkpt lat="59.9354836" lon="17.6459219">
        <ele>37.1481</ele>
        <time>2013-03-17T11:37:01Z</time>
      </trkpt>
      <trkpt lat="59.9355335" lon="17.6459721">
        <ele>37.1481</ele>
        <time>2013-03-17T11:37:02Z</time>
      </trkpt>
      <trkpt lat="59.9355808" lon="17.6460256">
        <ele>37.1481</ele>
        <time>2013-03-17T11:37:03Z</time>
      </trkpt>
      <trkpt lat="59.9356262" lon="17.6460825">
        <ele>37.1481</ele>
        <time>2013-03-17T11:37:04Z</time>
      </trkpt>
      <trkpt lat="59.9356708" lon="17.6461398">
        <ele>37.1481</ele>
        <time>2013-03-17T11:37:05Z</time>
      </trkpt>
      <trkpt lat="59.9357157" lon="17.6461943">
        <ele>37.1481</ele>
        <time>2013-03-17T11:37:06Z</time>
      </trkpt>
      <trkpt lat="59.9357598" lon="17.6462483">
        <ele>37.6287</ele>
        <time>2013-03-17T11:37:07Z</time>
      </trkpt>
      <trkpt lat="59.9358017" lon="17.6463078">
        <ele>37.6287</ele>
        <time>2013-03-17T11:37:08Z</time>
      </trkpt>
      <trkpt lat="59.9358431" lon="17.6463654">
        <ele>37.6287</ele>
        <time>2013-03-17T11:37:09Z</time>
      </trkpt>
      <trkpt lat="59.9358858" lon="17.6464213">
        <ele>37.6287</ele>
        <time>2013-03-17T11:37:10Z</time>
      </trkpt>
      <trkpt lat="59.9359299" lon="17.6464772">
        <ele>37.6287</ele>
        <time>2013-03-17T11:37:11Z</time>
      </trkpt>
      <trkpt lat="59.9359747" lon="17.6465335">
        <ele>37.6287</ele>
        <time>2013-03-17T11:37:12Z</time>
      </trkpt>
      <trkpt lat="59.9360199" lon="17.6465894">
        <ele>37.6287</ele>
        <time>2013-03-17T11:37:13Z</time>
      </trkpt>
      <trkpt lat="59.9360657" lon="17.646645">
        <ele>37.6287</ele>
        <time>2013-03-17T11:37:14Z</time>
      </trkpt>
      <trkpt lat="59.9361125" lon="17.6466999">
        <ele>37.6287</ele>
        <time>2013-03-17T11:37:15Z</time>
      </trkpt>
      <trkpt lat="59.9361593" lon="17.6467555">
        <ele>37.6287</ele>
        <time>2013-03-17T11:37:16Z</time>
      </trkpt>
      <trkpt lat="59.9362048" lon="17.6468159">
        <ele>37.6287</ele>
        <time>2013-03-17T11:37:17Z</time>
      </trkpt>
      <trkpt lat="59.9362503" lon="17.6468722">
        <ele>37.6287</ele>
        <time>2013-03-17T11:37:18Z</time>
      </trkpt>
      <trkpt lat="59.9362904" lon="17.6469372">
        <ele>37.6287</ele>
        <time>2013-03-17T11:37:19Z</time>
      </trkpt>
      <trkpt lat="59.9363119" lon="17.6470196">
        <ele>37.1481</ele>
        <time>2013-03-17T11:37:20Z</time>
      </trkpt>
      <trkpt lat="59.9363167" lon="17.6471102">
        <ele>37.1481</ele>
        <time>2013-03-17T11:37:21Z</time>
      </trkpt>
      <trkpt lat="59.9363272" lon="17.6471971">
        <ele>37.1481</ele>
        <time>2013-03-17T11:37:22Z</time>
      </trkpt>
      <trkpt lat="59.9363544" lon="17.6472734">
        <ele>37.6287</ele>
        <time>2013-03-17T11:37:23Z</time>
      </trkpt>
      <trkpt lat="59.9363925" lon="17.6473418">
        <ele>37.6287</ele>
        <time>2013-03-17T11:37:24Z</time>
      </trkpt>
      <trkpt lat="59.936437" lon="17.6474071">
        <ele>37.6287</ele>
        <time>2013-03-17T11:37:25Z</time>
      </trkpt>
      <trkpt lat="59.9364861" lon="17.6474693">
        <ele>37.1481</ele>
        <time>2013-03-17T11:37:26Z</time>
      </trkpt>
      <trkpt lat="59.9365373" lon="17.6475301">
        <ele>37.1481</ele>
        <time>2013-03-17T11:37:27Z</time>
      </trkpt>
      <trkpt lat="59.9365882" lon="17.6475935">
        <ele>37.1481</ele>
        <time>2013-03-17T11:37:28Z</time>
      </trkpt>
      <trkpt lat="59.9366398" lon="17.6476593">
        <ele>37.1481</ele>
        <time>2013-03-17T11:37:29Z</time>
      </trkpt>
      <trkpt lat="59.9366924" lon="17.6477251">
        <ele>37.1481</ele>
        <time>2013-03-17T11:37:30Z</time>
      </trkpt>
      <trkpt lat="59.9367463" lon="17.6477924">
        <ele>37.1481</ele>
        <time>2013-03-17T11:37:31Z</time>
      </trkpt>
      <trkpt lat="59.9368009" lon="17.6478634">
        <ele>36.6675</ele>
        <time>2013-03-17T11:37:32Z</time>
      </trkpt>
      <trkpt lat="59.9368567" lon="17.6479369">
        <ele>36.6675</ele>
        <time>2013-03-17T11:37:33Z</time>
      </trkpt>
      <trkpt lat="59.9369146" lon="17.648011">
        <ele>36.6675</ele>
        <time>2013-03-17T11:37:34Z</time>
      </trkpt>
      <trkpt lat="59.9369741" lon="17.6480861">
        <ele>36.6675</ele>
        <time>2013-03-17T11:37:35Z</time>
      </trkpt>
      <trkpt lat="59.9370336" lon="17.6481647">
        <ele>36.6675</ele>
        <time>2013-03-17T11:37:36Z</time>
      </trkpt>
      <trkpt lat="59.9370932" lon="17.6482446">
        <ele>36.6675</ele>
        <time>2013-03-17T11:37:37Z</time>
      </trkpt>
      <trkpt lat="59.9371534" lon="17.6483249">
        <ele>36.1868</ele>
        <time>2013-03-17T11:37:38Z</time>
      </trkpt>
      <trkpt lat="59.9372145" lon="17.6484063">
        <ele>36.1868</ele>
        <time>2013-03-17T11:37:39Z</time>
      </trkpt>
      <trkpt lat="59.9372762" lon="17.6484902">
        <ele>36.1868</ele>
        <time>2013-03-17T11:37:40Z</time>
      </trkpt>
      <trkpt lat="59.9373376" lon="17.6485784">
        <ele>36.1868</ele>
        <time>2013-03-17T11:37:41Z</time>
      </trkpt>
      <trkpt lat="59.9373989" lon="17.6486695">
        <ele>35.7061</ele>
        <time>2013-03-17T11:37:42Z</time>
      </trkpt>
      <trkpt lat="59.9374601" lon="17.6487624">
        <ele>35.7061</ele>
        <time>2013-03-17T11:37:43Z</time>
      </trkpt>
      <trkpt lat="59.9375201" lon="17.6488565">
        <ele>35.7061</ele>
        <time>2013-03-17T11:37:44Z</time>
      </trkpt>
      <trkpt lat="59.937579" lon="17.6489533">
        <ele>35.7061</ele>
        <time>2013-03-17T11:37:45Z</time>
      </trkpt>
      <trkpt lat="59.9376363" lon="17.6490536">
        <ele>35.7061</ele>
        <time>2013-03-17T11:37:46Z</time>
      </trkpt>
      <trkpt lat="59.9376921" lon="17.6491584">
        <ele>35.7061</ele>
        <time>2013-03-17T11:37:47Z</time>
      </trkpt>
      <trkpt lat="59.9377465" lon="17.6492683">
        <ele>35.2255</ele>
        <time>2013-03-17T11:37:48Z</time>
      </trkpt>
      <trkpt lat="59.9377952" lon="17.6493915">
        <ele>35.2255</ele>
        <time>2013-03-17T11:37:49Z</time>
      </trkpt>
      <trkpt lat="59.9378381" lon="17.6495251">
        <ele>35.2255</ele>
        <time>2013-03-17T11:37:50Z</time>
      </trkpt>
      <trkpt lat="59.9378823" lon="17.6496547">
        <ele>35.2255</ele>
        <time>2013-03-17T11:37:51Z</time>
      </trkpt>
      <trkpt lat="59.9379309" lon="17.6497786">
        <ele>35.2255</ele>
        <time>2013-03-17T11:37:52Z</time>
      </trkpt>
      <trkpt lat="59.9379806" lon="17.6499005">
        <ele>34.7449</ele>
        <time>2013-03-17T11:37:53Z</time>
      </trkpt>
      <trkpt lat="59.9380288" lon="17.650023">
        <ele>34.7449</ele>
        <time>2013-03-17T11:37:54Z</time>
      </trkpt>
      <trkpt lat="59.9380754" lon="17.6501481">
        <ele>34.7449</ele>
        <time>2013-03-17T11:37:55Z</time>
      </trkpt>
      <trkpt lat="59.93812" lon="17.6502756">
        <ele>34.7449</ele>
        <time>2013-03-17T11:37:56Z</time>
      </trkpt>
      <trkpt lat="59.9381635" lon="17.6504043">
        <ele>34.7449</ele>
        <time>2013-03-17T11:37:57Z</time>
      </trkpt>
      <trkpt lat="59.9382065" lon="17.650532">
        <ele>34.7449</ele>
        <time>2013-03-17T11:37:58Z</time>
      </trkpt>
      <trkpt lat="59.9382508" lon="17.6506565">
        <ele>34.7449</ele>
        <time>2013-03-17T11:37:59Z</time>
      </trkpt>
      <trkpt lat="59.9382971" lon="17.6507752">
        <ele>34.7449</ele>
        <time>2013-03-17T11:38:00Z</time>
      </trkpt>
      <trkpt lat="59.9383452" lon="17.6508856">
        <ele>34.7449</ele>
        <time>2013-03-17T11:38:01Z</time>
      </trkpt>
      <trkpt lat="59.9383946" lon="17.6509884">
        <ele>34.7449</ele>
        <time>2013-03-17T11:38:02Z</time>
      </trkpt>
      <trkpt lat="59.9384432" lon="17.6510914">
        <ele>34.7449</ele>
        <time>2013-03-17T11:38:03Z</time>
      </trkpt>
      <trkpt lat="59.9384866" lon="17.651201">
        <ele>34.7449</ele>
        <time>2013-03-17T11:38:04Z</time>
      </trkpt>
      <trkpt lat="59.9385256" lon="17.6513124">
        <ele>34.7449</ele>
        <time>2013-03-17T11:38:05Z</time>
      </trkpt>
      <trkpt lat="59.9385632" lon="17.6514226">
        <ele>34.7449</ele>
        <time>2013-03-17T11:38:06Z</time>
      </trkpt>
      <trkpt lat="59.9385992" lon="17.6515324">
        <ele>35.2255</ele>
        <time>2013-03-17T11:38:07Z</time>
      </trkpt>
      <trkpt lat="59.9386335" lon="17.6516433">
        <ele>35.2255</ele>
        <time>2013-03-17T11:38:08Z</time>
      </trkpt>
      <trkpt lat="59.9386668" lon="17.651755">
        <ele>35.2255</ele>
        <time>2013-03-17T11:38:09Z</time>
      </trkpt>
      <trkpt lat="59.9386996" lon="17.6518666">
        <ele>35.2255</ele>
        <time>2013-03-17T11:38:10Z</time>
      </trkpt>
      <trkpt lat="59.9387327" lon="17.6519781">
        <ele>35.2255</ele>
        <time>2013-03-17T11:38:11Z</time>
      </trkpt>
      <trkpt lat="59.9387654" lon="17.6520903">
        <ele>35.2255</ele>
        <time>2013-03-17T11:38:12Z</time>
      </trkpt>
      <trkpt lat="59.9387976" lon="17.6522023">
        <ele>35.7061</ele>
        <time>2013-03-17T11:38:13Z</time>
      </trkpt>
      <trkpt lat="59.9388296" lon="17.6523148">
        <ele>35.7061</ele>
        <time>2013-03-17T11:38:14Z</time>
      </trkpt>
      <trkpt lat="59.9388613" lon="17.652428">
        <ele>35.7061</ele>
        <time>2013-03-17T11:38:15Z</time>
      </trkpt>
      <trkpt lat="59.9388929" lon="17.6525409">
        <ele>35.7061</ele>
        <time>2013-03-17T11:38:16Z</time>
      </trkpt>
      <trkpt lat="59.9389239" lon="17.6526535">
        <ele>35.7061</ele>
        <time>2013-03-17T11:38:17Z</time>
      </trkpt>
      <trkpt lat="59.9389534" lon="17.6527673">
        <ele>35.7061</ele>
        <time>2013-03-17T11:38:18Z</time>
      </trkpt>
      <trkpt lat="59.9389816" lon="17.6528823">
        <ele>35.7061</ele>
        <time>2013-03-17T11:38:19Z</time>
      </trkpt>
      <trkpt lat="59.9390097" lon="17.6529969">
        <ele>35.7061</ele>
        <time>2013-03-17T11:38:20Z</time>
      </trkpt>
      <trkpt lat="59.9390384" lon="17.6531107">
        <ele>35.7061</ele>
        <time>2013-03-17T11:38:21Z</time>
      </trkpt>
      <trkpt lat="59.9390669" lon="17.6532244">
        <ele>35.7061</ele>
        <time>2013-03-17T11:38:22Z</time>
      </trkpt>
      <trkpt lat="59.9390944" lon="17.6533393">
        <ele>35.7061</ele>
        <time>2013-03-17T11:38:23Z</time>
      </trkpt>
      <trkpt lat="59.9391209" lon="17.6534557">
        <ele>35.7061</ele>
        <time>2013-03-17T11:38:24Z</time>
      </trkpt>
      <trkpt lat="59.9391477" lon="17.6535725">
        <ele>35.7061</ele>
        <time>2013-03-17T11:38:25Z</time>
      </trkpt>
      <trkpt lat="59.939175" lon="17.6536894">
        <ele>35.7061</ele>
        <time>2013-03-17T11:38:26Z</time>
      </trkpt>
      <trkpt lat="59.9392016" lon="17.6538069">
        <ele>35.7061</ele>
        <time>2013-03-17T11:38:27Z</time>
      </trkpt>
      <trkpt lat="59.9392276" lon="17.6539253">
        <ele>35.7061</ele>
        <time>2013-03-17T11:38:28Z</time>
      </trkpt>
      <trkpt lat="59.9392525" lon="17.6540453">
        <ele>35.7061</ele>
        <time>2013-03-17T11:38:29Z</time>
      </trkpt>
      <trkpt lat="59.9392772" lon="17.6541656">
        <ele>35.7061</ele>
        <time>2013-03-17T11:38:30Z</time>
      </trkpt>
      <trkpt lat="59.9393006" lon="17.6542862">
        <ele>35.7061</ele>
        <time>2013-03-17T11:38:31Z</time>
      </trkpt>
      <trkpt lat="59.9393236" lon="17.6544056">
        <ele>35.7061</ele>
        <time>2013-03-17T11:38:32Z</time>
      </trkpt>
      <trkpt lat="59.9393487" lon="17.6545219">
        <ele>36.1868</ele>
        <time>2013-03-17T11:38:33Z</time>
      </trkpt>
      <trkpt lat="59.9393755" lon="17.6546384">
        <ele>36.1868</ele>
        <time>2013-03-17T11:38:34Z</time>
      </trkpt>
      <trkpt lat="59.9394008" lon="17.6547577">
        <ele>36.1868</ele>
        <time>2013-03-17T11:38:35Z</time>
      </trkpt>
      <trkpt lat="59.9394245" lon="17.6548787">
        <ele>36.1868</ele>
        <time>2013-03-17T11:38:36Z</time>
      </trkpt>
      <trkpt lat="59.9394487" lon="17.6550001">
        <ele>35.7061</ele>
        <time>2013-03-17T11:38:37Z</time>
      </trkpt>
      <trkpt lat="59.939473" lon="17.6551222">
        <ele>35.7061</ele>
        <time>2013-03-17T11:38:38Z</time>
      </trkpt>
      <trkpt lat="59.9394974" lon="17.6552435">
        <ele>35.7061</ele>
        <time>2013-03-17T11:38:39Z</time>
      </trkpt>
      <trkpt lat="59.9395222" lon="17.6553647">
        <ele>35.7061</ele>
        <time>2013-03-17T11:38:40Z</time>
      </trkpt>
      <trkpt lat="59.9395471" lon="17.6554874">
        <ele>35.7061</ele>
        <time>2013-03-17T11:38:41Z</time>
      </trkpt>
      <trkpt lat="59.9395726" lon="17.6556113">
        <ele>35.7061</ele>
        <time>2013-03-17T11:38:42Z</time>
      </trkpt>
      <trkpt lat="59.9395989" lon="17.6557365">
        <ele>35.7061</ele>
        <time>2013-03-17T11:38:43Z</time>
      </trkpt>
      <trkpt lat="59.9396248" lon="17.6558633">
        <ele>35.2255</ele>
        <time>2013-03-17T11:38:44Z</time>
      </trkpt>
      <trkpt lat="59.9396507" lon="17.6559918">
        <ele>35.2255</ele>
        <time>2013-03-17T11:38:45Z</time>
      </trkpt>
      <trkpt lat="59.9396769" lon="17.6561216">
        <ele>35.2255</ele>
        <time>2013-03-17T11:38:46Z</time>
      </trkpt>
      <trkpt lat="59.9397033" lon="17.6562529">
        <ele>35.2255</ele>
        <time>2013-03-17T11:38:47Z</time>
      </trkpt>
      <trkpt lat="59.939731" lon="17.6563855">
        <ele>35.2255</ele>
        <time>2013-03-17T11:38:48Z</time>
      </trkpt>
      <trkpt lat="59.9397591" lon="17.6565199">
        <ele>34.7449</ele>
        <time>2013-03-17T11:38:49Z</time>
      </trkpt>
      <trkpt lat="59.939786" lon="17.6566566">
        <ele>34.7449</ele>
        <time>2013-03-17T11:38:50Z</time>
      </trkpt>
      <trkpt lat="59.9398119" lon="17.6567945">
        <ele>34.7449</ele>
        <time>2013-03-17T11:38:51Z</time>
      </trkpt>
      <trkpt lat="59.9398396" lon="17.656932">
        <ele>34.7449</ele>
        <time>2013-03-17T11:38:52Z</time>
      </trkpt>
      <trkpt lat="59.9398684" lon="17.6570699">
        <ele>34.7449</ele>
        <time>2013-03-17T11:38:53Z</time>
      </trkpt>
      <trkpt lat="59.9398974" lon="17.6572097">
        <ele>34.2642</ele>
        <time>2013-03-17T11:38:54Z</time>
      </trkpt>
      <trkpt lat="59.9399253" lon="17.6573522">
        <ele>34.2642</ele>
        <time>2013-03-17T11:38:55Z</time>
      </trkpt>
      <trkpt lat="59.9399515" lon="17.6574952">
        <ele>33.7834</ele>
        <time>2013-03-17T11:38:56Z</time>
      </trkpt>
      <trkpt lat="59.9399775" lon="17.6576341">
        <ele>33.7834</ele>
        <time>2013-03-17T11:38:57Z</time>
      </trkpt>
      <trkpt lat="59.9400035" lon="17.6577693">
        <ele>33.7834</ele>
        <time>2013-03-17T11:38:58Z</time>
      </trkpt>
      <trkpt lat="59.9400309" lon="17.6579005">
        <ele>33.3029</ele>
        <time>2013-03-17T11:38:59Z</time>
      </trkpt>
      <trkpt lat="59.9400601" lon="17.6580299">
        <ele>33.3029</ele>
        <time>2013-03-17T11:39:00Z</time>
      </trkpt>
      <trkpt lat="59.9400879" lon="17.6581629">
        <ele>33.3029</ele>
        <time>2013-03-17T11:39:01Z</time>
      </trkpt>
      <trkpt lat="59.9401154" lon="17.6582976">
        <ele>32.8223</ele>
        <time>2013-03-17T11:39:02Z</time>
      </trkpt>
      <trkpt lat="59.9401449" lon="17.6584323">
        <ele>32.8223</ele>
        <time>2013-03-17T11:39:03Z</time>
      </trkpt>
      <trkpt lat="59.9401753" lon="17.658568">
        <ele>32.3416</ele>
        <time>2013-03-17T11:39:04Z</time>
      </trkpt>
      <trkpt lat="59.9402059" lon="17.6587038">
        <ele>32.3416</ele>
        <time>2013-03-17T11:39:05Z</time>
      </trkpt>
      <trkpt lat="59.9402359" lon="17.6588398">
        <ele>32.3416</ele>
        <time>2013-03-17T11:39:06Z</time>
      </trkpt>
      <trkpt lat="59.9402649" lon="17.6589758">
        <ele>32.3416</ele>
        <time>2013-03-17T11:39:07Z</time>
      </trkpt>
      <trkpt lat="59.9402913" lon="17.6591107">
        <ele>32.3416</ele>
        <time>2013-03-17T11:39:08Z</time>
      </trkpt>
      <trkpt lat="59.9403147" lon="17.6592439">
        <ele>32.3416</ele>
        <time>2013-03-17T11:39:09Z</time>
      </trkpt>
      <trkpt lat="59.9403372" lon="17.6593747">
        <ele>32.8223</ele>
        <time>2013-03-17T11:39:10Z</time>
      </trkpt>
      <trkpt lat="59.9403602" lon="17.6595024">
        <ele>32.8223</ele>
        <time>2013-03-17T11:39:11Z</time>
      </trkpt>
      <trkpt lat="59.940384" lon="17.6596247">
        <ele>32.8223</ele>
        <time>2013-03-17T11:39:12Z</time>
      </trkpt>
      <trkpt lat="59.9404106" lon="17.6597399">
        <ele>33.3029</ele>
        <time>2013-03-17T11:39:13Z</time>
      </trkpt>
      <trkpt lat="59.9404402" lon="17.6598504">
        <ele>33.3029</ele>
        <time>2013-03-17T11:39:14Z</time>
      </trkpt>
      <trkpt lat="59.9404703" lon="17.6599577">
        <ele>33.3029</ele>
        <time>2013-03-17T11:39:15Z</time>
      </trkpt>
      <trkpt lat="59.9404928" lon="17.6600733">
        <ele>33.3029</ele>
        <time>2013-03-17T11:39:16Z</time>
      </trkpt>
      <trkpt lat="59.9405206" lon="17.6601853">
        <ele>33.3029</ele>
        <time>2013-03-17T11:39:17Z</time>
      </trkpt>
      <trkpt lat="59.9405402" lon="17.6603044">
        <ele>33.3029</ele>
        <time>2013-03-17T11:39:18Z</time>
      </trkpt>
      <trkpt lat="59.9405401" lon="17.6604345">
        <ele>33.3029</ele>
        <time>2013-03-17T11:39:19Z</time>
      </trkpt>
      <trkpt lat="59.9405216" lon="17.6605748">
        <ele>32.8223</ele>
        <time>2013-03-17T11:39:20Z</time>
      </trkpt>
      <trkpt lat="59.9404893" lon="17.6607042">
        <ele>32.3416</ele>
        <time>2013-03-17T11:39:21Z</time>
      </trkpt>
      <trkpt lat="59.9404537" lon="17.6608318">
        <ele>31.8607</ele>
        <time>2013-03-17T11:39:22Z</time>
      </trkpt>
      <trkpt lat="59.9404251" lon="17.6609678">
        <ele>31.8607</ele>
        <time>2013-03-17T11:39:23Z</time>
      </trkpt>
      <trkpt lat="59.9404076" lon="17.6611088">
        <ele>31.8607</ele>
        <time>2013-03-17T11:39:24Z</time>
      </trkpt>
      <trkpt lat="59.9404004" lon="17.6612515">
        <ele>31.8607</ele>
        <time>2013-03-17T11:39:25Z</time>
      </trkpt>
      <trkpt lat="59.9403992" lon="17.661387">
        <ele>32.3416</ele>
        <time>2013-03-17T11:39:26Z</time>
      </trkpt>
      <trkpt lat="59.9404075" lon="17.6615207">
        <ele>32.3416</ele>
        <time>2013-03-17T11:39:27Z</time>
      </trkpt>
      <trkpt lat="59.9404234" lon="17.6616505">
        <ele>32.8223</ele>
        <time>2013-03-17T11:39:28Z</time>
      </trkpt>
      <trkpt lat="59.9404484" lon="17.6617694">
        <ele>32.8223</ele>
        <time>2013-03-17T11:39:29Z</time>
      </trkpt>
      <trkpt lat="59.940483" lon="17.6618734">
        <ele>33.3029</ele>
        <time>2013-03-17T11:39:30Z</time>
      </trkpt>
      <trkpt lat="59.9405267" lon="17.6619595">
        <ele>33.3029</ele>
        <time>2013-03-17T11:39:31Z</time>
      </trkpt>
      <trkpt lat="59.9405767" lon="17.6620252">
        <ele>33.3029</ele>
        <time>2013-03-17T11:39:32Z</time>
      </trkpt>
      <trkpt lat="59.9406313" lon="17.6620729">
        <ele>33.7834</ele>
        <time>2013-03-17T11:39:33Z</time>
      </trkpt>
      <trkpt lat="59.9406883" lon="17.6621065">
        <ele>33.7834</ele>
        <time>2013-03-17T11:39:34Z</time>
      </trkpt>
      <trkpt lat="59.9407459" lon="17.6621272">
        <ele>33.7834</ele>
        <time>2013-03-17T11:39:35Z</time>
      </trkpt>
      <trkpt lat="59.9408029" lon="17.6621414">
        <ele>33.7834</ele>
        <time>2013-03-17T11:39:36Z</time>
      </trkpt>
      <trkpt lat="59.9408603" lon="17.6621558">
        <ele>33.7834</ele>
        <time>2013-03-17T11:39:37Z</time>
      </trkpt>
      <trkpt lat="59.9409183" lon="17.6621734">
        <ele>33.7834</ele>
        <time>2013-03-17T11:39:38Z</time>
      </trkpt>
      <trkpt lat="59.9409773" lon="17.6621941">
        <ele>34.2642</ele>
        <time>2013-03-17T11:39:39Z</time>
      </trkpt>
      <trkpt lat="59.9410363" lon="17.6622164">
        <ele>34.2642</ele>
        <time>2013-03-17T11:39:40Z</time>
      </trkpt>
      <trkpt lat="59.941096" lon="17.6622413">
        <ele>34.2642</ele>
        <time>2013-03-17T11:39:41Z</time>
      </trkpt>
      <trkpt lat="59.9411564" lon="17.6622725">
        <ele>34.2642</ele>
        <time>2013-03-17T11:39:42Z</time>
      </trkpt>
      <trkpt lat="59.941217" lon="17.662311">
        <ele>34.2642</ele>
        <time>2013-03-17T11:39:43Z</time>
      </trkpt>
      <trkpt lat="59.9412773" lon="17.6623551">
        <ele>34.2642</ele>
        <time>2013-03-17T11:39:44Z</time>
      </trkpt>
      <trkpt lat="59.9413358" lon="17.6624084">
        <ele>34.2642</ele>
        <time>2013-03-17T11:39:45Z</time>
      </trkpt>
      <trkpt lat="59.9413922" lon="17.6624708">
        <ele>34.2642</ele>
        <time>2013-03-17T11:39:46Z</time>
      </trkpt>
      <trkpt lat="59.9414466" lon="17.6625402">
        <ele>34.2642</ele>
        <time>2013-03-17T11:39:47Z</time>
      </trkpt>
      <trkpt lat="59.9414985" lon="17.6626148">
        <ele>34.2642</ele>
        <time>2013-03-17T11:39:48Z</time>
      </trkpt>
      <trkpt lat="59.941548" lon="17.6626954">
        <ele>34.2642</ele>
        <time>2013-03-17T11:39:49Z</time>
      </trkpt>
      <trkpt lat="59.9415968" lon="17.6627789">
        <ele>34.2642</ele>
        <time>2013-03-17T11:39:50Z</time>
      </trkpt>
      <trkpt lat="59.9416456" lon="17.662865">
        <ele>34.7449</ele>
        <time>2013-03-17T11:39:51Z</time>
      </trkpt>
      <trkpt lat="59.9416943" lon="17.6629531">
        <ele>34.7449</ele>
        <time>2013-03-17T11:39:52Z</time>
      </trkpt>
      <trkpt lat="59.9417433" lon="17.6630409">
        <ele>34.7449</ele>
        <time>2013-03-17T11:39:53Z</time>
      </trkpt>
      <trkpt lat="59.9417928" lon="17.663129">
        <ele>34.7449</ele>
        <time>2013-03-17T11:39:54Z</time>
      </trkpt>
      <trkpt lat="59.9418434" lon="17.663218">
        <ele>34.7449</ele>
        <time>2013-03-17T11:39:55Z</time>
      </trkpt>
      <trkpt lat="59.9418953" lon="17.6633077">
        <ele>34.7449</ele>
        <time>2013-03-17T11:39:56Z</time>
      </trkpt>
      <trkpt lat="59.9419491" lon="17.6633974">
        <ele>34.7449</ele>
        <time>2013-03-17T11:39:57Z</time>
      </trkpt>
      <trkpt lat="59.9420044" lon="17.6634861">
        <ele>34.7449</ele>
        <time>2013-03-17T11:39:58Z</time>
      </trkpt>
      <trkpt lat="59.9420611" lon="17.6635741">
        <ele>34.7449</ele>
        <time>2013-03-17T11:39:59Z</time>
      </trkpt>
      <trkpt lat="59.9421194" lon="17.6636604">
        <ele>34.7449</ele>
        <time>2013-03-17T11:40:00Z</time>
      </trkpt>
      <trkpt lat="59.9421782" lon="17.663744">
        <ele>34.7449</ele>
        <time>2013-03-17T11:40:01Z</time>
      </trkpt>
      <trkpt lat="59.942238" lon="17.6638264">
        <ele>34.7449</ele>
        <time>2013-03-17T11:40:02Z</time>
      </trkpt>
      <trkpt lat="59.9422987" lon="17.6639085">
        <ele>34.7449</ele>
        <time>2013-03-17T11:40:03Z</time>
      </trkpt>
      <trkpt lat="59.9423595" lon="17.6639914">
        <ele>34.7449</ele>
        <time>2013-03-17T11:40:04Z</time>
      </trkpt>
      <trkpt lat="59.9424204" lon="17.6640757">
        <ele>34.2642</ele>
        <time>2013-03-17T11:40:05Z</time>
      </trkpt>
      <trkpt lat="59.9424831" lon="17.6641564">
        <ele>34.2642</ele>
        <time>2013-03-17T11:40:06Z</time>
      </trkpt>
      <trkpt lat="59.9425481" lon="17.6642329">
        <ele>34.2642</ele>
        <time>2013-03-17T11:40:07Z</time>
      </trkpt>
      <trkpt lat="59.9426137" lon="17.6643092">
        <ele>33.7834</ele>
        <time>2013-03-17T11:40:08Z</time>
      </trkpt>
      <trkpt lat="59.9426786" lon="17.6643839">
        <ele>33.7834</ele>
        <time>2013-03-17T11:40:09Z</time>
      </trkpt>
      <trkpt lat="59.9427432" lon="17.6644567">
        <ele>33.7834</ele>
        <time>2013-03-17T11:40:10Z</time>
      </trkpt>
      <trkpt lat="59.9428074" lon="17.6645289">
        <ele>33.3029</ele>
        <time>2013-03-17T11:40:11Z</time>
      </trkpt>
      <trkpt lat="59.9428722" lon="17.664599">
        <ele>33.3029</ele>
        <time>2013-03-17T11:40:12Z</time>
      </trkpt>
      <trkpt lat="59.9429376" lon="17.6646648">
        <ele>33.3029</ele>
        <time>2013-03-17T11:40:13Z</time>
      </trkpt>
      <trkpt lat="59.9430062" lon="17.6647291">
        <ele>32.8223</ele>
        <time>2013-03-17T11:40:14Z</time>
      </trkpt>
      <trkpt lat="59.9430778" lon="17.664795">
        <ele>32.3416</ele>
        <time>2013-03-17T11:40:15Z</time>
      </trkpt>
      <trkpt lat="59.9431499" lon="17.6648596">
        <ele>32.3416</ele>
        <time>2013-03-17T11:40:16Z</time>
      </trkpt>
      <trkpt lat="59.943224" lon="17.6649209">
        <ele>32.3416</ele>
        <time>2013-03-17T11:40:17Z</time>
      </trkpt>
      <trkpt lat="59.9433" lon="17.6649815">
        <ele>31.8607</ele>
        <time>2013-03-17T11:40:18Z</time>
      </trkpt>
      <trkpt lat="59.9433764" lon="17.6650442">
        <ele>31.8607</ele>
        <time>2013-03-17T11:40:19Z</time>
      </trkpt>
      <trkpt lat="59.9434534" lon="17.6651083">
        <ele>31.8607</ele>
        <time>2013-03-17T11:40:20Z</time>
      </trkpt>
      <trkpt lat="59.9435306" lon="17.6651695">
        <ele>31.8607</ele>
        <time>2013-03-17T11:40:21Z</time>
      </trkpt>
      <trkpt lat="59.9436089" lon="17.665226">
        <ele>31.3801</ele>
        <time>2013-03-17T11:40:22Z</time>
      </trkpt>
      <trkpt lat="59.9436887" lon="17.6652792">
        <ele>31.3801</ele>
        <time>2013-03-17T11:40:23Z</time>
      </trkpt>
      <trkpt lat="59.9437703" lon="17.6653296">
        <ele>31.3801</ele>
        <time>2013-03-17T11:40:24Z</time>
      </trkpt>
      <trkpt lat="59.9438534" lon="17.6653767">
        <ele>30.8995</ele>
        <time>2013-03-17T11:40:25Z</time>
      </trkpt>
      <trkpt lat="59.9439383" lon="17.6654207">
        <ele>30.8995</ele>
        <time>2013-03-17T11:40:26Z</time>
      </trkpt>
      <trkpt lat="59.9440244" lon="17.6654621">
        <ele>30.8995</ele>
        <time>2013-03-17T11:40:27Z</time>
      </trkpt>
      <trkpt lat="59.9441119" lon="17.6655005">
        <ele>30.4188</ele>
        <time>2013-03-17T11:40:28Z</time>
      </trkpt>
      <trkpt lat="59.9442004" lon="17.6655374">
        <ele>30.4188</ele>
        <time>2013-03-17T11:40:29Z</time>
      </trkpt>
      <trkpt lat="59.9442893" lon="17.6655748">
        <ele>30.4188</ele>
        <time>2013-03-17T11:40:30Z</time>
      </trkpt>
      <trkpt lat="59.9443786" lon="17.6656104">
        <ele>30.4188</ele>
        <time>2013-03-17T11:40:31Z</time>
      </trkpt>
      <trkpt lat="59.9444688" lon="17.6656456">
        <ele>29.9381</ele>
        <time>2013-03-17T11:40:32Z</time>
      </trkpt>
      <trkpt lat="59.9445592" lon="17.6656824">
        <ele>29.9381</ele>
        <time>2013-03-17T11:40:33Z</time>
      </trkpt>
      <trkpt lat="59.94465" lon="17.6657198">
        <ele>29.9381</ele>
        <time>2013-03-17T11:40:34Z</time>
      </trkpt>
      <trkpt lat="59.9447412" lon="17.6657586">
        <ele>29.9381</ele>
        <time>2013-03-17T11:40:35Z</time>
      </trkpt>
      <trkpt lat="59.9448319" lon="17.6657974">
        <ele>29.9381</ele>
        <time>2013-03-17T11:40:36Z</time>
      </trkpt>
      <trkpt lat="59.944922" lon="17.6658346">
        <ele>29.9381</ele>
        <time>2013-03-17T11:40:37Z</time>
      </trkpt>
      <trkpt lat="59.9450122" lon="17.6658703">
        <ele>29.9381</ele>
        <time>2013-03-17T11:40:38Z</time>
      </trkpt>
      <trkpt lat="59.9451026" lon="17.6659052">
        <ele>29.9381</ele>
        <time>2013-03-17T11:40:39Z</time>
      </trkpt>
      <trkpt lat="59.9451934" lon="17.6659399">
        <ele>29.4575</ele>
        <time>2013-03-17T11:40:40Z</time>
      </trkpt>
      <trkpt lat="59.9452841" lon="17.6659749">
        <ele>29.4575</ele>
        <time>2013-03-17T11:40:41Z</time>
      </trkpt>
      <trkpt lat="59.9453752" lon="17.6660088">
        <ele>29.4575</ele>
        <time>2013-03-17T11:40:42Z</time>
      </trkpt>
      <trkpt lat="59.9454668" lon="17.6660415">
        <ele>29.4575</ele>
        <time>2013-03-17T11:40:43Z</time>
      </trkpt>
      <trkpt lat="59.9455591" lon="17.6660744">
        <ele>29.4575</ele>
        <time>2013-03-17T11:40:44Z</time>
      </trkpt>
      <trkpt lat="59.9456512" lon="17.6661076">
        <ele>29.4575</ele>
        <time>2013-03-17T11:40:45Z</time>
      </trkpt>
      <trkpt lat="59.945743" lon="17.6661419">
        <ele>29.4575</ele>
        <time>2013-03-17T11:40:46Z</time>
      </trkpt>
      <trkpt lat="59.9458338" lon="17.6661762">
        <ele>29.4575</ele>
        <time>2013-03-17T11:40:47Z</time>
      </trkpt>
      <trkpt lat="59.9459229" lon="17.6662108">
        <ele>29.4575</ele>
        <time>2013-03-17T11:40:48Z</time>
      </trkpt>
      <trkpt lat="59.9460109" lon="17.6662466">
        <ele>29.4575</ele>
        <time>2013-03-17T11:40:49Z</time>
      </trkpt>
      <trkpt lat="59.946099" lon="17.6662833">
        <ele>28.9769</ele>
        <time>2013-03-17T11:40:50Z</time>
      </trkpt>
      <trkpt lat="59.946187" lon="17.6663201">
        <ele>28.9769</ele>
        <time>2013-03-17T11:40:51Z</time>
      </trkpt>
      <trkpt lat="59.946275" lon="17.6663615">
        <ele>28.9769</ele>
        <time>2013-03-17T11:40:52Z</time>
      </trkpt>
      <trkpt lat="59.9463631" lon="17.6664095">
        <ele>28.9769</ele>
        <time>2013-03-17T11:40:53Z</time>
      </trkpt>
      <trkpt lat="59.9464513" lon="17.6664553">
        <ele>28.9769</ele>
        <time>2013-03-17T11:40:54Z</time>
      </trkpt>
      <trkpt lat="59.9465401" lon="17.6664919">
        <ele>28.9769</ele>
        <time>2013-03-17T11:40:55Z</time>
      </trkpt>
      <trkpt lat="59.9466289" lon="17.6665184">
        <ele>28.9769</ele>
        <time>2013-03-17T11:40:56Z</time>
      </trkpt>
      <trkpt lat="59.9467178" lon="17.6665361">
        <ele>28.4962</ele>
        <time>2013-03-17T11:40:57Z</time>
      </trkpt>
      <trkpt lat="59.946807" lon="17.6665537">
        <ele>28.4962</ele>
        <time>2013-03-17T11:40:58Z</time>
      </trkpt>
      <trkpt lat="59.9468949" lon="17.6665827">
        <ele>28.4962</ele>
        <time>2013-03-17T11:40:59Z</time>
      </trkpt>
      <trkpt lat="59.9469824" lon="17.6666183">
        <ele>28.4962</ele>
        <time>2013-03-17T11:41:00Z</time>
      </trkpt>
      <trkpt lat="59.9470697" lon="17.6666507">
        <ele>28.4962</ele>
        <time>2013-03-17T11:41:01Z</time>
      </trkpt>
      <trkpt lat="59.9471573" lon="17.6666818">
        <ele>28.4962</ele>
        <time>2013-03-17T11:41:02Z</time>
      </trkpt>
      <trkpt lat="59.9472448" lon="17.6667148">
        <ele>28.4962</ele>
        <time>2013-03-17T11:41:03Z</time>
      </trkpt>
      <trkpt lat="59.9473312" lon="17.6667516">
        <ele>28.0155</ele>
        <time>2013-03-17T11:41:04Z</time>
      </trkpt>
      <trkpt lat="59.9474167" lon="17.6667913">
        <ele>28.0155</ele>
        <time>2013-03-17T11:41:05Z</time>
      </trkpt>
      <trkpt lat="59.9475012" lon="17.6668319">
        <ele>28.0155</ele>
        <time>2013-03-17T11:41:06Z</time>
      </trkpt>
      <trkpt lat="59.9475856" lon="17.6668717">
        <ele>28.0155</ele>
        <time>2013-03-17T11:41:07Z</time>
      </trkpt>
      <trkpt lat="59.9476703" lon="17.6669106">
        <ele>28.0155</ele>
        <time>2013-03-17T11:41:08Z</time>
      </trkpt>
      <trkpt lat="59.9477548" lon="17.6669526">
        <ele>28.0155</ele>
        <time>2013-03-17T11:41:09Z</time>
      </trkpt>
      <trkpt lat="59.9478384" lon="17.6669977">
        <ele>27.5349</ele>
        <time>2013-03-17T11:41:10Z</time>
      </trkpt>
      <trkpt lat="59.9479223" lon="17.6670447">
        <ele>27.5349</ele>
        <time>2013-03-17T11:41:11Z</time>
      </trkpt>
      <trkpt lat="59.9480063" lon="17.6670915">
        <ele>27.5349</ele>
        <time>2013-03-17T11:41:12Z</time>
      </trkpt>
      <trkpt lat="59.9480907" lon="17.6671365">
        <ele>27.5349</ele>
        <time>2013-03-17T11:41:13Z</time>
      </trkpt>
      <trkpt lat="59.9481746" lon="17.66718">
        <ele>27.5349</ele>
        <time>2013-03-17T11:41:14Z</time>
      </trkpt>
      <trkpt lat="59.9482589" lon="17.6672245">
        <ele>27.5349</ele>
        <time>2013-03-17T11:41:15Z</time>
      </trkpt>
      <trkpt lat="59.9483438" lon="17.6672711">
        <ele>27.5349</ele>
        <time>2013-03-17T11:41:16Z</time>
      </trkpt>
      <trkpt lat="59.9484283" lon="17.6673187">
        <ele>27.5349</ele>
        <time>2013-03-17T11:41:17Z</time>
      </trkpt>
      <trkpt lat="59.9485127" lon="17.667369">
        <ele>27.5349</ele>
        <time>2013-03-17T11:41:18Z</time>
      </trkpt>
      <trkpt lat="59.9485965" lon="17.6674234">
        <ele>27.5349</ele>
        <time>2013-03-17T11:41:19Z</time>
      </trkpt>
      <trkpt lat="59.9486796" lon="17.667479">
        <ele>27.5349</ele>
        <time>2013-03-17T11:41:20Z</time>
      </trkpt>
      <trkpt lat="59.9487626" lon="17.6675332">
        <ele>27.0543</ele>
        <time>2013-03-17T11:41:21Z</time>
      </trkpt>
      <trkpt lat="59.9488459" lon="17.6675843">
        <ele>27.0543</ele>
        <time>2013-03-17T11:41:22Z</time>
      </trkpt>
      <trkpt lat="59.9489289" lon="17.6676318">
        <ele>27.0543</ele>
        <time>2013-03-17T11:41:23Z</time>
      </trkpt>
      <trkpt lat="59.9490117" lon="17.6676773">
        <ele>27.0543</ele>
        <time>2013-03-17T11:41:24Z</time>
      </trkpt>
      <trkpt lat="59.949094" lon="17.6677219">
        <ele>27.0543</ele>
        <time>2013-03-17T11:41:25Z</time>
      </trkpt>
      <trkpt lat="59.949176" lon="17.6677675">
        <ele>27.0543</ele>
        <time>2013-03-17T11:41:26Z</time>
      </trkpt>
      <trkpt lat="59.9492578" lon="17.6678138">
        <ele>27.0543</ele>
        <time>2013-03-17T11:41:27Z</time>
      </trkpt>
      <trkpt lat="59.9493391" lon="17.6678596">
        <ele>26.5736</ele>
        <time>2013-03-17T11:41:28Z</time>
      </trkpt>
      <trkpt lat="59.9494204" lon="17.6679048">
        <ele>26.5736</ele>
        <time>2013-03-17T11:41:29Z</time>
      </trkpt>
      <trkpt lat="59.9495007" lon="17.6679506">
        <ele>26.5736</ele>
        <time>2013-03-17T11:41:30Z</time>
      </trkpt>
      <trkpt lat="59.9495814" lon="17.6679969">
        <ele>26.0929</ele>
        <time>2013-03-17T11:41:31Z</time>
      </trkpt>
      <trkpt lat="59.9496617" lon="17.6680417">
        <ele>26.0929</ele>
        <time>2013-03-17T11:41:32Z</time>
      </trkpt>
      <trkpt lat="59.9497413" lon="17.6680842">
        <ele>26.0929</ele>
        <time>2013-03-17T11:41:33Z</time>
      </trkpt>
      <trkpt lat="59.9498208" lon="17.6681239">
        <ele>26.0929</ele>
        <time>2013-03-17T11:41:34Z</time>
      </trkpt>
      <trkpt lat="59.9499004" lon="17.6681605">
        <ele>26.0929</ele>
        <time>2013-03-17T11:41:35Z</time>
      </trkpt>
      <trkpt lat="59.9499799" lon="17.6681916">
        <ele>26.0929</ele>
        <time>2013-03-17T11:41:36Z</time>
      </trkpt>
      <trkpt lat="59.9500595" lon="17.6682108">
        <ele>26.0929</ele>
        <time>2013-03-17T11:41:37Z</time>
      </trkpt>
      <trkpt lat="59.9501399" lon="17.6682197">
        <ele>25.6123</ele>
        <time>2013-03-17T11:41:38Z</time>
      </trkpt>
      <trkpt lat="59.9502213" lon="17.6682305">
        <ele>25.6123</ele>
        <time>2013-03-17T11:41:39Z</time>
      </trkpt>
      <trkpt lat="59.9503032" lon="17.6682479">
        <ele>25.6123</ele>
        <time>2013-03-17T11:41:40Z</time>
      </trkpt>
      <trkpt lat="59.950385" lon="17.6682645">
        <ele>25.6123</ele>
        <time>2013-03-17T11:41:41Z</time>
      </trkpt>
      <trkpt lat="59.9504682" lon="17.6682756">
        <ele>25.6123</ele>
        <time>2013-03-17T11:41:42Z</time>
      </trkpt>
      <trkpt lat="59.9505518" lon="17.6682801">
        <ele>25.6123</ele>
        <time>2013-03-17T11:41:43Z</time>
      </trkpt>
      <trkpt lat="59.9506356" lon="17.6682781">
        <ele>25.6123</ele>
        <time>2013-03-17T11:41:44Z</time>
      </trkpt>
      <trkpt lat="59.9507193" lon="17.6682684">
        <ele>25.1317</ele>
        <time>2013-03-17T11:41:45Z</time>
      </trkpt>
      <trkpt lat="59.9508033" lon="17.6682511">
        <ele>25.1317</ele>
        <time>2013-03-17T11:41:46Z</time>
      </trkpt>
      <trkpt lat="59.9508863" lon="17.6682287">
        <ele>25.1317</ele>
        <time>2013-03-17T11:41:47Z</time>
      </trkpt>
      <trkpt lat="59.9509698" lon="17.6682031">
        <ele>24.651</ele>
        <time>2013-03-17T11:41:48Z</time>
      </trkpt>
      <trkpt lat="59.9510533" lon="17.6681761">
        <ele>24.651</ele>
        <time>2013-03-17T11:41:49Z</time>
      </trkpt>
      <trkpt lat="59.9511369" lon="17.6681475">
        <ele>24.1703</ele>
        <time>2013-03-17T11:41:50Z</time>
      </trkpt>
      <trkpt lat="59.9512206" lon="17.6681181">
        <ele>24.1703</ele>
        <time>2013-03-17T11:41:51Z</time>
      </trkpt>
      <trkpt lat="59.951305" lon="17.6680881">
        <ele>23.6896</ele>
        <time>2013-03-17T11:41:52Z</time>
      </trkpt>
      <trkpt lat="59.9513888" lon="17.6680615">
        <ele>23.6896</ele>
        <time>2013-03-17T11:41:53Z</time>
      </trkpt>
      <trkpt lat="59.9514717" lon="17.6680478">
        <ele>23.6896</ele>
        <time>2013-03-17T11:41:54Z</time>
      </trkpt>
      <trkpt lat="59.9515521" lon="17.6680533">
        <ele>23.6896</ele>
        <time>2013-03-17T11:41:55Z</time>
      </trkpt>
      <trkpt lat="59.9516265" lon="17.6680906">
        <ele>23.6896</ele>
        <time>2013-03-17T11:41:56Z</time>
      </trkpt>
      <trkpt lat="59.9516898" lon="17.6681694">
        <ele>23.6896</ele>
        <time>2013-03-17T11:41:57Z</time>
      </trkpt>
      <trkpt lat="59.9517405" lon="17.6682803">
        <ele>23.209</ele>
        <time>2013-03-17T11:41:58Z</time>
      </trkpt>
      <trkpt lat="59.9517798" lon="17.6684093">
        <ele>23.209</ele>
        <time>2013-03-17T11:41:59Z</time>
      </trkpt>
      <trkpt lat="59.9518103" lon="17.6685468">
        <ele>23.6896</ele>
        <time>2013-03-17T11:42:00Z</time>
      </trkpt>
      <trkpt lat="59.9518312" lon="17.6686867">
        <ele>23.6896</ele>
        <time>2013-03-17T11:42:01Z</time>
      </trkpt>
      <trkpt lat="59.9518431" lon="17.668827">
        <ele>23.6896</ele>
        <time>2013-03-17T11:42:02Z</time>
      </trkpt>
      <trkpt lat="59.9518479" lon="17.6689662">
        <ele>24.1703</ele>
        <time>2013-03-17T11:42:03Z</time>
      </trkpt>
      <trkpt lat="59.9518484" lon="17.6691018">
        <ele>24.1703</ele>
        <time>2013-03-17T11:42:04Z</time>
      </trkpt>
      <trkpt lat="59.9518452" lon="17.669237">
        <ele>24.1703</ele>
        <time>2013-03-17T11:42:05Z</time>
      </trkpt>
      <trkpt lat="59.9518384" lon="17.6693737">
        <ele>24.1703</ele>
        <time>2013-03-17T11:42:06Z</time>
      </trkpt>
      <trkpt lat="59.951828" lon="17.6695106">
        <ele>24.1703</ele>
        <time>2013-03-17T11:42:07Z</time>
      </trkpt>
      <trkpt lat="59.9518151" lon="17.6696463">
        <ele>24.1703</ele>
        <time>2013-03-17T11:42:08Z</time>
      </trkpt>
      <trkpt lat="59.9518039" lon="17.6697814">
        <ele>24.1703</ele>
        <time>2013-03-17T11:42:09Z</time>
      </trkpt>
      <trkpt lat="59.9517958" lon="17.6699173">
        <ele>24.651</ele>
        <time>2013-03-17T11:42:10Z</time>
      </trkpt>
      <trkpt lat="59.9517873" lon="17.6700522">
        <ele>24.651</ele>
        <time>2013-03-17T11:42:11Z</time>
      </trkpt>
      <trkpt lat="59.9517779" lon="17.6701844">
        <ele>24.651</ele>
        <time>2013-03-17T11:42:12Z</time>
      </trkpt>
      <trkpt lat="59.9517695" lon="17.6703144">
        <ele>24.651</ele>
        <time>2013-03-17T11:42:13Z</time>
      </trkpt>
      <trkpt lat="59.9517618" lon="17.6704424">
        <ele>25.1317</ele>
        <time>2013-03-17T11:42:14Z</time>
      </trkpt>
      <trkpt lat="59.9517543" lon="17.6705691">
        <ele>25.1317</ele>
        <time>2013-03-17T11:42:15Z</time>
      </trkpt>
      <trkpt lat="59.9517472" lon="17.6706936">
        <ele>25.6123</ele>
        <time>2013-03-17T11:42:16Z</time>
      </trkpt>
      <trkpt lat="59.9517427" lon="17.6708149">
        <ele>25.6123</ele>
        <time>2013-03-17T11:42:17Z</time>
      </trkpt>
      <trkpt lat="59.9517441" lon="17.6709336">
        <ele>26.0929</ele>
        <time>2013-03-17T11:42:18Z</time>
      </trkpt>
      <trkpt lat="59.9517525" lon="17.671048">
        <ele>26.0929</ele>
        <time>2013-03-17T11:42:19Z</time>
      </trkpt>
      <trkpt lat="59.951769" lon="17.6711541">
        <ele>26.5736</ele>
        <time>2013-03-17T11:42:20Z</time>
      </trkpt>
      <trkpt lat="59.9517891" lon="17.6712532">
        <ele>27.0543</ele>
        <time>2013-03-17T11:42:21Z</time>
      </trkpt>
      <trkpt lat="59.9518069" lon="17.6713489">
        <ele>27.5349</ele>
        <time>2013-03-17T11:42:22Z</time>
      </trkpt>
      <trkpt lat="59.9518198" lon="17.6714412">
        <ele>28.0155</ele>
        <time>2013-03-17T11:42:23Z</time>
      </trkpt>
      <trkpt lat="59.9518251" lon="17.6715313">
        <ele>28.0155</ele>
        <time>2013-03-17T11:42:24Z</time>
      </trkpt>
      <trkpt lat="59.9518263" lon="17.6716183">
        <ele>28.4962</ele>
        <time>2013-03-17T11:42:25Z</time>
      </trkpt>
      <trkpt lat="59.9518327" lon="17.6716943">
        <ele>28.4962</ele>
        <time>2013-03-17T11:42:26Z</time>
      </trkpt>
      <trkpt lat="59.9518504" lon="17.6717618">
        <ele>28.4962</ele>
        <time>2013-03-17T11:42:27Z</time>
      </trkpt>
      <trkpt lat="59.951873" lon="17.671831">
        <ele>28.9769</ele>
        <time>2013-03-17T11:42:28Z</time>
      </trkpt>
      <trkpt lat="59.9518911" lon="17.6719074">
        <ele>28.9769</ele>
        <time>2013-03-17T11:42:29Z</time>
      </trkpt>
      <trkpt lat="59.951903" lon="17.6719911">
        <ele>29.4575</ele>
        <time>2013-03-17T11:42:30Z</time>
      </trkpt>
      <trkpt lat="59.9519106" lon="17.6720781">
        <ele>29.4575</ele>
        <time>2013-03-17T11:42:31Z</time>
      </trkpt>
      <trkpt lat="59.9519176" lon="17.6721665">
        <ele>29.9381</ele>
        <time>2013-03-17T11:42:32Z</time>
      </trkpt>
      <trkpt lat="59.9519248" lon="17.6722553">
        <ele>29.9381</ele>
        <time>2013-03-17T11:42:33Z</time>
      </trkpt>
      <trkpt lat="59.9519325" lon="17.6723433">
        <ele>29.9381</ele>
        <time>2013-03-17T11:42:34Z</time>
      </trkpt>
      <trkpt lat="59.9519413" lon="17.6724312">
        <ele>30.4188</ele>
        <time>2013-03-17T11:42:35Z</time>
      </trkpt>
      <trkpt lat="59.9519496" lon="17.6725202">
        <ele>30.4188</ele>
        <time>2013-03-17T11:42:36Z</time>
      </trkpt>
      <trkpt lat="59.9519581" lon="17.6726101">
        <ele>30.8995</ele>
        <time>2013-03-17T11:42:37Z</time>
      </trkpt>
      <trkpt lat="59.9519673" lon="17.6727012">
        <ele>30.8995</ele>
        <time>2013-03-17T11:42:38Z</time>
      </trkpt>
      <trkpt lat="59.9519755" lon="17.6727932">
        <ele>31.3801</ele>
        <time>2013-03-17T11:42:39Z</time>
      </trkpt>
      <trkpt lat="59.9519846" lon="17.6728847">
        <ele>31.3801</ele>
        <time>2013-03-17T11:42:40Z</time>
      </trkpt>
      <trkpt lat="59.9519948" lon="17.672976">
        <ele>31.3801</ele>
        <time>2013-03-17T11:42:41Z</time>
      </trkpt>
      <trkpt lat="59.952005" lon="17.6730682">
        <ele>31.8607</ele>
        <time>2013-03-17T11:42:42Z</time>
      </trkpt>
      <trkpt lat="59.9520166" lon="17.67316">
        <ele>31.8607</ele>
        <time>2013-03-17T11:42:43Z</time>
      </trkpt>
      <trkpt lat="59.9520304" lon="17.6732512">
        <ele>31.8607</ele>
        <time>2013-03-17T11:42:44Z</time>
      </trkpt>
      <trkpt lat="59.952045" lon="17.6733431">
        <ele>32.3416</ele>
        <time>2013-03-17T11:42:45Z</time>
      </trkpt>
      <trkpt lat="59.9520597" lon="17.6734347">
        <ele>32.3416</ele>
        <time>2013-03-17T11:42:46Z</time>
      </trkpt>
      <trkpt lat="59.9520757" lon="17.6735247">
        <ele>32.3416</ele>
        <time>2013-03-17T11:42:47Z</time>
      </trkpt>
      <trkpt lat="59.9520926" lon="17.6736141">
        <ele>32.3416</ele>
        <time>2013-03-17T11:42:48Z</time>
      </trkpt>
      <trkpt lat="59.9521098" lon="17.6737031">
        <ele>32.3416</ele>
        <time>2013-03-17T11:42:49Z</time>
      </trkpt>
      <trkpt lat="59.9521266" lon="17.6737932">
        <ele>32.3416</ele>
        <time>2013-03-17T11:42:50Z</time>
      </trkpt>
      <trkpt lat="59.9521437" lon="17.6738844">
        <ele>32.3416</ele>
        <time>2013-03-17T11:42:51Z</time>
      </trkpt>
      <trkpt lat="59.9521622" lon="17.6739755">
        <ele>32.3416</ele>
        <time>2013-03-17T11:42:52Z</time>
      </trkpt>
      <trkpt lat="59.9521798" lon="17.6740695">
        <ele>32.8223</ele>
        <time>2013-03-17T11:42:53Z</time>
      </trkpt>
      <trkpt lat="59.9521974" lon="17.6741665">
        <ele>32.8223</ele>
        <time>2013-03-17T11:42:54Z</time>
      </trkpt>
      <trkpt lat="59.9522176" lon="17.6742649">
        <ele>32.8223</ele>
        <time>2013-03-17T11:42:55Z</time>
      </trkpt>
      <trkpt lat="59.9522394" lon="17.6743639">
        <ele>32.8223</ele>
        <time>2013-03-17T11:42:56Z</time>
      </trkpt>
      <trkpt lat="59.9522626" lon="17.6744633">
        <ele>32.3416</ele>
        <time>2013-03-17T11:42:57Z</time>
      </trkpt>
      <trkpt lat="59.9522866" lon="17.6745635">
        <ele>32.3416</ele>
        <time>2013-03-17T11:42:58Z</time>
      </trkpt>
      <trkpt lat="59.9523117" lon="17.6746638">
        <ele>32.3416</ele>
        <time>2013-03-17T11:42:59Z</time>
      </trkpt>
      <trkpt lat="59.9523374" lon="17.6747652">
        <ele>32.3416</ele>
        <time>2013-03-17T11:43:00Z</time>
      </trkpt>
      <trkpt lat="59.9523647" lon="17.6748683">
        <ele>32.3416</ele>
        <time>2013-03-17T11:43:01Z</time>
      </trkpt>
      <trkpt lat="59.9523933" lon="17.6749725">
        <ele>32.3416</ele>
        <time>2013-03-17T11:43:02Z</time>
      </trkpt>
      <trkpt lat="59.9524227" lon="17.6750785">
        <ele>32.3416</ele>
        <time>2013-03-17T11:43:03Z</time>
      </trkpt>
      <trkpt lat="59.9524532" lon="17.6751846">
        <ele>32.3416</ele>
        <time>2013-03-17T11:43:04Z</time>
      </trkpt>
      <trkpt lat="59.9524849" lon="17.6752897">
        <ele>31.8607</ele>
        <time>2013-03-17T11:43:05Z</time>
      </trkpt>
      <trkpt lat="59.952517" lon="17.6753946">
        <ele>31.8607</ele>
        <time>2013-03-17T11:43:06Z</time>
      </trkpt>
      <trkpt lat="59.9525495" lon="17.675499">
        <ele>31.8607</ele>
        <time>2013-03-17T11:43:07Z</time>
      </trkpt>
      <trkpt lat="59.9525833" lon="17.6756032">
        <ele>31.8607</ele>
        <time>2013-03-17T11:43:08Z</time>
      </trkpt>
      <trkpt lat="59.9526182" lon="17.6757068">
        <ele>31.8607</ele>
        <time>2013-03-17T11:43:09Z</time>
      </trkpt>
      <trkpt lat="59.9526548" lon="17.6758095">
        <ele>31.8607</ele>
        <time>2013-03-17T11:43:10Z</time>
      </trkpt>
      <trkpt lat="59.952692" lon="17.6759131">
        <ele>31.8607</ele>
        <time>2013-03-17T11:43:11Z</time>
      </trkpt>
      <trkpt lat="59.9527284" lon="17.6760188">
        <ele>31.8607</ele>
        <time>2013-03-17T11:43:12Z</time>
      </trkpt>
      <trkpt lat="59.9527648" lon="17.6761258">
        <ele>31.8607</ele>
        <time>2013-03-17T11:43:13Z</time>
      </trkpt>
      <trkpt lat="59.9528023" lon="17.6762338">
        <ele>31.8607</ele>
        <time>2013-03-17T11:43:14Z</time>
      </trkpt>
      <trkpt lat="59.9528399" lon="17.6763436">
        <ele>31.8607</ele>
        <time>2013-03-17T11:43:15Z</time>
      </trkpt>
      <trkpt lat="59.9528777" lon="17.676454">
        <ele>31.8607</ele>
        <time>2013-03-17T11:43:16Z</time>
      </trkpt>
      <trkpt lat="59.9529167" lon="17.6765647">
        <ele>31.8607</ele>
        <time>2013-03-17T11:43:17Z</time>
      </trkpt>
      <trkpt lat="59.9529561" lon="17.6766781">
        <ele>31.8607</ele>
        <time>2013-03-17T11:43:18Z</time>
      </trkpt>
      <trkpt lat="59.9529947" lon="17.6767936">
        <ele>31.8607</ele>
        <time>2013-03-17T11:43:19Z</time>
      </trkpt>
      <trkpt lat="59.9530345" lon="17.6769073">
        <ele>31.3801</ele>
        <time>2013-03-17T11:43:20Z</time>
      </trkpt>
      <trkpt lat="59.9530748" lon="17.6770227">
        <ele>31.3801</ele>
        <time>2013-03-17T11:43:21Z</time>
      </trkpt>
      <trkpt lat="59.9531164" lon="17.6771393">
        <ele>30.8995</ele>
        <time>2013-03-17T11:43:22Z</time>
      </trkpt>
      <trkpt lat="59.9531579" lon="17.6772556">
        <ele>30.8995</ele>
        <time>2013-03-17T11:43:23Z</time>
      </trkpt>
      <trkpt lat="59.9531989" lon="17.6773702">
        <ele>30.4188</ele>
        <time>2013-03-17T11:43:24Z</time>
      </trkpt>
      <trkpt lat="59.9532402" lon="17.6774837">
        <ele>30.4188</ele>
        <time>2013-03-17T11:43:25Z</time>
      </trkpt>
      <trkpt lat="59.9532814" lon="17.6775941">
        <ele>29.9381</ele>
        <time>2013-03-17T11:43:26Z</time>
      </trkpt>
      <trkpt lat="59.9533214" lon="17.6777033">
        <ele>29.9381</ele>
        <time>2013-03-17T11:43:27Z</time>
      </trkpt>
      <trkpt lat="59.9533597" lon="17.6778138">
        <ele>29.4575</ele>
        <time>2013-03-17T11:43:28Z</time>
      </trkpt>
      <trkpt lat="59.9533976" lon="17.6779234">
        <ele>29.4575</ele>
        <time>2013-03-17T11:43:29Z</time>
      </trkpt>
      <trkpt lat="59.9534356" lon="17.6780318">
        <ele>28.9769</ele>
        <time>2013-03-17T11:43:30Z</time>
      </trkpt>
      <trkpt lat="59.9534746" lon="17.6781407">
        <ele>28.9769</ele>
        <time>2013-03-17T11:43:31Z</time>
      </trkpt>
      <trkpt lat="59.9535142" lon="17.6782493">
        <ele>28.9769</ele>
        <time>2013-03-17T11:43:32Z</time>
      </trkpt>
      <trkpt lat="59.9535523" lon="17.6783581">
        <ele>28.9769</ele>
        <time>2013-03-17T11:43:33Z</time>
      </trkpt>
      <trkpt lat="59.95359" lon="17.6784672">
        <ele>28.4962</ele>
        <time>2013-03-17T11:43:34Z</time>
      </trkpt>
      <trkpt lat="59.953629" lon="17.6785758">
        <ele>28.4962</ele>
        <time>2013-03-17T11:43:35Z</time>
      </trkpt>
      <trkpt lat="59.953667" lon="17.6786856">
        <ele>28.4962</ele>
        <time>2013-03-17T11:43:36Z</time>
      </trkpt>
      <trkpt lat="59.9537038" lon="17.6787948">
        <ele>28.4962</ele>
        <time>2013-03-17T11:43:37Z</time>
      </trkpt>
      <trkpt lat="59.9537406" lon="17.6789021">
        <ele>28.0155</ele>
        <time>2013-03-17T11:43:38Z</time>
      </trkpt>
      <trkpt lat="59.9537788" lon="17.6790088">
        <ele>28.0155</ele>
        <time>2013-03-17T11:43:39Z</time>
      </trkpt>
      <trkpt lat="59.9538172" lon="17.679116">
        <ele>28.4962</ele>
        <time>2013-03-17T11:43:40Z</time>
      </trkpt>
      <trkpt lat="59.9538556" lon="17.6792237">
        <ele>28.4962</ele>
        <time>2013-03-17T11:43:41Z</time>
      </trkpt>
      <trkpt lat="59.9538942" lon="17.6793305">
        <ele>28.4962</ele>
        <time>2013-03-17T11:43:42Z</time>
      </trkpt>
      <trkpt lat="59.9539323" lon="17.6794377">
        <ele>28.4962</ele>
        <time>2013-03-17T11:43:43Z</time>
      </trkpt>
      <trkpt lat="59.9539707" lon="17.6795444">
        <ele>28.9769</ele>
        <time>2013-03-17T11:43:44Z</time>
      </trkpt>
      <trkpt lat="59.9540098" lon="17.6796512">
        <ele>28.9769</ele>
        <time>2013-03-17T11:43:45Z</time>
      </trkpt>
      <trkpt lat="59.9540484" lon="17.6797597">
        <ele>28.9769</ele>
        <time>2013-03-17T11:43:46Z</time>
      </trkpt>
      <trkpt lat="59.9540872" lon="17.679869">
        <ele>28.9769</ele>
        <time>2013-03-17T11:43:47Z</time>
      </trkpt>
      <trkpt lat="59.9541265" lon="17.6799782">
        <ele>29.4575</ele>
        <time>2013-03-17T11:43:48Z</time>
      </trkpt>
      <trkpt lat="59.9541658" lon="17.6800866">
        <ele>29.4575</ele>
        <time>2013-03-17T11:43:49Z</time>
      </trkpt>
      <trkpt lat="59.954205" lon="17.6801954">
        <ele>29.4575</ele>
        <time>2013-03-17T11:43:50Z</time>
      </trkpt>
      <trkpt lat="59.9542441" lon="17.6803061">
        <ele>29.4575</ele>
        <time>2013-03-17T11:43:51Z</time>
      </trkpt>
      <trkpt lat="59.9542843" lon="17.6804189">
        <ele>29.9381</ele>
        <time>2013-03-17T11:43:52Z</time>
      </trkpt>
      <trkpt lat="59.9543249" lon="17.6805327">
        <ele>29.9381</ele>
        <time>2013-03-17T11:43:53Z</time>
      </trkpt>
      <trkpt lat="59.9543656" lon="17.6806486">
        <ele>29.9381</ele>
        <time>2013-03-17T11:43:54Z</time>
      </trkpt>
      <trkpt lat="59.954406" lon="17.6807653">
        <ele>29.9381</ele>
        <time>2013-03-17T11:43:55Z</time>
      </trkpt>
      <trkpt lat="59.9544456" lon="17.6808828">
        <ele>29.9381</ele>
        <time>2013-03-17T11:43:56Z</time>
      </trkpt>
      <trkpt lat="59.9544828" lon="17.681003">
        <ele>30.4188</ele>
        <time>2013-03-17T11:43:57Z</time>
      </trkpt>
      <trkpt lat="59.9545181" lon="17.6811234">
        <ele>30.4188</ele>
        <time>2013-03-17T11:43:58Z</time>
      </trkpt>
      <trkpt lat="59.9545557" lon="17.6812389">
        <ele>30.4188</ele>
        <time>2013-03-17T11:43:59Z</time>
      </trkpt>
      <trkpt lat="59.9545947" lon="17.68135">
        <ele>30.4188</ele>
        <time>2013-03-17T11:44:00Z</time>
      </trkpt>
      <trkpt lat="59.9546342" lon="17.6814584">
        <ele>30.4188</ele>
        <time>2013-03-17T11:44:01Z</time>
      </trkpt>
      <trkpt lat="59.9546738" lon="17.6815641">
        <ele>30.4188</ele>
        <time>2013-03-17T11:44:02Z</time>
      </trkpt>
      <trkpt lat="59.9547129" lon="17.6816673">
        <ele>30.4188</ele>
        <time>2013-03-17T11:44:03Z</time>
      </trkpt>
      <trkpt lat="59.9547508" lon="17.6817692">
        <ele>30.4188</ele>
        <time>2013-03-17T11:44:04Z</time>
      </trkpt>
      <trkpt lat="59.9547875" lon="17.6818676">
        <ele>30.4188</ele>
        <time>2013-03-17T11:44:05Z</time>
      </trkpt>
      <trkpt lat="59.9548242" lon="17.6819604">
        <ele>30.8995</ele>
        <time>2013-03-17T11:44:06Z</time>
      </trkpt>
      <trkpt lat="59.9548601" lon="17.6820524">
        <ele>30.8995</ele>
        <time>2013-03-17T11:44:07Z</time>
      </trkpt>
      <trkpt lat="59.9548935" lon="17.6821466">
        <ele>30.8995</ele>
        <time>2013-03-17T11:44:08Z</time>
      </trkpt>
      <trkpt lat="59.9549249" lon="17.682239">
        <ele>30.8995</ele>
        <time>2013-03-17T11:44:09Z</time>
      </trkpt>
      <trkpt lat="59.9549553" lon="17.6823321">
        <ele>30.8995</ele>
        <time>2013-03-17T11:44:10Z</time>
      </trkpt>
      <trkpt lat="59.9549848" lon="17.6824266">
        <ele>30.8995</ele>
        <time>2013-03-17T11:44:11Z</time>
      </trkpt>
      <trkpt lat="59.9550138" lon="17.6825224">
        <ele>30.4188</ele>
        <time>2013-03-17T11:44:12Z</time>
      </trkpt>
      <trkpt lat="59.9550432" lon="17.6826191">
        <ele>30.8995</ele>
        <time>2013-03-17T11:44:13Z</time>
      </trkpt>
      <trkpt lat="59.9550714" lon="17.6827165">
        <ele>30.4188</ele>
        <time>2013-03-17T11:44:14Z</time>
      </trkpt>
      <trkpt lat="59.9550994" lon="17.682816">
        <ele>30.8995</ele>
        <time>2013-03-17T11:44:15Z</time>
      </trkpt>
      <trkpt lat="59.9551273" lon="17.6829182">
        <ele>30.8995</ele>
        <time>2013-03-17T11:44:16Z</time>
      </trkpt>
      <trkpt lat="59.9551551" lon="17.6830216">
        <ele>30.8995</ele>
        <time>2013-03-17T11:44:17Z</time>
      </trkpt>
      <trkpt lat="59.9551827" lon="17.6831259">
        <ele>31.3801</ele>
        <time>2013-03-17T11:44:18Z</time>
      </trkpt>
      <trkpt lat="59.9552102" lon="17.6832322">
        <ele>31.3801</ele>
        <time>2013-03-17T11:44:19Z</time>
      </trkpt>
      <trkpt lat="59.955237" lon="17.6833391">
        <ele>31.3801</ele>
        <time>2013-03-17T11:44:20Z</time>
      </trkpt>
      <trkpt lat="59.9552626" lon="17.6834465">
        <ele>31.8607</ele>
        <time>2013-03-17T11:44:21Z</time>
      </trkpt>
      <trkpt lat="59.9552875" lon="17.6835554">
        <ele>31.8607</ele>
        <time>2013-03-17T11:44:22Z</time>
      </trkpt>
      <trkpt lat="59.9553122" lon="17.6836651">
        <ele>31.8607</ele>
        <time>2013-03-17T11:44:23Z</time>
      </trkpt>
      <trkpt lat="59.9553366" lon="17.6837756">
        <ele>32.3416</ele>
        <time>2013-03-17T11:44:24Z</time>
      </trkpt>
      <trkpt lat="59.9553604" lon="17.6838874">
        <ele>32.3416</ele>
        <time>2013-03-17T11:44:25Z</time>
      </trkpt>
      <trkpt lat="59.9553841" lon="17.6840014">
        <ele>32.3416</ele>
        <time>2013-03-17T11:44:26Z</time>
      </trkpt>
      <trkpt lat="59.9554073" lon="17.6841171">
        <ele>32.3416</ele>
        <time>2013-03-17T11:44:27Z</time>
      </trkpt>
      <trkpt lat="59.9554301" lon="17.6842337">
        <ele>32.3416</ele>
        <time>2013-03-17T11:44:28Z</time>
      </trkpt>
      <trkpt lat="59.9554526" lon="17.6843506">
        <ele>32.8223</ele>
        <time>2013-03-17T11:44:29Z</time>
      </trkpt>
      <trkpt lat="59.9554744" lon="17.684469">
        <ele>32.8223</ele>
        <time>2013-03-17T11:44:30Z</time>
      </trkpt>
      <trkpt lat="59.9554949" lon="17.6845883">
        <ele>32.8223</ele>
        <time>2013-03-17T11:44:31Z</time>
      </trkpt>
      <trkpt lat="59.9555143" lon="17.6847087">
        <ele>32.8223</ele>
        <time>2013-03-17T11:44:32Z</time>
      </trkpt>
      <trkpt lat="59.9555334" lon="17.6848302">
        <ele>32.8223</ele>
        <time>2013-03-17T11:44:33Z</time>
      </trkpt>
      <trkpt lat="59.9555527" lon="17.6849515">
        <ele>32.8223</ele>
        <time>2013-03-17T11:44:34Z</time>
      </trkpt>
      <trkpt lat="59.9555716" lon="17.6850715">
        <ele>33.3029</ele>
        <time>2013-03-17T11:44:35Z</time>
      </trkpt>
      <trkpt lat="59.95559" lon="17.6851911">
        <ele>33.3029</ele>
        <time>2013-03-17T11:44:36Z</time>
      </trkpt>
      <trkpt lat="59.9556083" lon="17.6853104">
        <ele>33.3029</ele>
        <time>2013-03-17T11:44:37Z</time>
      </trkpt>
      <trkpt lat="59.9556261" lon="17.6854305">
        <ele>33.3029</ele>
        <time>2013-03-17T11:44:38Z</time>
      </trkpt>
      <trkpt lat="59.9556441" lon="17.6855513">
        <ele>33.3029</ele>
        <time>2013-03-17T11:44:39Z</time>
      </trkpt>
      <trkpt lat="59.9556624" lon="17.6856724">
        <ele>33.3029</ele>
        <time>2013-03-17T11:44:40Z</time>
      </trkpt>
      <trkpt lat="59.9556811" lon="17.6857939">
        <ele>33.3029</ele>
        <time>2013-03-17T11:44:41Z</time>
      </trkpt>
      <trkpt lat="59.9556997" lon="17.6859154">
        <ele>33.3029</ele>
        <time>2013-03-17T11:44:42Z</time>
      </trkpt>
      <trkpt lat="59.9557185" lon="17.6860374">
        <ele>33.3029</ele>
        <time>2013-03-17T11:44:43Z</time>
      </trkpt>
      <trkpt lat="59.9557374" lon="17.6861608">
        <ele>33.7834</ele>
        <time>2013-03-17T11:44:44Z</time>
      </trkpt>
      <trkpt lat="59.9557558" lon="17.6862846">
        <ele>33.7834</ele>
        <time>2013-03-17T11:44:45Z</time>
      </trkpt>
      <trkpt lat="59.9557743" lon="17.6864085">
        <ele>33.7834</ele>
        <time>2013-03-17T11:44:46Z</time>
      </trkpt>
      <trkpt lat="59.9557929" lon="17.6865328">
        <ele>33.7834</ele>
        <time>2013-03-17T11:44:47Z</time>
      </trkpt>
      <trkpt lat="59.9558117" lon="17.6866578">
        <ele>33.7834</ele>
        <time>2013-03-17T11:44:48Z</time>
      </trkpt>
      <trkpt lat="59.9558302" lon="17.6867842">
        <ele>33.7834</ele>
        <time>2013-03-17T11:44:49Z</time>
      </trkpt>
      <trkpt lat="59.9558485" lon="17.6869118">
        <ele>33.7834</ele>
        <time>2013-03-17T11:44:50Z</time>
      </trkpt>
      <trkpt lat="59.955867" lon="17.6870394">
        <ele>34.2642</ele>
        <time>2013-03-17T11:44:51Z</time>
      </trkpt>
      <trkpt lat="59.9558857" lon="17.6871658">
        <ele>34.2642</ele>
        <time>2013-03-17T11:44:52Z</time>
      </trkpt>
      <trkpt lat="59.9559042" lon="17.6872926">
        <ele>34.2642</ele>
        <time>2013-03-17T11:44:53Z</time>
      </trkpt>
      <trkpt lat="59.9559229" lon="17.6874197">
        <ele>34.2642</ele>
        <time>2013-03-17T11:44:54Z</time>
      </trkpt>
      <trkpt lat="59.9559416" lon="17.6875474">
        <ele>34.2642</ele>
        <time>2013-03-17T11:44:55Z</time>
      </trkpt>
      <trkpt lat="59.9559618" lon="17.6876752">
        <ele>34.7449</ele>
        <time>2013-03-17T11:44:56Z</time>
      </trkpt>
      <trkpt lat="59.9559829" lon="17.687803">
        <ele>34.7449</ele>
        <time>2013-03-17T11:44:57Z</time>
      </trkpt>
      <trkpt lat="59.9560044" lon="17.6879321">
        <ele>34.7449</ele>
        <time>2013-03-17T11:44:58Z</time>
      </trkpt>
      <trkpt lat="59.9560265" lon="17.688062">
        <ele>34.7449</ele>
        <time>2013-03-17T11:44:59Z</time>
      </trkpt>
      <trkpt lat="59.9560484" lon="17.6881924">
        <ele>34.7449</ele>
        <time>2013-03-17T11:45:00Z</time>
      </trkpt>
      <trkpt lat="59.9560709" lon="17.688322">
        <ele>34.7449</ele>
        <time>2013-03-17T11:45:01Z</time>
      </trkpt>
      <trkpt lat="59.956094" lon="17.6884519">
        <ele>34.7449</ele>
        <time>2013-03-17T11:45:02Z</time>
      </trkpt>
      <trkpt lat="59.9561173" lon="17.688582">
        <ele>34.7449</ele>
        <time>2013-03-17T11:45:03Z</time>
      </trkpt>
      <trkpt lat="59.9561401" lon="17.6887117">
        <ele>34.7449</ele>
        <time>2013-03-17T11:45:04Z</time>
      </trkpt>
      <trkpt lat="59.9561631" lon="17.6888402">
        <ele>34.7449</ele>
        <time>2013-03-17T11:45:05Z</time>
      </trkpt>
      <trkpt lat="59.9561861" lon="17.6889681">
        <ele>34.7449</ele>
        <time>2013-03-17T11:45:06Z</time>
      </trkpt>
      <trkpt lat="59.9562079" lon="17.6890965">
        <ele>34.7449</ele>
        <time>2013-03-17T11:45:07Z</time>
      </trkpt>
      <trkpt lat="59.956229" lon="17.6892244">
        <ele>35.2255</ele>
        <time>2013-03-17T11:45:08Z</time>
      </trkpt>
      <trkpt lat="59.9562514" lon="17.6893491">
        <ele>35.2255</ele>
        <time>2013-03-17T11:45:09Z</time>
      </trkpt>
      <trkpt lat="59.956275" lon="17.6894699">
        <ele>35.2255</ele>
        <time>2013-03-17T11:45:10Z</time>
      </trkpt>
      <trkpt lat="59.9562991" lon="17.6895865">
        <ele>35.2255</ele>
        <time>2013-03-17T11:45:11Z</time>
      </trkpt>
      <trkpt lat="59.9563238" lon="17.6896984">
        <ele>35.2255</ele>
        <time>2013-03-17T11:45:12Z</time>
      </trkpt>
      <trkpt lat="59.9563488" lon="17.6898051">
        <ele>35.2255</ele>
        <time>2013-03-17T11:45:13Z</time>
      </trkpt>
      <trkpt lat="59.9563747" lon="17.6899078">
        <ele>35.2255</ele>
        <time>2013-03-17T11:45:14Z</time>
      </trkpt>
      <trkpt lat="59.9564021" lon="17.6900076">
        <ele>35.2255</ele>
        <time>2013-03-17T11:45:15Z</time>
      </trkpt>
      <trkpt lat="59.9564307" lon="17.6901055">
        <ele>35.2255</ele>
        <time>2013-03-17T11:45:16Z</time>
      </trkpt>
      <trkpt lat="59.9564601" lon="17.6902003">
        <ele>35.2255</ele>
        <time>2013-03-17T11:45:17Z</time>
      </trkpt>
      <trkpt lat="59.9564897" lon="17.690297">
        <ele>35.2255</ele>
        <time>2013-03-17T11:45:18Z</time>
      </trkpt>
      <trkpt lat="59.9565205" lon="17.6903959">
        <ele>35.2255</ele>
        <time>2013-03-17T11:45:19Z</time>
      </trkpt>
      <trkpt lat="59.9565528" lon="17.6904964">
        <ele>35.2255</ele>
        <time>2013-03-17T11:45:20Z</time>
      </trkpt>
      <trkpt lat="59.9565851" lon="17.6905934">
        <ele>34.7449</ele>
        <time>2013-03-17T11:45:21Z</time>
      </trkpt>
      <trkpt lat="59.9566198" lon="17.6906952">
        <ele>34.7449</ele>
        <time>2013-03-17T11:45:22Z</time>
      </trkpt>
      <trkpt lat="59.9566548" lon="17.6907972">
        <ele>34.2642</ele>
        <time>2013-03-17T11:45:23Z</time>
      </trkpt>
      <trkpt lat="59.956689" lon="17.6908949">
        <ele>34.2642</ele>
        <time>2013-03-17T11:45:24Z</time>
      </trkpt>
      <trkpt lat="59.9567193" lon="17.6909844">
        <ele>34.2642</ele>
        <time>2013-03-17T11:45:25Z</time>
      </trkpt>
      <trkpt lat="59.9567459" lon="17.6910623">
        <ele>33.7834</ele>
        <time>2013-03-17T11:45:26Z</time>
      </trkpt>
      <trkpt lat="59.9567694" lon="17.6911308">
        <ele>33.7834</ele>
        <time>2013-03-17T11:45:27Z</time>
      </trkpt>
      <trkpt lat="59.9567921" lon="17.6911986">
        <ele>33.3029</ele>
        <time>2013-03-17T11:45:28Z</time>
      </trkpt>
      <trkpt lat="59.9568159" lon="17.6912711">
        <ele>33.3029</ele>
        <time>2013-03-17T11:45:29Z</time>
      </trkpt>
      <trkpt lat="59.9568413" lon="17.6913519">
        <ele>32.8223</ele>
        <time>2013-03-17T11:45:30Z</time>
      </trkpt>
      <trkpt lat="59.9568704" lon="17.6914415">
        <ele>32.8223</ele>
        <time>2013-03-17T11:45:31Z</time>
      </trkpt>
      <trkpt lat="59.956903" lon="17.6915378">
        <ele>32.3416</ele>
        <time>2013-03-17T11:45:32Z</time>
      </trkpt>
      <trkpt lat="59.9569365" lon="17.6916388">
        <ele>32.3416</ele>
        <time>2013-03-17T11:45:33Z</time>
      </trkpt>
      <trkpt lat="59.9569705" lon="17.6917433">
        <ele>32.3416</ele>
        <time>2013-03-17T11:45:34Z</time>
      </trkpt>
      <trkpt lat="59.9570056" lon="17.6918481">
        <ele>31.8607</ele>
        <time>2013-03-17T11:45:35Z</time>
      </trkpt>
      <trkpt lat="59.9570413" lon="17.6919524">
        <ele>31.8607</ele>
        <time>2013-03-17T11:45:36Z</time>
      </trkpt>
      <trkpt lat="59.9570775" lon="17.6920579">
        <ele>31.8607</ele>
        <time>2013-03-17T11:45:37Z</time>
      </trkpt>
      <trkpt lat="59.9571143" lon="17.692164">
        <ele>31.8607</ele>
        <time>2013-03-17T11:45:38Z</time>
      </trkpt>
      <trkpt lat="59.9571516" lon="17.6922704">
        <ele>31.8607</ele>
        <time>2013-03-17T11:45:39Z</time>
      </trkpt>
      <trkpt lat="59.9571896" lon="17.6923782">
        <ele>31.8607</ele>
        <time>2013-03-17T11:45:40Z</time>
      </trkpt>
      <trkpt lat="59.9572279" lon="17.6924862">
        <ele>31.8607</ele>
        <time>2013-03-17T11:45:41Z</time>
      </trkpt>
      <trkpt lat="59.9572661" lon="17.6925944">
        <ele>31.8607</ele>
        <time>2013-03-17T11:45:42Z</time>
      </trkpt>
      <trkpt lat="59.9573045" lon="17.6927038">
        <ele>31.8607</ele>
        <time>2013-03-17T11:45:43Z</time>
      </trkpt>
      <trkpt lat="59.9573432" lon="17.6928137">
        <ele>31.3801</ele>
        <time>2013-03-17T11:45:44Z</time>
      </trkpt>
      <trkpt lat="59.9573833" lon="17.6929246">
        <ele>31.3801</ele>
        <time>2013-03-17T11:45:45Z</time>
      </trkpt>
      <trkpt lat="59.9574236" lon="17.6930378">
        <ele>31.3801</ele>
        <time>2013-03-17T11:45:46Z</time>
      </trkpt>
      <trkpt lat="59.9574618" lon="17.693152">
        <ele>31.3801</ele>
        <time>2013-03-17T11:45:47Z</time>
      </trkpt>
      <trkpt lat="59.9574999" lon="17.6932658">
        <ele>31.3801</ele>
        <time>2013-03-17T11:45:48Z</time>
      </trkpt>
      <trkpt lat="59.957538" lon="17.6933789">
        <ele>31.3801</ele>
        <time>2013-03-17T11:45:49Z</time>
      </trkpt>
      <trkpt lat="59.9575739" lon="17.6934918">
        <ele>31.3801</ele>
        <time>2013-03-17T11:45:50Z</time>
      </trkpt>
      <trkpt lat="59.9576109" lon="17.6936038">
        <ele>31.3801</ele>
        <time>2013-03-17T11:45:51Z</time>
      </trkpt>
      <trkpt lat="59.9576499" lon="17.6937156">
        <ele>31.3801</ele>
        <time>2013-03-17T11:45:52Z</time>
      </trkpt>
      <trkpt lat="59.9576881" lon="17.693826">
        <ele>31.3801</ele>
        <time>2013-03-17T11:45:53Z</time>
      </trkpt>
      <trkpt lat="59.9577265" lon="17.6939352">
        <ele>31.8607</ele>
        <time>2013-03-17T11:45:54Z</time>
      </trkpt>
      <trkpt lat="59.9577643" lon="17.6940415">
        <ele>31.8607</ele>
        <time>2013-03-17T11:45:55Z</time>
      </trkpt>
      <trkpt lat="59.9578012" lon="17.6941464">
        <ele>32.3416</ele>
        <time>2013-03-17T11:45:56Z</time>
      </trkpt>
      <trkpt lat="59.9578375" lon="17.6942495">
        <ele>32.3416</ele>
        <time>2013-03-17T11:45:57Z</time>
      </trkpt>
      <trkpt lat="59.9578729" lon="17.6943515">
        <ele>32.3416</ele>
        <time>2013-03-17T11:45:58Z</time>
      </trkpt>
      <trkpt lat="59.9579083" lon="17.6944537">
        <ele>32.8223</ele>
        <time>2013-03-17T11:45:59Z</time>
      </trkpt>
      <trkpt lat="59.9579422" lon="17.6945567">
        <ele>32.8223</ele>
        <time>2013-03-17T11:46:00Z</time>
      </trkpt>
      <trkpt lat="59.9579753" lon="17.6946598">
        <ele>32.8223</ele>
        <time>2013-03-17T11:46:01Z</time>
      </trkpt>
      <trkpt lat="59.9580098" lon="17.6947609">
        <ele>32.8223</ele>
        <time>2013-03-17T11:46:02Z</time>
      </trkpt>
      <trkpt lat="59.9580451" lon="17.6948589">
        <ele>32.8223</ele>
        <time>2013-03-17T11:46:03Z</time>
      </trkpt>
      <trkpt lat="59.9580797" lon="17.694957">
        <ele>32.8223</ele>
        <time>2013-03-17T11:46:04Z</time>
      </trkpt>
      <trkpt lat="59.9581153" lon="17.6950541">
        <ele>32.8223</ele>
        <time>2013-03-17T11:46:05Z</time>
      </trkpt>
      <trkpt lat="59.9581525" lon="17.6951505">
        <ele>32.8223</ele>
        <time>2013-03-17T11:46:06Z</time>
      </trkpt>
      <trkpt lat="59.9581903" lon="17.6952477">
        <ele>32.8223</ele>
        <time>2013-03-17T11:46:07Z</time>
      </trkpt>
      <trkpt lat="59.9582281" lon="17.6953457">
        <ele>33.3029</ele>
        <time>2013-03-17T11:46:08Z</time>
      </trkpt>
      <trkpt lat="59.9582665" lon="17.6954437">
        <ele>33.3029</ele>
        <time>2013-03-17T11:46:09Z</time>
      </trkpt>
      <trkpt lat="59.9583063" lon="17.6955406">
        <ele>33.3029</ele>
        <time>2013-03-17T11:46:10Z</time>
      </trkpt>
      <trkpt lat="59.9583462" lon="17.6956378">
        <ele>33.3029</ele>
        <time>2013-03-17T11:46:11Z</time>
      </trkpt>
      <trkpt lat="59.9583862" lon="17.6957358">
        <ele>33.3029</ele>
        <time>2013-03-17T11:46:12Z</time>
      </trkpt>
      <trkpt lat="59.9584266" lon="17.6958356">
        <ele>33.3029</ele>
        <time>2013-03-17T11:46:13Z</time>
      </trkpt>
      <trkpt lat="59.9584672" lon="17.6959378">
        <ele>32.8223</ele>
        <time>2013-03-17T11:46:14Z</time>
      </trkpt>
      <trkpt lat="59.9585074" lon="17.6960414">
        <ele>33.3029</ele>
        <time>2013-03-17T11:46:15Z</time>
      </trkpt>
      <trkpt lat="59.9585467" lon="17.696141">
        <ele>33.3029</ele>
        <time>2013-03-17T11:46:16Z</time>
      </trkpt>
      <trkpt lat="59.958584" lon="17.696237">
        <ele>33.3029</ele>
        <time>2013-03-17T11:46:17Z</time>
      </trkpt>
      <trkpt lat="59.9586191" lon="17.6963325">
        <ele>33.3029</ele>
        <time>2013-03-17T11:46:18Z</time>
      </trkpt>
      <trkpt lat="59.9586527" lon="17.6964293">
        <ele>33.3029</ele>
        <time>2013-03-17T11:46:19Z</time>
      </trkpt>
      <trkpt lat="59.9586858" lon="17.6965276">
        <ele>33.3029</ele>
        <time>2013-03-17T11:46:20Z</time>
      </trkpt>
      <trkpt lat="59.9587179" lon="17.6966276">
        <ele>33.3029</ele>
        <time>2013-03-17T11:46:21Z</time>
      </trkpt>
      <trkpt lat="59.9587482" lon="17.6967314">
        <ele>33.7834</ele>
        <time>2013-03-17T11:46:22Z</time>
      </trkpt>
      <trkpt lat="59.9587766" lon="17.6968386">
        <ele>33.7834</ele>
        <time>2013-03-17T11:46:23Z</time>
      </trkpt>
      <trkpt lat="59.9588037" lon="17.6969493">
        <ele>33.7834</ele>
        <time>2013-03-17T11:46:24Z</time>
      </trkpt>
      <trkpt lat="59.9588307" lon="17.697062">
        <ele>33.7834</ele>
        <time>2013-03-17T11:46:25Z</time>
      </trkpt>
      <trkpt lat="59.9588571" lon="17.6971775">
        <ele>33.7834</ele>
        <time>2013-03-17T11:46:26Z</time>
      </trkpt>
      <trkpt lat="59.9588818" lon="17.6972956">
        <ele>34.2642</ele>
        <time>2013-03-17T11:46:27Z</time>
      </trkpt>
      <trkpt lat="59.958904" lon="17.6974162">
        <ele>34.2642</ele>
        <time>2013-03-17T11:46:28Z</time>
      </trkpt>
      <trkpt lat="59.9589243" lon="17.6975369">
        <ele>34.7449</ele>
        <time>2013-03-17T11:46:29Z</time>
      </trkpt>
      <trkpt lat="59.9589444" lon="17.6976544">
        <ele>34.7449</ele>
        <time>2013-03-17T11:46:30Z</time>
      </trkpt>
      <trkpt lat="59.9589632" lon="17.6977681">
        <ele>34.7449</ele>
        <time>2013-03-17T11:46:31Z</time>
      </trkpt>
      <trkpt lat="59.958978" lon="17.6978778">
        <ele>34.7449</ele>
        <time>2013-03-17T11:46:32Z</time>
      </trkpt>
      <trkpt lat="59.9589902" lon="17.6979843">
        <ele>34.7449</ele>
        <time>2013-03-17T11:46:33Z</time>
      </trkpt>
      <trkpt lat="59.959002" lon="17.6980884">
        <ele>34.7449</ele>
        <time>2013-03-17T11:46:34Z</time>
      </trkpt>
      <trkpt lat="59.9590104" lon="17.698192">
        <ele>35.2255</ele>
        <time>2013-03-17T11:46:35Z</time>
      </trkpt>
      <trkpt lat="59.9590155" lon="17.6982956">
        <ele>35.2255</ele>
        <time>2013-03-17T11:46:36Z</time>
      </trkpt>
      <trkpt lat="59.9590181" lon="17.6983982">
        <ele>35.2255</ele>
        <time>2013-03-17T11:46:37Z</time>
      </trkpt>
      <trkpt lat="59.9590186" lon="17.6985005">
        <ele>35.2255</ele>
        <time>2013-03-17T11:46:38Z</time>
      </trkpt>
      <trkpt lat="59.9590205" lon="17.6986035">
        <ele>34.7449</ele>
        <time>2013-03-17T11:46:39Z</time>
      </trkpt>
      <trkpt lat="59.9590225" lon="17.6987081">
        <ele>34.7449</ele>
        <time>2013-03-17T11:46:40Z</time>
      </trkpt>
      <trkpt lat="59.9590227" lon="17.6988143">
        <ele>34.7449</ele>
        <time>2013-03-17T11:46:41Z</time>
      </trkpt>
      <trkpt lat="59.9590241" lon="17.6989199">
        <ele>34.7449</ele>
        <time>2013-03-17T11:46:42Z</time>
      </trkpt>
      <trkpt lat="59.9590256" lon="17.6990275">
        <ele>34.7449</ele>
        <time>2013-03-17T11:46:43Z</time>
      </trkpt>
      <trkpt lat="59.9590277" lon="17.6991341">
        <ele>34.7449</ele>
        <time>2013-03-17T11:46:44Z</time>
      </trkpt>
      <trkpt lat="59.9590301" lon="17.6992386">
        <ele>34.7449</ele>
        <time>2013-03-17T11:46:45Z</time>
      </trkpt>
      <trkpt lat="59.9590331" lon="17.6993412">
        <ele>34.7449</ele>
        <time>2013-03-17T11:46:46Z</time>
      </trkpt>
      <trkpt lat="59.9590371" lon="17.6994453">
        <ele>34.7449</ele>
        <time>2013-03-17T11:46:47Z</time>
      </trkpt>
      <trkpt lat="59.9590441" lon="17.6995463">
        <ele>34.7449</ele>
        <time>2013-03-17T11:46:48Z</time>
      </trkpt>
      <trkpt lat="59.9590524" lon="17.6996494">
        <ele>34.7449</ele>
        <time>2013-03-17T11:46:49Z</time>
      </trkpt>
      <trkpt lat="59.9590617" lon="17.6997534">
        <ele>34.7449</ele>
        <time>2013-03-17T11:46:50Z</time>
      </trkpt>
      <trkpt lat="59.9590713" lon="17.6998588">
        <ele>34.2642</ele>
        <time>2013-03-17T11:46:51Z</time>
      </trkpt>
      <trkpt lat="59.9590813" lon="17.6999659">
        <ele>34.2642</ele>
        <time>2013-03-17T11:46:52Z</time>
      </trkpt>
      <trkpt lat="59.9590927" lon="17.7000739">
        <ele>34.2642</ele>
        <time>2013-03-17T11:46:53Z</time>
      </trkpt>
      <trkpt lat="59.9591035" lon="17.7001851">
        <ele>34.2642</ele>
        <time>2013-03-17T11:46:54Z</time>
      </trkpt>
      <trkpt lat="59.9591143" lon="17.7002977">
        <ele>34.2642</ele>
        <time>2013-03-17T11:46:55Z</time>
      </trkpt>
      <trkpt lat="59.9591258" lon="17.7004098">
        <ele>34.2642</ele>
        <time>2013-03-17T11:46:56Z</time>
      </trkpt>
      <trkpt lat="59.9591365" lon="17.7005241">
        <ele>34.7449</ele>
        <time>2013-03-17T11:46:57Z</time>
      </trkpt>
      <trkpt lat="59.9591475" lon="17.7006368">
        <ele>34.7449</ele>
        <time>2013-03-17T11:46:58Z</time>
      </trkpt>
      <trkpt lat="59.9591596" lon="17.7007475">
        <ele>34.7449</ele>
        <time>2013-03-17T11:46:59Z</time>
      </trkpt>
      <trkpt lat="59.9591717" lon="17.7008574">
        <ele>34.7449</ele>
        <time>2013-03-17T11:47:00Z</time>
      </trkpt>
      <trkpt lat="59.9591831" lon="17.7009675">
        <ele>34.7449</ele>
        <time>2013-03-17T11:47:01Z</time>
      </trkpt>
      <trkpt lat="59.9591952" lon="17.7010776">
        <ele>34.7449</ele>
        <time>2013-03-17T11:47:02Z</time>
      </trkpt>
      <trkpt lat="59.9592095" lon="17.7011863">
        <ele>35.2255</ele>
        <time>2013-03-17T11:47:03Z</time>
      </trkpt>
      <trkpt lat="59.9592266" lon="17.701294">
        <ele>35.2255</ele>
        <time>2013-03-17T11:47:04Z</time>
      </trkpt>
      <trkpt lat="59.959244" lon="17.7014023">
        <ele>35.2255</ele>
        <time>2013-03-17T11:47:05Z</time>
      </trkpt>
      <trkpt lat="59.9592626" lon="17.7015132">
        <ele>35.2255</ele>
        <time>2013-03-17T11:47:06Z</time>
      </trkpt>
      <trkpt lat="59.9592832" lon="17.7016251">
        <ele>35.2255</ele>
        <time>2013-03-17T11:47:07Z</time>
      </trkpt>
      <trkpt lat="59.959307" lon="17.7017385">
        <ele>35.2255</ele>
        <time>2013-03-17T11:47:08Z</time>
      </trkpt>
      <trkpt lat="59.9593349" lon="17.7018502">
        <ele>35.2255</ele>
        <time>2013-03-17T11:47:09Z</time>
      </trkpt>
      <trkpt lat="59.9593654" lon="17.7019628">
        <ele>35.2255</ele>
        <time>2013-03-17T11:47:10Z</time>
      </trkpt>
      <trkpt lat="59.9593976" lon="17.7020757">
        <ele>35.2255</ele>
        <time>2013-03-17T11:47:11Z</time>
      </trkpt>
      <trkpt lat="59.9594314" lon="17.7021886">
        <ele>35.7061</ele>
        <time>2013-03-17T11:47:12Z</time>
      </trkpt>
      <trkpt lat="59.9594652" lon="17.7023027">
        <ele>35.7061</ele>
        <time>2013-03-17T11:47:13Z</time>
      </trkpt>
      <trkpt lat="59.9594981" lon="17.7024176">
        <ele>35.7061</ele>
        <time>2013-03-17T11:47:14Z</time>
      </trkpt>
      <trkpt lat="59.9595308" lon="17.7025291">
        <ele>35.7061</ele>
        <time>2013-03-17T11:47:15Z</time>
      </trkpt>
      <trkpt lat="59.9595638" lon="17.7026377">
        <ele>35.7061</ele>
        <time>2013-03-17T11:47:16Z</time>
      </trkpt>
      <trkpt lat="59.9595958" lon="17.7027455">
        <ele>35.2255</ele>
        <time>2013-03-17T11:47:17Z</time>
      </trkpt>
      <trkpt lat="59.9596266" lon="17.7028547">
        <ele>35.2255</ele>
        <time>2013-03-17T11:47:18Z</time>
      </trkpt>
      <trkpt lat="59.9596592" lon="17.7029626">
        <ele>35.2255</ele>
        <time>2013-03-17T11:47:19Z</time>
      </trkpt>
      <trkpt lat="59.9596925" lon="17.703072">
        <ele>34.7449</ele>
        <time>2013-03-17T11:47:20Z</time>
      </trkpt>
      <trkpt lat="59.9597252" lon="17.7031812">
        <ele>34.2642</ele>
        <time>2013-03-17T11:47:21Z</time>
      </trkpt>
      <trkpt lat="59.9597581" lon="17.7032884">
        <ele>34.2642</ele>
        <time>2013-03-17T11:47:22Z</time>
      </trkpt>
      <trkpt lat="59.959792" lon="17.7033955">
        <ele>33.7834</ele>
        <time>2013-03-17T11:47:23Z</time>
      </trkpt>
      <trkpt lat="59.9598265" lon="17.7035023">
        <ele>33.3029</ele>
        <time>2013-03-17T11:47:24Z</time>
      </trkpt>
      <trkpt lat="59.9598607" lon="17.7036091">
        <ele>33.3029</ele>
        <time>2013-03-17T11:47:25Z</time>
      </trkpt>
      <trkpt lat="59.9598951" lon="17.7037176">
        <ele>32.8223</ele>
        <time>2013-03-17T11:47:26Z</time>
      </trkpt>
      <trkpt lat="59.9599303" lon="17.7038274">
        <ele>32.8223</ele>
        <time>2013-03-17T11:47:27Z</time>
      </trkpt>
      <trkpt lat="59.9599676" lon="17.7039375">
        <ele>32.3416</ele>
        <time>2013-03-17T11:47:28Z</time>
      </trkpt>
      <trkpt lat="59.9600081" lon="17.7040441">
        <ele>32.3416</ele>
        <time>2013-03-17T11:47:29Z</time>
      </trkpt>
      <trkpt lat="59.9600528" lon="17.7041436">
        <ele>32.3416</ele>
        <time>2013-03-17T11:47:30Z</time>
      </trkpt>
      <trkpt lat="59.9600996" lon="17.7042365">
        <ele>31.8607</ele>
        <time>2013-03-17T11:47:31Z</time>
      </trkpt>
      <trkpt lat="59.9601494" lon="17.7043238">
        <ele>31.8607</ele>
        <time>2013-03-17T11:47:32Z</time>
      </trkpt>
      <trkpt lat="59.9602039" lon="17.7044042">
        <ele>31.8607</ele>
        <time>2013-03-17T11:47:33Z</time>
      </trkpt>
      <trkpt lat="59.9602619" lon="17.7044793">
        <ele>31.8607</ele>
        <time>2013-03-17T11:47:34Z</time>
      </trkpt>
      <trkpt lat="59.9603214" lon="17.7045527">
        <ele>31.8607</ele>
        <time>2013-03-17T11:47:35Z</time>
      </trkpt>
      <trkpt lat="59.9603815" lon="17.7046247">
        <ele>31.3801</ele>
        <time>2013-03-17T11:47:36Z</time>
      </trkpt>
      <trkpt lat="59.9604422" lon="17.7046959">
        <ele>31.3801</ele>
        <time>2013-03-17T11:47:37Z</time>
      </trkpt>
      <trkpt lat="59.9605025" lon="17.7047702">
        <ele>31.3801</ele>
        <time>2013-03-17T11:47:38Z</time>
      </trkpt>
      <trkpt lat="59.9605637" lon="17.7048451">
        <ele>31.8607</ele>
        <time>2013-03-17T11:47:39Z</time>
      </trkpt>
      <trkpt lat="59.9606252" lon="17.7049194">
        <ele>31.8607</ele>
        <time>2013-03-17T11:47:40Z</time>
      </trkpt>
      <trkpt lat="59.9606861" lon="17.704994">
        <ele>31.8607</ele>
        <time>2013-03-17T11:47:41Z</time>
      </trkpt>
      <trkpt lat="59.9607457" lon="17.7050703">
        <ele>31.8607</ele>
        <time>2013-03-17T11:47:42Z</time>
      </trkpt>
      <trkpt lat="59.9608062" lon="17.7051502">
        <ele>31.8607</ele>
        <time>2013-03-17T11:47:43Z</time>
      </trkpt>
      <trkpt lat="59.9608651" lon="17.7052333">
        <ele>31.8607</ele>
        <time>2013-03-17T11:47:44Z</time>
      </trkpt>
      <trkpt lat="59.9609228" lon="17.7053185">
        <ele>32.3416</ele>
        <time>2013-03-17T11:47:45Z</time>
      </trkpt>
      <trkpt lat="59.9609803" lon="17.7054042">
        <ele>32.3416</ele>
        <time>2013-03-17T11:47:46Z</time>
      </trkpt>
      <trkpt lat="59.9610358" lon="17.7054918">
        <ele>32.3416</ele>
        <time>2013-03-17T11:47:47Z</time>
      </trkpt>
      <trkpt lat="59.9610905" lon="17.7055821">
        <ele>32.3416</ele>
        <time>2013-03-17T11:47:48Z</time>
      </trkpt>
      <trkpt lat="59.9611438" lon="17.7056733">
        <ele>32.3416</ele>
        <time>2013-03-17T11:47:49Z</time>
      </trkpt>
      <trkpt lat="59.9611973" lon="17.7057638">
        <ele>32.3416</ele>
        <time>2013-03-17T11:47:50Z</time>
      </trkpt>
      <trkpt lat="59.9612491" lon="17.7058547">
        <ele>32.8223</ele>
        <time>2013-03-17T11:47:51Z</time>
      </trkpt>
      <trkpt lat="59.9612999" lon="17.7059476">
        <ele>32.8223</ele>
        <time>2013-03-17T11:47:52Z</time>
      </trkpt>
      <trkpt lat="59.9613502" lon="17.7060409">
        <ele>32.8223</ele>
        <time>2013-03-17T11:47:53Z</time>
      </trkpt>
      <trkpt lat="59.9613993" lon="17.7061334">
        <ele>32.8223</ele>
        <time>2013-03-17T11:47:54Z</time>
      </trkpt>
      <trkpt lat="59.9614475" lon="17.7062239">
        <ele>32.8223</ele>
        <time>2013-03-17T11:47:55Z</time>
      </trkpt>
      <trkpt lat="59.9614972" lon="17.7063098">
        <ele>33.3029</ele>
        <time>2013-03-17T11:47:56Z</time>
      </trkpt>
      <trkpt lat="59.9615486" lon="17.7063913">
        <ele>33.3029</ele>
        <time>2013-03-17T11:47:57Z</time>
      </trkpt>
      <trkpt lat="59.9616017" lon="17.706469">
        <ele>33.3029</ele>
        <time>2013-03-17T11:47:58Z</time>
      </trkpt>
      <trkpt lat="59.9616578" lon="17.7065405">
        <ele>33.3029</ele>
        <time>2013-03-17T11:47:59Z</time>
      </trkpt>
      <trkpt lat="59.9617163" lon="17.7066062">
        <ele>33.3029</ele>
        <time>2013-03-17T11:48:00Z</time>
      </trkpt>
      <trkpt lat="59.9617765" lon="17.7066667">
        <ele>33.3029</ele>
        <time>2013-03-17T11:48:01Z</time>
      </trkpt>
      <trkpt lat="59.9618391" lon="17.7067219">
        <ele>33.3029</ele>
        <time>2013-03-17T11:48:02Z</time>
      </trkpt>
      <trkpt lat="59.9619044" lon="17.7067704">
        <ele>33.3029</ele>
        <time>2013-03-17T11:48:03Z</time>
      </trkpt>
      <trkpt lat="59.9619718" lon="17.7068139">
        <ele>33.7834</ele>
        <time>2013-03-17T11:48:04Z</time>
      </trkpt>
      <trkpt lat="59.9620394" lon="17.7068554">
        <ele>33.3029</ele>
        <time>2013-03-17T11:48:05Z</time>
      </trkpt>
      <trkpt lat="59.9621078" lon="17.7068959">
        <ele>33.3029</ele>
        <time>2013-03-17T11:48:06Z</time>
      </trkpt>
      <trkpt lat="59.962177" lon="17.7069322">
        <ele>33.3029</ele>
        <time>2013-03-17T11:48:07Z</time>
      </trkpt>
      <trkpt lat="59.9622478" lon="17.7069653">
        <ele>33.3029</ele>
        <time>2013-03-17T11:48:08Z</time>
      </trkpt>
      <trkpt lat="59.9623187" lon="17.7069989">
        <ele>33.3029</ele>
        <time>2013-03-17T11:48:09Z</time>
      </trkpt>
      <trkpt lat="59.9623898" lon="17.707033">
        <ele>33.3029</ele>
        <time>2013-03-17T11:48:10Z</time>
      </trkpt>
      <trkpt lat="59.9624609" lon="17.7070641">
        <ele>33.3029</ele>
        <time>2013-03-17T11:48:11Z</time>
      </trkpt>
      <trkpt lat="59.9625326" lon="17.7070891">
        <ele>32.8223</ele>
        <time>2013-03-17T11:48:12Z</time>
      </trkpt>
      <trkpt lat="59.9626046" lon="17.7071097">
        <ele>32.8223</ele>
        <time>2013-03-17T11:48:13Z</time>
      </trkpt>
      <trkpt lat="59.9626776" lon="17.7071279">
        <ele>32.3416</ele>
        <time>2013-03-17T11:48:14Z</time>
      </trkpt>
      <trkpt lat="59.9627519" lon="17.7071429">
        <ele>32.3416</ele>
        <time>2013-03-17T11:48:15Z</time>
      </trkpt>
      <trkpt lat="59.9628278" lon="17.7071557">
        <ele>31.8607</ele>
        <time>2013-03-17T11:48:16Z</time>
      </trkpt>
      <trkpt lat="59.9629053" lon="17.7071626">
        <ele>31.8607</ele>
        <time>2013-03-17T11:48:17Z</time>
      </trkpt>
      <trkpt lat="59.9629828" lon="17.7071663">
        <ele>31.8607</ele>
        <time>2013-03-17T11:48:18Z</time>
      </trkpt>
      <trkpt lat="59.9630604" lon="17.7071681">
        <ele>31.3801</ele>
        <time>2013-03-17T11:48:19Z</time>
      </trkpt>
      <trkpt lat="59.9631376" lon="17.7071686">
        <ele>31.3801</ele>
        <time>2013-03-17T11:48:20Z</time>
      </trkpt>
      <trkpt lat="59.9632158" lon="17.7071723">
        <ele>30.8995</ele>
        <time>2013-03-17T11:48:21Z</time>
      </trkpt>
      <trkpt lat="59.9632952" lon="17.7071769">
        <ele>30.4188</ele>
        <time>2013-03-17T11:48:22Z</time>
      </trkpt>
      <trkpt lat="59.9633736" lon="17.7071761">
        <ele>30.4188</ele>
        <time>2013-03-17T11:48:23Z</time>
      </trkpt>
      <trkpt lat="59.9634522" lon="17.7071755">
        <ele>29.9381</ele>
        <time>2013-03-17T11:48:24Z</time>
      </trkpt>
      <trkpt lat="59.9635305" lon="17.707176">
        <ele>29.4575</ele>
        <time>2013-03-17T11:48:25Z</time>
      </trkpt>
      <trkpt lat="59.9636085" lon="17.7071777">
        <ele>28.9769</ele>
        <time>2013-03-17T11:48:26Z</time>
      </trkpt>
      <trkpt lat="59.963686" lon="17.7071827">
        <ele>28.9769</ele>
        <time>2013-03-17T11:48:27Z</time>
      </trkpt>
      <trkpt lat="59.9637628" lon="17.7071914">
        <ele>28.4962</ele>
        <time>2013-03-17T11:48:28Z</time>
      </trkpt>
      <trkpt lat="59.9638403" lon="17.7072009">
        <ele>28.4962</ele>
        <time>2013-03-17T11:48:29Z</time>
      </trkpt>
      <trkpt lat="59.963919" lon="17.7072098">
        <ele>28.4962</ele>
        <time>2013-03-17T11:48:30Z</time>
      </trkpt>
      <trkpt lat="59.9639968" lon="17.7072205">
        <ele>28.4962</ele>
        <time>2013-03-17T11:48:31Z</time>
      </trkpt>
      <trkpt lat="59.9640744" lon="17.707234">
        <ele>28.4962</ele>
        <time>2013-03-17T11:48:32Z</time>
      </trkpt>
      <trkpt lat="59.9641513" lon="17.7072502">
        <ele>28.4962</ele>
        <time>2013-03-17T11:48:33Z</time>
      </trkpt>
      <trkpt lat="59.9642273" lon="17.7072693">
        <ele>28.4962</ele>
        <time>2013-03-17T11:48:34Z</time>
      </trkpt>
      <trkpt lat="59.9643033" lon="17.7072927">
        <ele>28.4962</ele>
        <time>2013-03-17T11:48:35Z</time>
      </trkpt>
      <trkpt lat="59.9643795" lon="17.7073185">
        <ele>28.4962</ele>
        <time>2013-03-17T11:48:36Z</time>
      </trkpt>
      <trkpt lat="59.9644546" lon="17.7073473">
        <ele>28.4962</ele>
        <time>2013-03-17T11:48:37Z</time>
      </trkpt>
      <trkpt lat="59.9645288" lon="17.7073823">
        <ele>28.4962</ele>
        <time>2013-03-17T11:48:38Z</time>
      </trkpt>
      <trkpt lat="59.9646031" lon="17.7074235">
        <ele>28.4962</ele>
        <time>2013-03-17T11:48:39Z</time>
      </trkpt>
      <trkpt lat="59.9646788" lon="17.7074659">
        <ele>28.9769</ele>
        <time>2013-03-17T11:48:40Z</time>
      </trkpt>
      <trkpt lat="59.9647535" lon="17.7075112">
        <ele>28.9769</ele>
        <time>2013-03-17T11:48:41Z</time>
      </trkpt>
      <trkpt lat="59.9648263" lon="17.7075603">
        <ele>28.9769</ele>
        <time>2013-03-17T11:48:42Z</time>
      </trkpt>
      <trkpt lat="59.9648983" lon="17.7076127">
        <ele>28.9769</ele>
        <time>2013-03-17T11:48:43Z</time>
      </trkpt>
      <trkpt lat="59.9649704" lon="17.7076677">
        <ele>28.9769</ele>
        <time>2013-03-17T11:48:44Z</time>
      </trkpt>
      <trkpt lat="59.9650434" lon="17.7077232">
        <ele>28.9769</ele>
        <time>2013-03-17T11:48:45Z</time>
      </trkpt>
      <trkpt lat="59.9651161" lon="17.7077796">
        <ele>28.4962</ele>
        <time>2013-03-17T11:48:46Z</time>
      </trkpt>
      <trkpt lat="59.9651889" lon="17.7078373">
        <ele>28.4962</ele>
        <time>2013-03-17T11:48:47Z</time>
      </trkpt>
      <trkpt lat="59.9652611" lon="17.7078971">
        <ele>28.4962</ele>
        <time>2013-03-17T11:48:48Z</time>
      </trkpt>
      <trkpt lat="59.9653331" lon="17.7079598">
        <ele>28.4962</ele>
        <time>2013-03-17T11:48:49Z</time>
      </trkpt>
      <trkpt lat="59.9654047" lon="17.7080257">
        <ele>28.4962</ele>
        <time>2013-03-17T11:48:50Z</time>
      </trkpt>
      <trkpt lat="59.9654757" lon="17.7080971">
        <ele>28.4962</ele>
        <time>2013-03-17T11:48:51Z</time>
      </trkpt>
      <trkpt lat="59.9655456" lon="17.7081758">
        <ele>28.4962</ele>
        <time>2013-03-17T11:48:52Z</time>
      </trkpt>
      <trkpt lat="59.9656137" lon="17.7082621">
        <ele>28.4962</ele>
        <time>2013-03-17T11:48:53Z</time>
      </trkpt>
      <trkpt lat="59.9656787" lon="17.7083579">
        <ele>28.9769</ele>
        <time>2013-03-17T11:48:54Z</time>
      </trkpt>
      <trkpt lat="59.9657387" lon="17.7084643">
        <ele>28.4962</ele>
        <time>2013-03-17T11:48:55Z</time>
      </trkpt>
      <trkpt lat="59.9657952" lon="17.7085777">
        <ele>28.4962</ele>
        <time>2013-03-17T11:48:56Z</time>
      </trkpt>
      <trkpt lat="59.9658478" lon="17.7086974">
        <ele>28.4962</ele>
        <time>2013-03-17T11:48:57Z</time>
      </trkpt>
      <trkpt lat="59.9658962" lon="17.7088233">
        <ele>28.4962</ele>
        <time>2013-03-17T11:48:58Z</time>
      </trkpt>
      <trkpt lat="59.9659416" lon="17.7089543">
        <ele>28.4962</ele>
        <time>2013-03-17T11:48:59Z</time>
      </trkpt>
      <trkpt lat="59.9659851" lon="17.7090879">
        <ele>28.9769</ele>
        <time>2013-03-17T11:49:00Z</time>
      </trkpt>
      <trkpt lat="59.9660267" lon="17.7092231">
        <ele>28.9769</ele>
        <time>2013-03-17T11:49:01Z</time>
      </trkpt>
      <trkpt lat="59.9660667" lon="17.7093589">
        <ele>28.9769</ele>
        <time>2013-03-17T11:49:02Z</time>
      </trkpt>
      <trkpt lat="59.9661037" lon="17.7094956">
        <ele>29.4575</ele>
        <time>2013-03-17T11:49:03Z</time>
      </trkpt>
      <trkpt lat="59.9661392" lon="17.7096314">
        <ele>29.4575</ele>
        <time>2013-03-17T11:49:04Z</time>
      </trkpt>
      <trkpt lat="59.9661759" lon="17.7097644">
        <ele>29.4575</ele>
        <time>2013-03-17T11:49:05Z</time>
      </trkpt>
      <trkpt lat="59.966212" lon="17.7098942">
        <ele>29.9381</ele>
        <time>2013-03-17T11:49:06Z</time>
      </trkpt>
      <trkpt lat="59.9662474" lon="17.710023">
        <ele>29.9381</ele>
        <time>2013-03-17T11:49:07Z</time>
      </trkpt>
      <trkpt lat="59.9662831" lon="17.7101501">
        <ele>29.9381</ele>
        <time>2013-03-17T11:49:08Z</time>
      </trkpt>
      <trkpt lat="59.9663179" lon="17.7102767">
        <ele>29.9381</ele>
        <time>2013-03-17T11:49:09Z</time>
      </trkpt>
      <trkpt lat="59.9663514" lon="17.7104016">
        <ele>30.4188</ele>
        <time>2013-03-17T11:49:10Z</time>
      </trkpt>
      <trkpt lat="59.9663847" lon="17.7105228">
        <ele>30.4188</ele>
        <time>2013-03-17T11:49:11Z</time>
      </trkpt>
      <trkpt lat="59.9664189" lon="17.7106406">
        <ele>30.4188</ele>
        <time>2013-03-17T11:49:12Z</time>
      </trkpt>
      <trkpt lat="59.9664529" lon="17.710756">
        <ele>30.8995</ele>
        <time>2013-03-17T11:49:13Z</time>
      </trkpt>
      <trkpt lat="59.966486" lon="17.7108695">
        <ele>30.8995</ele>
        <time>2013-03-17T11:49:14Z</time>
      </trkpt>
      <trkpt lat="59.9665183" lon="17.7109808">
        <ele>30.8995</ele>
        <time>2013-03-17T11:49:15Z</time>
      </trkpt>
      <trkpt lat="59.96655" lon="17.7110917">
        <ele>30.8995</ele>
        <time>2013-03-17T11:49:16Z</time>
      </trkpt>
      <trkpt lat="59.9665815" lon="17.7112031">
        <ele>31.3801</ele>
        <time>2013-03-17T11:49:17Z</time>
      </trkpt>
      <trkpt lat="59.9666147" lon="17.7113124">
        <ele>31.3801</ele>
        <time>2013-03-17T11:49:18Z</time>
      </trkpt>
      <trkpt lat="59.966649" lon="17.711417">
        <ele>31.3801</ele>
        <time>2013-03-17T11:49:19Z</time>
      </trkpt>
      <trkpt lat="59.966684" lon="17.7115186">
        <ele>31.3801</ele>
        <time>2013-03-17T11:49:20Z</time>
      </trkpt>
      <trkpt lat="59.9667196" lon="17.7116207">
        <ele>31.3801</ele>
        <time>2013-03-17T11:49:21Z</time>
      </trkpt>
      <trkpt lat="59.9667549" lon="17.7117231">
        <ele>31.8607</ele>
        <time>2013-03-17T11:49:22Z</time>
      </trkpt>
      <trkpt lat="59.9667902" lon="17.7118248">
        <ele>31.8607</ele>
        <time>2013-03-17T11:49:23Z</time>
      </trkpt>
      <trkpt lat="59.9668256" lon="17.7119256">
        <ele>31.8607</ele>
        <time>2013-03-17T11:49:24Z</time>
      </trkpt>
      <trkpt lat="59.9668618" lon="17.7120245">
        <ele>32.3416</ele>
        <time>2013-03-17T11:49:25Z</time>
      </trkpt>
      <trkpt lat="59.9668983" lon="17.712123">
        <ele>32.3416</ele>
        <time>2013-03-17T11:49:26Z</time>
      </trkpt>
      <trkpt lat="59.9669326" lon="17.7122228">
        <ele>32.3416</ele>
        <time>2013-03-17T11:49:27Z</time>
      </trkpt>
      <trkpt lat="59.9669667" lon="17.7123231">
        <ele>32.3416</ele>
        <time>2013-03-17T11:49:28Z</time>
      </trkpt>
      <trkpt lat="59.9670018" lon="17.7124245">
        <ele>32.8223</ele>
        <time>2013-03-17T11:49:29Z</time>
      </trkpt>
      <trkpt lat="59.9670357" lon="17.7125284">
        <ele>32.8223</ele>
        <time>2013-03-17T11:49:30Z</time>
      </trkpt>
      <trkpt lat="59.9670669" lon="17.7126359">
        <ele>32.8223</ele>
        <time>2013-03-17T11:49:31Z</time>
      </trkpt>
      <trkpt lat="59.967097" lon="17.7127452">
        <ele>32.8223</ele>
        <time>2013-03-17T11:49:32Z</time>
      </trkpt>
      <trkpt lat="59.9671259" lon="17.7128546">
        <ele>32.8223</ele>
        <time>2013-03-17T11:49:33Z</time>
      </trkpt>
      <trkpt lat="59.9671527" lon="17.7129665">
        <ele>32.8223</ele>
        <time>2013-03-17T11:49:34Z</time>
      </trkpt>
      <trkpt lat="59.9671776" lon="17.7130818">
        <ele>32.8223</ele>
        <time>2013-03-17T11:49:35Z</time>
      </trkpt>
      <trkpt lat="59.9672017" lon="17.7131964">
        <ele>32.3416</ele>
        <time>2013-03-17T11:49:36Z</time>
      </trkpt>
      <trkpt lat="59.9672254" lon="17.7133145">
        <ele>31.8607</ele>
        <time>2013-03-17T11:49:37Z</time>
      </trkpt>
      <trkpt lat="59.9672493" lon="17.7134366">
        <ele>31.3801</ele>
        <time>2013-03-17T11:49:38Z</time>
      </trkpt>
      <trkpt lat="59.9672737" lon="17.7135639">
        <ele>31.3801</ele>
        <time>2013-03-17T11:49:39Z</time>
      </trkpt>
      <trkpt lat="59.967298" lon="17.7136957">
        <ele>30.8995</ele>
        <time>2013-03-17T11:49:40Z</time>
      </trkpt>
      <trkpt lat="59.9673192" lon="17.713833">
        <ele>30.4188</ele>
        <time>2013-03-17T11:49:41Z</time>
      </trkpt>
      <trkpt lat="59.9673399" lon="17.7139784">
        <ele>29.9381</ele>
        <time>2013-03-17T11:49:42Z</time>
      </trkpt>
      <trkpt lat="59.9673618" lon="17.7141315">
        <ele>29.4575</ele>
        <time>2013-03-17T11:49:43Z</time>
      </trkpt>
      <trkpt lat="59.9673844" lon="17.7142945">
        <ele>28.9769</ele>
        <time>2013-03-17T11:49:44Z</time>
      </trkpt>
      <trkpt lat="59.9674074" lon="17.7144644">
        <ele>28.4962</ele>
        <time>2013-03-17T11:49:45Z</time>
      </trkpt>
      <trkpt lat="59.967431" lon="17.7146395">
        <ele>28.0155</ele>
        <time>2013-03-17T11:49:46Z</time>
      </trkpt>
      <trkpt lat="59.9674526" lon="17.7148184">
        <ele>27.0543</ele>
        <time>2013-03-17T11:49:47Z</time>
      </trkpt>
      <trkpt lat="59.967478" lon="17.7149971">
        <ele>26.5736</ele>
        <time>2013-03-17T11:49:48Z</time>
      </trkpt>
      <trkpt lat="59.9675075" lon="17.7151796">
        <ele>26.0929</ele>
        <time>2013-03-17T11:49:49Z</time>
      </trkpt>
      <trkpt lat="59.9675399" lon="17.7153591">
        <ele>25.6123</ele>
        <time>2013-03-17T11:49:50Z</time>
      </trkpt>
      <trkpt lat="59.9675703" lon="17.7155339">
        <ele>25.6123</ele>
        <time>2013-03-17T11:49:51Z</time>
      </trkpt>
      <trkpt lat="59.9676062" lon="17.7156999">
        <ele>26.0929</ele>
        <time>2013-03-17T11:49:52Z</time>
      </trkpt>
      <trkpt lat="59.9676451" lon="17.7158569">
        <ele>26.0929</ele>
        <time>2013-03-17T11:49:53Z</time>
      </trkpt>
      <trkpt lat="59.967688" lon="17.7160019">
        <ele>26.0929</ele>
        <time>2013-03-17T11:49:54Z</time>
      </trkpt>
      <trkpt lat="59.9677342" lon="17.7161335">
        <ele>26.0929</ele>
        <time>2013-03-17T11:49:55Z</time>
      </trkpt>
      <trkpt lat="59.9677803" lon="17.7162529">
        <ele>26.5736</ele>
        <time>2013-03-17T11:49:56Z</time>
      </trkpt>
      <trkpt lat="59.9678278" lon="17.7163584">
        <ele>26.5736</ele>
        <time>2013-03-17T11:49:57Z</time>
      </trkpt>
      <trkpt lat="59.967876" lon="17.7164515">
        <ele>27.0543</ele>
        <time>2013-03-17T11:49:58Z</time>
      </trkpt>
      <trkpt lat="59.9679233" lon="17.7165366">
        <ele>27.5349</ele>
        <time>2013-03-17T11:49:59Z</time>
      </trkpt>
      <trkpt lat="59.9679693" lon="17.7166121">
        <ele>27.5349</ele>
        <time>2013-03-17T11:50:00Z</time>
      </trkpt>
      <trkpt lat="59.9680145" lon="17.7166791">
        <ele>27.5349</ele>
        <time>2013-03-17T11:50:01Z</time>
      </trkpt>
      <trkpt lat="59.9680602" lon="17.7167431">
        <ele>28.0155</ele>
        <time>2013-03-17T11:50:02Z</time>
      </trkpt>
      <trkpt lat="59.9681039" lon="17.7168033">
        <ele>28.0155</ele>
        <time>2013-03-17T11:50:03Z</time>
      </trkpt>
      <trkpt lat="59.968146" lon="17.7168595">
        <ele>28.0155</ele>
        <time>2013-03-17T11:50:04Z</time>
      </trkpt>
      <trkpt lat="59.9681899" lon="17.7169079">
        <ele>28.0155</ele>
        <time>2013-03-17T11:50:05Z</time>
      </trkpt>
      <trkpt lat="59.968234" lon="17.716953">
        <ele>28.0155</ele>
        <time>2013-03-17T11:50:06Z</time>
      </trkpt>
      <trkpt lat="59.9682786" lon="17.7169942">
        <ele>28.4962</ele>
        <time>2013-03-17T11:50:07Z</time>
      </trkpt>
      <trkpt lat="59.9683239" lon="17.7170307">
        <ele>28.4962</ele>
        <time>2013-03-17T11:50:08Z</time>
      </trkpt>
      <trkpt lat="59.9683679" lon="17.7170655">
        <ele>28.4962</ele>
        <time>2013-03-17T11:50:09Z</time>
      </trkpt>
      <trkpt lat="59.9684112" lon="17.7170973">
        <ele>28.9769</ele>
        <time>2013-03-17T11:50:10Z</time>
      </trkpt>
      <trkpt lat="59.9684557" lon="17.7171248">
        <ele>28.9769</ele>
        <time>2013-03-17T11:50:11Z</time>
      </trkpt>
      <trkpt lat="59.9685017" lon="17.7171486">
        <ele>28.9769</ele>
        <time>2013-03-17T11:50:12Z</time>
      </trkpt>
      <trkpt lat="59.9685482" lon="17.7171704">
        <ele>28.9769</ele>
        <time>2013-03-17T11:50:13Z</time>
      </trkpt>
      <trkpt lat="59.9685946" lon="17.7171908">
        <ele>28.9769</ele>
        <time>2013-03-17T11:50:14Z</time>
      </trkpt>
      <trkpt lat="59.9686412" lon="17.7172114">
        <ele>28.9769</ele>
        <time>2013-03-17T11:50:15Z</time>
      </trkpt>
      <trkpt lat="59.9686891" lon="17.7172311">
        <ele>29.4575</ele>
        <time>2013-03-17T11:50:16Z</time>
      </trkpt>
      <trkpt lat="59.968738" lon="17.7172488">
        <ele>29.9381</ele>
        <time>2013-03-17T11:50:17Z</time>
      </trkpt>
      <trkpt lat="59.968788" lon="17.7172649">
        <ele>29.9381</ele>
        <time>2013-03-17T11:50:18Z</time>
      </trkpt>
      <trkpt lat="59.9688384" lon="17.7172824">
        <ele>29.9381</ele>
        <time>2013-03-17T11:50:19Z</time>
      </trkpt>
      <trkpt lat="59.9688893" lon="17.7173036">
        <ele>30.4188</ele>
        <time>2013-03-17T11:50:20Z</time>
      </trkpt>
      <trkpt lat="59.9689416" lon="17.7173249">
        <ele>30.4188</ele>
        <time>2013-03-17T11:50:21Z</time>
      </trkpt>
      <trkpt lat="59.9689954" lon="17.7173444">
        <ele>30.4188</ele>
        <time>2013-03-17T11:50:22Z</time>
      </trkpt>
      <trkpt lat="59.9690499" lon="17.7173631">
        <ele>30.4188</ele>
        <time>2013-03-17T11:50:23Z</time>
      </trkpt>
      <trkpt lat="59.9691044" lon="17.7173843">
        <ele>30.4188</ele>
        <time>2013-03-17T11:50:24Z</time>
      </trkpt>
      <trkpt lat="59.9691598" lon="17.7174062">
        <ele>30.4188</ele>
        <time>2013-03-17T11:50:25Z</time>
      </trkpt>
      <trkpt lat="59.9692161" lon="17.717428">
        <ele>30.4188</ele>
        <time>2013-03-17T11:50:26Z</time>
      </trkpt>
      <trkpt lat="59.9692732" lon="17.7174535">
        <ele>30.4188</ele>
        <time>2013-03-17T11:50:27Z</time>
      </trkpt>
      <trkpt lat="59.969332" lon="17.7174832">
        <ele>30.4188</ele>
        <time>2013-03-17T11:50:28Z</time>
      </trkpt>
      <trkpt lat="59.9693931" lon="17.7175133">
        <ele>29.9381</ele>
        <time>2013-03-17T11:50:29Z</time>
      </trkpt>
      <trkpt lat="59.9694559" lon="17.7175446">
        <ele>29.9381</ele>
        <time>2013-03-17T11:50:30Z</time>
      </trkpt>
      <trkpt lat="59.9695193" lon="17.7175796">
        <ele>29.9381</ele>
        <time>2013-03-17T11:50:31Z</time>
      </trkpt>
      <trkpt lat="59.9695822" lon="17.7176196">
        <ele>29.9381</ele>
        <time>2013-03-17T11:50:32Z</time>
      </trkpt>
      <trkpt lat="59.9696444" lon="17.7176617">
        <ele>29.9381</ele>
        <time>2013-03-17T11:50:33Z</time>
      </trkpt>
      <trkpt lat="59.9697057" lon="17.7177061">
        <ele>29.9381</ele>
        <time>2013-03-17T11:50:34Z</time>
      </trkpt>
      <trkpt lat="59.9697657" lon="17.7177537">
        <ele>29.9381</ele>
        <time>2013-03-17T11:50:35Z</time>
      </trkpt>
      <trkpt lat="59.9698247" lon="17.7178041">
        <ele>29.9381</ele>
        <time>2013-03-17T11:50:36Z</time>
      </trkpt>
      <trkpt lat="59.9698823" lon="17.7178555">
        <ele>29.9381</ele>
        <time>2013-03-17T11:50:37Z</time>
      </trkpt>
      <trkpt lat="59.9699393" lon="17.7179062">
        <ele>29.9381</ele>
        <time>2013-03-17T11:50:38Z</time>
      </trkpt>
      <trkpt lat="59.9699953" lon="17.7179564">
        <ele>29.9381</ele>
        <time>2013-03-17T11:50:39Z</time>
      </trkpt>
      <trkpt lat="59.9700506" lon="17.7180062">
        <ele>29.9381</ele>
        <time>2013-03-17T11:50:40Z</time>
      </trkpt>
      <trkpt lat="59.9701048" lon="17.7180557">
        <ele>29.9381</ele>
        <time>2013-03-17T11:50:41Z</time>
      </trkpt>
      <trkpt lat="59.9701579" lon="17.7181046">
        <ele>29.9381</ele>
        <time>2013-03-17T11:50:42Z</time>
      </trkpt>
      <trkpt lat="59.9702102" lon="17.7181527">
        <ele>29.9381</ele>
        <time>2013-03-17T11:50:43Z</time>
      </trkpt>
      <trkpt lat="59.9702625" lon="17.7182014">
        <ele>29.9381</ele>
        <time>2013-03-17T11:50:44Z</time>
      </trkpt>
      <trkpt lat="59.9703154" lon="17.7182505">
        <ele>29.9381</ele>
        <time>2013-03-17T11:50:45Z</time>
      </trkpt>
      <trkpt lat="59.9703692" lon="17.7182981">
        <ele>29.9381</ele>
        <time>2013-03-17T11:50:46Z</time>
      </trkpt>
      <trkpt lat="59.970425" lon="17.7183443">
        <ele>29.9381</ele>
        <time>2013-03-17T11:50:47Z</time>
      </trkpt>
      <trkpt lat="59.9704812" lon="17.7183925">
        <ele>29.9381</ele>
        <time>2013-03-17T11:50:48Z</time>
      </trkpt>
      <trkpt lat="59.9705379" lon="17.7184442">
        <ele>29.9381</ele>
        <time>2013-03-17T11:50:49Z</time>
      </trkpt>
      <trkpt lat="59.9705951" lon="17.7184982">
        <ele>29.9381</ele>
        <time>2013-03-17T11:50:50Z</time>
      </trkpt>
      <trkpt lat="59.970652" lon="17.7185544">
        <ele>30.4188</ele>
        <time>2013-03-17T11:50:51Z</time>
      </trkpt>
      <trkpt lat="59.9707085" lon="17.7186116">
        <ele>30.4188</ele>
        <time>2013-03-17T11:50:52Z</time>
      </trkpt>
      <trkpt lat="59.9707658" lon="17.7186691">
        <ele>30.4188</ele>
        <time>2013-03-17T11:50:53Z</time>
      </trkpt>
      <trkpt lat="59.9708241" lon="17.7187244">
        <ele>30.4188</ele>
        <time>2013-03-17T11:50:54Z</time>
      </trkpt>
      <trkpt lat="59.970884" lon="17.718779">
        <ele>30.4188</ele>
        <time>2013-03-17T11:50:55Z</time>
      </trkpt>
      <trkpt lat="59.9709447" lon="17.7188344">
        <ele>30.4188</ele>
        <time>2013-03-17T11:50:56Z</time>
      </trkpt>
      <trkpt lat="59.9710069" lon="17.7188883">
        <ele>30.4188</ele>
        <time>2013-03-17T11:50:57Z</time>
      </trkpt>
      <trkpt lat="59.9710699" lon="17.7189419">
        <ele>30.4188</ele>
        <time>2013-03-17T11:50:58Z</time>
      </trkpt>
      <trkpt lat="59.9711328" lon="17.7189994">
        <ele>30.4188</ele>
        <time>2013-03-17T11:50:59Z</time>
      </trkpt>
      <trkpt lat="59.9711959" lon="17.7190591">
        <ele>30.4188</ele>
        <time>2013-03-17T11:51:00Z</time>
      </trkpt>
      <trkpt lat="59.9712591" lon="17.7191194">
        <ele>30.4188</ele>
        <time>2013-03-17T11:51:01Z</time>
      </trkpt>
      <trkpt lat="59.9713229" lon="17.7191804">
        <ele>30.4188</ele>
        <time>2013-03-17T11:51:02Z</time>
      </trkpt>
      <trkpt lat="59.9713882" lon="17.7192409">
        <ele>30.4188</ele>
        <time>2013-03-17T11:51:03Z</time>
      </trkpt>
      <trkpt lat="59.9714551" lon="17.7193007">
        <ele>30.4188</ele>
        <time>2013-03-17T11:51:04Z</time>
      </trkpt>
      <trkpt lat="59.9715232" lon="17.7193602">
        <ele>30.4188</ele>
        <time>2013-03-17T11:51:05Z</time>
      </trkpt>
      <trkpt lat="59.9715918" lon="17.71942">
        <ele>30.4188</ele>
        <time>2013-03-17T11:51:06Z</time>
      </trkpt>
      <trkpt lat="59.971661" lon="17.7194812">
        <ele>30.4188</ele>
        <time>2013-03-17T11:51:07Z</time>
      </trkpt>
      <trkpt lat="59.9717305" lon="17.7195425">
        <ele>30.8995</ele>
        <time>2013-03-17T11:51:08Z</time>
      </trkpt>
      <trkpt lat="59.9717999" lon="17.7196057">
        <ele>30.8995</ele>
        <time>2013-03-17T11:51:09Z</time>
      </trkpt>
      <trkpt lat="59.9718688" lon="17.7196726">
        <ele>30.8995</ele>
        <time>2013-03-17T11:51:10Z</time>
      </trkpt>
      <trkpt lat="59.9719384" lon="17.7197393">
        <ele>30.8995</ele>
        <time>2013-03-17T11:51:11Z</time>
      </trkpt>
      <trkpt lat="59.9720097" lon="17.7198031">
        <ele>30.8995</ele>
        <time>2013-03-17T11:51:12Z</time>
      </trkpt>
      <trkpt lat="59.9720823" lon="17.7198655">
        <ele>30.8995</ele>
        <time>2013-03-17T11:51:13Z</time>
      </trkpt>
      <trkpt lat="59.9721547" lon="17.7199306">
        <ele>30.8995</ele>
        <time>2013-03-17T11:51:14Z</time>
      </trkpt>
      <trkpt lat="59.9722277" lon="17.7199978">
        <ele>30.8995</ele>
        <time>2013-03-17T11:51:15Z</time>
      </trkpt>
      <trkpt lat="59.9723013" lon="17.7200639">
        <ele>30.8995</ele>
        <time>2013-03-17T11:51:16Z</time>
      </trkpt>
      <trkpt lat="59.972375" lon="17.7201295">
        <ele>30.8995</ele>
        <time>2013-03-17T11:51:17Z</time>
      </trkpt>
      <trkpt lat="59.9724485" lon="17.7201965">
        <ele>30.8995</ele>
        <time>2013-03-17T11:51:18Z</time>
      </trkpt>
      <trkpt lat="59.9725213" lon="17.720265">
        <ele>30.8995</ele>
        <time>2013-03-17T11:51:19Z</time>
      </trkpt>
      <trkpt lat="59.9725937" lon="17.7203356">
        <ele>30.4188</ele>
        <time>2013-03-17T11:51:20Z</time>
      </trkpt>
      <trkpt lat="59.9726665" lon="17.7204091">
        <ele>30.8995</ele>
        <time>2013-03-17T11:51:21Z</time>
      </trkpt>
      <trkpt lat="59.9727377" lon="17.7204844">
        <ele>30.8995</ele>
        <time>2013-03-17T11:51:22Z</time>
      </trkpt>
      <trkpt lat="59.9728075" lon="17.7205604">
        <ele>30.8995</ele>
        <time>2013-03-17T11:51:23Z</time>
      </trkpt>
      <trkpt lat="59.972876" lon="17.7206358">
        <ele>30.8995</ele>
        <time>2013-03-17T11:51:24Z</time>
      </trkpt>
      <trkpt lat="59.9729417" lon="17.7207118">
        <ele>30.8995</ele>
        <time>2013-03-17T11:51:25Z</time>
      </trkpt>
      <trkpt lat="59.9730033" lon="17.7207926">
        <ele>30.8995</ele>
        <time>2013-03-17T11:51:26Z</time>
      </trkpt>
      <trkpt lat="59.9730623" lon="17.7208767">
        <ele>30.8995</ele>
        <time>2013-03-17T11:51:27Z</time>
      </trkpt>
      <trkpt lat="59.9731197" lon="17.7209613">
        <ele>30.8995</ele>
        <time>2013-03-17T11:51:28Z</time>
      </trkpt>
      <trkpt lat="59.9731756" lon="17.7210481">
        <ele>30.8995</ele>
        <time>2013-03-17T11:51:29Z</time>
      </trkpt>
      <trkpt lat="59.9732302" lon="17.7211386">
        <ele>30.8995</ele>
        <time>2013-03-17T11:51:30Z</time>
      </trkpt>
      <trkpt lat="59.9732842" lon="17.7212318">
        <ele>30.4188</ele>
        <time>2013-03-17T11:51:31Z</time>
      </trkpt>
      <trkpt lat="59.9733374" lon="17.721327">
        <ele>30.4188</ele>
        <time>2013-03-17T11:51:32Z</time>
      </trkpt>
      <trkpt lat="59.9733893" lon="17.721424">
        <ele>30.4188</ele>
        <time>2013-03-17T11:51:33Z</time>
      </trkpt>
      <trkpt lat="59.9734405" lon="17.7215238">
        <ele>30.4188</ele>
        <time>2013-03-17T11:51:34Z</time>
      </trkpt>
      <trkpt lat="59.97349" lon="17.721628">
        <ele>30.4188</ele>
        <time>2013-03-17T11:51:35Z</time>
      </trkpt>
      <trkpt lat="59.9735378" lon="17.7217363">
        <ele>30.4188</ele>
        <time>2013-03-17T11:51:36Z</time>
      </trkpt>
      <trkpt lat="59.973584" lon="17.7218467">
        <ele>30.4188</ele>
        <time>2013-03-17T11:51:37Z</time>
      </trkpt>
      <trkpt lat="59.9736287" lon="17.7219585">
        <ele>30.4188</ele>
        <time>2013-03-17T11:51:38Z</time>
      </trkpt>
      <trkpt lat="59.9736718" lon="17.7220723">
        <ele>30.4188</ele>
        <time>2013-03-17T11:51:39Z</time>
      </trkpt>
      <trkpt lat="59.9737125" lon="17.7221886">
        <ele>30.4188</ele>
        <time>2013-03-17T11:51:40Z</time>
      </trkpt>
      <trkpt lat="59.9737508" lon="17.7223067">
        <ele>30.4188</ele>
        <time>2013-03-17T11:51:41Z</time>
      </trkpt>
      <trkpt lat="59.9737871" lon="17.7224251">
        <ele>30.4188</ele>
        <time>2013-03-17T11:51:42Z</time>
      </trkpt>
      <trkpt lat="59.9738218" lon="17.7225431">
        <ele>30.4188</ele>
        <time>2013-03-17T11:51:43Z</time>
      </trkpt>
      <trkpt lat="59.9738549" lon="17.7226604">
        <ele>30.4188</ele>
        <time>2013-03-17T11:51:44Z</time>
      </trkpt>
      <trkpt lat="59.9738868" lon="17.7227774">
        <ele>30.4188</ele>
        <time>2013-03-17T11:51:45Z</time>
      </trkpt>
      <trkpt lat="59.9739167" lon="17.7228947">
        <ele>30.4188</ele>
        <time>2013-03-17T11:51:46Z</time>
      </trkpt>
      <trkpt lat="59.9739439" lon="17.7230132">
        <ele>30.4188</ele>
        <time>2013-03-17T11:51:47Z</time>
      </trkpt>
      <trkpt lat="59.9739693" lon="17.7231312">
        <ele>30.4188</ele>
        <time>2013-03-17T11:51:48Z</time>
      </trkpt>
      <trkpt lat="59.9739933" lon="17.723249">
        <ele>30.4188</ele>
        <time>2013-03-17T11:51:49Z</time>
      </trkpt>
      <trkpt lat="59.974015" lon="17.7233671">
        <ele>30.4188</ele>
        <time>2013-03-17T11:51:50Z</time>
      </trkpt>
      <trkpt lat="59.9740355" lon="17.7234847">
        <ele>30.4188</ele>
        <time>2013-03-17T11:51:51Z</time>
      </trkpt>
      <trkpt lat="59.9740554" lon="17.7236004">
        <ele>30.8995</ele>
        <time>2013-03-17T11:51:52Z</time>
      </trkpt>
      <trkpt lat="59.9740743" lon="17.7237146">
        <ele>30.8995</ele>
        <time>2013-03-17T11:51:53Z</time>
      </trkpt>
      <trkpt lat="59.974092" lon="17.7238291">
        <ele>30.8995</ele>
        <time>2013-03-17T11:51:54Z</time>
      </trkpt>
      <trkpt lat="59.9741096" lon="17.723944">
        <ele>30.8995</ele>
        <time>2013-03-17T11:51:55Z</time>
      </trkpt>
      <trkpt lat="59.9741265" lon="17.7240594">
        <ele>30.8995</ele>
        <time>2013-03-17T11:51:56Z</time>
      </trkpt>
      <trkpt lat="59.9741434" lon="17.7241749">
        <ele>30.8995</ele>
        <time>2013-03-17T11:51:57Z</time>
      </trkpt>
      <trkpt lat="59.9741598" lon="17.7242906">
        <ele>30.8995</ele>
        <time>2013-03-17T11:51:58Z</time>
      </trkpt>
      <trkpt lat="59.9741769" lon="17.7244061">
        <ele>30.8995</ele>
        <time>2013-03-17T11:51:59Z</time>
      </trkpt>
      <trkpt lat="59.9741945" lon="17.7245224">
        <ele>30.8995</ele>
        <time>2013-03-17T11:52:00Z</time>
      </trkpt>
      <trkpt lat="59.9742123" lon="17.7246397">
        <ele>30.8995</ele>
        <time>2013-03-17T11:52:01Z</time>
      </trkpt>
      <trkpt lat="59.9742295" lon="17.7247589">
        <ele>30.8995</ele>
        <time>2013-03-17T11:52:02Z</time>
      </trkpt>
      <trkpt lat="59.9742455" lon="17.7248796">
        <ele>30.8995</ele>
        <time>2013-03-17T11:52:03Z</time>
      </trkpt>
      <trkpt lat="59.9742611" lon="17.7250003">
        <ele>30.8995</ele>
        <time>2013-03-17T11:52:04Z</time>
      </trkpt>
      <trkpt lat="59.9742761" lon="17.7251209">
        <ele>30.8995</ele>
        <time>2013-03-17T11:52:05Z</time>
      </trkpt>
      <trkpt lat="59.9742904" lon="17.7252412">
        <ele>30.8995</ele>
        <time>2013-03-17T11:52:06Z</time>
      </trkpt>
      <trkpt lat="59.9743043" lon="17.7253616">
        <ele>30.8995</ele>
        <time>2013-03-17T11:52:07Z</time>
      </trkpt>
      <trkpt lat="59.9743175" lon="17.7254825">
        <ele>30.8995</ele>
        <time>2013-03-17T11:52:08Z</time>
      </trkpt>
      <trkpt lat="59.9743289" lon="17.7256037">
        <ele>30.8995</ele>
        <time>2013-03-17T11:52:09Z</time>
      </trkpt>
      <trkpt lat="59.9743394" lon="17.7257244">
        <ele>30.8995</ele>
        <time>2013-03-17T11:52:10Z</time>
      </trkpt>
      <trkpt lat="59.9743506" lon="17.7258432">
        <ele>30.8995</ele>
        <time>2013-03-17T11:52:11Z</time>
      </trkpt>
      <trkpt lat="59.974361" lon="17.7259625">
        <ele>30.8995</ele>
        <time>2013-03-17T11:52:12Z</time>
      </trkpt>
      <trkpt lat="59.9743693" lon="17.7260824">
        <ele>30.8995</ele>
        <time>2013-03-17T11:52:13Z</time>
      </trkpt>
      <trkpt lat="59.9743758" lon="17.7262026">
        <ele>30.8995</ele>
        <time>2013-03-17T11:52:14Z</time>
      </trkpt>
      <trkpt lat="59.9743816" lon="17.7263232">
        <ele>30.8995</ele>
        <time>2013-03-17T11:52:15Z</time>
      </trkpt>
      <trkpt lat="59.9743869" lon="17.726444">
        <ele>30.8995</ele>
        <time>2013-03-17T11:52:16Z</time>
      </trkpt>
      <trkpt lat="59.9743914" lon="17.7265655">
        <ele>30.8995</ele>
        <time>2013-03-17T11:52:17Z</time>
      </trkpt>
      <trkpt lat="59.9743948" lon="17.7266879">
        <ele>30.4188</ele>
        <time>2013-03-17T11:52:18Z</time>
      </trkpt>
      <trkpt lat="59.9743984" lon="17.7268113">
        <ele>30.4188</ele>
        <time>2013-03-17T11:52:19Z</time>
      </trkpt>
      <trkpt lat="59.974401" lon="17.7269362">
        <ele>30.4188</ele>
        <time>2013-03-17T11:52:20Z</time>
      </trkpt>
      <trkpt lat="59.9744022" lon="17.727063">
        <ele>29.9381</ele>
        <time>2013-03-17T11:52:21Z</time>
      </trkpt>
      <trkpt lat="59.9744019" lon="17.7271897">
        <ele>29.9381</ele>
        <time>2013-03-17T11:52:22Z</time>
      </trkpt>
      <trkpt lat="59.9744034" lon="17.7273168">
        <ele>29.9381</ele>
        <time>2013-03-17T11:52:23Z</time>
      </trkpt>
      <trkpt lat="59.9744062" lon="17.727443">
        <ele>29.4575</ele>
        <time>2013-03-17T11:52:24Z</time>
      </trkpt>
      <trkpt lat="59.9744102" lon="17.7275684">
        <ele>29.4575</ele>
        <time>2013-03-17T11:52:25Z</time>
      </trkpt>
      <trkpt lat="59.9744149" lon="17.7276935">
        <ele>28.9769</ele>
        <time>2013-03-17T11:52:26Z</time>
      </trkpt>
      <trkpt lat="59.9744204" lon="17.7278181">
        <ele>28.9769</ele>
        <time>2013-03-17T11:52:27Z</time>
      </trkpt>
      <trkpt lat="59.9744254" lon="17.7279419">
        <ele>28.4962</ele>
        <time>2013-03-17T11:52:28Z</time>
      </trkpt>
      <trkpt lat="59.974429" lon="17.7280651">
        <ele>28.4962</ele>
        <time>2013-03-17T11:52:29Z</time>
      </trkpt>
      <trkpt lat="59.9744308" lon="17.7281871">
        <ele>28.4962</ele>
        <time>2013-03-17T11:52:30Z</time>
      </trkpt>
      <trkpt lat="59.9744316" lon="17.7283046">
        <ele>28.4962</ele>
        <time>2013-03-17T11:52:31Z</time>
      </trkpt>
      <trkpt lat="59.974433" lon="17.7284171">
        <ele>28.4962</ele>
        <time>2013-03-17T11:52:32Z</time>
      </trkpt>
      <trkpt lat="59.974435" lon="17.7285253">
        <ele>28.4962</ele>
        <time>2013-03-17T11:52:33Z</time>
      </trkpt>
      <trkpt lat="59.9744376" lon="17.728631">
        <ele>28.4962</ele>
        <time>2013-03-17T11:52:34Z</time>
      </trkpt>
      <trkpt lat="59.9744403" lon="17.7287385">
        <ele>28.4962</ele>
        <time>2013-03-17T11:52:35Z</time>
      </trkpt>
      <trkpt lat="59.9744408" lon="17.7288492">
        <ele>28.4962</ele>
        <time>2013-03-17T11:52:36Z</time>
      </trkpt>
      <trkpt lat="59.9744409" lon="17.728962">
        <ele>28.4962</ele>
        <time>2013-03-17T11:52:37Z</time>
      </trkpt>
      <trkpt lat="59.9744409" lon="17.7290764">
        <ele>28.9769</ele>
        <time>2013-03-17T11:52:38Z</time>
      </trkpt>
      <trkpt lat="59.9744409" lon="17.7291936">
        <ele>28.9769</ele>
        <time>2013-03-17T11:52:39Z</time>
      </trkpt>
      <trkpt lat="59.9744412" lon="17.729313">
        <ele>28.9769</ele>
        <time>2013-03-17T11:52:40Z</time>
      </trkpt>
      <trkpt lat="59.9744406" lon="17.7294332">
        <ele>28.9769</ele>
        <time>2013-03-17T11:52:41Z</time>
      </trkpt>
      <trkpt lat="59.9744392" lon="17.7295551">
        <ele>28.9769</ele>
        <time>2013-03-17T11:52:42Z</time>
      </trkpt>
      <trkpt lat="59.9744336" lon="17.7296783">
        <ele>28.9769</ele>
        <time>2013-03-17T11:52:43Z</time>
      </trkpt>
      <trkpt lat="59.9744263" lon="17.729795">
        <ele>28.9769</ele>
        <time>2013-03-17T11:52:44Z</time>
      </trkpt>
      <trkpt lat="59.9744185" lon="17.7299042">
        <ele>28.9769</ele>
        <time>2013-03-17T11:52:45Z</time>
      </trkpt>
      <trkpt lat="59.9744098" lon="17.7300058">
        <ele>28.9769</ele>
        <time>2013-03-17T11:52:46Z</time>
      </trkpt>
      <trkpt lat="59.974401" lon="17.7301021">
        <ele>28.9769</ele>
        <time>2013-03-17T11:52:47Z</time>
      </trkpt>
      <trkpt lat="59.9743926" lon="17.7301933">
        <ele>28.9769</ele>
        <time>2013-03-17T11:52:48Z</time>
      </trkpt>
      <trkpt lat="59.9743843" lon="17.7302794">
        <ele>29.4575</ele>
        <time>2013-03-17T11:52:49Z</time>
      </trkpt>
      <trkpt lat="59.9743771" lon="17.7303643">
        <ele>29.4575</ele>
        <time>2013-03-17T11:52:50Z</time>
      </trkpt>
      <trkpt lat="59.9743701" lon="17.7304526">
        <ele>29.4575</ele>
        <time>2013-03-17T11:52:51Z</time>
      </trkpt>
      <trkpt lat="59.9743605" lon="17.7305426">
        <ele>29.9381</ele>
        <time>2013-03-17T11:52:52Z</time>
      </trkpt>
      <trkpt lat="59.9743508" lon="17.7306376">
        <ele>29.9381</ele>
        <time>2013-03-17T11:52:53Z</time>
      </trkpt>
      <trkpt lat="59.9743437" lon="17.7307371">
        <ele>29.9381</ele>
        <time>2013-03-17T11:52:54Z</time>
      </trkpt>
      <trkpt lat="59.9743372" lon="17.7308386">
        <ele>29.9381</ele>
        <time>2013-03-17T11:52:55Z</time>
      </trkpt>
      <trkpt lat="59.97433" lon="17.7309412">
        <ele>30.4188</ele>
        <time>2013-03-17T11:52:56Z</time>
      </trkpt>
      <trkpt lat="59.9743235" lon="17.7310449">
        <ele>30.4188</ele>
        <time>2013-03-17T11:52:57Z</time>
      </trkpt>
      <trkpt lat="59.9743175" lon="17.7311521">
        <ele>30.4188</ele>
        <time>2013-03-17T11:52:58Z</time>
      </trkpt>
      <trkpt lat="59.9743117" lon="17.7312631">
        <ele>30.4188</ele>
        <time>2013-03-17T11:52:59Z</time>
      </trkpt>
      <trkpt lat="59.9743072" lon="17.731377">
        <ele>30.4188</ele>
        <time>2013-03-17T11:53:00Z</time>
      </trkpt>
      <trkpt lat="59.9743039" lon="17.7314931">
        <ele>30.4188</ele>
        <time>2013-03-17T11:53:01Z</time>
      </trkpt>
      <trkpt lat="59.9743013" lon="17.7316116">
        <ele>30.4188</ele>
        <time>2013-03-17T11:53:02Z</time>
      </trkpt>
      <trkpt lat="59.9742987" lon="17.7317348">
        <ele>30.4188</ele>
        <time>2013-03-17T11:53:03Z</time>
      </trkpt>
      <trkpt lat="59.9742989" lon="17.7318544">
        <ele>30.4188</ele>
        <time>2013-03-17T11:53:04Z</time>
      </trkpt>
      <trkpt lat="59.974302" lon="17.7319696">
        <ele>30.4188</ele>
        <time>2013-03-17T11:53:05Z</time>
      </trkpt>
      <trkpt lat="59.9743062" lon="17.7320815">
        <ele>30.4188</ele>
        <time>2013-03-17T11:53:06Z</time>
      </trkpt>
      <trkpt lat="59.9743102" lon="17.7321897">
        <ele>30.4188</ele>
        <time>2013-03-17T11:53:07Z</time>
      </trkpt>
      <trkpt lat="59.9743142" lon="17.7322953">
        <ele>30.4188</ele>
        <time>2013-03-17T11:53:08Z</time>
      </trkpt>
      <trkpt lat="59.9743165" lon="17.7323988">
        <ele>30.4188</ele>
        <time>2013-03-17T11:53:09Z</time>
      </trkpt>
      <trkpt lat="59.9743159" lon="17.7324994">
        <ele>30.4188</ele>
        <time>2013-03-17T11:53:10Z</time>
      </trkpt>
      <trkpt lat="59.9743149" lon="17.732597">
        <ele>30.4188</ele>
        <time>2013-03-17T11:53:11Z</time>
      </trkpt>
      <trkpt lat="59.9743145" lon="17.7326932">
        <ele>30.4188</ele>
        <time>2013-03-17T11:53:12Z</time>
      </trkpt>
      <trkpt lat="59.9743137" lon="17.7327895">
        <ele>30.4188</ele>
        <time>2013-03-17T11:53:13Z</time>
      </trkpt>
      <trkpt lat="59.9743123" lon="17.732887">
        <ele>30.4188</ele>
        <time>2013-03-17T11:53:14Z</time>
      </trkpt>
      <trkpt lat="59.9743122" lon="17.7329863">
        <ele>30.4188</ele>
        <time>2013-03-17T11:53:15Z</time>
      </trkpt>
      <trkpt lat="59.9743118" lon="17.733087">
        <ele>30.4188</ele>
        <time>2013-03-17T11:53:16Z</time>
      </trkpt>
      <trkpt lat="59.9743092" lon="17.7331899">
        <ele>30.4188</ele>
        <time>2013-03-17T11:53:17Z</time>
      </trkpt>
      <trkpt lat="59.9743047" lon="17.7332936">
        <ele>30.4188</ele>
        <time>2013-03-17T11:53:18Z</time>
      </trkpt>
      <trkpt lat="59.9743009" lon="17.7333982">
        <ele>30.4188</ele>
        <time>2013-03-17T11:53:19Z</time>
      </trkpt>
      <trkpt lat="59.9742992" lon="17.7334998">
        <ele>30.4188</ele>
        <time>2013-03-17T11:53:20Z</time>
      </trkpt>
      <trkpt lat="59.9742969" lon="17.7336018">
        <ele>30.4188</ele>
        <time>2013-03-17T11:53:21Z</time>
      </trkpt>
      <trkpt lat="59.974293" lon="17.7337033">
        <ele>30.4188</ele>
        <time>2013-03-17T11:53:22Z</time>
      </trkpt>
      <trkpt lat="59.9742875" lon="17.7338039">
        <ele>30.4188</ele>
        <time>2013-03-17T11:53:23Z</time>
      </trkpt>
      <trkpt lat="59.9742817" lon="17.7339042">
        <ele>30.4188</ele>
        <time>2013-03-17T11:53:24Z</time>
      </trkpt>
      <trkpt lat="59.9742767" lon="17.7340039">
        <ele>29.9381</ele>
        <time>2013-03-17T11:53:25Z</time>
      </trkpt>
      <trkpt lat="59.9742725" lon="17.7341032">
        <ele>29.9381</ele>
        <time>2013-03-17T11:53:26Z</time>
      </trkpt>
      <trkpt lat="59.9742697" lon="17.7342016">
        <ele>29.9381</ele>
        <time>2013-03-17T11:53:27Z</time>
      </trkpt>
      <trkpt lat="59.9742681" lon="17.7343001">
        <ele>29.9381</ele>
        <time>2013-03-17T11:53:28Z</time>
      </trkpt>
      <trkpt lat="59.9742655" lon="17.734398">
        <ele>29.9381</ele>
        <time>2013-03-17T11:53:29Z</time>
      </trkpt>
      <trkpt lat="59.9742631" lon="17.7344952">
        <ele>29.9381</ele>
        <time>2013-03-17T11:53:30Z</time>
      </trkpt>
      <trkpt lat="59.974263" lon="17.7345927">
        <ele>29.4575</ele>
        <time>2013-03-17T11:53:31Z</time>
      </trkpt>
      <trkpt lat="59.9742642" lon="17.7346907">
        <ele>29.4575</ele>
        <time>2013-03-17T11:53:32Z</time>
      </trkpt>
      <trkpt lat="59.9742673" lon="17.7347881">
        <ele>29.4575</ele>
        <time>2013-03-17T11:53:33Z</time>
      </trkpt>
      <trkpt lat="59.9742733" lon="17.7348835">
        <ele>29.4575</ele>
        <time>2013-03-17T11:53:34Z</time>
      </trkpt>
      <trkpt lat="59.9742807" lon="17.734978">
        <ele>29.4575</ele>
        <time>2013-03-17T11:53:35Z</time>
      </trkpt>
      <trkpt lat="59.9742885" lon="17.7350714">
        <ele>29.4575</ele>
        <time>2013-03-17T11:53:36Z</time>
      </trkpt>
      <trkpt lat="59.9742963" lon="17.7351635">
        <ele>29.4575</ele>
        <time>2013-03-17T11:53:37Z</time>
      </trkpt>
      <trkpt lat="59.974305" lon="17.7352541">
        <ele>29.4575</ele>
        <time>2013-03-17T11:53:38Z</time>
      </trkpt>
      <trkpt lat="59.9743149" lon="17.7353428">
        <ele>29.4575</ele>
        <time>2013-03-17T11:53:39Z</time>
      </trkpt>
      <trkpt lat="59.9743251" lon="17.7354302">
        <ele>29.4575</ele>
        <time>2013-03-17T11:53:40Z</time>
      </trkpt>
      <trkpt lat="59.9743362" lon="17.7355167">
        <ele>29.4575</ele>
        <time>2013-03-17T11:53:41Z</time>
      </trkpt>
      <trkpt lat="59.9743496" lon="17.7356025">
        <ele>29.4575</ele>
        <time>2013-03-17T11:53:42Z</time>
      </trkpt>
      <trkpt lat="59.9743645" lon="17.7356893">
        <ele>29.4575</ele>
        <time>2013-03-17T11:53:43Z</time>
      </trkpt>
      <trkpt lat="59.9743797" lon="17.7357773">
        <ele>29.4575</ele>
        <time>2013-03-17T11:53:44Z</time>
      </trkpt>
      <trkpt lat="59.9743947" lon="17.7358665">
        <ele>29.4575</ele>
        <time>2013-03-17T11:53:45Z</time>
      </trkpt>
      <trkpt lat="59.9744112" lon="17.735955">
        <ele>29.4575</ele>
        <time>2013-03-17T11:53:46Z</time>
      </trkpt>
      <trkpt lat="59.9744299" lon="17.7360428">
        <ele>29.4575</ele>
        <time>2013-03-17T11:53:47Z</time>
      </trkpt>
      <trkpt lat="59.9744504" lon="17.7361317">
        <ele>29.4575</ele>
        <time>2013-03-17T11:53:48Z</time>
      </trkpt>
      <trkpt lat="59.9744712" lon="17.7362224">
        <ele>29.4575</ele>
        <time>2013-03-17T11:53:49Z</time>
      </trkpt>
      <trkpt lat="59.9744915" lon="17.736315">
        <ele>29.4575</ele>
        <time>2013-03-17T11:53:50Z</time>
      </trkpt>
      <trkpt lat="59.9745126" lon="17.7364072">
        <ele>29.4575</ele>
        <time>2013-03-17T11:53:51Z</time>
      </trkpt>
      <trkpt lat="59.9745359" lon="17.7364974">
        <ele>28.9769</ele>
        <time>2013-03-17T11:53:52Z</time>
      </trkpt>
      <trkpt lat="59.974561" lon="17.7365866">
        <ele>29.4575</ele>
        <time>2013-03-17T11:53:53Z</time>
      </trkpt>
      <trkpt lat="59.9745869" lon="17.7366748">
        <ele>29.4575</ele>
        <time>2013-03-17T11:53:54Z</time>
      </trkpt>
      <trkpt lat="59.9746131" lon="17.7367622">
        <ele>29.4575</ele>
        <time>2013-03-17T11:53:55Z</time>
      </trkpt>
      <trkpt lat="59.9746402" lon="17.7368485">
        <ele>29.4575</ele>
        <time>2013-03-17T11:53:56Z</time>
      </trkpt>
      <trkpt lat="59.974669" lon="17.7369321">
        <ele>29.4575</ele>
        <time>2013-03-17T11:53:57Z</time>
      </trkpt>
      <trkpt lat="59.9746988" lon="17.7370138">
        <ele>29.4575</ele>
        <time>2013-03-17T11:53:58Z</time>
      </trkpt>
      <trkpt lat="59.9747294" lon="17.7370948">
        <ele>29.4575</ele>
        <time>2013-03-17T11:53:59Z</time>
      </trkpt>
      <trkpt lat="59.9747607" lon="17.737175">
        <ele>29.4575</ele>
        <time>2013-03-17T11:54:00Z</time>
      </trkpt>
      <trkpt lat="59.9747923" lon="17.7372542">
        <ele>29.4575</ele>
        <time>2013-03-17T11:54:01Z</time>
      </trkpt>
      <trkpt lat="59.9748247" lon="17.7373311">
        <ele>29.4575</ele>
        <time>2013-03-17T11:54:02Z</time>
      </trkpt>
      <trkpt lat="59.9748581" lon="17.7374057">
        <ele>29.4575</ele>
        <time>2013-03-17T11:54:03Z</time>
      </trkpt>
      <trkpt lat="59.9748918" lon="17.7374786">
        <ele>29.4575</ele>
        <time>2013-03-17T11:54:04Z</time>
      </trkpt>
      <trkpt lat="59.9749262" lon="17.737548">
        <ele>29.4575</ele>
        <time>2013-03-17T11:54:05Z</time>
      </trkpt>
      <trkpt lat="59.9749612" lon="17.7376144">
        <ele>29.4575</ele>
        <time>2013-03-17T11:54:06Z</time>
      </trkpt>
      <trkpt lat="59.9749965" lon="17.737679">
        <ele>29.4575</ele>
        <time>2013-03-17T11:54:07Z</time>
      </trkpt>
      <trkpt lat="59.9750319" lon="17.7377426">
        <ele>29.4575</ele>
        <time>2013-03-17T11:54:08Z</time>
      </trkpt>
      <trkpt lat="59.9750679" lon="17.737806">
        <ele>29.4575</ele>
        <time>2013-03-17T11:54:09Z</time>
      </trkpt>
      <trkpt lat="59.9751044" lon="17.7378695">
        <ele>29.4575</ele>
        <time>2013-03-17T11:54:10Z</time>
      </trkpt>
      <trkpt lat="59.9751418" lon="17.7379333">
        <ele>29.4575</ele>
        <time>2013-03-17T11:54:11Z</time>
      </trkpt>
      <trkpt lat="59.9751795" lon="17.7379982">
        <ele>29.4575</ele>
        <time>2013-03-17T11:54:12Z</time>
      </trkpt>
      <trkpt lat="59.9752186" lon="17.7380644">
        <ele>29.4575</ele>
        <time>2013-03-17T11:54:13Z</time>
      </trkpt>
      <trkpt lat="59.9752587" lon="17.7381316">
        <ele>29.4575</ele>
        <time>2013-03-17T11:54:14Z</time>
      </trkpt>
      <trkpt lat="59.9753001" lon="17.7381992">
        <ele>29.4575</ele>
        <time>2013-03-17T11:54:15Z</time>
      </trkpt>
      <trkpt lat="59.9753421" lon="17.7382678">
        <ele>29.4575</ele>
        <time>2013-03-17T11:54:16Z</time>
      </trkpt>
      <trkpt lat="59.9753851" lon="17.7383375">
        <ele>29.4575</ele>
        <time>2013-03-17T11:54:17Z</time>
      </trkpt>
      <trkpt lat="59.9754286" lon="17.7384098">
        <ele>29.4575</ele>
        <time>2013-03-17T11:54:18Z</time>
      </trkpt>
      <trkpt lat="59.9754719" lon="17.7384845">
        <ele>29.4575</ele>
        <time>2013-03-17T11:54:19Z</time>
      </trkpt>
      <trkpt lat="59.9755157" lon="17.7385598">
        <ele>28.9769</ele>
        <time>2013-03-17T11:54:20Z</time>
      </trkpt>
      <trkpt lat="59.9755596" lon="17.7386359">
        <ele>28.9769</ele>
        <time>2013-03-17T11:54:21Z</time>
      </trkpt>
      <trkpt lat="59.9756028" lon="17.7387131">
        <ele>28.9769</ele>
        <time>2013-03-17T11:54:22Z</time>
      </trkpt>
      <trkpt lat="59.9756457" lon="17.7387917">
        <ele>29.4575</ele>
        <time>2013-03-17T11:54:23Z</time>
      </trkpt>
      <trkpt lat="59.9756881" lon="17.738871">
        <ele>29.4575</ele>
        <time>2013-03-17T11:54:24Z</time>
      </trkpt>
      <trkpt lat="59.9757301" lon="17.7389491">
        <ele>29.4575</ele>
        <time>2013-03-17T11:54:25Z</time>
      </trkpt>
      <trkpt lat="59.9757726" lon="17.7390227">
        <ele>29.4575</ele>
        <time>2013-03-17T11:54:26Z</time>
      </trkpt>
      <trkpt lat="59.975815" lon="17.739092">
        <ele>29.4575</ele>
        <time>2013-03-17T11:54:27Z</time>
      </trkpt>
      <trkpt lat="59.975856" lon="17.7391602">
        <ele>29.9381</ele>
        <time>2013-03-17T11:54:28Z</time>
      </trkpt>
      <trkpt lat="59.9758959" lon="17.7392269">
        <ele>29.9381</ele>
        <time>2013-03-17T11:54:29Z</time>
      </trkpt>
      <trkpt lat="59.9759352" lon="17.7392906">
        <ele>29.9381</ele>
        <time>2013-03-17T11:54:30Z</time>
      </trkpt>
      <trkpt lat="59.9759735" lon="17.7393513">
        <ele>30.4188</ele>
        <time>2013-03-17T11:54:31Z</time>
      </trkpt>
      <trkpt lat="59.9760104" lon="17.7394096">
        <ele>30.4188</ele>
        <time>2013-03-17T11:54:32Z</time>
      </trkpt>
      <trkpt lat="59.9760467" lon="17.7394631">
        <ele>30.8995</ele>
        <time>2013-03-17T11:54:33Z</time>
      </trkpt>
      <trkpt lat="59.9760812" lon="17.7395149">
        <ele>30.8995</ele>
        <time>2013-03-17T11:54:34Z</time>
      </trkpt>
      <trkpt lat="59.976113" lon="17.7395649">
        <ele>31.3801</ele>
        <time>2013-03-17T11:54:35Z</time>
      </trkpt>
      <trkpt lat="59.9761434" lon="17.739609">
        <ele>31.8607</ele>
        <time>2013-03-17T11:54:36Z</time>
      </trkpt>
      <trkpt lat="59.9761733" lon="17.7396478">
        <ele>31.8607</ele>
        <time>2013-03-17T11:54:37Z</time>
      </trkpt>
      <trkpt lat="59.976202" lon="17.7396848">
        <ele>32.3416</ele>
        <time>2013-03-17T11:54:38Z</time>
      </trkpt>
      <trkpt lat="59.9762296" lon="17.7397188">
        <ele>32.3416</ele>
        <time>2013-03-17T11:54:39Z</time>
      </trkpt>
      <trkpt lat="59.9762584" lon="17.739745">
        <ele>32.8223</ele>
        <time>2013-03-17T11:54:40Z</time>
      </trkpt>
      <trkpt lat="59.9762884" lon="17.739762">
        <ele>32.8223</ele>
        <time>2013-03-17T11:54:41Z</time>
      </trkpt>
      <trkpt lat="59.9763201" lon="17.7397654">
        <ele>32.8223</ele>
        <time>2013-03-17T11:54:42Z</time>
      </trkpt>
      <trkpt lat="59.9763526" lon="17.7397525">
        <ele>32.8223</ele>
        <time>2013-03-17T11:54:43Z</time>
      </trkpt>
      <trkpt lat="59.9763855" lon="17.7397268">
        <ele>32.8223</ele>
        <time>2013-03-17T11:54:44Z</time>
      </trkpt>
      <trkpt lat="59.9764192" lon="17.7396932">
        <ele>32.8223</ele>
        <time>2013-03-17T11:54:45Z</time>
      </trkpt>
      <trkpt lat="59.9764538" lon="17.7396548">
        <ele>32.8223</ele>
        <time>2013-03-17T11:54:46Z</time>
      </trkpt>
      <trkpt lat="59.9764898" lon="17.7396134">
        <ele>32.8223</ele>
        <time>2013-03-17T11:54:47Z</time>
      </trkpt>
      <trkpt lat="59.9765269" lon="17.7395724">
        <ele>32.8223</ele>
        <time>2013-03-17T11:54:48Z</time>
      </trkpt>
      <trkpt lat="59.9765655" lon="17.739534">
        <ele>32.3416</ele>
        <time>2013-03-17T11:54:49Z</time>
      </trkpt>
      <trkpt lat="59.9766046" lon="17.7394986">
        <ele>32.3416</ele>
        <time>2013-03-17T11:54:50Z</time>
      </trkpt>
      <trkpt lat="59.9766438" lon="17.7394663">
        <ele>32.8223</ele>
        <time>2013-03-17T11:54:51Z</time>
      </trkpt>
      <trkpt lat="59.9766822" lon="17.7394367">
        <ele>32.8223</ele>
        <time>2013-03-17T11:54:52Z</time>
      </trkpt>
      <trkpt lat="59.9767184" lon="17.7394123">
        <ele>32.8223</ele>
        <time>2013-03-17T11:54:53Z</time>
      </trkpt>
      <trkpt lat="59.976752" lon="17.7393951">
        <ele>32.3416</ele>
        <time>2013-03-17T11:54:54Z</time>
      </trkpt>
      <trkpt lat="59.9767844" lon="17.7393797">
        <ele>32.3416</ele>
        <time>2013-03-17T11:54:55Z</time>
      </trkpt>
      <trkpt lat="59.9768169" lon="17.7393637">
        <ele>32.3416</ele>
        <time>2013-03-17T11:54:56Z</time>
      </trkpt>
      <trkpt lat="59.976848" lon="17.7393498">
        <ele>32.3416</ele>
        <time>2013-03-17T11:54:57Z</time>
      </trkpt>
      <trkpt lat="59.9768791" lon="17.7393396">
        <ele>32.3416</ele>
        <time>2013-03-17T11:54:58Z</time>
      </trkpt>
      <trkpt lat="59.9769105" lon="17.7393324">
        <ele>32.3416</ele>
        <time>2013-03-17T11:54:59Z</time>
      </trkpt>
      <trkpt lat="59.9769424" lon="17.7393212">
        <ele>32.3416</ele>
        <time>2013-03-17T11:55:00Z</time>
      </trkpt>
      <trkpt lat="59.9769736" lon="17.7393071">
        <ele>32.3416</ele>
        <time>2013-03-17T11:55:01Z</time>
      </trkpt>
      <trkpt lat="59.9770024" lon="17.739289">
        <ele>31.8607</ele>
        <time>2013-03-17T11:55:02Z</time>
      </trkpt>
      <trkpt lat="59.9770334" lon="17.7392661">
        <ele>31.3801</ele>
        <time>2013-03-17T11:55:03Z</time>
      </trkpt>
      <trkpt lat="59.9770677" lon="17.7392419">
        <ele>31.3801</ele>
        <time>2013-03-17T11:55:04Z</time>
      </trkpt>
      <trkpt lat="59.9771039" lon="17.7392181">
        <ele>31.3801</ele>
        <time>2013-03-17T11:55:05Z</time>
      </trkpt>
      <trkpt lat="59.9771395" lon="17.73919">
        <ele>30.8995</ele>
        <time>2013-03-17T11:55:06Z</time>
      </trkpt>
      <trkpt lat="59.9771757" lon="17.7391648">
        <ele>30.8995</ele>
        <time>2013-03-17T11:55:07Z</time>
      </trkpt>
      <trkpt lat="59.9772127" lon="17.7391453">
        <ele>30.4188</ele>
        <time>2013-03-17T11:55:08Z</time>
      </trkpt>
      <trkpt lat="59.9772509" lon="17.7391272">
        <ele>30.4188</ele>
        <time>2013-03-17T11:55:09Z</time>
      </trkpt>
      <trkpt lat="59.9772891" lon="17.7391065">
        <ele>30.8995</ele>
        <time>2013-03-17T11:55:10Z</time>
      </trkpt>
      <trkpt lat="59.9773266" lon="17.7390869">
        <ele>30.8995</ele>
        <time>2013-03-17T11:55:11Z</time>
      </trkpt>
      <trkpt lat="59.9773649" lon="17.7390692">
        <ele>30.8995</ele>
        <time>2013-03-17T11:55:12Z</time>
      </trkpt>
      <trkpt lat="59.9774029" lon="17.7390542">
        <ele>31.3801</ele>
        <time>2013-03-17T11:55:13Z</time>
      </trkpt>
      <trkpt lat="59.97744" lon="17.7390418">
        <ele>31.8607</ele>
        <time>2013-03-17T11:55:14Z</time>
      </trkpt>
      <trkpt lat="59.9774759" lon="17.7390311">
        <ele>31.8607</ele>
        <time>2013-03-17T11:55:15Z</time>
      </trkpt>
      <trkpt lat="59.9775106" lon="17.7390211">
        <ele>32.3416</ele>
        <time>2013-03-17T11:55:16Z</time>
      </trkpt>
      <trkpt lat="59.9775451" lon="17.7390146">
        <ele>32.3416</ele>
        <time>2013-03-17T11:55:17Z</time>
      </trkpt>
      <trkpt lat="59.977582" lon="17.7390149">
        <ele>32.8223</ele>
        <time>2013-03-17T11:55:18Z</time>
      </trkpt>
      <trkpt lat="59.9776178" lon="17.7390158">
        <ele>33.3029</ele>
        <time>2013-03-17T11:55:19Z</time>
      </trkpt>
      <trkpt lat="59.9776539" lon="17.739018">
        <ele>33.7834</ele>
        <time>2013-03-17T11:55:20Z</time>
      </trkpt>
      <trkpt lat="59.9776901" lon="17.7390245">
        <ele>34.2642</ele>
        <time>2013-03-17T11:55:21Z</time>
      </trkpt>
      <trkpt lat="59.9777266" lon="17.7390347">
        <ele>34.7449</ele>
        <time>2013-03-17T11:55:22Z</time>
      </trkpt>
      <trkpt lat="59.9777634" lon="17.7390466">
        <ele>35.2255</ele>
        <time>2013-03-17T11:55:23Z</time>
      </trkpt>
      <trkpt lat="59.9778006" lon="17.7390596">
        <ele>35.2255</ele>
        <time>2013-03-17T11:55:24Z</time>
      </trkpt>
      <trkpt lat="59.9778388" lon="17.7390751">
        <ele>35.7061</ele>
        <time>2013-03-17T11:55:25Z</time>
      </trkpt>
      <trkpt lat="59.9778773" lon="17.7390938">
        <ele>35.7061</ele>
        <time>2013-03-17T11:55:26Z</time>
      </trkpt>
      <trkpt lat="59.9779146" lon="17.7391143">
        <ele>36.1868</ele>
        <time>2013-03-17T11:55:27Z</time>
      </trkpt>
      <trkpt lat="59.9779549" lon="17.7391327">
        <ele>36.6675</ele>
        <time>2013-03-17T11:55:28Z</time>
      </trkpt>
      <trkpt lat="59.9779939" lon="17.7391529">
        <ele>37.1481</ele>
        <time>2013-03-17T11:55:29Z</time>
      </trkpt>
      <trkpt lat="59.9780335" lon="17.739173">
        <ele>37.1481</ele>
        <time>2013-03-17T11:55:30Z</time>
      </trkpt>
      <trkpt lat="59.9780737" lon="17.7391887">
        <ele>37.6287</ele>
        <time>2013-03-17T11:55:31Z</time>
      </trkpt>
      <trkpt lat="59.9781143" lon="17.7392031">
        <ele>37.6287</ele>
        <time>2013-03-17T11:55:32Z</time>
      </trkpt>
      <trkpt lat="59.9781539" lon="17.7392165">
        <ele>38.1094</ele>
        <time>2013-03-17T11:55:33Z</time>
      </trkpt>
      <trkpt lat="59.9781915" lon="17.739226">
        <ele>38.1094</ele>
        <time>2013-03-17T11:55:34Z</time>
      </trkpt>
      <trkpt lat="59.97823" lon="17.7392357">
        <ele>38.1094</ele>
        <time>2013-03-17T11:55:35Z</time>
      </trkpt>
      <trkpt lat="59.9782673" lon="17.7392477">
        <ele>38.1094</ele>
        <time>2013-03-17T11:55:36Z</time>
      </trkpt>
      <trkpt lat="59.9783031" lon="17.7392591">
        <ele>38.1094</ele>
        <time>2013-03-17T11:55:37Z</time>
      </trkpt>
      <trkpt lat="59.9783373" lon="17.7392637">
        <ele>38.1094</ele>
        <time>2013-03-17T11:55:38Z</time>
      </trkpt>
      <trkpt lat="59.9783705" lon="17.73927">
        <ele>38.1094</ele>
        <time>2013-03-17T11:55:39Z</time>
      </trkpt>
      <trkpt lat="59.9784051" lon="17.7392807">
        <ele>38.1094</ele>
        <time>2013-03-17T11:55:40Z</time>
      </trkpt>
      <trkpt lat="59.9784398" lon="17.7392885">
        <ele>37.6287</ele>
        <time>2013-03-17T11:55:41Z</time>
      </trkpt>
      <trkpt lat="59.978475" lon="17.7392943">
        <ele>37.6287</ele>
        <time>2013-03-17T11:55:42Z</time>
      </trkpt>
      <trkpt lat="59.9785116" lon="17.7393002">
        <ele>37.6287</ele>
        <time>2013-03-17T11:55:43Z</time>
      </trkpt>
      <trkpt lat="59.9785492" lon="17.7393065">
        <ele>37.6287</ele>
        <time>2013-03-17T11:55:44Z</time>
      </trkpt>
      <trkpt lat="59.9785868" lon="17.7393129">
        <ele>37.1481</ele>
        <time>2013-03-17T11:55:45Z</time>
      </trkpt>
      <trkpt lat="59.9786245" lon="17.7393176">
        <ele>37.1481</ele>
        <time>2013-03-17T11:55:46Z</time>
      </trkpt>
      <trkpt lat="59.9786626" lon="17.739321">
        <ele>36.6675</ele>
        <time>2013-03-17T11:55:47Z</time>
      </trkpt>
      <trkpt lat="59.9787014" lon="17.739323">
        <ele>36.6675</ele>
        <time>2013-03-17T11:55:48Z</time>
      </trkpt>
      <trkpt lat="59.9787388" lon="17.7393239">
        <ele>36.6675</ele>
        <time>2013-03-17T11:55:49Z</time>
      </trkpt>
      <trkpt lat="59.9787756" lon="17.7393217">
        <ele>36.1868</ele>
        <time>2013-03-17T11:55:50Z</time>
      </trkpt>
      <trkpt lat="59.9788101" lon="17.739317">
        <ele>36.1868</ele>
        <time>2013-03-17T11:55:51Z</time>
      </trkpt>
      <trkpt lat="59.9788362" lon="17.7393122">
        <ele>36.1868</ele>
        <time>2013-03-17T11:55:52Z</time>
      </trkpt>
      <trkpt lat="59.9788542" lon="17.7393142">
        <ele>35.7061</ele>
        <time>2013-03-17T11:55:53Z</time>
      </trkpt>
      <trkpt lat="59.9788672" lon="17.7393196">
        <ele>35.7061</ele>
        <time>2013-03-17T11:55:54Z</time>
      </trkpt>
      <trkpt lat="59.9788748" lon="17.7393268">
        <ele>35.7061</ele>
        <time>2013-03-17T11:55:55Z</time>
      </trkpt>
      <trkpt lat="59.9788778" lon="17.739331">
        <ele>35.7061</ele>
        <time>2013-03-17T11:55:56Z</time>
      </trkpt>
      <trkpt lat="59.9788789" lon="17.7393339">
        <ele>35.7061</ele>
        <time>2013-03-17T11:55:57Z</time>
      </trkpt>
    </trkseg>
  </trk>
</gpx>